<?xml version="1.0" encoding="UTF-8" standalone="no" ?><gpx xmlns="http://www.topografix.com/GPX/1/1" xmlns:gpxx="http://www.garmin.com/xmlschemas/GpxExtensions/v3" xmlns:wptx1="http://www.garmin.com/xmlschemas/WaypointExtension/v1" xmlns:gpxtpx="http://www.garmin.com/xmlschemas/TrackPointExtension/v1" creator="GuideVTT.com" version="1.1" xmlns:xsi="http://www.w3.org/2001/XMLSchema-instance" xsi:schemaLocation="http://www.topografix.com/GPX/1/1 http://www.topografix.com/GPX/1/1/gpx.xsd http://www.garmin.com/xmlschemas/GpxExtensions/v3 http://www8.garmin.com/xmlschemas/GpxExtensionsv3.xsd http://www.garmin.com/xmlschemas/WaypointExtension/v1 http://www8.garmin.com/xmlschemas/WaypointExtensionv1.xsd http://www.garmin.com/xmlschemas/TrackPointExtension/v1 http://www.garmin.com/xmlschemas/TrackPointExtensionv1.xsd">
<metadata><link href="http://www.garmin.com"><text>Garmin International</text></link><time>2013-06-22T15:13:50Z</time></metadata>
<trk><name>sombrun.gpx</name><extensions><gpxx:TrackExtension><gpxx:DisplayColor>Cyan</gpxx:DisplayColor></gpxx:TrackExtension></extensions><trkseg>
<trkpt lat="1.306305" lon="302.8"><ele></ele><time>2014-5-9T14:37:42Z</time></trkpt>
<trkpt lat="1.306086" lon="301.6"><ele></ele><time>2014-5-9T14:37:45Z</time></trkpt>
<trkpt lat="1.305691" lon="300.8"><ele></ele><time>2014-5-9T14:37:48Z</time></trkpt>
<trkpt lat="1.305090" lon="301.0"><ele></ele><time>2014-5-9T14:37:51Z</time></trkpt>
<trkpt lat="1.304391" lon="301.1"><ele></ele><time>2014-5-9T14:37:54Z</time></trkpt>
<trkpt lat="1.303566" lon="302.9"><ele></ele><time>2014-5-9T14:37:57Z</time></trkpt>
<trkpt lat="1.302942" lon="303.8"><ele></ele><time>2014-5-9T14:38:0Z</time></trkpt>
<trkpt lat="1.302542" lon="304.7"><ele></ele><time>2014-5-9T14:38:3Z</time></trkpt>
<trkpt lat="1.302338" lon="306.3"><ele></ele><time>2014-5-9T14:38:6Z</time></trkpt>
<trkpt lat="1.301922" lon="306.2"><ele></ele><time>2014-5-9T14:38:9Z</time></trkpt>
<trkpt lat="1.301390" lon="305.4"><ele></ele><time>2014-5-9T14:38:12Z</time></trkpt>
<trkpt lat="1.300837" lon="304.8"><ele></ele><time>2014-5-9T14:38:15Z</time></trkpt>
<trkpt lat="1.300207" lon="304.9"><ele></ele><time>2014-5-9T14:38:18Z</time></trkpt>
<trkpt lat="1.299550" lon="305.7"><ele></ele><time>2014-5-9T14:38:21Z</time></trkpt>
<trkpt lat="1.298945" lon="307.1"><ele></ele><time>2014-5-9T14:38:24Z</time></trkpt>
<trkpt lat="1.298335" lon="306.9"><ele></ele><time>2014-5-9T14:38:27Z</time></trkpt>
<trkpt lat="1.297725" lon="307.7"><ele></ele><time>2014-5-9T14:38:30Z</time></trkpt>
<trkpt lat="1.297020" lon="309.6"><ele></ele><time>2014-5-9T14:38:33Z</time></trkpt>
<trkpt lat="1.296247" lon="310.1"><ele></ele><time>2014-5-9T14:38:36Z</time></trkpt>
<trkpt lat="1.295549" lon="310.4"><ele></ele><time>2014-5-9T14:38:39Z</time></trkpt>
<trkpt lat="1.295055" lon="310.1"><ele></ele><time>2014-5-9T14:38:42Z</time></trkpt>
<trkpt lat="1.294500" lon="309.6"><ele></ele><time>2014-5-9T14:38:45Z</time></trkpt>
<trkpt lat="1.293809" lon="308.4"><ele></ele><time>2014-5-9T14:38:48Z</time></trkpt>
<trkpt lat="1.293266" lon="307.2"><ele></ele><time>2014-5-9T14:38:51Z</time></trkpt>
<trkpt lat="1.292691" lon="307.3"><ele></ele><time>2014-5-9T14:38:54Z</time></trkpt>
<trkpt lat="1.292196" lon="308.4"><ele></ele><time>2014-5-9T14:38:57Z</time></trkpt>
<trkpt lat="1.291790" lon="308.8"><ele></ele><time>2014-5-9T14:39:0Z</time></trkpt>
<trkpt lat="1.291304" lon="309.3"><ele></ele><time>2014-5-9T14:39:3Z</time></trkpt>
<trkpt lat="1.290811" lon="309.8"><ele></ele><time>2014-5-9T14:39:6Z</time></trkpt>
<trkpt lat="1.290644" lon="310.2"><ele></ele><time>2014-5-9T14:39:9Z</time></trkpt>
<trkpt lat="1.290236" lon="311.4"><ele></ele><time>2014-5-9T14:39:12Z</time></trkpt>
<trkpt lat="1.289786" lon="311.9"><ele></ele><time>2014-5-9T14:39:15Z</time></trkpt>
<trkpt lat="1.289327" lon="312.0"><ele></ele><time>2014-5-9T14:39:18Z</time></trkpt>
<trkpt lat="1.288762" lon="311.1"><ele></ele><time>2014-5-9T14:39:21Z</time></trkpt>
<trkpt lat="1.288074" lon="310.9"><ele></ele><time>2014-5-9T14:39:24Z</time></trkpt>
<trkpt lat="1.287454" lon="309.9"><ele></ele><time>2014-5-9T14:39:27Z</time></trkpt>
<trkpt lat="1.286857" lon="308.8"><ele></ele><time>2014-5-9T14:39:30Z</time></trkpt>
<trkpt lat="1.286279" lon="308.3"><ele></ele><time>2014-5-9T14:39:33Z</time></trkpt>
<trkpt lat="1.285729" lon="309.3"><ele></ele><time>2014-5-9T14:39:36Z</time></trkpt>
<trkpt lat="1.285501" lon="309.5"><ele></ele><time>2014-5-9T14:39:39Z</time></trkpt>
<trkpt lat="1.285286" lon="312.6"><ele></ele><time>2014-5-9T14:39:42Z</time></trkpt>
<trkpt lat="1.285137" lon="309.9"><ele></ele><time>2014-5-9T14:39:45Z</time></trkpt>
<trkpt lat="1.284941" lon="313.0"><ele></ele><time>2014-5-9T14:39:48Z</time></trkpt>
<trkpt lat="1.284516" lon="313.6"><ele></ele><time>2014-5-9T14:39:51Z</time></trkpt>
<trkpt lat="1.283850" lon="313.3"><ele></ele><time>2014-5-9T14:39:54Z</time></trkpt>
<trkpt lat="1.283249" lon="312.5"><ele></ele><time>2014-5-9T14:39:57Z</time></trkpt>
<trkpt lat="1.282657" lon="312.6"><ele></ele><time>2014-5-9T14:40:0Z</time></trkpt>
<trkpt lat="1.282080" lon="313.2"><ele></ele><time>2014-5-9T14:40:3Z</time></trkpt>
<trkpt lat="1.281469" lon="314.2"><ele></ele><time>2014-5-9T14:40:6Z</time></trkpt>
<trkpt lat="1.280900" lon="314.9"><ele></ele><time>2014-5-9T14:40:9Z</time></trkpt>
<trkpt lat="1.280481" lon="315.0"><ele></ele><time>2014-5-9T14:40:12Z</time></trkpt>
<trkpt lat="1.280273" lon="320.3"><ele></ele><time>2014-5-9T14:40:15Z</time></trkpt>
<trkpt lat="1.279808" lon="319.0"><ele></ele><time>2014-5-9T14:40:18Z</time></trkpt>
<trkpt lat="1.279368" lon="318.6"><ele></ele><time>2014-5-9T14:40:21Z</time></trkpt>
<trkpt lat="1.278978" lon="318.6"><ele></ele><time>2014-5-9T14:40:24Z</time></trkpt>
<trkpt lat="1.278547" lon="319.3"><ele></ele><time>2014-5-9T14:40:27Z</time></trkpt>
<trkpt lat="1.278109" lon="319.9"><ele></ele><time>2014-5-9T14:40:30Z</time></trkpt>
<trkpt lat="1.277572" lon="320.0"><ele></ele><time>2014-5-9T14:40:33Z</time></trkpt>
<trkpt lat="1.277030" lon="321.2"><ele></ele><time>2014-5-9T14:40:36Z</time></trkpt>
<trkpt lat="1.276537" lon="323.3"><ele></ele><time>2014-5-9T14:40:39Z</time></trkpt>
<trkpt lat="1.276033" lon="325.6"><ele></ele><time>2014-5-9T14:40:42Z</time></trkpt>
<trkpt lat="1.275536" lon="328.6"><ele></ele><time>2014-5-9T14:40:45Z</time></trkpt>
<trkpt lat="1.275352" lon="329.3"><ele></ele><time>2014-5-9T14:40:48Z</time></trkpt>
<trkpt lat="1.275608" lon="329.4"><ele></ele><time>2014-5-9T14:40:51Z</time></trkpt>
<trkpt lat="1.276077" lon="329.3"><ele></ele><time>2014-5-9T14:40:54Z</time></trkpt>
<trkpt lat="1.276665" lon="328.4"><ele></ele><time>2014-5-9T14:40:57Z</time></trkpt>
<trkpt lat="1.277323" lon="326.3"><ele></ele><time>2014-5-9T14:41:0Z</time></trkpt>
<trkpt lat="1.277636" lon="324.3"><ele></ele><time>2014-5-9T14:41:3Z</time></trkpt>
<trkpt lat="1.277529" lon="319.4"><ele></ele><time>2014-5-9T14:41:6Z</time></trkpt>
<trkpt lat="1.277372" lon="320.3"><ele></ele><time>2014-5-9T14:41:9Z</time></trkpt>
<trkpt lat="1.277126" lon="320.5"><ele></ele><time>2014-5-9T14:41:12Z</time></trkpt>
<trkpt lat="1.276844" lon="319.7"><ele></ele><time>2014-5-9T14:41:15Z</time></trkpt>
<trkpt lat="1.276530" lon="318.6"><ele></ele><time>2014-5-9T14:41:18Z</time></trkpt>
<trkpt lat="1.276265" lon="319.2"><ele></ele><time>2014-5-9T14:41:21Z</time></trkpt>
<trkpt lat="1.276097" lon="320.6"><ele></ele><time>2014-5-9T14:41:24Z</time></trkpt>
<trkpt lat="1.275745" lon="320.6"><ele></ele><time>2014-5-9T14:41:27Z</time></trkpt>
<trkpt lat="1.275416" lon="320.4"><ele></ele><time>2014-5-9T14:41:30Z</time></trkpt>
<trkpt lat="1.275326" lon="318.9"><ele></ele><time>2014-5-9T14:41:33Z</time></trkpt>
<trkpt lat="1.275255" lon="317.8"><ele></ele><time>2014-5-9T14:41:36Z</time></trkpt>
<trkpt lat="1.275468" lon="317.0"><ele></ele><time>2014-5-9T14:41:39Z</time></trkpt>
<trkpt lat="1.275760" lon="316.4"><ele></ele><time>2014-5-9T14:41:42Z</time></trkpt>
<trkpt lat="1.276180" lon="317.3"><ele></ele><time>2014-5-9T14:41:45Z</time></trkpt>
<trkpt lat="1.276736" lon="320.3"><ele></ele><time>2014-5-9T14:41:48Z</time></trkpt>
<trkpt lat="1.277373" lon="322.6"><ele></ele><time>2014-5-9T14:41:51Z</time></trkpt>
<trkpt lat="1.278220" lon="321.9"><ele></ele><time>2014-5-9T14:41:54Z</time></trkpt>
<trkpt lat="1.279259" lon="323.0"><ele></ele><time>2014-5-9T14:41:57Z</time></trkpt>
<trkpt lat="1.280209" lon="322.4"><ele></ele><time>2014-5-9T14:42:0Z</time></trkpt>
<trkpt lat="1.280902" lon="322.1"><ele></ele><time>2014-5-9T14:42:3Z</time></trkpt>
<trkpt lat="1.281327" lon="322.3"><ele></ele><time>2014-5-9T14:42:6Z</time></trkpt>
<trkpt lat="1.281532" lon="322.1"><ele></ele><time>2014-5-9T14:42:9Z</time></trkpt>
<trkpt lat="1.281990" lon="322.1"><ele></ele><time>2014-5-9T14:42:12Z</time></trkpt>
<trkpt lat="1.282548" lon="321.5"><ele></ele><time>2014-5-9T14:42:15Z</time></trkpt>
<trkpt lat="1.283199" lon="320.5"><ele></ele><time>2014-5-9T14:42:18Z</time></trkpt>
<trkpt lat="1.283479" lon="323.5"><ele></ele><time>2014-5-9T14:42:21Z</time></trkpt>
<trkpt lat="1.283292" lon="326.6"><ele></ele><time>2014-5-9T14:42:24Z</time></trkpt>
<trkpt lat="1.283173" lon="325.0"><ele></ele><time>2014-5-9T14:42:27Z</time></trkpt>
<trkpt lat="1.283038" lon="323.6"><ele></ele><time>2014-5-9T14:42:30Z</time></trkpt>
<trkpt lat="1.282873" lon="322.3"><ele></ele><time>2014-5-9T14:42:33Z</time></trkpt>
<trkpt lat="1.282711" lon="323.5"><ele></ele><time>2014-5-9T14:42:36Z</time></trkpt>
<trkpt lat="1.282579" lon="326.2"><ele></ele><time>2014-5-9T14:42:39Z</time></trkpt>
<trkpt lat="1.282493" lon="329.8"><ele></ele><time>2014-5-9T14:42:42Z</time></trkpt>
<trkpt lat="1.282379" lon="330.1"><ele></ele><time>2014-5-9T14:42:45Z</time></trkpt>
<trkpt lat="1.282263" lon="331.5"><ele></ele><time>2014-5-9T14:42:48Z</time></trkpt>
<trkpt lat="1.282154" lon="333.7"><ele></ele><time>2014-5-9T14:42:51Z</time></trkpt>
<trkpt lat="1.282075" lon="346.3"><ele></ele><time>2014-5-9T14:42:54Z</time></trkpt>
<trkpt lat="1.281857" lon="347.7"><ele></ele><time>2014-5-9T14:42:57Z</time></trkpt>
<trkpt lat="1.281588" lon="347.8"><ele></ele><time>2014-5-9T14:43:0Z</time></trkpt>
<trkpt lat="1.281311" lon="348.5"><ele></ele><time>2014-5-9T14:43:3Z</time></trkpt>
<trkpt lat="1.281054" lon="349.6"><ele></ele><time>2014-5-9T14:43:6Z</time></trkpt>
<trkpt lat="1.281175" lon="350.1"><ele></ele><time>2014-5-9T14:43:9Z</time></trkpt>
<trkpt lat="1.281335" lon="350.9"><ele></ele><time>2014-5-9T14:43:12Z</time></trkpt>
<trkpt lat="1.281514" lon="352.8"><ele></ele><time>2014-5-9T14:43:15Z</time></trkpt>
<trkpt lat="1.281677" lon="355.1"><ele></ele><time>2014-5-9T14:43:18Z</time></trkpt>
<trkpt lat="1.281537" lon="359.5"><ele></ele><time>2014-5-9T14:43:21Z</time></trkpt>
<trkpt lat="1.281183" lon="355.4"><ele></ele><time>2014-5-9T14:43:24Z</time></trkpt>
<trkpt lat="1.281937" lon="351.2"><ele></ele><time>2014-5-9T14:43:27Z</time></trkpt>
<trkpt lat="1.282325" lon="348.4"><ele></ele><time>2014-5-9T14:43:30Z</time></trkpt>
<trkpt lat="1.282858" lon="343.5"><ele></ele><time>2014-5-9T14:43:33Z</time></trkpt>
<trkpt lat="1.283261" lon="340.3"><ele></ele><time>2014-5-9T14:43:36Z</time></trkpt>
<trkpt lat="1.283469" lon="340.0"><ele></ele><time>2014-5-9T14:43:39Z</time></trkpt>
<trkpt lat="1.283939" lon="334.9"><ele></ele><time>2014-5-9T14:43:42Z</time></trkpt>
<trkpt lat="1.284308" lon="332.6"><ele></ele><time>2014-5-9T14:43:45Z</time></trkpt>
<trkpt lat="1.284752" lon="332.0"><ele></ele><time>2014-5-9T14:43:48Z</time></trkpt>
<trkpt lat="1.285259" lon="330.6"><ele></ele><time>2014-5-9T14:43:51Z</time></trkpt>
<trkpt lat="1.285738" lon="331.2"><ele></ele><time>2014-5-9T14:43:54Z</time></trkpt>
<trkpt lat="1.286188" lon="331.2"><ele></ele><time>2014-5-9T14:43:57Z</time></trkpt>
<trkpt lat="1.286638" lon="331.5"><ele></ele><time>2014-5-9T14:44:0Z</time></trkpt>
<trkpt lat="1.286926" lon="332.9"><ele></ele><time>2014-5-9T14:44:3Z</time></trkpt>
<trkpt lat="1.286921" lon="336.2"><ele></ele><time>2014-5-9T14:44:6Z</time></trkpt>
<trkpt lat="1.286701" lon="339.4"><ele></ele><time>2014-5-9T14:44:9Z</time></trkpt>
<trkpt lat="1.286472" lon="341.2"><ele></ele><time>2014-5-9T14:44:12Z</time></trkpt>
<trkpt lat="1.286202" lon="341.7"><ele></ele><time>2014-5-9T14:44:15Z</time></trkpt>
<trkpt lat="1.286029" lon="341.8"><ele></ele><time>2014-5-9T14:44:18Z</time></trkpt>
<trkpt lat="1.285824" lon="343.3"><ele></ele><time>2014-5-9T14:44:21Z</time></trkpt>
<trkpt lat="1.285615" lon="343.3"><ele></ele><time>2014-5-9T14:44:24Z</time></trkpt>
<trkpt lat="1.285199" lon="343.4"><ele></ele><time>2014-5-9T14:44:27Z</time></trkpt>
<trkpt lat="1.284680" lon="343.3"><ele></ele><time>2014-5-9T14:44:30Z</time></trkpt>
<trkpt lat="1.284281" lon="342.6"><ele></ele><time>2014-5-9T14:44:33Z</time></trkpt>
<trkpt lat="1.284065" lon="342.6"><ele></ele><time>2014-5-9T14:44:36Z</time></trkpt>
<trkpt lat="1.283725" lon="344.2"><ele></ele><time>2014-5-9T14:44:39Z</time></trkpt>
<trkpt lat="1.283368" lon="345.6"><ele></ele><time>2014-5-9T14:44:42Z</time></trkpt>
<trkpt lat="1.283043" lon="346.3"><ele></ele><time>2014-5-9T14:44:45Z</time></trkpt>
<trkpt lat="1.282675" lon="347.1"><ele></ele><time>2014-5-9T14:44:48Z</time></trkpt>
<trkpt lat="1.282426" lon="348.3"><ele></ele><time>2014-5-9T14:44:51Z</time></trkpt>
<trkpt lat="1.282254" lon="350.4"><ele></ele><time>2014-5-9T14:44:54Z</time></trkpt>
<trkpt lat="1.282128" lon="351.2"><ele></ele><time>2014-5-9T14:44:57Z</time></trkpt>
<trkpt lat="1.282101" lon="350.8"><ele></ele><time>2014-5-9T14:45:0Z</time></trkpt>
<trkpt lat="1.282257" lon="348.2"><ele></ele><time>2014-5-9T14:45:3Z</time></trkpt>
<trkpt lat="1.282374" lon="346.5"><ele></ele><time>2014-5-9T14:45:6Z</time></trkpt>
<trkpt lat="1.282544" lon="347.0"><ele></ele><time>2014-5-9T14:45:9Z</time></trkpt>
<trkpt lat="1.282658" lon="348.3"><ele></ele><time>2014-5-9T14:45:12Z</time></trkpt>
<trkpt lat="1.282746" lon="346.0"><ele></ele><time>2014-5-9T14:45:15Z</time></trkpt>
<trkpt lat="1.282879" lon="345.9"><ele></ele><time>2014-5-9T14:45:18Z</time></trkpt>
<trkpt lat="1.282909" lon="348.4"><ele></ele><time>2014-5-9T14:45:21Z</time></trkpt>
<trkpt lat="1.282763" lon="350.9"><ele></ele><time>2014-5-9T14:45:24Z</time></trkpt>
<trkpt lat="1.282594" lon="352.2"><ele></ele><time>2014-5-9T14:45:27Z</time></trkpt>
<trkpt lat="1.282626" lon="356.7"><ele></ele><time>2014-5-9T14:45:30Z</time></trkpt>
<trkpt lat="1.282615" lon="360.3"><ele></ele><time>2014-5-9T14:45:33Z</time></trkpt>
<trkpt lat="1.282502" lon="362.4"><ele></ele><time>2014-5-9T14:45:36Z</time></trkpt>
<trkpt lat="1.282397" lon="365.6"><ele></ele><time>2014-5-9T14:45:39Z</time></trkpt>
<trkpt lat="1.282385" lon="366.3"><ele></ele><time>2014-5-9T14:45:42Z</time></trkpt>
<trkpt lat="1.282431" lon="365.6"><ele></ele><time>2014-5-9T14:45:45Z</time></trkpt>
<trkpt lat="1.282387" lon="367.4"><ele></ele><time>2014-5-9T14:45:48Z</time></trkpt>
<trkpt lat="1.282408" lon="366.0"><ele></ele><time>2014-5-9T14:45:51Z</time></trkpt>
<trkpt lat="1.282290" lon="366.9"><ele></ele><time>2014-5-9T14:45:54Z</time></trkpt>
<trkpt lat="1.282343" lon="379.2"><ele></ele><time>2014-5-9T14:45:57Z</time></trkpt>
<trkpt lat="1.282398" lon="375.8"><ele></ele><time>2014-5-9T14:46:0Z</time></trkpt>
<trkpt lat="1.282329" lon="373.9"><ele></ele><time>2014-5-9T14:46:3Z</time></trkpt>
<trkpt lat="1.282103" lon="372.1"><ele></ele><time>2014-5-9T14:46:6Z</time></trkpt>
<trkpt lat="1.281976" lon="370.1"><ele></ele><time>2014-5-9T14:46:9Z</time></trkpt>
<trkpt lat="1.281806" lon="368.4"><ele></ele><time>2014-5-9T14:46:12Z</time></trkpt>
<trkpt lat="1.281445" lon="366.8"><ele></ele><time>2014-5-9T14:46:15Z</time></trkpt>
<trkpt lat="1.281054" lon="365.9"><ele></ele><time>2014-5-9T14:46:18Z</time></trkpt>
<trkpt lat="1.281303" lon="365.6"><ele></ele><time>2014-5-9T14:46:21Z</time></trkpt>
<trkpt lat="1.281513" lon="364.5"><ele></ele><time>2014-5-9T14:46:24Z</time></trkpt>
<trkpt lat="1.281739" lon="362.5"><ele></ele><time>2014-5-9T14:46:27Z</time></trkpt>
<trkpt lat="1.282029" lon="360.9"><ele></ele><time>2014-5-9T14:46:30Z</time></trkpt>
<trkpt lat="1.282238" lon="360.8"><ele></ele><time>2014-5-9T14:46:33Z</time></trkpt>
<trkpt lat="1.282482" lon="361.0"><ele></ele><time>2014-5-9T14:46:36Z</time></trkpt>
<trkpt lat="1.282760" lon="360.4"><ele></ele><time>2014-5-9T14:46:39Z</time></trkpt>
<trkpt lat="1.283205" lon="360.6"><ele></ele><time>2014-5-9T14:46:42Z</time></trkpt>
<trkpt lat="1.283693" lon="361.4"><ele></ele><time>2014-5-9T14:46:45Z</time></trkpt>
<trkpt lat="1.284062" lon="360.7"><ele></ele><time>2014-5-9T14:46:48Z</time></trkpt>
<trkpt lat="1.284252" lon="360.8"><ele></ele><time>2014-5-9T14:46:51Z</time></trkpt>
<trkpt lat="1.284439" lon="361.2"><ele></ele><time>2014-5-9T14:46:54Z</time></trkpt>
<trkpt lat="1.284673" lon="360.1"><ele></ele><time>2014-5-9T14:46:57Z</time></trkpt>
<trkpt lat="1.284923" lon="360.3"><ele></ele><time>2014-5-9T14:47:0Z</time></trkpt>
<trkpt lat="1.285180" lon="361.8"><ele></ele><time>2014-5-9T14:47:3Z</time></trkpt>
<trkpt lat="1.285495" lon="363.8"><ele></ele><time>2014-5-9T14:47:6Z</time></trkpt>
<trkpt lat="1.285728" lon="365.7"><ele></ele><time>2014-5-9T14:47:9Z</time></trkpt>
<trkpt lat="1.285878" lon="382.4"><ele></ele><time>2014-5-9T14:47:12Z</time></trkpt>
<trkpt lat="1.286110" lon="382.6"><ele></ele><time>2014-5-9T14:47:15Z</time></trkpt>
<trkpt lat="1.286248" lon="387.0"><ele></ele><time>2014-5-9T14:47:18Z</time></trkpt>
<trkpt lat="1.286401" lon="390.8"><ele></ele><time>2014-5-9T14:47:21Z</time></trkpt>
<trkpt lat="1.286579" lon="392.9"><ele></ele><time>2014-5-9T14:47:24Z</time></trkpt>
<trkpt lat="1.286739" lon="394.6"><ele></ele><time>2014-5-9T14:47:27Z</time></trkpt>
<trkpt lat="1.286927" lon="394.8"><ele></ele><time>2014-5-9T14:47:30Z</time></trkpt>
<trkpt lat="1.287155" lon="396.7"><ele></ele><time>2014-5-9T14:47:33Z</time></trkpt>
<trkpt lat="1.287383" lon="398.0"><ele></ele><time>2014-5-9T14:47:36Z</time></trkpt>
<trkpt lat="1.287522" lon="400.3"><ele></ele><time>2014-5-9T14:47:39Z</time></trkpt>
<trkpt lat="1.287657" lon="406.5"><ele></ele><time>2014-5-9T14:47:42Z</time></trkpt>
<trkpt lat="1.288016" lon="403.3"><ele></ele><time>2014-5-9T14:47:45Z</time></trkpt>
<trkpt lat="1.288368" lon="402.9"><ele></ele><time>2014-5-9T14:47:48Z</time></trkpt>
<trkpt lat="1.288662" lon="404.2"><ele></ele><time>2014-5-9T14:47:51Z</time></trkpt>
<trkpt lat="1.288758" lon="408.2"><ele></ele><time>2014-5-9T14:47:54Z</time></trkpt>
<trkpt lat="1.288653" lon="410.4"><ele></ele><time>2014-5-9T14:47:57Z</time></trkpt>
<trkpt lat="1.288560" lon="412.1"><ele></ele><time>2014-5-9T14:48:0Z</time></trkpt>
<trkpt lat="1.288415" lon="415.9"><ele></ele><time>2014-5-9T14:48:3Z</time></trkpt>
<trkpt lat="1.288312" lon="417.4"><ele></ele><time>2014-5-9T14:48:6Z</time></trkpt>
<trkpt lat="1.288228" lon="418.1"><ele></ele><time>2014-5-9T14:48:9Z</time></trkpt>
<trkpt lat="1.288024" lon="420.2"><ele></ele><time>2014-5-9T14:48:12Z</time></trkpt>
<trkpt lat="1.287800" lon="422.6"><ele></ele><time>2014-5-9T14:48:15Z</time></trkpt>
<trkpt lat="1.287549" lon="423.5"><ele></ele><time>2014-5-9T14:48:18Z</time></trkpt>
<trkpt lat="1.287331" lon="427.9"><ele></ele><time>2014-5-9T14:48:21Z</time></trkpt>
<trkpt lat="1.287158" lon="431.8"><ele></ele><time>2014-5-9T14:48:24Z</time></trkpt>
<trkpt lat="1.286991" lon="432.8"><ele></ele><time>2014-5-9T14:48:27Z</time></trkpt>
<trkpt lat="1.286854" lon="435.0"><ele></ele><time>2014-5-9T14:48:30Z</time></trkpt>
<trkpt lat="1.286707" lon="441.2"><ele></ele><time>2014-5-9T14:48:33Z</time></trkpt>
<trkpt lat="1.286604" lon="442.5"><ele></ele><time>2014-5-9T14:48:36Z</time></trkpt>
<trkpt lat="1.286788" lon="453.5"><ele></ele><time>2014-5-9T14:48:39Z</time></trkpt>
<trkpt lat="1.286997" lon="453.7"><ele></ele><time>2014-5-9T14:48:42Z</time></trkpt>
<trkpt lat="1.287237" lon="454.0"><ele></ele><time>2014-5-9T14:48:45Z</time></trkpt>
<trkpt lat="1.287429" lon="456.1"><ele></ele><time>2014-5-9T14:48:48Z</time></trkpt>
<trkpt lat="1.287689" lon="457.7"><ele></ele><time>2014-5-9T14:48:51Z</time></trkpt>
<trkpt lat="1.287884" lon="457.3"><ele></ele><time>2014-5-9T14:48:54Z</time></trkpt>
<trkpt lat="1.288126" lon="458.4"><ele></ele><time>2014-5-9T14:48:57Z</time></trkpt>
<trkpt lat="1.288383" lon="460.4"><ele></ele><time>2014-5-9T14:49:0Z</time></trkpt>
<trkpt lat="1.288686" lon="461.6"><ele></ele><time>2014-5-9T14:49:3Z</time></trkpt>
<trkpt lat="1.289016" lon="465.6"><ele></ele><time>2014-5-9T14:49:6Z</time></trkpt>
<trkpt lat="1.289328" lon="467.4"><ele></ele><time>2014-5-9T14:49:9Z</time></trkpt>
<trkpt lat="1.289630" lon="469.4"><ele></ele><time>2014-5-9T14:49:12Z</time></trkpt>
<trkpt lat="1.289926" lon="470.9"><ele></ele><time>2014-5-9T14:49:15Z</time></trkpt>
<trkpt lat="1.290226" lon="472.5"><ele></ele><time>2014-5-9T14:49:18Z</time></trkpt>
<trkpt lat="1.290460" lon="474.2"><ele></ele><time>2014-5-9T14:49:21Z</time></trkpt>
<trkpt lat="1.290642" lon="476.2"><ele></ele><time>2014-5-9T14:49:24Z</time></trkpt>
<trkpt lat="1.290752" lon="477.8"><ele></ele><time>2014-5-9T14:49:27Z</time></trkpt>
<trkpt lat="1.290931" lon="492.9"><ele></ele><time>2014-5-9T14:49:30Z</time></trkpt>
<trkpt lat="1.291297" lon="491.9"><ele></ele><time>2014-5-9T14:49:33Z</time></trkpt>
<trkpt lat="1.291660" lon="493.7"><ele></ele><time>2014-5-9T14:49:36Z</time></trkpt>
<trkpt lat="1.291919" lon="494.1"><ele></ele><time>2014-5-9T14:49:39Z</time></trkpt>
<trkpt lat="1.292233" lon="494.9"><ele></ele><time>2014-5-9T14:49:42Z</time></trkpt>
<trkpt lat="1.292616" lon="496.1"><ele></ele><time>2014-5-9T14:49:45Z</time></trkpt>
<trkpt lat="1.293042" lon="496.8"><ele></ele><time>2014-5-9T14:49:48Z</time></trkpt>
<trkpt lat="1.293431" lon="496.8"><ele></ele><time>2014-5-9T14:49:51Z</time></trkpt>
<trkpt lat="1.293637" lon="498.9"><ele></ele><time>2014-5-9T14:49:54Z</time></trkpt>
<trkpt lat="1.293818" lon="498.5"><ele></ele><time>2014-5-9T14:49:57Z</time></trkpt>
<trkpt lat="1.293985" lon="499.5"><ele></ele><time>2014-5-9T14:50:0Z</time></trkpt>
<trkpt lat="1.294615" lon="497.4"><ele></ele><time>2014-5-9T14:50:3Z</time></trkpt>
<trkpt lat="1.295093" lon="494.0"><ele></ele><time>2014-5-9T14:50:6Z</time></trkpt>
<trkpt lat="1.295554" lon="494.3"><ele></ele><time>2014-5-9T14:50:9Z</time></trkpt>
<trkpt lat="1.296044" lon="495.4"><ele></ele><time>2014-5-9T14:50:12Z</time></trkpt>
<trkpt lat="1.296288" lon="495.8"><ele></ele><time>2014-5-9T14:50:15Z</time></trkpt>
<trkpt lat="1.296472" lon="497.2"><ele></ele><time>2014-5-9T14:50:18Z</time></trkpt>
<trkpt lat="1.296751" lon="498.1"><ele></ele><time>2014-5-9T14:50:21Z</time></trkpt>
<trkpt lat="1.296915" lon="500.5"><ele></ele><time>2014-5-9T14:50:24Z</time></trkpt>
<trkpt lat="1.296848" lon="502.7"><ele></ele><time>2014-5-9T14:50:27Z</time></trkpt>
<trkpt lat="1.296787" lon="506.9"><ele></ele><time>2014-5-9T14:50:30Z</time></trkpt>
<trkpt lat="1.296729" lon="507.0"><ele></ele><time>2014-5-9T14:50:33Z</time></trkpt>
<trkpt lat="1.296883" lon="506.2"><ele></ele><time>2014-5-9T14:50:36Z</time></trkpt>
<trkpt lat="1.297111" lon="505.9"><ele></ele><time>2014-5-9T14:50:39Z</time></trkpt>
<trkpt lat="1.297154" lon="503.3"><ele></ele><time>2014-5-9T14:50:42Z</time></trkpt>
<trkpt lat="1.297217" lon="501.6"><ele></ele><time>2014-5-9T14:50:45Z</time></trkpt>
<trkpt lat="1.297509" lon="500.1"><ele></ele><time>2014-5-9T14:50:48Z</time></trkpt>
<trkpt lat="1.297685" lon="500.4"><ele></ele><time>2014-5-9T14:50:51Z</time></trkpt>
<trkpt lat="1.298033" lon="496.6"><ele></ele><time>2014-5-9T14:50:54Z</time></trkpt>
<trkpt lat="1.298366" lon="494.6"><ele></ele><time>2014-5-9T14:50:57Z</time></trkpt>
<trkpt lat="1.298588" lon="489.3"><ele></ele><time>2014-5-9T14:51:0Z</time></trkpt>
<trkpt lat="1.299076" lon="487.3"><ele></ele><time>2014-5-9T14:51:3Z</time></trkpt>
<trkpt lat="1.299423" lon="486.7"><ele></ele><time>2014-5-9T14:51:6Z</time></trkpt>
<trkpt lat="1.299891" lon="485.7"><ele></ele><time>2014-5-9T14:51:9Z</time></trkpt>
<trkpt lat="1.300302" lon="483.6"><ele></ele><time>2014-5-9T14:51:12Z</time></trkpt>
<trkpt lat="1.300720" lon="482.0"><ele></ele><time>2014-5-9T14:51:15Z</time></trkpt>
<trkpt lat="1.301125" lon="479.5"><ele></ele><time>2014-5-9T14:51:18Z</time></trkpt>
<trkpt lat="1.301351" lon="480.8"><ele></ele><time>2014-5-9T14:51:21Z</time></trkpt>
<trkpt lat="1.302315" lon="476.4"><ele></ele><time>2014-5-9T14:51:24Z</time></trkpt>
<trkpt lat="1.303300" lon="474.6"><ele></ele><time>2014-5-9T14:51:27Z</time></trkpt>
<trkpt lat="1.303639" lon="473.2"><ele></ele><time>2014-5-9T14:51:30Z</time></trkpt>
<trkpt lat="1.303849" lon="472.7"><ele></ele><time>2014-5-9T14:51:33Z</time></trkpt>
<trkpt lat="1.304250" lon="473.0"><ele></ele><time>2014-5-9T14:51:36Z</time></trkpt>
<trkpt lat="1.304865" lon="473.0"><ele></ele><time>2014-5-9T14:51:39Z</time></trkpt>
<trkpt lat="1.305816" lon="471.0"><ele></ele><time>2014-5-9T14:51:42Z</time></trkpt>
<trkpt lat="1.306137" lon="468.2"><ele></ele><time>2014-5-9T14:51:45Z</time></trkpt>
<trkpt lat="1.306740" lon="464.6"><ele></ele><time>2014-5-9T14:51:48Z</time></trkpt>
<trkpt lat="1.306179" lon="461.5"><ele></ele><time>2014-5-9T14:51:51Z</time></trkpt>
<trkpt lat="1.305520" lon="458.8"><ele></ele><time>2014-5-9T14:51:54Z</time></trkpt>
<trkpt lat="1.305251" lon="455.8"><ele></ele><time>2014-5-9T14:51:57Z</time></trkpt>
<trkpt lat="1.305085" lon="452.7"><ele></ele><time>2014-5-9T14:52:0Z</time></trkpt>
<trkpt lat="1.305292" lon="445.2"><ele></ele><time>2014-5-9T14:52:3Z</time></trkpt>
<trkpt lat="1.305764" lon="445.2"><ele></ele><time>2014-5-9T14:52:6Z</time></trkpt>
<trkpt lat="1.306160" lon="446.8"><ele></ele><time>2014-5-9T14:52:9Z</time></trkpt>
<trkpt lat="1.306447" lon="447.9"><ele></ele><time>2014-5-9T14:52:12Z</time></trkpt>
<trkpt lat="1.306633" lon="453.8"><ele></ele><time>2014-5-9T14:52:15Z</time></trkpt>
<trkpt lat="1.306696" lon="453.4"><ele></ele><time>2014-5-9T14:52:18Z</time></trkpt>
<trkpt lat="1.306305" lon="454.8"><ele></ele><time>2014-5-9T14:52:21Z</time></trkpt>
<trkpt lat="1.306111" lon="456.7"><ele></ele><time>2014-5-9T14:52:24Z</time></trkpt>
<trkpt lat="1.306340" lon="458.7"><ele></ele><time>2014-5-9T14:52:27Z</time></trkpt>
<trkpt lat="1.306727" lon="458.9"><ele></ele><time>2014-5-9T14:52:30Z</time></trkpt>
<trkpt lat="1.307201" lon="458.0"><ele></ele><time>2014-5-9T14:52:33Z</time></trkpt>
<trkpt lat="1.308097" lon="457.2"><ele></ele><time>2014-5-9T14:52:36Z</time></trkpt>
<trkpt lat="1.308293" lon="454.3"><ele></ele><time>2014-5-9T14:52:39Z</time></trkpt>
<trkpt lat="1.308318" lon="452.6"><ele></ele><time>2014-5-9T14:52:42Z</time></trkpt>
<trkpt lat="1.308314" lon="450.4"><ele></ele><time>2014-5-9T14:52:45Z</time></trkpt>
<trkpt lat="1.308295" lon="448.7"><ele></ele><time>2014-5-9T14:52:48Z</time></trkpt>
<trkpt lat="1.308419" lon="444.5"><ele></ele><time>2014-5-9T14:52:51Z</time></trkpt>
<trkpt lat="1.308545" lon="437.8"><ele></ele><time>2014-5-9T14:52:54Z</time></trkpt>
<trkpt lat="1.308684" lon="433.0"><ele></ele><time>2014-5-9T14:52:57Z</time></trkpt>
<trkpt lat="1.308845" lon="425.5"><ele></ele><time>2014-5-9T14:53:0Z</time></trkpt>
<trkpt lat="1.308985" lon="421.3"><ele></ele><time>2014-5-9T14:53:3Z</time></trkpt>
<trkpt lat="1.309166" lon="418.8"><ele></ele><time>2014-5-9T14:53:6Z</time></trkpt>
<trkpt lat="1.309341" lon="415.5"><ele></ele><time>2014-5-9T14:53:9Z</time></trkpt>
<trkpt lat="1.309620" lon="414.4"><ele></ele><time>2014-5-9T14:53:12Z</time></trkpt>
<trkpt lat="1.309793" lon="412.6"><ele></ele><time>2014-5-9T14:53:15Z</time></trkpt>
<trkpt lat="1.309947" lon="410.6"><ele></ele><time>2014-5-9T14:53:18Z</time></trkpt>
<trkpt lat="1.310147" lon="409.1"><ele></ele><time>2014-5-9T14:53:21Z</time></trkpt>
<trkpt lat="1.310298" lon="408.6"><ele></ele><time>2014-5-9T14:53:24Z</time></trkpt>
<trkpt lat="1.310628" lon="408.9"><ele></ele><time>2014-5-9T14:53:27Z</time></trkpt>
<trkpt lat="1.310986" lon="408.5"><ele></ele><time>2014-5-9T14:53:30Z</time></trkpt>
<trkpt lat="1.311395" lon="409.5"><ele></ele><time>2014-5-9T14:53:33Z</time></trkpt>
<trkpt lat="1.312135" lon="406.7"><ele></ele><time>2014-5-9T14:53:36Z</time></trkpt>
<trkpt lat="1.313057" lon="403.9"><ele></ele><time>2014-5-9T14:53:39Z</time></trkpt>
<trkpt lat="1.313881" lon="400.5"><ele></ele><time>2014-5-9T14:53:42Z</time></trkpt>
<trkpt lat="1.314744" lon="396.5"><ele></ele><time>2014-5-9T14:53:45Z</time></trkpt>
<trkpt lat="1.315729" lon="392.6"><ele></ele><time>2014-5-9T14:53:48Z</time></trkpt>
<trkpt lat="1.316591" lon="387.5"><ele></ele><time>2014-5-9T14:53:51Z</time></trkpt>
<trkpt lat="1.317575" lon="389.6"><ele></ele><time>2014-5-9T14:53:54Z</time></trkpt>
<trkpt lat="1.318519" lon="392.0"><ele></ele><time>2014-5-9T14:53:57Z</time></trkpt>
<trkpt lat="1.319518" lon="387.2"><ele></ele><time>2014-5-9T14:54:0Z</time></trkpt>
<trkpt lat="1.320233" lon="386.1"><ele></ele><time>2014-5-9T14:54:3Z</time></trkpt>
<trkpt lat="1.320989" lon="384.9"><ele></ele><time>2014-5-9T14:54:6Z</time></trkpt>
<trkpt lat="1.321360" lon="385.3"><ele></ele><time>2014-5-9T14:54:9Z</time></trkpt>
<trkpt lat="1.321596" lon="385.7"><ele></ele><time>2014-5-9T14:54:12Z</time></trkpt>
<trkpt lat="1.321771" lon="385.6"><ele></ele><time>2014-5-9T14:54:15Z</time></trkpt>
<trkpt lat="1.321923" lon="385.7"><ele></ele><time>2014-5-9T14:54:18Z</time></trkpt>
<trkpt lat="1.321735" lon="385.3"><ele></ele><time>2014-5-9T14:54:21Z</time></trkpt>
<trkpt lat="1.321408" lon="384.3"><ele></ele><time>2014-5-9T14:54:24Z</time></trkpt>
<trkpt lat="1.321087" lon="384.7"><ele></ele><time>2014-5-9T14:54:27Z</time></trkpt>
<trkpt lat="1.320619" lon="384.4"><ele></ele><time>2014-5-9T14:54:30Z</time></trkpt>
<trkpt lat="1.320015" lon="384.3"><ele></ele><time>2014-5-9T14:54:33Z</time></trkpt>
<trkpt lat="1.319682" lon="384.0"><ele></ele><time>2014-5-9T14:54:36Z</time></trkpt>
<trkpt lat="1.320052" lon="380.1"><ele></ele><time>2014-5-9T14:54:39Z</time></trkpt>
<trkpt lat="1.319746" lon="378.3"><ele></ele><time>2014-5-9T14:54:42Z</time></trkpt>
<trkpt lat="1.319847" lon="375.8"><ele></ele><time>2014-5-9T14:54:45Z</time></trkpt>
<trkpt lat="1.320035" lon="374.6"><ele></ele><time>2014-5-9T14:54:48Z</time></trkpt>
<trkpt lat="1.319352" lon="375.4"><ele></ele><time>2014-5-9T14:54:51Z</time></trkpt>
<trkpt lat="1.319022" lon="377.0"><ele></ele><time>2014-5-9T14:54:54Z</time></trkpt>
<trkpt lat="1.318755" lon="378.6"><ele></ele><time>2014-5-9T14:54:57Z</time></trkpt>
<trkpt lat="1.318509" lon="379.6"><ele></ele><time>2014-5-9T14:55:0Z</time></trkpt>
<trkpt lat="1.318223" lon="379.1"><ele></ele><time>2014-5-9T14:55:3Z</time></trkpt>
<trkpt lat="1.318453" lon="379.9"><ele></ele><time>2014-5-9T14:55:6Z</time></trkpt>
<trkpt lat="1.318892" lon="379.6"><ele></ele><time>2014-5-9T14:55:9Z</time></trkpt>
<trkpt lat="1.319635" lon="378.5"><ele></ele><time>2014-5-9T14:55:12Z</time></trkpt>
<trkpt lat="1.320377" lon="375.2"><ele></ele><time>2014-5-9T14:55:15Z</time></trkpt>
<trkpt lat="1.320397" lon="373.8"><ele></ele><time>2014-5-9T14:55:18Z</time></trkpt>
<trkpt lat="1.320200" lon="373.3"><ele></ele><time>2014-5-9T14:55:21Z</time></trkpt>
<trkpt lat="1.319549" lon="371.7"><ele></ele><time>2014-5-9T14:55:24Z</time></trkpt>
<trkpt lat="1.318650" lon="369.1"><ele></ele><time>2014-5-9T14:55:27Z</time></trkpt>
<trkpt lat="1.318060" lon="365.0"><ele></ele><time>2014-5-9T14:55:30Z</time></trkpt>
<trkpt lat="1.317429" lon="361.3"><ele></ele><time>2014-5-9T14:55:33Z</time></trkpt>
<trkpt lat="1.316609" lon="355.6"><ele></ele><time>2014-5-9T14:55:36Z</time></trkpt>
<trkpt lat="1.315639" lon="351.1"><ele></ele><time>2014-5-9T14:55:39Z</time></trkpt>
<trkpt lat="1.314820" lon="346.1"><ele></ele><time>2014-5-9T14:55:42Z</time></trkpt>
<trkpt lat="1.314095" lon="342.6"><ele></ele><time>2014-5-9T14:55:45Z</time></trkpt>
<trkpt lat="1.313467" lon="338.7"><ele></ele><time>2014-5-9T14:55:48Z</time></trkpt>
<trkpt lat="1.313378" lon="331.9"><ele></ele><time>2014-5-9T14:55:51Z</time></trkpt>
<trkpt lat="1.313320" lon="329.7"><ele></ele><time>2014-5-9T14:55:54Z</time></trkpt>
<trkpt lat="1.313243" lon="328.7"><ele></ele><time>2014-5-9T14:55:57Z</time></trkpt>
<trkpt lat="1.313187" lon="328.4"><ele></ele><time>2014-5-9T14:56:0Z</time></trkpt>
<trkpt lat="1.313265" lon="329.7"><ele></ele><time>2014-5-9T14:56:3Z</time></trkpt>
<trkpt lat="1.313374" lon="330.3"><ele></ele><time>2014-5-9T14:56:6Z</time></trkpt>
<trkpt lat="1.313439" lon="328.8"><ele></ele><time>2014-5-9T14:56:9Z</time></trkpt>
<trkpt lat="1.313507" lon="330.8"><ele></ele><time>2014-5-9T14:56:12Z</time></trkpt>
<trkpt lat="1.313376" lon="318.4"><ele></ele><time>2014-5-9T14:56:15Z</time></trkpt>
<trkpt lat="1.313395" lon="318.3"><ele></ele><time>2014-5-9T14:56:18Z</time></trkpt>
<trkpt lat="1.313390" lon="317.8"><ele></ele><time>2014-5-9T14:56:21Z</time></trkpt>
<trkpt lat="1.313475" lon="318.7"><ele></ele><time>2014-5-9T14:56:24Z</time></trkpt>
<trkpt lat="1.313613" lon="317.7"><ele></ele><time>2014-5-9T14:56:27Z</time></trkpt>
<trkpt lat="1.313721" lon="319.5"><ele></ele><time>2014-5-9T14:56:30Z</time></trkpt>
<trkpt lat="1.313808" lon="318.8"><ele></ele><time>2014-5-9T14:56:33Z</time></trkpt>
<trkpt lat="1.314096" lon="317.4"><ele></ele><time>2014-5-9T14:56:36Z</time></trkpt>
<trkpt lat="1.314286" lon="315.4"><ele></ele><time>2014-5-9T14:56:39Z</time></trkpt>
<trkpt lat="1.314453" lon="315.0"><ele></ele><time>2014-5-9T14:56:42Z</time></trkpt>
<trkpt lat="1.314703" lon="314.3"><ele></ele><time>2014-5-9T14:56:45Z</time></trkpt>
<trkpt lat="1.314969" lon="312.6"><ele></ele><time>2014-5-9T14:56:48Z</time></trkpt>
<trkpt lat="1.315071" lon="311.8"><ele></ele><time>2014-5-9T14:56:51Z</time></trkpt>
<trkpt lat="1.315364" lon="311.7"><ele></ele><time>2014-5-9T14:56:54Z</time></trkpt>
<trkpt lat="1.315690" lon="310.0"><ele></ele><time>2014-5-9T14:56:57Z</time></trkpt>
<trkpt lat="1.315940" lon="311.5"><ele></ele><time>2014-5-9T14:57:0Z</time></trkpt>
<trkpt lat="1.316220" lon="310.5"><ele></ele><time>2014-5-9T14:57:3Z</time></trkpt>
<trkpt lat="1.316402" lon="310.8"><ele></ele><time>2014-5-9T14:57:6Z</time></trkpt>
<trkpt lat="1.316610" lon="312.6"><ele></ele><time>2014-5-9T14:57:9Z</time></trkpt>
<trkpt lat="1.316970" lon="312.9"><ele></ele><time>2014-5-9T14:57:12Z</time></trkpt>
<trkpt lat="1.317219" lon="312.8"><ele></ele><time>2014-5-9T14:57:15Z</time></trkpt>
<trkpt lat="1.317623" lon="312.1"><ele></ele><time>2014-5-9T14:57:18Z</time></trkpt>
<trkpt lat="1.318139" lon="311.3"><ele></ele><time>2014-5-9T14:57:21Z</time></trkpt>
<trkpt lat="1.318856" lon="308.1"><ele></ele><time>2014-5-9T14:57:24Z</time></trkpt>
<trkpt lat="1.319543" lon="306.8"><ele></ele><time>2014-5-9T14:57:27Z</time></trkpt>
<trkpt lat="1.319949" lon="306.7"><ele></ele><time>2014-5-9T14:57:30Z</time></trkpt>
<trkpt lat="1.320396" lon="305.9"><ele></ele><time>2014-5-9T14:57:33Z</time></trkpt>
<trkpt lat="1.320786" lon="304.2"><ele></ele><time>2014-5-9T14:57:36Z</time></trkpt>
<trkpt lat="1.320989" lon="301.7"><ele></ele><time>2014-5-9T14:57:39Z</time></trkpt>
<trkpt lat="1.321507" lon="302.4"><ele></ele><time>2014-5-9T14:57:42Z</time></trkpt>
<trkpt lat="1.322113" lon="303.6"><ele></ele><time>2014-5-9T14:57:45Z</time></trkpt>
<trkpt lat="1.322703" lon="304.2"><ele></ele><time>2014-5-9T14:57:48Z</time></trkpt>
<trkpt lat="1.323213" lon="305.0"><ele></ele><time>2014-5-9T14:57:51Z</time></trkpt>
<trkpt lat="1.323796" lon="305.2"><ele></ele><time>2014-5-9T14:57:54Z</time></trkpt>
<trkpt lat="1.324488" lon="305.5"><ele></ele><time>2014-5-9T14:57:57Z</time></trkpt>
<trkpt lat="1.325094" lon="305.4"><ele></ele><time>2014-5-9T14:58:0Z</time></trkpt>
<trkpt lat="1.325675" lon="305.7"><ele></ele><time>2014-5-9T14:58:3Z</time></trkpt>
<trkpt lat="1.326278" lon="305.8"><ele></ele><time>2014-5-9T14:58:6Z</time></trkpt>
<trkpt lat="1.326551" lon="306.4"><ele></ele><time>2014-5-9T14:58:9Z</time></trkpt>
<trkpt lat="1.326859" lon="307.4"><ele></ele><time>2014-5-9T14:58:12Z</time></trkpt>
<trkpt lat="1.327157" lon="308.7"><ele></ele><time>2014-5-9T14:58:15Z</time></trkpt>
<trkpt lat="1.327458" lon="310.4"><ele></ele><time>2014-5-9T14:58:18Z</time></trkpt>
<trkpt lat="1.327750" lon="312.5"><ele></ele><time>2014-5-9T14:58:21Z</time></trkpt>
<trkpt lat="1.327978" lon="314.6"><ele></ele><time>2014-5-9T14:58:24Z</time></trkpt>
<trkpt lat="1.328287" lon="316.4"><ele></ele><time>2014-5-9T14:58:27Z</time></trkpt>
<trkpt lat="1.328561" lon="317.5"><ele></ele><time>2014-5-9T14:58:30Z</time></trkpt>
<trkpt lat="1.328761" lon="318.9"><ele></ele><time>2014-5-9T14:58:33Z</time></trkpt>
<trkpt lat="1.329312" lon="318.1"><ele></ele><time>2014-5-9T14:58:36Z</time></trkpt>
<trkpt lat="1.329753" lon="318.0"><ele></ele><time>2014-5-9T14:58:39Z</time></trkpt>
<trkpt lat="1.329948" lon="317.3"><ele></ele><time>2014-5-9T14:58:42Z</time></trkpt>
<trkpt lat="1.330446" lon="314.3"><ele></ele><time>2014-5-9T14:58:45Z</time></trkpt>
<trkpt lat="1.331406" lon="309.9"><ele></ele><time>2014-5-9T14:58:48Z</time></trkpt>
<trkpt lat="1.332968" lon="309.3"><ele></ele><time>2014-5-9T14:58:51Z</time></trkpt>
<trkpt lat="1.333968" lon="306.8"><ele></ele><time>2014-5-9T14:58:54Z</time></trkpt>
<trkpt lat="1.334433" lon="305.6"><ele></ele><time>2014-5-9T14:58:57Z</time></trkpt>
<trkpt lat="1.334574" lon="305.7"><ele></ele><time>2014-5-9T14:59:0Z</time></trkpt>
<trkpt lat="1.334917" lon="305.4"><ele></ele><time>2014-5-9T14:59:3Z</time></trkpt>
<trkpt lat="1.335235" lon="305.1"><ele></ele><time>2014-5-9T14:59:6Z</time></trkpt>
<trkpt lat="1.335650" lon="304.7"><ele></ele><time>2014-5-9T14:59:9Z</time></trkpt>
<trkpt lat="1.336222" lon="303.8"><ele></ele><time>2014-5-9T14:59:12Z</time></trkpt>
<trkpt lat="1.336812" lon="303.9"><ele></ele><time>2014-5-9T14:59:15Z</time></trkpt>
<trkpt lat="1.337401" lon="306.0"><ele></ele><time>2014-5-9T14:59:18Z</time></trkpt>
<trkpt lat="1.337654" lon="308.0"><ele></ele><time>2014-5-9T14:59:21Z</time></trkpt>
<trkpt lat="1.338040" lon="307.4"><ele></ele><time>2014-5-9T14:59:24Z</time></trkpt>
<trkpt lat="1.338529" lon="308.5"><ele></ele><time>2014-5-9T14:59:27Z</time></trkpt>
<trkpt lat="1.338725" lon="310.9"><ele></ele><time>2014-5-9T14:59:30Z</time></trkpt>
<trkpt lat="1.338473" lon="311.4"><ele></ele><time>2014-5-9T14:59:33Z</time></trkpt>
<trkpt lat="1.338198" lon="314.9"><ele></ele><time>2014-5-9T14:59:36Z</time></trkpt>
<trkpt lat="1.337624" lon="318.5"><ele></ele><time>2014-5-9T14:59:39Z</time></trkpt>
<trkpt lat="1.336871" lon="318.1"><ele></ele><time>2014-5-9T14:59:42Z</time></trkpt>
<trkpt lat="1.336581" lon="321.9"><ele></ele><time>2014-5-9T14:59:45Z</time></trkpt>
<trkpt lat="1.335835" lon="316.5"><ele></ele><time>2014-5-9T14:59:48Z</time></trkpt>
<trkpt lat="1.335550" lon="319.6"><ele></ele><time>2014-5-9T14:59:51Z</time></trkpt>
<trkpt lat="1.335117" lon="323.0"><ele></ele><time>2014-5-9T14:59:54Z</time></trkpt>
<trkpt lat="1.334335" lon="319.5"><ele></ele><time>2014-5-9T14:59:57Z</time></trkpt>
<trkpt lat="1.333332" lon="312.5"><ele></ele><time>2014-5-9T15:0:0Z</time></trkpt>
<trkpt lat="1.332259" lon="309.9"><ele></ele><time>2014-5-9T15:0:3Z</time></trkpt>
<trkpt lat="1.331190" lon="307.9"><ele></ele><time>2014-5-9T15:0:6Z</time></trkpt>
<trkpt lat="1.330218" lon="306.9"><ele></ele><time>2014-5-9T15:0:9Z</time></trkpt>
<trkpt lat="1.329320" lon="306.7"><ele></ele><time>2014-5-9T15:0:12Z</time></trkpt>
<trkpt lat="1.328474" lon="305.9"><ele></ele><time>2014-5-9T15:0:15Z</time></trkpt>
<trkpt lat="1.327734" lon="305.7"><ele></ele><time>2014-5-9T15:0:18Z</time></trkpt>
<trkpt lat="1.327394" lon="304.9"><ele></ele><time>2014-5-9T15:0:21Z</time></trkpt>
<trkpt lat="1.327200" lon="305.2"><ele></ele><time>2014-5-9T15:0:24Z</time></trkpt>
<trkpt lat="1.326635" lon="304.5"><ele></ele><time>2014-5-9T15:0:27Z</time></trkpt>
<trkpt lat="1.325918" lon="304.4"><ele></ele><time>2014-5-9T15:0:30Z</time></trkpt>
<trkpt lat="1.325162" lon="305.4"><ele></ele><time>2014-5-9T15:0:33Z</time></trkpt>
<trkpt lat="1.324364" lon="304.8"><ele></ele><time>2014-5-9T15:0:36Z</time></trkpt>
<trkpt lat="1.323563" lon="304.0"><ele></ele><time>2014-5-9T15:0:39Z</time></trkpt>
<trkpt lat="1.322717" lon="303.1"><ele></ele><time>2014-5-9T15:0:42Z</time></trkpt>
<trkpt lat="1.321976" lon="303.0"><ele></ele><time>2014-5-9T15:0:45Z</time></trkpt>
<trkpt lat="1.321467" lon="303.5"><ele></ele><time>2014-5-9T15:0:48Z</time></trkpt>
<trkpt lat="1.321107" lon="302.1"><ele></ele><time>2014-5-9T15:0:51Z</time></trkpt>
<trkpt lat="1.320838" lon="302.9"><ele></ele><time>2014-5-9T15:0:54Z</time></trkpt>
<trkpt lat="1.320750" lon="304.5"><ele></ele><time>2014-5-9T15:0:57Z</time></trkpt>
<trkpt lat="1.320816" lon="304.5"><ele></ele><time>2014-5-9T15:1:0Z</time></trkpt>
<trkpt lat="1.320738" lon="305.0"><ele></ele><time>2014-5-9T15:1:3Z</time></trkpt>
<trkpt lat="1.320555" lon="304.7"><ele></ele><time>2014-5-9T15:1:6Z</time></trkpt>
<trkpt lat="1.320090" lon="304.6"><ele></ele><time>2014-5-9T15:1:9Z</time></trkpt>
<trkpt lat="1.319766" lon="304.8"><ele></ele><time>2014-5-9T15:1:12Z</time></trkpt>
<trkpt lat="1.319619" lon="305.0"><ele></ele><time>2014-5-9T15:1:15Z</time></trkpt>
<trkpt lat="1.319373" lon="304.9"><ele></ele><time>2014-5-9T15:1:18Z</time></trkpt>
<trkpt lat="1.318995" lon="304.3"><ele></ele><time>2014-5-9T15:1:21Z</time></trkpt>
<trkpt lat="1.318615" lon="304.5"><ele></ele><time>2014-5-9T15:1:24Z</time></trkpt>
<trkpt lat="1.318459" lon="304.1"><ele></ele><time>2014-5-9T15:1:27Z</time></trkpt>
<trkpt lat="1.318316" lon="303.1"><ele></ele><time>2014-5-9T15:1:30Z</time></trkpt>
<trkpt lat="1.318168" lon="302.1"><ele></ele><time>2014-5-9T15:1:33Z</time></trkpt>
<trkpt lat="1.317827" lon="302.1"><ele></ele><time>2014-5-9T15:1:36Z</time></trkpt>
<trkpt lat="1.317293" lon="301.0"><ele></ele><time>2014-5-9T15:1:39Z</time></trkpt>
<trkpt lat="1.316663" lon="301.2"><ele></ele><time>2014-5-9T15:1:42Z</time></trkpt>
<trkpt lat="1.316043" lon="301.0"><ele></ele><time>2014-5-9T15:1:45Z</time></trkpt>
<trkpt lat="1.315423" lon="301.6"><ele></ele><time>2014-5-9T15:1:48Z</time></trkpt>
<trkpt lat="1.314722" lon="300.7"><ele></ele><time>2014-5-9T15:1:51Z</time></trkpt>
<trkpt lat="1.313964" lon="300.1"><ele></ele><time>2014-5-9T15:1:54Z</time></trkpt>
<trkpt lat="1.313283" lon="300.7"><ele></ele><time>2014-5-9T15:1:57Z</time></trkpt>
<trkpt lat="1.312625" lon="300.8"><ele></ele><time>2014-5-9T15:2:0Z</time></trkpt>
<trkpt lat="1.312032" lon="300.3"><ele></ele><time>2014-5-9T15:2:3Z</time></trkpt>
<trkpt lat="1.311394" lon="299.5"><ele></ele><time>2014-5-9T15:2:6Z</time></trkpt>
<trkpt lat="1.310745" lon="299.8"><ele></ele><time>2014-5-9T15:2:9Z</time></trkpt>
<trkpt lat="1.310119" lon="300.8"><ele></ele><time>2014-5-9T15:2:12Z</time></trkpt>
<trkpt lat="1.309798" lon="300.7"><ele></ele><time>2014-5-9T15:2:15Z</time></trkpt>
<trkpt lat="1.309466" lon="300.9"><ele></ele><time>2014-5-9T15:2:18Z</time></trkpt>
<trkpt lat="1.309071" lon="301.7"><ele></ele><time>2014-5-9T15:2:21Z</time></trkpt>
<trkpt lat="1.308767" lon="301.3"><ele></ele><time>2014-5-9T15:2:24Z</time></trkpt>
<trkpt lat="1.308439" lon="299.7"><ele></ele><time>2014-5-9T15:2:27Z</time></trkpt>
<trkpt lat="1.308410" lon="300.3"><ele></ele><time>2014-5-9T15:2:30Z</time></trkpt>
<trkpt lat="1.308440" lon="301.8"><ele></ele><time>2014-5-9T15:2:33Z</time></trkpt>
<trkpt lat="1.308178" lon="300.9"><ele></ele><time>2014-5-9T15:2:36Z</time></trkpt>
<trkpt lat="1.308246" lon="302.4"><ele></ele><time>2014-5-9T15:2:39Z</time></trkpt>
<trkpt lat="1.308038" lon="302.5"><ele></ele><time>2014-5-9T15:2:42Z</time></trkpt>
<trkpt lat="1.307950" lon="303.2"><ele></ele><time>2014-5-9T15:2:45Z</time></trkpt>
<trkpt lat="1.307598" lon="303.4"><ele></ele><time>2014-5-9T15:2:48Z</time></trkpt>
<trkpt lat="1.307142" lon="304.2"><ele></ele><time>2014-5-9T15:2:51Z</time></trkpt>
<trkpt lat="1.306837" lon="304.7"><ele></ele><time>2014-5-9T15:2:54Z</time></trkpt>
<trkpt lat="1.306623" lon="297.9"><ele></ele><time>2014-5-9T15:2:57Z</time></trkpt>
<trkpt lat="1.306607" lon="296.8"><ele></ele><time>2014-5-9T15:3:0Z</time></trkpt>
<trkpt lat="" lon="1"><ele></ele><time>2014-5-9T15:3:3Z</time></trkpt>
<trkpt lat="1.307783" lon="294.5"><ele></ele><time>2014-5-9T15:3:6Z</time></trkpt>
<trkpt lat="1.306570" lon="294.5"><ele></ele><time>2014-5-9T15:3:9Z</time></trkpt>
<trkpt lat="1.306412" lon="303.9"><ele></ele><time>2014-5-9T15:3:12Z</time></trkpt>
<trkpt lat="1.306305" lon="302.8"><ele></ele><time>2014-5-9T15:3:15Z</time></trkpt>
<trkpt lat="1.306086" lon="301.6"><ele></ele><time>2014-5-9T15:3:18Z</time></trkpt>
<trkpt lat="1.305691" lon="300.8"><ele></ele><time>2014-5-9T15:3:21Z</time></trkpt>
<trkpt lat="1.305090" lon="301.0"><ele></ele><time>2014-5-9T15:3:24Z</time></trkpt>
<trkpt lat="1.304391" lon="301.1"><ele></ele><time>2014-5-9T15:3:27Z</time></trkpt>
<trkpt lat="1.303566" lon="302.9"><ele></ele><time>2014-5-9T15:3:30Z</time></trkpt>
<trkpt lat="1.302942" lon="303.8"><ele></ele><time>2014-5-9T15:3:33Z</time></trkpt>
<trkpt lat="1.302542" lon="304.7"><ele></ele><time>2014-5-9T15:3:36Z</time></trkpt>
<trkpt lat="1.302338" lon="306.3"><ele></ele><time>2014-5-9T15:3:39Z</time></trkpt>
<trkpt lat="1.301922" lon="306.2"><ele></ele><time>2014-5-9T15:3:42Z</time></trkpt>
<trkpt lat="1.301390" lon="305.4"><ele></ele><time>2014-5-9T15:3:45Z</time></trkpt>
<trkpt lat="1.300837" lon="304.8"><ele></ele><time>2014-5-9T15:3:48Z</time></trkpt>
<trkpt lat="1.300207" lon="304.9"><ele></ele><time>2014-5-9T15:3:51Z</time></trkpt>
<trkpt lat="1.299550" lon="305.7"><ele></ele><time>2014-5-9T15:3:54Z</time></trkpt>
<trkpt lat="1.298945" lon="307.1"><ele></ele><time>2014-5-9T15:3:57Z</time></trkpt>
<trkpt lat="1.298335" lon="306.9"><ele></ele><time>2014-5-9T15:4:0Z</time></trkpt>
<trkpt lat="1.297725" lon="307.7"><ele></ele><time>2014-5-9T15:4:3Z</time></trkpt>
<trkpt lat="1.297020" lon="309.6"><ele></ele><time>2014-5-9T15:4:6Z</time></trkpt>
<trkpt lat="1.296247" lon="310.1"><ele></ele><time>2014-5-9T15:4:9Z</time></trkpt>
<trkpt lat="1.295549" lon="310.4"><ele></ele><time>2014-5-9T15:4:12Z</time></trkpt>
<trkpt lat="1.295055" lon="310.1"><ele></ele><time>2014-5-9T15:4:15Z</time></trkpt>
<trkpt lat="1.294500" lon="309.6"><ele></ele><time>2014-5-9T15:4:18Z</time></trkpt>
<trkpt lat="1.293809" lon="308.4"><ele></ele><time>2014-5-9T15:4:21Z</time></trkpt>
<trkpt lat="1.293266" lon="307.2"><ele></ele><time>2014-5-9T15:4:24Z</time></trkpt>
<trkpt lat="1.292691" lon="307.3"><ele></ele><time>2014-5-9T15:4:27Z</time></trkpt>
<trkpt lat="1.292196" lon="308.4"><ele></ele><time>2014-5-9T15:4:30Z</time></trkpt>
<trkpt lat="1.291790" lon="308.8"><ele></ele><time>2014-5-9T15:4:33Z</time></trkpt>
<trkpt lat="1.291304" lon="309.3"><ele></ele><time>2014-5-9T15:4:36Z</time></trkpt>
<trkpt lat="1.290811" lon="309.8"><ele></ele><time>2014-5-9T15:4:39Z</time></trkpt>
<trkpt lat="1.290644" lon="310.2"><ele></ele><time>2014-5-9T15:4:42Z</time></trkpt>
<trkpt lat="1.290236" lon="311.4"><ele></ele><time>2014-5-9T15:4:45Z</time></trkpt>
<trkpt lat="1.289786" lon="311.9"><ele></ele><time>2014-5-9T15:4:48Z</time></trkpt>
<trkpt lat="1.289327" lon="312.0"><ele></ele><time>2014-5-9T15:4:51Z</time></trkpt>
<trkpt lat="1.288762" lon="311.1"><ele></ele><time>2014-5-9T15:4:54Z</time></trkpt>
<trkpt lat="1.288074" lon="310.9"><ele></ele><time>2014-5-9T15:4:57Z</time></trkpt>
<trkpt lat="1.287454" lon="309.9"><ele></ele><time>2014-5-9T15:5:0Z</time></trkpt>
<trkpt lat="1.286857" lon="308.8"><ele></ele><time>2014-5-9T15:5:3Z</time></trkpt>
<trkpt lat="1.286279" lon="308.3"><ele></ele><time>2014-5-9T15:5:6Z</time></trkpt>
<trkpt lat="1.285729" lon="309.3"><ele></ele><time>2014-5-9T15:5:9Z</time></trkpt>
<trkpt lat="1.285501" lon="309.5"><ele></ele><time>2014-5-9T15:5:12Z</time></trkpt>
<trkpt lat="1.285286" lon="312.6"><ele></ele><time>2014-5-9T15:5:15Z</time></trkpt>
<trkpt lat="1.285137" lon="309.9"><ele></ele><time>2014-5-9T15:5:18Z</time></trkpt>
<trkpt lat="1.284941" lon="313.0"><ele></ele><time>2014-5-9T15:5:21Z</time></trkpt>
<trkpt lat="1.284516" lon="313.6"><ele></ele><time>2014-5-9T15:5:24Z</time></trkpt>
<trkpt lat="1.283850" lon="313.3"><ele></ele><time>2014-5-9T15:5:27Z</time></trkpt>
<trkpt lat="1.283249" lon="312.5"><ele></ele><time>2014-5-9T15:5:30Z</time></trkpt>
<trkpt lat="1.282657" lon="312.6"><ele></ele><time>2014-5-9T15:5:33Z</time></trkpt>
<trkpt lat="1.282080" lon="313.2"><ele></ele><time>2014-5-9T15:5:36Z</time></trkpt>
<trkpt lat="1.281469" lon="314.2"><ele></ele><time>2014-5-9T15:5:39Z</time></trkpt>
<trkpt lat="1.280900" lon="314.9"><ele></ele><time>2014-5-9T15:5:42Z</time></trkpt>
<trkpt lat="1.280481" lon="315.0"><ele></ele><time>2014-5-9T15:5:45Z</time></trkpt>
<trkpt lat="1.280273" lon="320.3"><ele></ele><time>2014-5-9T15:5:48Z</time></trkpt>
<trkpt lat="1.279808" lon="319.0"><ele></ele><time>2014-5-9T15:5:51Z</time></trkpt>
<trkpt lat="1.279368" lon="318.6"><ele></ele><time>2014-5-9T15:5:54Z</time></trkpt>
<trkpt lat="1.278978" lon="318.6"><ele></ele><time>2014-5-9T15:5:57Z</time></trkpt>
<trkpt lat="1.278547" lon="319.3"><ele></ele><time>2014-5-9T15:6:0Z</time></trkpt>
<trkpt lat="1.278109" lon="319.9"><ele></ele><time>2014-5-9T15:6:3Z</time></trkpt>
<trkpt lat="1.277572" lon="320.0"><ele></ele><time>2014-5-9T15:6:6Z</time></trkpt>
<trkpt lat="1.277030" lon="321.2"><ele></ele><time>2014-5-9T15:6:9Z</time></trkpt>
<trkpt lat="1.276537" lon="323.3"><ele></ele><time>2014-5-9T15:6:12Z</time></trkpt>
<trkpt lat="1.276033" lon="325.6"><ele></ele><time>2014-5-9T15:6:15Z</time></trkpt>
<trkpt lat="1.275536" lon="328.6"><ele></ele><time>2014-5-9T15:6:18Z</time></trkpt>
<trkpt lat="1.275352" lon="329.3"><ele></ele><time>2014-5-9T15:6:21Z</time></trkpt>
<trkpt lat="1.275608" lon="329.4"><ele></ele><time>2014-5-9T15:6:24Z</time></trkpt>
<trkpt lat="1.276077" lon="329.3"><ele></ele><time>2014-5-9T15:6:27Z</time></trkpt>
<trkpt lat="1.276665" lon="328.4"><ele></ele><time>2014-5-9T15:6:30Z</time></trkpt>
<trkpt lat="1.277323" lon="326.3"><ele></ele><time>2014-5-9T15:6:33Z</time></trkpt>
<trkpt lat="1.277636" lon="324.3"><ele></ele><time>2014-5-9T15:6:36Z</time></trkpt>
<trkpt lat="1.277529" lon="319.4"><ele></ele><time>2014-5-9T15:6:39Z</time></trkpt>
<trkpt lat="1.277372" lon="320.3"><ele></ele><time>2014-5-9T15:6:42Z</time></trkpt>
<trkpt lat="1.277126" lon="320.5"><ele></ele><time>2014-5-9T15:6:45Z</time></trkpt>
<trkpt lat="1.276844" lon="319.7"><ele></ele><time>2014-5-9T15:6:48Z</time></trkpt>
<trkpt lat="1.276530" lon="318.6"><ele></ele><time>2014-5-9T15:6:51Z</time></trkpt>
<trkpt lat="1.276265" lon="319.2"><ele></ele><time>2014-5-9T15:6:54Z</time></trkpt>
<trkpt lat="1.276097" lon="320.6"><ele></ele><time>2014-5-9T15:6:57Z</time></trkpt>
<trkpt lat="1.275745" lon="320.6"><ele></ele><time>2014-5-9T15:7:0Z</time></trkpt>
<trkpt lat="1.275416" lon="320.4"><ele></ele><time>2014-5-9T15:7:3Z</time></trkpt>
<trkpt lat="1.275326" lon="318.9"><ele></ele><time>2014-5-9T15:7:6Z</time></trkpt>
<trkpt lat="1.275255" lon="317.8"><ele></ele><time>2014-5-9T15:7:9Z</time></trkpt>
<trkpt lat="1.275468" lon="317.0"><ele></ele><time>2014-5-9T15:7:12Z</time></trkpt>
<trkpt lat="1.275760" lon="316.4"><ele></ele><time>2014-5-9T15:7:15Z</time></trkpt>
<trkpt lat="1.276180" lon="317.3"><ele></ele><time>2014-5-9T15:7:18Z</time></trkpt>
<trkpt lat="1.276736" lon="320.3"><ele></ele><time>2014-5-9T15:7:21Z</time></trkpt>
<trkpt lat="1.277373" lon="322.6"><ele></ele><time>2014-5-9T15:7:24Z</time></trkpt>
<trkpt lat="1.278220" lon="321.9"><ele></ele><time>2014-5-9T15:7:27Z</time></trkpt>
<trkpt lat="1.279259" lon="323.0"><ele></ele><time>2014-5-9T15:7:30Z</time></trkpt>
<trkpt lat="1.280209" lon="322.4"><ele></ele><time>2014-5-9T15:7:33Z</time></trkpt>
<trkpt lat="1.280902" lon="322.1"><ele></ele><time>2014-5-9T15:7:36Z</time></trkpt>
<trkpt lat="1.281327" lon="322.3"><ele></ele><time>2014-5-9T15:7:39Z</time></trkpt>
<trkpt lat="1.281532" lon="322.1"><ele></ele><time>2014-5-9T15:7:42Z</time></trkpt>
<trkpt lat="1.281990" lon="322.1"><ele></ele><time>2014-5-9T15:7:45Z</time></trkpt>
<trkpt lat="1.282548" lon="321.5"><ele></ele><time>2014-5-9T15:7:48Z</time></trkpt>
<trkpt lat="1.283199" lon="320.5"><ele></ele><time>2014-5-9T15:7:51Z</time></trkpt>
<trkpt lat="1.283479" lon="323.5"><ele></ele><time>2014-5-9T15:7:54Z</time></trkpt>
<trkpt lat="1.283292" lon="326.6"><ele></ele><time>2014-5-9T15:7:57Z</time></trkpt>
<trkpt lat="1.283173" lon="325.0"><ele></ele><time>2014-5-9T15:8:0Z</time></trkpt>
<trkpt lat="1.283038" lon="323.6"><ele></ele><time>2014-5-9T15:8:3Z</time></trkpt>
<trkpt lat="1.282873" lon="322.3"><ele></ele><time>2014-5-9T15:8:6Z</time></trkpt>
<trkpt lat="1.282711" lon="323.5"><ele></ele><time>2014-5-9T15:8:9Z</time></trkpt>
<trkpt lat="1.282579" lon="326.2"><ele></ele><time>2014-5-9T15:8:12Z</time></trkpt>
<trkpt lat="1.282493" lon="329.8"><ele></ele><time>2014-5-9T15:8:15Z</time></trkpt>
<trkpt lat="1.282379" lon="330.1"><ele></ele><time>2014-5-9T15:8:18Z</time></trkpt>
<trkpt lat="1.282263" lon="331.5"><ele></ele><time>2014-5-9T15:8:21Z</time></trkpt>
<trkpt lat="1.282154" lon="333.7"><ele></ele><time>2014-5-9T15:8:24Z</time></trkpt>
<trkpt lat="1.282075" lon="346.3"><ele></ele><time>2014-5-9T15:8:27Z</time></trkpt>
<trkpt lat="1.281857" lon="347.7"><ele></ele><time>2014-5-9T15:8:30Z</time></trkpt>
<trkpt lat="1.281588" lon="347.8"><ele></ele><time>2014-5-9T15:8:33Z</time></trkpt>
<trkpt lat="1.281311" lon="348.5"><ele></ele><time>2014-5-9T15:8:36Z</time></trkpt>
<trkpt lat="1.281054" lon="349.6"><ele></ele><time>2014-5-9T15:8:39Z</time></trkpt>
<trkpt lat="1.281175" lon="350.1"><ele></ele><time>2014-5-9T15:8:42Z</time></trkpt>
<trkpt lat="1.281335" lon="350.9"><ele></ele><time>2014-5-9T15:8:45Z</time></trkpt>
<trkpt lat="1.281514" lon="352.8"><ele></ele><time>2014-5-9T15:8:48Z</time></trkpt>
<trkpt lat="1.281677" lon="355.1"><ele></ele><time>2014-5-9T15:8:51Z</time></trkpt>
<trkpt lat="1.281537" lon="359.5"><ele></ele><time>2014-5-9T15:8:54Z</time></trkpt>
<trkpt lat="1.281183" lon="355.4"><ele></ele><time>2014-5-9T15:8:57Z</time></trkpt>
<trkpt lat="1.281937" lon="351.2"><ele></ele><time>2014-5-9T15:9:0Z</time></trkpt>
<trkpt lat="1.282325" lon="348.4"><ele></ele><time>2014-5-9T15:9:3Z</time></trkpt>
<trkpt lat="1.282858" lon="343.5"><ele></ele><time>2014-5-9T15:9:6Z</time></trkpt>
<trkpt lat="1.283261" lon="340.3"><ele></ele><time>2014-5-9T15:9:9Z</time></trkpt>
<trkpt lat="1.283469" lon="340.0"><ele></ele><time>2014-5-9T15:9:12Z</time></trkpt>
<trkpt lat="1.283939" lon="334.9"><ele></ele><time>2014-5-9T15:9:15Z</time></trkpt>
<trkpt lat="1.284308" lon="332.6"><ele></ele><time>2014-5-9T15:9:18Z</time></trkpt>
<trkpt lat="1.284752" lon="332.0"><ele></ele><time>2014-5-9T15:9:21Z</time></trkpt>
<trkpt lat="1.285259" lon="330.6"><ele></ele><time>2014-5-9T15:9:24Z</time></trkpt>
<trkpt lat="1.285738" lon="331.2"><ele></ele><time>2014-5-9T15:9:27Z</time></trkpt>
<trkpt lat="1.286188" lon="331.2"><ele></ele><time>2014-5-9T15:9:30Z</time></trkpt>
<trkpt lat="1.286638" lon="331.5"><ele></ele><time>2014-5-9T15:9:33Z</time></trkpt>
<trkpt lat="1.286926" lon="332.9"><ele></ele><time>2014-5-9T15:9:36Z</time></trkpt>
<trkpt lat="1.286921" lon="336.2"><ele></ele><time>2014-5-9T15:9:39Z</time></trkpt>
<trkpt lat="1.286701" lon="339.4"><ele></ele><time>2014-5-9T15:9:42Z</time></trkpt>
<trkpt lat="1.286472" lon="341.2"><ele></ele><time>2014-5-9T15:9:45Z</time></trkpt>
<trkpt lat="1.286202" lon="341.7"><ele></ele><time>2014-5-9T15:9:48Z</time></trkpt>
<trkpt lat="1.286029" lon="341.8"><ele></ele><time>2014-5-9T15:9:51Z</time></trkpt>
<trkpt lat="1.285824" lon="343.3"><ele></ele><time>2014-5-9T15:9:54Z</time></trkpt>
<trkpt lat="1.285615" lon="343.3"><ele></ele><time>2014-5-9T15:9:57Z</time></trkpt>
<trkpt lat="1.285199" lon="343.4"><ele></ele><time>2014-5-9T15:10:0Z</time></trkpt>
<trkpt lat="1.284680" lon="343.3"><ele></ele><time>2014-5-9T15:10:3Z</time></trkpt>
<trkpt lat="1.284281" lon="342.6"><ele></ele><time>2014-5-9T15:10:6Z</time></trkpt>
<trkpt lat="1.284065" lon="342.6"><ele></ele><time>2014-5-9T15:10:9Z</time></trkpt>
<trkpt lat="1.283725" lon="344.2"><ele></ele><time>2014-5-9T15:10:12Z</time></trkpt>
<trkpt lat="1.283368" lon="345.6"><ele></ele><time>2014-5-9T15:10:15Z</time></trkpt>
<trkpt lat="1.283043" lon="346.3"><ele></ele><time>2014-5-9T15:10:18Z</time></trkpt>
<trkpt lat="1.282675" lon="347.1"><ele></ele><time>2014-5-9T15:10:21Z</time></trkpt>
<trkpt lat="1.282426" lon="348.3"><ele></ele><time>2014-5-9T15:10:24Z</time></trkpt>
<trkpt lat="1.282254" lon="350.4"><ele></ele><time>2014-5-9T15:10:27Z</time></trkpt>
<trkpt lat="1.282128" lon="351.2"><ele></ele><time>2014-5-9T15:10:30Z</time></trkpt>
<trkpt lat="1.282101" lon="350.8"><ele></ele><time>2014-5-9T15:10:33Z</time></trkpt>
<trkpt lat="1.282257" lon="348.2"><ele></ele><time>2014-5-9T15:10:36Z</time></trkpt>
<trkpt lat="1.282374" lon="346.5"><ele></ele><time>2014-5-9T15:10:39Z</time></trkpt>
<trkpt lat="1.282544" lon="347.0"><ele></ele><time>2014-5-9T15:10:42Z</time></trkpt>
<trkpt lat="1.282658" lon="348.3"><ele></ele><time>2014-5-9T15:10:45Z</time></trkpt>
<trkpt lat="1.282746" lon="346.0"><ele></ele><time>2014-5-9T15:10:48Z</time></trkpt>
<trkpt lat="1.282879" lon="345.9"><ele></ele><time>2014-5-9T15:10:51Z</time></trkpt>
<trkpt lat="1.282909" lon="348.4"><ele></ele><time>2014-5-9T15:10:54Z</time></trkpt>
<trkpt lat="1.282763" lon="350.9"><ele></ele><time>2014-5-9T15:10:57Z</time></trkpt>
<trkpt lat="1.282594" lon="352.2"><ele></ele><time>2014-5-9T15:11:0Z</time></trkpt>
<trkpt lat="1.282626" lon="356.7"><ele></ele><time>2014-5-9T15:11:3Z</time></trkpt>
<trkpt lat="1.282615" lon="360.3"><ele></ele><time>2014-5-9T15:11:6Z</time></trkpt>
<trkpt lat="1.282502" lon="362.4"><ele></ele><time>2014-5-9T15:11:9Z</time></trkpt>
<trkpt lat="1.282397" lon="365.6"><ele></ele><time>2014-5-9T15:11:12Z</time></trkpt>
<trkpt lat="1.282385" lon="366.3"><ele></ele><time>2014-5-9T15:11:15Z</time></trkpt>
<trkpt lat="1.282431" lon="365.6"><ele></ele><time>2014-5-9T15:11:18Z</time></trkpt>
<trkpt lat="1.282387" lon="367.4"><ele></ele><time>2014-5-9T15:11:21Z</time></trkpt>
<trkpt lat="1.282408" lon="366.0"><ele></ele><time>2014-5-9T15:11:24Z</time></trkpt>
<trkpt lat="1.282290" lon="366.9"><ele></ele><time>2014-5-9T15:11:27Z</time></trkpt>
<trkpt lat="1.282343" lon="379.2"><ele></ele><time>2014-5-9T15:11:30Z</time></trkpt>
<trkpt lat="1.282398" lon="375.8"><ele></ele><time>2014-5-9T15:11:33Z</time></trkpt>
<trkpt lat="1.282329" lon="373.9"><ele></ele><time>2014-5-9T15:11:36Z</time></trkpt>
<trkpt lat="1.282103" lon="372.1"><ele></ele><time>2014-5-9T15:11:39Z</time></trkpt>
<trkpt lat="1.281976" lon="370.1"><ele></ele><time>2014-5-9T15:11:42Z</time></trkpt>
<trkpt lat="1.281806" lon="368.4"><ele></ele><time>2014-5-9T15:11:45Z</time></trkpt>
<trkpt lat="1.281445" lon="366.8"><ele></ele><time>2014-5-9T15:11:48Z</time></trkpt>
<trkpt lat="1.281054" lon="365.9"><ele></ele><time>2014-5-9T15:11:51Z</time></trkpt>
<trkpt lat="1.281303" lon="365.6"><ele></ele><time>2014-5-9T15:11:54Z</time></trkpt>
<trkpt lat="1.281513" lon="364.5"><ele></ele><time>2014-5-9T15:11:57Z</time></trkpt>
<trkpt lat="1.281739" lon="362.5"><ele></ele><time>2014-5-9T15:12:0Z</time></trkpt>
<trkpt lat="1.282029" lon="360.9"><ele></ele><time>2014-5-9T15:12:3Z</time></trkpt>
<trkpt lat="1.282238" lon="360.8"><ele></ele><time>2014-5-9T15:12:6Z</time></trkpt>
<trkpt lat="1.282482" lon="361.0"><ele></ele><time>2014-5-9T15:12:9Z</time></trkpt>
<trkpt lat="1.282760" lon="360.4"><ele></ele><time>2014-5-9T15:12:12Z</time></trkpt>
<trkpt lat="1.283205" lon="360.6"><ele></ele><time>2014-5-9T15:12:15Z</time></trkpt>
<trkpt lat="1.283693" lon="361.4"><ele></ele><time>2014-5-9T15:12:18Z</time></trkpt>
<trkpt lat="1.284062" lon="360.7"><ele></ele><time>2014-5-9T15:12:21Z</time></trkpt>
<trkpt lat="1.284252" lon="360.8"><ele></ele><time>2014-5-9T15:12:24Z</time></trkpt>
<trkpt lat="1.284439" lon="361.2"><ele></ele><time>2014-5-9T15:12:27Z</time></trkpt>
<trkpt lat="1.284673" lon="360.1"><ele></ele><time>2014-5-9T15:12:30Z</time></trkpt>
<trkpt lat="1.284923" lon="360.3"><ele></ele><time>2014-5-9T15:12:33Z</time></trkpt>
<trkpt lat="1.285180" lon="361.8"><ele></ele><time>2014-5-9T15:12:36Z</time></trkpt>
<trkpt lat="1.285495" lon="363.8"><ele></ele><time>2014-5-9T15:12:39Z</time></trkpt>
<trkpt lat="1.285728" lon="365.7"><ele></ele><time>2014-5-9T15:12:42Z</time></trkpt>
<trkpt lat="1.285878" lon="382.4"><ele></ele><time>2014-5-9T15:12:45Z</time></trkpt>
<trkpt lat="1.286110" lon="382.6"><ele></ele><time>2014-5-9T15:12:48Z</time></trkpt>
<trkpt lat="1.286248" lon="387.0"><ele></ele><time>2014-5-9T15:12:51Z</time></trkpt>
<trkpt lat="1.286401" lon="390.8"><ele></ele><time>2014-5-9T15:12:54Z</time></trkpt>
<trkpt lat="1.286579" lon="392.9"><ele></ele><time>2014-5-9T15:12:57Z</time></trkpt>
<trkpt lat="1.286739" lon="394.6"><ele></ele><time>2014-5-9T15:13:0Z</time></trkpt>
<trkpt lat="1.286927" lon="394.8"><ele></ele><time>2014-5-9T15:13:3Z</time></trkpt>
<trkpt lat="1.287155" lon="396.7"><ele></ele><time>2014-5-9T15:13:6Z</time></trkpt>
<trkpt lat="1.287383" lon="398.0"><ele></ele><time>2014-5-9T15:13:9Z</time></trkpt>
<trkpt lat="1.287522" lon="400.3"><ele></ele><time>2014-5-9T15:13:12Z</time></trkpt>
<trkpt lat="1.287657" lon="406.5"><ele></ele><time>2014-5-9T15:13:15Z</time></trkpt>
<trkpt lat="1.288016" lon="403.3"><ele></ele><time>2014-5-9T15:13:18Z</time></trkpt>
<trkpt lat="1.288368" lon="402.9"><ele></ele><time>2014-5-9T15:13:21Z</time></trkpt>
<trkpt lat="1.288662" lon="404.2"><ele></ele><time>2014-5-9T15:13:24Z</time></trkpt>
<trkpt lat="1.288758" lon="408.2"><ele></ele><time>2014-5-9T15:13:27Z</time></trkpt>
<trkpt lat="1.288653" lon="410.4"><ele></ele><time>2014-5-9T15:13:30Z</time></trkpt>
<trkpt lat="1.288560" lon="412.1"><ele></ele><time>2014-5-9T15:13:33Z</time></trkpt>
<trkpt lat="1.288415" lon="415.9"><ele></ele><time>2014-5-9T15:13:36Z</time></trkpt>
<trkpt lat="1.288312" lon="417.4"><ele></ele><time>2014-5-9T15:13:39Z</time></trkpt>
<trkpt lat="1.288228" lon="418.1"><ele></ele><time>2014-5-9T15:13:42Z</time></trkpt>
<trkpt lat="1.288024" lon="420.2"><ele></ele><time>2014-5-9T15:13:45Z</time></trkpt>
<trkpt lat="1.287800" lon="422.6"><ele></ele><time>2014-5-9T15:13:48Z</time></trkpt>
<trkpt lat="1.287549" lon="423.5"><ele></ele><time>2014-5-9T15:13:51Z</time></trkpt>
<trkpt lat="1.287331" lon="427.9"><ele></ele><time>2014-5-9T15:13:54Z</time></trkpt>
<trkpt lat="1.287158" lon="431.8"><ele></ele><time>2014-5-9T15:13:57Z</time></trkpt>
<trkpt lat="1.286991" lon="432.8"><ele></ele><time>2014-5-9T15:14:0Z</time></trkpt>
<trkpt lat="1.286854" lon="435.0"><ele></ele><time>2014-5-9T15:14:3Z</time></trkpt>
<trkpt lat="1.286707" lon="441.2"><ele></ele><time>2014-5-9T15:14:6Z</time></trkpt>
<trkpt lat="1.286604" lon="442.5"><ele></ele><time>2014-5-9T15:14:9Z</time></trkpt>
<trkpt lat="1.286788" lon="453.5"><ele></ele><time>2014-5-9T15:14:12Z</time></trkpt>
<trkpt lat="1.286997" lon="453.7"><ele></ele><time>2014-5-9T15:14:15Z</time></trkpt>
<trkpt lat="1.287237" lon="454.0"><ele></ele><time>2014-5-9T15:14:18Z</time></trkpt>
<trkpt lat="1.287429" lon="456.1"><ele></ele><time>2014-5-9T15:14:21Z</time></trkpt>
<trkpt lat="1.287689" lon="457.7"><ele></ele><time>2014-5-9T15:14:24Z</time></trkpt>
<trkpt lat="1.287884" lon="457.3"><ele></ele><time>2014-5-9T15:14:27Z</time></trkpt>
<trkpt lat="1.288126" lon="458.4"><ele></ele><time>2014-5-9T15:14:30Z</time></trkpt>
<trkpt lat="1.288383" lon="460.4"><ele></ele><time>2014-5-9T15:14:33Z</time></trkpt>
<trkpt lat="1.288686" lon="461.6"><ele></ele><time>2014-5-9T15:14:36Z</time></trkpt>
<trkpt lat="1.289016" lon="465.6"><ele></ele><time>2014-5-9T15:14:39Z</time></trkpt>
<trkpt lat="1.289328" lon="467.4"><ele></ele><time>2014-5-9T15:14:42Z</time></trkpt>
<trkpt lat="1.289630" lon="469.4"><ele></ele><time>2014-5-9T15:14:45Z</time></trkpt>
<trkpt lat="1.289926" lon="470.9"><ele></ele><time>2014-5-9T15:14:48Z</time></trkpt>
<trkpt lat="1.290226" lon="472.5"><ele></ele><time>2014-5-9T15:14:51Z</time></trkpt>
<trkpt lat="1.290460" lon="474.2"><ele></ele><time>2014-5-9T15:14:54Z</time></trkpt>
<trkpt lat="1.290642" lon="476.2"><ele></ele><time>2014-5-9T15:14:57Z</time></trkpt>
<trkpt lat="1.290752" lon="477.8"><ele></ele><time>2014-5-9T15:15:0Z</time></trkpt>
<trkpt lat="1.290931" lon="492.9"><ele></ele><time>2014-5-9T15:15:3Z</time></trkpt>
<trkpt lat="1.291297" lon="491.9"><ele></ele><time>2014-5-9T15:15:6Z</time></trkpt>
<trkpt lat="1.291660" lon="493.7"><ele></ele><time>2014-5-9T15:15:9Z</time></trkpt>
<trkpt lat="1.291919" lon="494.1"><ele></ele><time>2014-5-9T15:15:12Z</time></trkpt>
<trkpt lat="1.292233" lon="494.9"><ele></ele><time>2014-5-9T15:15:15Z</time></trkpt>
<trkpt lat="1.292616" lon="496.1"><ele></ele><time>2014-5-9T15:15:18Z</time></trkpt>
<trkpt lat="1.293042" lon="496.8"><ele></ele><time>2014-5-9T15:15:21Z</time></trkpt>
<trkpt lat="1.293431" lon="496.8"><ele></ele><time>2014-5-9T15:15:24Z</time></trkpt>
<trkpt lat="1.293637" lon="498.9"><ele></ele><time>2014-5-9T15:15:27Z</time></trkpt>
<trkpt lat="1.293818" lon="498.5"><ele></ele><time>2014-5-9T15:15:30Z</time></trkpt>
<trkpt lat="1.293985" lon="499.5"><ele></ele><time>2014-5-9T15:15:33Z</time></trkpt>
<trkpt lat="1.294615" lon="497.4"><ele></ele><time>2014-5-9T15:15:36Z</time></trkpt>
<trkpt lat="1.295093" lon="494.0"><ele></ele><time>2014-5-9T15:15:39Z</time></trkpt>
<trkpt lat="1.295554" lon="494.3"><ele></ele><time>2014-5-9T15:15:42Z</time></trkpt>
<trkpt lat="1.296044" lon="495.4"><ele></ele><time>2014-5-9T15:15:45Z</time></trkpt>
<trkpt lat="1.296288" lon="495.8"><ele></ele><time>2014-5-9T15:15:48Z</time></trkpt>
<trkpt lat="1.296472" lon="497.2"><ele></ele><time>2014-5-9T15:15:51Z</time></trkpt>
<trkpt lat="1.296751" lon="498.1"><ele></ele><time>2014-5-9T15:15:54Z</time></trkpt>
<trkpt lat="1.296915" lon="500.5"><ele></ele><time>2014-5-9T15:15:57Z</time></trkpt>
<trkpt lat="1.296848" lon="502.7"><ele></ele><time>2014-5-9T15:16:0Z</time></trkpt>
<trkpt lat="1.296787" lon="506.9"><ele></ele><time>2014-5-9T15:16:3Z</time></trkpt>
<trkpt lat="1.296729" lon="507.0"><ele></ele><time>2014-5-9T15:16:6Z</time></trkpt>
<trkpt lat="1.296883" lon="506.2"><ele></ele><time>2014-5-9T15:16:9Z</time></trkpt>
<trkpt lat="1.297111" lon="505.9"><ele></ele><time>2014-5-9T15:16:12Z</time></trkpt>
<trkpt lat="1.297154" lon="503.3"><ele></ele><time>2014-5-9T15:16:15Z</time></trkpt>
<trkpt lat="1.297217" lon="501.6"><ele></ele><time>2014-5-9T15:16:18Z</time></trkpt>
<trkpt lat="1.297509" lon="500.1"><ele></ele><time>2014-5-9T15:16:21Z</time></trkpt>
<trkpt lat="1.297685" lon="500.4"><ele></ele><time>2014-5-9T15:16:24Z</time></trkpt>
<trkpt lat="1.298033" lon="496.6"><ele></ele><time>2014-5-9T15:16:27Z</time></trkpt>
<trkpt lat="1.298366" lon="494.6"><ele></ele><time>2014-5-9T15:16:30Z</time></trkpt>
<trkpt lat="1.298588" lon="489.3"><ele></ele><time>2014-5-9T15:16:33Z</time></trkpt>
<trkpt lat="1.299076" lon="487.3"><ele></ele><time>2014-5-9T15:16:36Z</time></trkpt>
<trkpt lat="1.299423" lon="486.7"><ele></ele><time>2014-5-9T15:16:39Z</time></trkpt>
<trkpt lat="1.299891" lon="485.7"><ele></ele><time>2014-5-9T15:16:42Z</time></trkpt>
<trkpt lat="1.300302" lon="483.6"><ele></ele><time>2014-5-9T15:16:45Z</time></trkpt>
<trkpt lat="1.300720" lon="482.0"><ele></ele><time>2014-5-9T15:16:48Z</time></trkpt>
<trkpt lat="1.301125" lon="479.5"><ele></ele><time>2014-5-9T15:16:51Z</time></trkpt>
<trkpt lat="1.301351" lon="480.8"><ele></ele><time>2014-5-9T15:16:54Z</time></trkpt>
<trkpt lat="1.302315" lon="476.4"><ele></ele><time>2014-5-9T15:16:57Z</time></trkpt>
<trkpt lat="1.303300" lon="474.6"><ele></ele><time>2014-5-9T15:17:0Z</time></trkpt>
<trkpt lat="1.303639" lon="473.2"><ele></ele><time>2014-5-9T15:17:3Z</time></trkpt>
<trkpt lat="1.303849" lon="472.7"><ele></ele><time>2014-5-9T15:17:6Z</time></trkpt>
<trkpt lat="1.304250" lon="473.0"><ele></ele><time>2014-5-9T15:17:9Z</time></trkpt>
<trkpt lat="1.304865" lon="473.0"><ele></ele><time>2014-5-9T15:17:12Z</time></trkpt>
<trkpt lat="1.305816" lon="471.0"><ele></ele><time>2014-5-9T15:17:15Z</time></trkpt>
<trkpt lat="1.306137" lon="468.2"><ele></ele><time>2014-5-9T15:17:18Z</time></trkpt>
<trkpt lat="1.306740" lon="464.6"><ele></ele><time>2014-5-9T15:17:21Z</time></trkpt>
<trkpt lat="1.306179" lon="461.5"><ele></ele><time>2014-5-9T15:17:24Z</time></trkpt>
<trkpt lat="1.305520" lon="458.8"><ele></ele><time>2014-5-9T15:17:27Z</time></trkpt>
<trkpt lat="1.305251" lon="455.8"><ele></ele><time>2014-5-9T15:17:30Z</time></trkpt>
<trkpt lat="1.305085" lon="452.7"><ele></ele><time>2014-5-9T15:17:33Z</time></trkpt>
<trkpt lat="1.305292" lon="445.2"><ele></ele><time>2014-5-9T15:17:36Z</time></trkpt>
<trkpt lat="1.305764" lon="445.2"><ele></ele><time>2014-5-9T15:17:39Z</time></trkpt>
<trkpt lat="1.306160" lon="446.8"><ele></ele><time>2014-5-9T15:17:42Z</time></trkpt>
<trkpt lat="1.306447" lon="447.9"><ele></ele><time>2014-5-9T15:17:45Z</time></trkpt>
<trkpt lat="1.306633" lon="453.8"><ele></ele><time>2014-5-9T15:17:48Z</time></trkpt>
<trkpt lat="1.306696" lon="453.4"><ele></ele><time>2014-5-9T15:17:51Z</time></trkpt>
<trkpt lat="1.306305" lon="454.8"><ele></ele><time>2014-5-9T15:17:54Z</time></trkpt>
<trkpt lat="1.306111" lon="456.7"><ele></ele><time>2014-5-9T15:17:57Z</time></trkpt>
<trkpt lat="1.306340" lon="458.7"><ele></ele><time>2014-5-9T15:18:0Z</time></trkpt>
<trkpt lat="1.306727" lon="458.9"><ele></ele><time>2014-5-9T15:18:3Z</time></trkpt>
<trkpt lat="1.307201" lon="458.0"><ele></ele><time>2014-5-9T15:18:6Z</time></trkpt>
<trkpt lat="1.308097" lon="457.2"><ele></ele><time>2014-5-9T15:18:9Z</time></trkpt>
<trkpt lat="1.308293" lon="454.3"><ele></ele><time>2014-5-9T15:18:12Z</time></trkpt>
<trkpt lat="1.308318" lon="452.6"><ele></ele><time>2014-5-9T15:18:15Z</time></trkpt>
<trkpt lat="1.308314" lon="450.4"><ele></ele><time>2014-5-9T15:18:18Z</time></trkpt>
<trkpt lat="1.308295" lon="448.7"><ele></ele><time>2014-5-9T15:18:21Z</time></trkpt>
<trkpt lat="1.308419" lon="444.5"><ele></ele><time>2014-5-9T15:18:24Z</time></trkpt>
<trkpt lat="1.308545" lon="437.8"><ele></ele><time>2014-5-9T15:18:27Z</time></trkpt>
<trkpt lat="1.308684" lon="433.0"><ele></ele><time>2014-5-9T15:18:30Z</time></trkpt>
<trkpt lat="1.308845" lon="425.5"><ele></ele><time>2014-5-9T15:18:33Z</time></trkpt>
<trkpt lat="1.308985" lon="421.3"><ele></ele><time>2014-5-9T15:18:36Z</time></trkpt>
<trkpt lat="1.309166" lon="418.8"><ele></ele><time>2014-5-9T15:18:39Z</time></trkpt>
<trkpt lat="1.309341" lon="415.5"><ele></ele><time>2014-5-9T15:18:42Z</time></trkpt>
<trkpt lat="1.309620" lon="414.4"><ele></ele><time>2014-5-9T15:18:45Z</time></trkpt>
<trkpt lat="1.309793" lon="412.6"><ele></ele><time>2014-5-9T15:18:48Z</time></trkpt>
<trkpt lat="1.309947" lon="410.6"><ele></ele><time>2014-5-9T15:18:51Z</time></trkpt>
<trkpt lat="1.310147" lon="409.1"><ele></ele><time>2014-5-9T15:18:54Z</time></trkpt>
<trkpt lat="1.310298" lon="408.6"><ele></ele><time>2014-5-9T15:18:57Z</time></trkpt>
<trkpt lat="1.310628" lon="408.9"><ele></ele><time>2014-5-9T15:19:0Z</time></trkpt>
<trkpt lat="1.310986" lon="408.5"><ele></ele><time>2014-5-9T15:19:3Z</time></trkpt>
<trkpt lat="1.311395" lon="409.5"><ele></ele><time>2014-5-9T15:19:6Z</time></trkpt>
<trkpt lat="1.312135" lon="406.7"><ele></ele><time>2014-5-9T15:19:9Z</time></trkpt>
<trkpt lat="1.313057" lon="403.9"><ele></ele><time>2014-5-9T15:19:12Z</time></trkpt>
<trkpt lat="1.313881" lon="400.5"><ele></ele><time>2014-5-9T15:19:15Z</time></trkpt>
<trkpt lat="1.314744" lon="396.5"><ele></ele><time>2014-5-9T15:19:18Z</time></trkpt>
<trkpt lat="1.315729" lon="392.6"><ele></ele><time>2014-5-9T15:19:21Z</time></trkpt>
<trkpt lat="1.316591" lon="387.5"><ele></ele><time>2014-5-9T15:19:24Z</time></trkpt>
<trkpt lat="1.317575" lon="389.6"><ele></ele><time>2014-5-9T15:19:27Z</time></trkpt>
<trkpt lat="1.318519" lon="392.0"><ele></ele><time>2014-5-9T15:19:30Z</time></trkpt>
<trkpt lat="1.319518" lon="387.2"><ele></ele><time>2014-5-9T15:19:33Z</time></trkpt>
<trkpt lat="1.320233" lon="386.1"><ele></ele><time>2014-5-9T15:19:36Z</time></trkpt>
<trkpt lat="1.320989" lon="384.9"><ele></ele><time>2014-5-9T15:19:39Z</time></trkpt>
<trkpt lat="1.321360" lon="385.3"><ele></ele><time>2014-5-9T15:19:42Z</time></trkpt>
<trkpt lat="1.321596" lon="385.7"><ele></ele><time>2014-5-9T15:19:45Z</time></trkpt>
<trkpt lat="1.321771" lon="385.6"><ele></ele><time>2014-5-9T15:19:48Z</time></trkpt>
<trkpt lat="1.321923" lon="385.7"><ele></ele><time>2014-5-9T15:19:51Z</time></trkpt>
<trkpt lat="1.321735" lon="385.3"><ele></ele><time>2014-5-9T15:19:54Z</time></trkpt>
<trkpt lat="1.321408" lon="384.3"><ele></ele><time>2014-5-9T15:19:57Z</time></trkpt>
<trkpt lat="1.321087" lon="384.7"><ele></ele><time>2014-5-9T15:20:0Z</time></trkpt>
<trkpt lat="1.320619" lon="384.4"><ele></ele><time>2014-5-9T15:20:3Z</time></trkpt>
<trkpt lat="1.320015" lon="384.3"><ele></ele><time>2014-5-9T15:20:6Z</time></trkpt>
<trkpt lat="1.319682" lon="384.0"><ele></ele><time>2014-5-9T15:20:9Z</time></trkpt>
<trkpt lat="1.320052" lon="380.1"><ele></ele><time>2014-5-9T15:20:12Z</time></trkpt>
<trkpt lat="1.319746" lon="378.3"><ele></ele><time>2014-5-9T15:20:15Z</time></trkpt>
<trkpt lat="1.319847" lon="375.8"><ele></ele><time>2014-5-9T15:20:18Z</time></trkpt>
<trkpt lat="1.320035" lon="374.6"><ele></ele><time>2014-5-9T15:20:21Z</time></trkpt>
<trkpt lat="1.319352" lon="375.4"><ele></ele><time>2014-5-9T15:20:24Z</time></trkpt>
<trkpt lat="1.319022" lon="377.0"><ele></ele><time>2014-5-9T15:20:27Z</time></trkpt>
<trkpt lat="1.318755" lon="378.6"><ele></ele><time>2014-5-9T15:20:30Z</time></trkpt>
<trkpt lat="1.318509" lon="379.6"><ele></ele><time>2014-5-9T15:20:33Z</time></trkpt>
<trkpt lat="1.318223" lon="379.1"><ele></ele><time>2014-5-9T15:20:36Z</time></trkpt>
<trkpt lat="1.318453" lon="379.9"><ele></ele><time>2014-5-9T15:20:39Z</time></trkpt>
<trkpt lat="1.318892" lon="379.6"><ele></ele><time>2014-5-9T15:20:42Z</time></trkpt>
<trkpt lat="1.319635" lon="378.5"><ele></ele><time>2014-5-9T15:20:45Z</time></trkpt>
<trkpt lat="1.320377" lon="375.2"><ele></ele><time>2014-5-9T15:20:48Z</time></trkpt>
<trkpt lat="1.320397" lon="373.8"><ele></ele><time>2014-5-9T15:20:51Z</time></trkpt>
<trkpt lat="1.320200" lon="373.3"><ele></ele><time>2014-5-9T15:20:54Z</time></trkpt>
<trkpt lat="1.319549" lon="371.7"><ele></ele><time>2014-5-9T15:20:57Z</time></trkpt>
<trkpt lat="1.318650" lon="369.1"><ele></ele><time>2014-5-9T15:21:0Z</time></trkpt>
<trkpt lat="1.318060" lon="365.0"><ele></ele><time>2014-5-9T15:21:3Z</time></trkpt>
<trkpt lat="1.317429" lon="361.3"><ele></ele><time>2014-5-9T15:21:6Z</time></trkpt>
<trkpt lat="1.316609" lon="355.6"><ele></ele><time>2014-5-9T15:21:9Z</time></trkpt>
<trkpt lat="1.315639" lon="351.1"><ele></ele><time>2014-5-9T15:21:12Z</time></trkpt>
<trkpt lat="1.314820" lon="346.1"><ele></ele><time>2014-5-9T15:21:15Z</time></trkpt>
<trkpt lat="1.314095" lon="342.6"><ele></ele><time>2014-5-9T15:21:18Z</time></trkpt>
<trkpt lat="1.313467" lon="338.7"><ele></ele><time>2014-5-9T15:21:21Z</time></trkpt>
<trkpt lat="1.313378" lon="331.9"><ele></ele><time>2014-5-9T15:21:24Z</time></trkpt>
<trkpt lat="1.313320" lon="329.7"><ele></ele><time>2014-5-9T15:21:27Z</time></trkpt>
<trkpt lat="1.313243" lon="328.7"><ele></ele><time>2014-5-9T15:21:30Z</time></trkpt>
<trkpt lat="1.313187" lon="328.4"><ele></ele><time>2014-5-9T15:21:33Z</time></trkpt>
<trkpt lat="1.313265" lon="329.7"><ele></ele><time>2014-5-9T15:21:36Z</time></trkpt>
<trkpt lat="1.313374" lon="330.3"><ele></ele><time>2014-5-9T15:21:39Z</time></trkpt>
<trkpt lat="1.313439" lon="328.8"><ele></ele><time>2014-5-9T15:21:42Z</time></trkpt>
<trkpt lat="1.313507" lon="330.8"><ele></ele><time>2014-5-9T15:21:45Z</time></trkpt>
<trkpt lat="1.313376" lon="318.4"><ele></ele><time>2014-5-9T15:21:48Z</time></trkpt>
<trkpt lat="1.313395" lon="318.3"><ele></ele><time>2014-5-9T15:21:51Z</time></trkpt>
<trkpt lat="1.313390" lon="317.8"><ele></ele><time>2014-5-9T15:21:54Z</time></trkpt>
<trkpt lat="1.313475" lon="318.7"><ele></ele><time>2014-5-9T15:21:57Z</time></trkpt>
<trkpt lat="1.313613" lon="317.7"><ele></ele><time>2014-5-9T15:22:0Z</time></trkpt>
<trkpt lat="1.313721" lon="319.5"><ele></ele><time>2014-5-9T15:22:3Z</time></trkpt>
<trkpt lat="1.313808" lon="318.8"><ele></ele><time>2014-5-9T15:22:6Z</time></trkpt>
<trkpt lat="1.314096" lon="317.4"><ele></ele><time>2014-5-9T15:22:9Z</time></trkpt>
<trkpt lat="1.314286" lon="315.4"><ele></ele><time>2014-5-9T15:22:12Z</time></trkpt>
<trkpt lat="1.314453" lon="315.0"><ele></ele><time>2014-5-9T15:22:15Z</time></trkpt>
<trkpt lat="1.314703" lon="314.3"><ele></ele><time>2014-5-9T15:22:18Z</time></trkpt>
<trkpt lat="1.314969" lon="312.6"><ele></ele><time>2014-5-9T15:22:21Z</time></trkpt>
<trkpt lat="1.315071" lon="311.8"><ele></ele><time>2014-5-9T15:22:24Z</time></trkpt>
<trkpt lat="1.315364" lon="311.7"><ele></ele><time>2014-5-9T15:22:27Z</time></trkpt>
<trkpt lat="1.315690" lon="310.0"><ele></ele><time>2014-5-9T15:22:30Z</time></trkpt>
<trkpt lat="1.315940" lon="311.5"><ele></ele><time>2014-5-9T15:22:33Z</time></trkpt>
<trkpt lat="1.316220" lon="310.5"><ele></ele><time>2014-5-9T15:22:36Z</time></trkpt>
<trkpt lat="1.316402" lon="310.8"><ele></ele><time>2014-5-9T15:22:39Z</time></trkpt>
<trkpt lat="1.316610" lon="312.6"><ele></ele><time>2014-5-9T15:22:42Z</time></trkpt>
<trkpt lat="1.316970" lon="312.9"><ele></ele><time>2014-5-9T15:22:45Z</time></trkpt>
<trkpt lat="1.317219" lon="312.8"><ele></ele><time>2014-5-9T15:22:48Z</time></trkpt>
<trkpt lat="1.317623" lon="312.1"><ele></ele><time>2014-5-9T15:22:51Z</time></trkpt>
<trkpt lat="1.318139" lon="311.3"><ele></ele><time>2014-5-9T15:22:54Z</time></trkpt>
<trkpt lat="1.318856" lon="308.1"><ele></ele><time>2014-5-9T15:22:57Z</time></trkpt>
<trkpt lat="1.319543" lon="306.8"><ele></ele><time>2014-5-9T15:23:0Z</time></trkpt>
<trkpt lat="1.319949" lon="306.7"><ele></ele><time>2014-5-9T15:23:3Z</time></trkpt>
<trkpt lat="1.320396" lon="305.9"><ele></ele><time>2014-5-9T15:23:6Z</time></trkpt>
<trkpt lat="1.320786" lon="304.2"><ele></ele><time>2014-5-9T15:23:9Z</time></trkpt>
<trkpt lat="1.320989" lon="301.7"><ele></ele><time>2014-5-9T15:23:12Z</time></trkpt>
<trkpt lat="1.321507" lon="302.4"><ele></ele><time>2014-5-9T15:23:15Z</time></trkpt>
<trkpt lat="1.322113" lon="303.6"><ele></ele><time>2014-5-9T15:23:18Z</time></trkpt>
<trkpt lat="1.322703" lon="304.2"><ele></ele><time>2014-5-9T15:23:21Z</time></trkpt>
<trkpt lat="1.323213" lon="305.0"><ele></ele><time>2014-5-9T15:23:24Z</time></trkpt>
<trkpt lat="1.323796" lon="305.2"><ele></ele><time>2014-5-9T15:23:27Z</time></trkpt>
<trkpt lat="1.324488" lon="305.5"><ele></ele><time>2014-5-9T15:23:30Z</time></trkpt>
<trkpt lat="1.325094" lon="305.4"><ele></ele><time>2014-5-9T15:23:33Z</time></trkpt>
<trkpt lat="1.325675" lon="305.7"><ele></ele><time>2014-5-9T15:23:36Z</time></trkpt>
<trkpt lat="1.326278" lon="305.8"><ele></ele><time>2014-5-9T15:23:39Z</time></trkpt>
<trkpt lat="1.326551" lon="306.4"><ele></ele><time>2014-5-9T15:23:42Z</time></trkpt>
<trkpt lat="1.326859" lon="307.4"><ele></ele><time>2014-5-9T15:23:45Z</time></trkpt>
<trkpt lat="1.327157" lon="308.7"><ele></ele><time>2014-5-9T15:23:48Z</time></trkpt>
<trkpt lat="1.327458" lon="310.4"><ele></ele><time>2014-5-9T15:23:51Z</time></trkpt>
<trkpt lat="1.327750" lon="312.5"><ele></ele><time>2014-5-9T15:23:54Z</time></trkpt>
<trkpt lat="1.327978" lon="314.6"><ele></ele><time>2014-5-9T15:23:57Z</time></trkpt>
<trkpt lat="1.328287" lon="316.4"><ele></ele><time>2014-5-9T15:24:0Z</time></trkpt>
<trkpt lat="1.328561" lon="317.5"><ele></ele><time>2014-5-9T15:24:3Z</time></trkpt>
<trkpt lat="1.328761" lon="318.9"><ele></ele><time>2014-5-9T15:24:6Z</time></trkpt>
<trkpt lat="1.329312" lon="318.1"><ele></ele><time>2014-5-9T15:24:9Z</time></trkpt>
<trkpt lat="1.329753" lon="318.0"><ele></ele><time>2014-5-9T15:24:12Z</time></trkpt>
<trkpt lat="1.329948" lon="317.3"><ele></ele><time>2014-5-9T15:24:15Z</time></trkpt>
<trkpt lat="1.330446" lon="314.3"><ele></ele><time>2014-5-9T15:24:18Z</time></trkpt>
<trkpt lat="1.331406" lon="309.9"><ele></ele><time>2014-5-9T15:24:21Z</time></trkpt>
<trkpt lat="1.332968" lon="309.3"><ele></ele><time>2014-5-9T15:24:24Z</time></trkpt>
<trkpt lat="1.333968" lon="306.8"><ele></ele><time>2014-5-9T15:24:27Z</time></trkpt>
<trkpt lat="1.334433" lon="305.6"><ele></ele><time>2014-5-9T15:24:30Z</time></trkpt>
<trkpt lat="1.334574" lon="305.7"><ele></ele><time>2014-5-9T15:24:33Z</time></trkpt>
<trkpt lat="1.334917" lon="305.4"><ele></ele><time>2014-5-9T15:24:36Z</time></trkpt>
<trkpt lat="1.335235" lon="305.1"><ele></ele><time>2014-5-9T15:24:39Z</time></trkpt>
<trkpt lat="1.335650" lon="304.7"><ele></ele><time>2014-5-9T15:24:42Z</time></trkpt>
<trkpt lat="1.336222" lon="303.8"><ele></ele><time>2014-5-9T15:24:45Z</time></trkpt>
<trkpt lat="1.336812" lon="303.9"><ele></ele><time>2014-5-9T15:24:48Z</time></trkpt>
<trkpt lat="1.337401" lon="306.0"><ele></ele><time>2014-5-9T15:24:51Z</time></trkpt>
<trkpt lat="1.337654" lon="308.0"><ele></ele><time>2014-5-9T15:24:54Z</time></trkpt>
<trkpt lat="1.338040" lon="307.4"><ele></ele><time>2014-5-9T15:24:57Z</time></trkpt>
<trkpt lat="1.338529" lon="308.5"><ele></ele><time>2014-5-9T15:25:0Z</time></trkpt>
<trkpt lat="1.338725" lon="310.9"><ele></ele><time>2014-5-9T15:25:3Z</time></trkpt>
<trkpt lat="1.338473" lon="311.4"><ele></ele><time>2014-5-9T15:25:6Z</time></trkpt>
<trkpt lat="1.338198" lon="314.9"><ele></ele><time>2014-5-9T15:25:9Z</time></trkpt>
<trkpt lat="1.337624" lon="318.5"><ele></ele><time>2014-5-9T15:25:12Z</time></trkpt>
<trkpt lat="1.336871" lon="318.1"><ele></ele><time>2014-5-9T15:25:15Z</time></trkpt>
<trkpt lat="1.336581" lon="321.9"><ele></ele><time>2014-5-9T15:25:18Z</time></trkpt>
<trkpt lat="1.335835" lon="316.5"><ele></ele><time>2014-5-9T15:25:21Z</time></trkpt>
<trkpt lat="1.335550" lon="319.6"><ele></ele><time>2014-5-9T15:25:24Z</time></trkpt>
<trkpt lat="1.335117" lon="323.0"><ele></ele><time>2014-5-9T15:25:27Z</time></trkpt>
<trkpt lat="1.334335" lon="319.5"><ele></ele><time>2014-5-9T15:25:30Z</time></trkpt>
<trkpt lat="1.333332" lon="312.5"><ele></ele><time>2014-5-9T15:25:33Z</time></trkpt>
<trkpt lat="1.332259" lon="309.9"><ele></ele><time>2014-5-9T15:25:36Z</time></trkpt>
<trkpt lat="1.331190" lon="307.9"><ele></ele><time>2014-5-9T15:25:39Z</time></trkpt>
<trkpt lat="1.330218" lon="306.9"><ele></ele><time>2014-5-9T15:25:42Z</time></trkpt>
<trkpt lat="1.329320" lon="306.7"><ele></ele><time>2014-5-9T15:25:45Z</time></trkpt>
<trkpt lat="1.328474" lon="305.9"><ele></ele><time>2014-5-9T15:25:48Z</time></trkpt>
<trkpt lat="1.327734" lon="305.7"><ele></ele><time>2014-5-9T15:25:51Z</time></trkpt>
<trkpt lat="1.327394" lon="304.9"><ele></ele><time>2014-5-9T15:25:54Z</time></trkpt>
<trkpt lat="1.327200" lon="305.2"><ele></ele><time>2014-5-9T15:25:57Z</time></trkpt>
<trkpt lat="1.326635" lon="304.5"><ele></ele><time>2014-5-9T15:26:0Z</time></trkpt>
<trkpt lat="1.325918" lon="304.4"><ele></ele><time>2014-5-9T15:26:3Z</time></trkpt>
<trkpt lat="1.325162" lon="305.4"><ele></ele><time>2014-5-9T15:26:6Z</time></trkpt>
<trkpt lat="1.324364" lon="304.8"><ele></ele><time>2014-5-9T15:26:9Z</time></trkpt>
<trkpt lat="1.323563" lon="304.0"><ele></ele><time>2014-5-9T15:26:12Z</time></trkpt>
<trkpt lat="1.322717" lon="303.1"><ele></ele><time>2014-5-9T15:26:15Z</time></trkpt>
<trkpt lat="1.321976" lon="303.0"><ele></ele><time>2014-5-9T15:26:18Z</time></trkpt>
<trkpt lat="1.321467" lon="303.5"><ele></ele><time>2014-5-9T15:26:21Z</time></trkpt>
<trkpt lat="1.321107" lon="302.1"><ele></ele><time>2014-5-9T15:26:24Z</time></trkpt>
<trkpt lat="1.320838" lon="302.9"><ele></ele><time>2014-5-9T15:26:27Z</time></trkpt>
<trkpt lat="1.320750" lon="304.5"><ele></ele><time>2014-5-9T15:26:30Z</time></trkpt>
<trkpt lat="1.320816" lon="304.5"><ele></ele><time>2014-5-9T15:26:33Z</time></trkpt>
<trkpt lat="1.320738" lon="305.0"><ele></ele><time>2014-5-9T15:26:36Z</time></trkpt>
<trkpt lat="1.320555" lon="304.7"><ele></ele><time>2014-5-9T15:26:39Z</time></trkpt>
<trkpt lat="1.320090" lon="304.6"><ele></ele><time>2014-5-9T15:26:42Z</time></trkpt>
<trkpt lat="1.319766" lon="304.8"><ele></ele><time>2014-5-9T15:26:45Z</time></trkpt>
<trkpt lat="1.319619" lon="305.0"><ele></ele><time>2014-5-9T15:26:48Z</time></trkpt>
<trkpt lat="1.319373" lon="304.9"><ele></ele><time>2014-5-9T15:26:51Z</time></trkpt>
<trkpt lat="1.318995" lon="304.3"><ele></ele><time>2014-5-9T15:26:54Z</time></trkpt>
<trkpt lat="1.318615" lon="304.5"><ele></ele><time>2014-5-9T15:26:57Z</time></trkpt>
<trkpt lat="1.318459" lon="304.1"><ele></ele><time>2014-5-9T15:27:0Z</time></trkpt>
<trkpt lat="1.318316" lon="303.1"><ele></ele><time>2014-5-9T15:27:3Z</time></trkpt>
<trkpt lat="1.318168" lon="302.1"><ele></ele><time>2014-5-9T15:27:6Z</time></trkpt>
<trkpt lat="1.317827" lon="302.1"><ele></ele><time>2014-5-9T15:27:9Z</time></trkpt>
<trkpt lat="1.317293" lon="301.0"><ele></ele><time>2014-5-9T15:27:12Z</time></trkpt>
<trkpt lat="1.316663" lon="301.2"><ele></ele><time>2014-5-9T15:27:15Z</time></trkpt>
<trkpt lat="1.316043" lon="301.0"><ele></ele><time>2014-5-9T15:27:18Z</time></trkpt>
<trkpt lat="1.315423" lon="301.6"><ele></ele><time>2014-5-9T15:27:21Z</time></trkpt>
<trkpt lat="1.314722" lon="300.7"><ele></ele><time>2014-5-9T15:27:24Z</time></trkpt>
<trkpt lat="1.313964" lon="300.1"><ele></ele><time>2014-5-9T15:27:27Z</time></trkpt>
<trkpt lat="1.313283" lon="300.7"><ele></ele><time>2014-5-9T15:27:30Z</time></trkpt>
<trkpt lat="1.312625" lon="300.8"><ele></ele><time>2014-5-9T15:27:33Z</time></trkpt>
<trkpt lat="1.312032" lon="300.3"><ele></ele><time>2014-5-9T15:27:36Z</time></trkpt>
<trkpt lat="1.311394" lon="299.5"><ele></ele><time>2014-5-9T15:27:39Z</time></trkpt>
<trkpt lat="1.310745" lon="299.8"><ele></ele><time>2014-5-9T15:27:42Z</time></trkpt>
<trkpt lat="1.310119" lon="300.8"><ele></ele><time>2014-5-9T15:27:45Z</time></trkpt>
<trkpt lat="1.309798" lon="300.7"><ele></ele><time>2014-5-9T15:27:48Z</time></trkpt>
<trkpt lat="1.309466" lon="300.9"><ele></ele><time>2014-5-9T15:27:51Z</time></trkpt>
<trkpt lat="1.309071" lon="301.7"><ele></ele><time>2014-5-9T15:27:54Z</time></trkpt>
<trkpt lat="1.308767" lon="301.3"><ele></ele><time>2014-5-9T15:27:57Z</time></trkpt>
<trkpt lat="1.308439" lon="299.7"><ele></ele><time>2014-5-9T15:28:0Z</time></trkpt>
<trkpt lat="1.308410" lon="300.3"><ele></ele><time>2014-5-9T15:28:3Z</time></trkpt>
<trkpt lat="1.308440" lon="301.8"><ele></ele><time>2014-5-9T15:28:6Z</time></trkpt>
<trkpt lat="1.308178" lon="300.9"><ele></ele><time>2014-5-9T15:28:9Z</time></trkpt>
<trkpt lat="1.308246" lon="302.4"><ele></ele><time>2014-5-9T15:28:12Z</time></trkpt>
<trkpt lat="1.308038" lon="302.5"><ele></ele><time>2014-5-9T15:28:15Z</time></trkpt>
<trkpt lat="1.307950" lon="303.2"><ele></ele><time>2014-5-9T15:28:18Z</time></trkpt>
<trkpt lat="1.307598" lon="303.4"><ele></ele><time>2014-5-9T15:28:21Z</time></trkpt>
<trkpt lat="1.307142" lon="304.2"><ele></ele><time>2014-5-9T15:28:24Z</time></trkpt>
<trkpt lat="1.306837" lon="304.7"><ele></ele><time>2014-5-9T15:28:27Z</time></trkpt>
<trkpt lat="1.306623" lon="297.9"><ele></ele><time>2014-5-9T15:28:30Z</time></trkpt>
<trkpt lat="1.306607" lon="296.8"><ele></ele><time>2014-5-9T15:28:33Z</time></trkpt>
<trkpt lat="-1.442592" lon="0"><ele></ele><time>2014-5-9T15:28:36Z</time></trkpt>
<trkpt lat="-1.453592" lon="0"><ele></ele><time>2014-5-9T15:28:39Z</time></trkpt>
<trkpt lat="-0.573931" lon="0"><ele></ele><time>2014-5-9T15:28:42Z</time></trkpt>
<trkpt lat="" lon="1"><ele></ele><time>2014-5-9T15:28:45Z</time></trkpt>
<trkpt lat="-1.443789" lon="67.8"><ele></ele><time>2014-5-9T15:28:48Z</time></trkpt>
<trkpt lat="-1.443707" lon="51.7"><ele></ele><time>2014-5-9T15:28:51Z</time></trkpt>
<trkpt lat="-1.443287" lon="57.4"><ele></ele><time>2014-5-9T15:28:54Z</time></trkpt>
<trkpt lat="-1.442678" lon="56.0"><ele></ele><time>2014-5-9T15:28:57Z</time></trkpt>
<trkpt lat="-1.442086" lon="54.1"><ele></ele><time>2014-5-9T15:29:0Z</time></trkpt>
<trkpt lat="-1.441602" lon="54.0"><ele></ele><time>2014-5-9T15:29:3Z</time></trkpt>
<trkpt lat="-1.440863" lon="54.4"><ele></ele><time>2014-5-9T15:29:6Z</time></trkpt>
<trkpt lat="-1.440017" lon="55.2"><ele></ele><time>2014-5-9T15:29:9Z</time></trkpt>
<trkpt lat="-1.439487" lon="57.6"><ele></ele><time>2014-5-9T15:29:12Z</time></trkpt>
<trkpt lat="-1.439056" lon="58.9"><ele></ele><time>2014-5-9T15:29:15Z</time></trkpt>
<trkpt lat="-1.438448" lon="57.9"><ele></ele><time>2014-5-9T15:29:18Z</time></trkpt>
<trkpt lat="-1.437928" lon="58.1"><ele></ele><time>2014-5-9T15:29:21Z</time></trkpt>
<trkpt lat="-1.437556" lon="59.5"><ele></ele><time>2014-5-9T15:29:24Z</time></trkpt>
<trkpt lat="-1.437272" lon="59.4"><ele></ele><time>2014-5-9T15:29:27Z</time></trkpt>
<trkpt lat="-1.436889" lon="60.1"><ele></ele><time>2014-5-9T15:29:30Z</time></trkpt>
<trkpt lat="-1.436437" lon="61.8"><ele></ele><time>2014-5-9T15:29:33Z</time></trkpt>
<trkpt lat="-1.435829" lon="58.8"><ele></ele><time>2014-5-9T15:29:36Z</time></trkpt>
<trkpt lat="-1.435233" lon="58.6"><ele></ele><time>2014-5-9T15:29:39Z</time></trkpt>
<trkpt lat="-1.434987" lon="55.8"><ele></ele><time>2014-5-9T15:29:42Z</time></trkpt>
<trkpt lat="-1.434848" lon="56.1"><ele></ele><time>2014-5-9T15:29:45Z</time></trkpt>
<trkpt lat="-1.434627" lon="56.4"><ele></ele><time>2014-5-9T15:29:48Z</time></trkpt>
<trkpt lat="-1.434179" lon="56.9"><ele></ele><time>2014-5-9T15:29:51Z</time></trkpt>
<trkpt lat="-1.433828" lon="54.8"><ele></ele><time>2014-5-9T15:29:54Z</time></trkpt>
<trkpt lat="-1.433449" lon="54.3"><ele></ele><time>2014-5-9T15:29:57Z</time></trkpt>
<trkpt lat="-1.433035" lon="52.7"><ele></ele><time>2014-5-9T15:30:0Z</time></trkpt>
<trkpt lat="-1.432543" lon="51.2"><ele></ele><time>2014-5-9T15:30:3Z</time></trkpt>
<trkpt lat="-1.432093" lon="51.4"><ele></ele><time>2014-5-9T15:30:6Z</time></trkpt>
<trkpt lat="-1.431640" lon="49.2"><ele></ele><time>2014-5-9T15:30:9Z</time></trkpt>
<trkpt lat="-1.431342" lon="47.5"><ele></ele><time>2014-5-9T15:30:12Z</time></trkpt>
<trkpt lat="-1.431054" lon="46.5"><ele></ele><time>2014-5-9T15:30:15Z</time></trkpt>
<trkpt lat="-1.431339" lon="48.8"><ele></ele><time>2014-5-9T15:30:18Z</time></trkpt>
<trkpt lat="-1.431714" lon="49.9"><ele></ele><time>2014-5-9T15:30:21Z</time></trkpt>
<trkpt lat="-1.431812" lon="50.5"><ele></ele><time>2014-5-9T15:30:24Z</time></trkpt>
<trkpt lat="-1.431803" lon="50.4"><ele></ele><time>2014-5-9T15:30:27Z</time></trkpt>
<trkpt lat="-1.431595" lon="50.2"><ele></ele><time>2014-5-9T15:30:30Z</time></trkpt>
<trkpt lat="-1.431407" lon="50.4"><ele></ele><time>2014-5-9T15:30:33Z</time></trkpt>
<trkpt lat="-1.431132" lon="50.3"><ele></ele><time>2014-5-9T15:30:36Z</time></trkpt>
<trkpt lat="-1.431154" lon="50.1"><ele></ele><time>2014-5-9T15:30:39Z</time></trkpt>
<trkpt lat="-1.431080" lon="49.6"><ele></ele><time>2014-5-9T15:30:42Z</time></trkpt>
<trkpt lat="-1.431220" lon="49.6"><ele></ele><time>2014-5-9T15:30:45Z</time></trkpt>
<trkpt lat="-1.431563" lon="50.9"><ele></ele><time>2014-5-9T15:30:48Z</time></trkpt>
<trkpt lat="-1.431749" lon="51.3"><ele></ele><time>2014-5-9T15:30:51Z</time></trkpt>
<trkpt lat="-1.431487" lon="50.7"><ele></ele><time>2014-5-9T15:30:54Z</time></trkpt>
<trkpt lat="-1.431224" lon="50.4"><ele></ele><time>2014-5-9T15:30:57Z</time></trkpt>
<trkpt lat="-1.431235" lon="50.6"><ele></ele><time>2014-5-9T15:31:0Z</time></trkpt>
<trkpt lat="-1.431378" lon="50.8"><ele></ele><time>2014-5-9T15:31:3Z</time></trkpt>
<trkpt lat="-1.431518" lon="50.8"><ele></ele><time>2014-5-9T15:31:6Z</time></trkpt>
<trkpt lat="-1.431449" lon="50.8"><ele></ele><time>2014-5-9T15:31:9Z</time></trkpt>
<trkpt lat="-1.431461" lon="50.7"><ele></ele><time>2014-5-9T15:31:12Z</time></trkpt>
<trkpt lat="-1.431469" lon="49.5"><ele></ele><time>2014-5-9T15:31:15Z</time></trkpt>
<trkpt lat="-1.431462" lon="49.2"><ele></ele><time>2014-5-9T15:31:18Z</time></trkpt>
<trkpt lat="-1.431355" lon="49.2"><ele></ele><time>2014-5-9T15:31:21Z</time></trkpt>
<trkpt lat="-1.431452" lon="49.8"><ele></ele><time>2014-5-9T15:31:24Z</time></trkpt>
<trkpt lat="-1.431716" lon="50.7"><ele></ele><time>2014-5-9T15:31:27Z</time></trkpt>
<trkpt lat="-1.431947" lon="50.8"><ele></ele><time>2014-5-9T15:31:30Z</time></trkpt>
<trkpt lat="-1.432035" lon="50.9"><ele></ele><time>2014-5-9T15:31:33Z</time></trkpt>
<trkpt lat="-1.431805" lon="50.3"><ele></ele><time>2014-5-9T15:31:36Z</time></trkpt>
<trkpt lat="-1.431379" lon="49.7"><ele></ele><time>2014-5-9T15:31:39Z</time></trkpt>
<trkpt lat="-1.431265" lon="50.3"><ele></ele><time>2014-5-9T15:31:42Z</time></trkpt>
<trkpt lat="-1.431290" lon="51.3"><ele></ele><time>2014-5-9T15:31:45Z</time></trkpt>
<trkpt lat="-1.431680" lon="51.0"><ele></ele><time>2014-5-9T15:31:48Z</time></trkpt>
<trkpt lat="-1.432075" lon="52.4"><ele></ele><time>2014-5-9T15:31:51Z</time></trkpt>
<trkpt lat="-1.432353" lon="52.6"><ele></ele><time>2014-5-9T15:31:54Z</time></trkpt>
<trkpt lat="-1.432284" lon="52.8"><ele></ele><time>2014-5-9T15:31:57Z</time></trkpt>
<trkpt lat="-1.432354" lon="53.0"><ele></ele><time>2014-5-9T15:32:0Z</time></trkpt>
<trkpt lat="-1.432442" lon="52.7"><ele></ele><time>2014-5-9T15:32:3Z</time></trkpt>
<trkpt lat="-1.432402" lon="52.1"><ele></ele><time>2014-5-9T15:32:6Z</time></trkpt>
<trkpt lat="-1.432276" lon="52.1"><ele></ele><time>2014-5-9T15:32:9Z</time></trkpt>
<trkpt lat="-1.431828" lon="51.8"><ele></ele><time>2014-5-9T15:32:12Z</time></trkpt>
<trkpt lat="-1.431321" lon="51.2"><ele></ele><time>2014-5-9T15:32:15Z</time></trkpt>
<trkpt lat="-1.430682" lon="51.7"><ele></ele><time>2014-5-9T15:32:18Z</time></trkpt>
<trkpt lat="-1.430555" lon="51.4"><ele></ele><time>2014-5-9T15:32:21Z</time></trkpt>
<trkpt lat="-1.430867" lon="52.1"><ele></ele><time>2014-5-9T15:32:24Z</time></trkpt>
<trkpt lat="-1.431039" lon="53.1"><ele></ele><time>2014-5-9T15:32:27Z</time></trkpt>
<trkpt lat="-1.431403" lon="52.8"><ele></ele><time>2014-5-9T15:32:30Z</time></trkpt>
<trkpt lat="-1.431930" lon="52.4"><ele></ele><time>2014-5-9T15:32:33Z</time></trkpt>
<trkpt lat="-1.432377" lon="53.4"><ele></ele><time>2014-5-9T15:32:36Z</time></trkpt>
<trkpt lat="-1.432230" lon="52.9"><ele></ele><time>2014-5-9T15:32:39Z</time></trkpt>
<trkpt lat="-1.431856" lon="51.9"><ele></ele><time>2014-5-9T15:32:42Z</time></trkpt>
<trkpt lat="-1.431247" lon="52.1"><ele></ele><time>2014-5-9T15:32:45Z</time></trkpt>
<trkpt lat="-1.430766" lon="55.1"><ele></ele><time>2014-5-9T15:32:48Z</time></trkpt>
<trkpt lat="-1.429947" lon="54.8"><ele></ele><time>2014-5-9T15:32:51Z</time></trkpt>
<trkpt lat="-1.429168" lon="56.0"><ele></ele><time>2014-5-9T15:32:54Z</time></trkpt>
<trkpt lat="-1.428618" lon="56.9"><ele></ele><time>2014-5-9T15:32:57Z</time></trkpt>
<trkpt lat="-1.428132" lon="55.7"><ele></ele><time>2014-5-9T15:33:0Z</time></trkpt>
<trkpt lat="-1.427901" lon="54.0"><ele></ele><time>2014-5-9T15:33:3Z</time></trkpt>
<trkpt lat="-1.427706" lon="52.9"><ele></ele><time>2014-5-9T15:33:6Z</time></trkpt>
<trkpt lat="-1.427578" lon="51.4"><ele></ele><time>2014-5-9T15:33:9Z</time></trkpt>
<trkpt lat="-1.427284" lon="50.9"><ele></ele><time>2014-5-9T15:33:12Z</time></trkpt>
<trkpt lat="-1.427312" lon="51.2"><ele></ele><time>2014-5-9T15:33:15Z</time></trkpt>
<trkpt lat="-1.427280" lon="49.9"><ele></ele><time>2014-5-9T15:33:18Z</time></trkpt>
<trkpt lat="-1.427274" lon="48.9"><ele></ele><time>2014-5-9T15:33:21Z</time></trkpt>
<trkpt lat="-1.427209" lon="48.7"><ele></ele><time>2014-5-9T15:33:24Z</time></trkpt>
<trkpt lat="-1.427108" lon="47.4"><ele></ele><time>2014-5-9T15:33:27Z</time></trkpt>
<trkpt lat="-1.426977" lon="47.4"><ele></ele><time>2014-5-9T15:33:30Z</time></trkpt>
<trkpt lat="-1.426835" lon="47.6"><ele></ele><time>2014-5-9T15:33:33Z</time></trkpt>
<trkpt lat="-1.426746" lon="47.6"><ele></ele><time>2014-5-9T15:33:36Z</time></trkpt>
<trkpt lat="-1.426730" lon="47.7"><ele></ele><time>2014-5-9T15:33:39Z</time></trkpt>
<trkpt lat="-1.426728" lon="48.4"><ele></ele><time>2014-5-9T15:33:42Z</time></trkpt>
<trkpt lat="-1.426719" lon="48.3"><ele></ele><time>2014-5-9T15:33:45Z</time></trkpt>
<trkpt lat="-1.426735" lon="48.3"><ele></ele><time>2014-5-9T15:33:48Z</time></trkpt>
<trkpt lat="-1.426671" lon="49.2"><ele></ele><time>2014-5-9T15:33:51Z</time></trkpt>
<trkpt lat="-1.426608" lon="49.0"><ele></ele><time>2014-5-9T15:33:54Z</time></trkpt>
<trkpt lat="-1.426514" lon="49.4"><ele></ele><time>2014-5-9T15:33:57Z</time></trkpt>
<trkpt lat="-1.426580" lon="49.7"><ele></ele><time>2014-5-9T15:34:0Z</time></trkpt>
<trkpt lat="-1.426724" lon="50.0"><ele></ele><time>2014-5-9T15:34:3Z</time></trkpt>
<trkpt lat="-1.426740" lon="50.3"><ele></ele><time>2014-5-9T15:34:6Z</time></trkpt>
<trkpt lat="-1.426894" lon="50.8"><ele></ele><time>2014-5-9T15:34:9Z</time></trkpt>
<trkpt lat="-1.426940" lon="51.6"><ele></ele><time>2014-5-9T15:34:12Z</time></trkpt>
<trkpt lat="-1.427075" lon="51.3"><ele></ele><time>2014-5-9T15:34:15Z</time></trkpt>
<trkpt lat="-1.427146" lon="50.3"><ele></ele><time>2014-5-9T15:34:18Z</time></trkpt>
<trkpt lat="-1.427227" lon="50.6"><ele></ele><time>2014-5-9T15:34:21Z</time></trkpt>
<trkpt lat="-1.427393" lon="49.9"><ele></ele><time>2014-5-9T15:34:24Z</time></trkpt>
<trkpt lat="-1.427561" lon="48.9"><ele></ele><time>2014-5-9T15:34:27Z</time></trkpt>
<trkpt lat="-1.427411" lon="48.0"><ele></ele><time>2014-5-9T15:34:30Z</time></trkpt>
<trkpt lat="-1.427027" lon="48.1"><ele></ele><time>2014-5-9T15:34:33Z</time></trkpt>
<trkpt lat="-1.427034" lon="48.2"><ele></ele><time>2014-5-9T15:34:36Z</time></trkpt>
<trkpt lat="-1.427029" lon="48.0"><ele></ele><time>2014-5-9T15:34:39Z</time></trkpt>
<trkpt lat="-1.426984" lon="48.4"><ele></ele><time>2014-5-9T15:34:42Z</time></trkpt>
<trkpt lat="-1.427123" lon="48.4"><ele></ele><time>2014-5-9T15:34:45Z</time></trkpt>
<trkpt lat="-1.427237" lon="48.4"><ele></ele><time>2014-5-9T15:34:48Z</time></trkpt>
<trkpt lat="-1.427296" lon="48.2"><ele></ele><time>2014-5-9T15:34:51Z</time></trkpt>
<trkpt lat="-1.427467" lon="48.6"><ele></ele><time>2014-5-9T15:34:54Z</time></trkpt>
<trkpt lat="-1.427712" lon="48.7"><ele></ele><time>2014-5-9T15:34:57Z</time></trkpt>
<trkpt lat="-1.427834" lon="48.9"><ele></ele><time>2014-5-9T15:35:0Z</time></trkpt>
<trkpt lat="-1.427911" lon="47.7"><ele></ele><time>2014-5-9T15:35:3Z</time></trkpt>
<trkpt lat="-1.427986" lon="48.5"><ele></ele><time>2014-5-9T15:35:6Z</time></trkpt>
<trkpt lat="-1.428053" lon="50.0"><ele></ele><time>2014-5-9T15:35:9Z</time></trkpt>
<trkpt lat="-1.428198" lon="51.4"><ele></ele><time>2014-5-9T15:35:12Z</time></trkpt>
<trkpt lat="-1.428487" lon="51.9"><ele></ele><time>2014-5-9T15:35:15Z</time></trkpt>
<trkpt lat="-1.428484" lon="51.5"><ele></ele><time>2014-5-9T15:35:18Z</time></trkpt>
<trkpt lat="-1.428595" lon="51.6"><ele></ele><time>2014-5-9T15:35:21Z</time></trkpt>
<trkpt lat="-1.428847" lon="51.3"><ele></ele><time>2014-5-9T15:35:24Z</time></trkpt>
<trkpt lat="-1.429208" lon="50.9"><ele></ele><time>2014-5-9T15:35:27Z</time></trkpt>
<trkpt lat="-1.429514" lon="52.4"><ele></ele><time>2014-5-9T15:35:30Z</time></trkpt>
<trkpt lat="-1.429326" lon="53.5"><ele></ele><time>2014-5-9T15:35:33Z</time></trkpt>
<trkpt lat="-1.428717" lon="52.4"><ele></ele><time>2014-5-9T15:35:36Z</time></trkpt>
<trkpt lat="-1.428439" lon="52.5"><ele></ele><time>2014-5-9T15:35:39Z</time></trkpt>
<trkpt lat="-1.428319" lon="53.1"><ele></ele><time>2014-5-9T15:35:42Z</time></trkpt>
<trkpt lat="-1.428450" lon="55.0"><ele></ele><time>2014-5-9T15:35:45Z</time></trkpt>
<trkpt lat="-1.428579" lon="55.5"><ele></ele><time>2014-5-9T15:35:48Z</time></trkpt>
<trkpt lat="-1.428692" lon="55.8"><ele></ele><time>2014-5-9T15:35:51Z</time></trkpt>
<trkpt lat="-1.428894" lon="56.0"><ele></ele><time>2014-5-9T15:35:54Z</time></trkpt>
<trkpt lat="-1.429207" lon="57.4"><ele></ele><time>2014-5-9T15:35:57Z</time></trkpt>
<trkpt lat="-1.429487" lon="56.1"><ele></ele><time>2014-5-9T15:36:0Z</time></trkpt>
<trkpt lat="-1.429792" lon="56.4"><ele></ele><time>2014-5-9T15:36:3Z</time></trkpt>
<trkpt lat="-1.430081" lon="56.3"><ele></ele><time>2014-5-9T15:36:6Z</time></trkpt>
<trkpt lat="-1.430081" lon="54.6"><ele></ele><time>2014-5-9T15:36:9Z</time></trkpt>
<trkpt lat="-1.430471" lon="54.2"><ele></ele><time>2014-5-9T15:36:12Z</time></trkpt>
<trkpt lat="-1.430796" lon="54.7"><ele></ele><time>2014-5-9T15:36:15Z</time></trkpt>
<trkpt lat="-1.431017" lon="55.3"><ele></ele><time>2014-5-9T15:36:18Z</time></trkpt>
<trkpt lat="-1.431225" lon="53.9"><ele></ele><time>2014-5-9T15:36:21Z</time></trkpt>
<trkpt lat="-1.431542" lon="52.5"><ele></ele><time>2014-5-9T15:36:24Z</time></trkpt>
<trkpt lat="-1.431927" lon="51.9"><ele></ele><time>2014-5-9T15:36:27Z</time></trkpt>
<trkpt lat="-1.432593" lon="52.5"><ele></ele><time>2014-5-9T15:36:30Z</time></trkpt>
<trkpt lat="-1.433326" lon="52.5"><ele></ele><time>2014-5-9T15:36:33Z</time></trkpt>
<trkpt lat="-1.434073" lon="52.4"><ele></ele><time>2014-5-9T15:36:36Z</time></trkpt>
<trkpt lat="-1.434811" lon="51.8"><ele></ele><time>2014-5-9T15:36:39Z</time></trkpt>
<trkpt lat="-1.435157" lon="50.7"><ele></ele><time>2014-5-9T15:36:42Z</time></trkpt>
<trkpt lat="-1.435690" lon="51.2"><ele></ele><time>2014-5-9T15:36:45Z</time></trkpt>
<trkpt lat="-1.435855" lon="52.4"><ele></ele><time>2014-5-9T15:36:48Z</time></trkpt>
<trkpt lat="-1.436036" lon="52.4"><ele></ele><time>2014-5-9T15:36:51Z</time></trkpt>
<trkpt lat="-1.436210" lon="51.9"><ele></ele><time>2014-5-9T15:36:54Z</time></trkpt>
<trkpt lat="-1.436454" lon="52.2"><ele></ele><time>2014-5-9T15:36:57Z</time></trkpt>
<trkpt lat="-1.436725" lon="52.1"><ele></ele><time>2014-5-9T15:37:0Z</time></trkpt>
<trkpt lat="-1.437350" lon="52.1"><ele></ele><time>2014-5-9T15:37:3Z</time></trkpt>
<trkpt lat="-1.438220" lon="52.4"><ele></ele><time>2014-5-9T15:37:6Z</time></trkpt>
<trkpt lat="-1.439126" lon="52.1"><ele></ele><time>2014-5-9T15:37:9Z</time></trkpt>
<trkpt lat="-1.440053" lon="51.9"><ele></ele><time>2014-5-9T15:37:12Z</time></trkpt>
<trkpt lat="-1.440851" lon="52.4"><ele></ele><time>2014-5-9T15:37:15Z</time></trkpt>
<trkpt lat="-1.441736" lon="54.1"><ele></ele><time>2014-5-9T15:37:18Z</time></trkpt>
<trkpt lat="-1.442623" lon="53.4"><ele></ele><time>2014-5-9T15:37:21Z</time></trkpt>
<trkpt lat="-1.443489" lon="53.1"><ele></ele><time>2014-5-9T15:37:24Z</time></trkpt>
<trkpt lat="-1.444195" lon="52.7"><ele></ele><time>2014-5-9T15:37:27Z</time></trkpt>
<trkpt lat="-1.444578" lon="53.1"><ele></ele><time>2014-5-9T15:37:30Z</time></trkpt>
<trkpt lat="-1.445168" lon="53.0"><ele></ele><time>2014-5-9T15:37:33Z</time></trkpt>
<trkpt lat="-1.445484" lon="53.1"><ele></ele><time>2014-5-9T15:37:36Z</time></trkpt>
<trkpt lat="-1.445581" lon="53.1"><ele></ele><time>2014-5-9T15:37:39Z</time></trkpt>
<trkpt lat="-1.445353" lon="53.7"><ele></ele><time>2014-5-9T15:37:42Z</time></trkpt>
<trkpt lat="-1.445047" lon="53.5"><ele></ele><time>2014-5-9T15:37:45Z</time></trkpt>
<trkpt lat="-1.444934" lon="53.3"><ele></ele><time>2014-5-9T15:37:48Z</time></trkpt>
<trkpt lat="-1.445061" lon="54.1"><ele></ele><time>2014-5-9T15:37:51Z</time></trkpt>
<trkpt lat="-1.445203" lon="52.9"><ele></ele><time>2014-5-9T15:37:54Z</time></trkpt>
<trkpt lat="-1.445389" lon="53.5"><ele></ele><time>2014-5-9T15:37:57Z</time></trkpt>
<trkpt lat="-1.445497" lon="53.8"><ele></ele><time>2014-5-9T15:38:0Z</time></trkpt>
<trkpt lat="-1.445551" lon="53.0"><ele></ele><time>2014-5-9T15:38:3Z</time></trkpt>
<trkpt lat="-1.445546" lon="53.6"><ele></ele><time>2014-5-9T15:38:6Z</time></trkpt>
<trkpt lat="-1.445598" lon="53.5"><ele></ele><time>2014-5-9T15:38:9Z</time></trkpt>
<trkpt lat="-1.445565" lon="53.6"><ele></ele><time>2014-5-9T15:38:12Z</time></trkpt>
<trkpt lat="-1.445595" lon="53.6"><ele></ele><time>2014-5-9T15:38:15Z</time></trkpt>
<trkpt lat="-1.445672" lon="53.8"><ele></ele><time>2014-5-9T15:38:18Z</time></trkpt>
<trkpt lat="-1.445417" lon="53.6"><ele></ele><time>2014-5-9T15:38:21Z</time></trkpt>
<trkpt lat="-1.445000" lon="54.5"><ele></ele><time>2014-5-9T15:38:24Z</time></trkpt>
<trkpt lat="-1.445453" lon="55.6"><ele></ele><time>2014-5-9T15:38:27Z</time></trkpt>
<trkpt lat="-1.445575" lon="58.9"><ele></ele><time>2014-5-9T15:38:30Z</time></trkpt>
<trkpt lat="-1.445414" lon="57.6"><ele></ele><time>2014-5-9T15:38:33Z</time></trkpt>
<trkpt lat="-1.445215" lon="57.5"><ele></ele><time>2014-5-9T15:38:36Z</time></trkpt>
<trkpt lat="-1.444838" lon="57.5"><ele></ele><time>2014-5-9T15:38:39Z</time></trkpt>
<trkpt lat="-1.443987" lon="57.6"><ele></ele><time>2014-5-9T15:38:42Z</time></trkpt>
<trkpt lat="-1.443448" lon="58.4"><ele></ele><time>2014-5-9T15:38:45Z</time></trkpt>
<trkpt lat="-1.442940" lon="58.3"><ele></ele><time>2014-5-9T15:38:48Z</time></trkpt>
<trkpt lat="-1.442177" lon="56.4"><ele></ele><time>2014-5-9T15:38:51Z</time></trkpt>
<trkpt lat="-1.441389" lon="56.4"><ele></ele><time>2014-5-9T15:38:54Z</time></trkpt>
<trkpt lat="-1.440560" lon="55.2"><ele></ele><time>2014-5-9T15:38:57Z</time></trkpt>
<trkpt lat="-1.439800" lon="55.3"><ele></ele><time>2014-5-9T15:39:0Z</time></trkpt>
<trkpt lat="-1.439011" lon="54.6"><ele></ele><time>2014-5-9T15:39:3Z</time></trkpt>
<trkpt lat="-1.438132" lon="53.2"><ele></ele><time>2014-5-9T15:39:6Z</time></trkpt>
<trkpt lat="-1.437289" lon="51.5"><ele></ele><time>2014-5-9T15:39:9Z</time></trkpt>
<trkpt lat="-1.436492" lon="51.2"><ele></ele><time>2014-5-9T15:39:12Z</time></trkpt>
<trkpt lat="-1.435727" lon="51.2"><ele></ele><time>2014-5-9T15:39:15Z</time></trkpt>
<trkpt lat="-1.434868" lon="50.1"><ele></ele><time>2014-5-9T15:39:18Z</time></trkpt>
<trkpt lat="-1.434078" lon="51.0"><ele></ele><time>2014-5-9T15:39:21Z</time></trkpt>
<trkpt lat="-1.433420" lon="50.5"><ele></ele><time>2014-5-9T15:39:24Z</time></trkpt>
<trkpt lat="-1.433520" lon="50.4"><ele></ele><time>2014-5-9T15:39:27Z</time></trkpt>
<trkpt lat="-1.433651" lon="50.2"><ele></ele><time>2014-5-9T15:39:30Z</time></trkpt>
<trkpt lat="-1.433770" lon="49.3"><ele></ele><time>2014-5-9T15:39:33Z</time></trkpt>
<trkpt lat="-1.433830" lon="49.4"><ele></ele><time>2014-5-9T15:39:36Z</time></trkpt>
<trkpt lat="-1.433736" lon="49.2"><ele></ele><time>2014-5-9T15:39:39Z</time></trkpt>
<trkpt lat="-1.433538" lon="49.6"><ele></ele><time>2014-5-9T15:39:42Z</time></trkpt>
<trkpt lat="-1.433200" lon="49.1"><ele></ele><time>2014-5-9T15:39:45Z</time></trkpt>
<trkpt lat="-1.432830" lon="49.0"><ele></ele><time>2014-5-9T15:39:48Z</time></trkpt>
<trkpt lat="-1.432481" lon="49.3"><ele></ele><time>2014-5-9T15:39:51Z</time></trkpt>
<trkpt lat="-1.432002" lon="49.7"><ele></ele><time>2014-5-9T15:39:54Z</time></trkpt>
<trkpt lat="-1.431687" lon="50.2"><ele></ele><time>2014-5-9T15:39:57Z</time></trkpt>
<trkpt lat="-1.431432" lon="52.0"><ele></ele><time>2014-5-9T15:40:0Z</time></trkpt>
<trkpt lat="-1.431569" lon="51.4"><ele></ele><time>2014-5-9T15:40:3Z</time></trkpt>
<trkpt lat="-1.431848" lon="52.5"><ele></ele><time>2014-5-9T15:40:6Z</time></trkpt>
<trkpt lat="-1.432235" lon="56.8"><ele></ele><time>2014-5-9T15:40:9Z</time></trkpt>
<trkpt lat="-1.432502" lon="58.7"><ele></ele><time>2014-5-9T15:40:12Z</time></trkpt>
<trkpt lat="-1.432680" lon="60.0"><ele></ele><time>2014-5-9T15:40:15Z</time></trkpt>
<trkpt lat="-1.432583" lon="58.8"><ele></ele><time>2014-5-9T15:40:18Z</time></trkpt>
<trkpt lat="-1.432434" lon="57.4"><ele></ele><time>2014-5-9T15:40:21Z</time></trkpt>
<trkpt lat="-1.432394" lon="56.7"><ele></ele><time>2014-5-9T15:40:24Z</time></trkpt>
<trkpt lat="-1.432263" lon="56.7"><ele></ele><time>2014-5-9T15:40:27Z</time></trkpt>
<trkpt lat="-1.432888" lon="53.7"><ele></ele><time>2014-5-9T15:40:30Z</time></trkpt>
<trkpt lat="-1.433002" lon="53.2"><ele></ele><time>2014-5-9T15:40:33Z</time></trkpt>
<trkpt lat="-1.433186" lon="52.8"><ele></ele><time>2014-5-9T15:40:36Z</time></trkpt>
<trkpt lat="-1.433535" lon="53.2"><ele></ele><time>2014-5-9T15:40:39Z</time></trkpt>
<trkpt lat="-1.434215" lon="52.5"><ele></ele><time>2014-5-9T15:40:42Z</time></trkpt>
<trkpt lat="-1.434829" lon="51.8"><ele></ele><time>2014-5-9T15:40:45Z</time></trkpt>
<trkpt lat="-1.435049" lon="50.7"><ele></ele><time>2014-5-9T15:40:48Z</time></trkpt>
<trkpt lat="-1.435134" lon="51.2"><ele></ele><time>2014-5-9T15:40:51Z</time></trkpt>
<trkpt lat="-1.435125" lon="51.0"><ele></ele><time>2014-5-9T15:40:54Z</time></trkpt>
<trkpt lat="-1.434945" lon="50.4"><ele></ele><time>2014-5-9T15:40:57Z</time></trkpt>
<trkpt lat="-1.434353" lon="49.7"><ele></ele><time>2014-5-9T15:41:0Z</time></trkpt>
<trkpt lat="-1.433803" lon="48.9"><ele></ele><time>2014-5-9T15:41:3Z</time></trkpt>
<trkpt lat="-1.433900" lon="49.6"><ele></ele><time>2014-5-9T15:41:6Z</time></trkpt>
<trkpt lat="-1.434066" lon="54.6"><ele></ele><time>2014-5-9T15:41:9Z</time></trkpt>
<trkpt lat="-1.434108" lon="54.7"><ele></ele><time>2014-5-9T15:41:12Z</time></trkpt>
<trkpt lat="-1.434284" lon="55.9"><ele></ele><time>2014-5-9T15:41:15Z</time></trkpt>
<trkpt lat="-1.434485" lon="58.1"><ele></ele><time>2014-5-9T15:41:18Z</time></trkpt>
<trkpt lat="-1.434423" lon="61.6"><ele></ele><time>2014-5-9T15:41:21Z</time></trkpt>
<trkpt lat="-1.434182" lon="57.7"><ele></ele><time>2014-5-9T15:41:24Z</time></trkpt>
<trkpt lat="-1.433847" lon="52.7"><ele></ele><time>2014-5-9T15:41:27Z</time></trkpt>
<trkpt lat="-1.433365" lon="52.5"><ele></ele><time>2014-5-9T15:41:30Z</time></trkpt>
<trkpt lat="-1.432847" lon="51.5"><ele></ele><time>2014-5-9T15:41:33Z</time></trkpt>
<trkpt lat="-1.432294" lon="50.9"><ele></ele><time>2014-5-9T15:41:36Z</time></trkpt>
<trkpt lat="-1.431583" lon="49.2"><ele></ele><time>2014-5-9T15:41:39Z</time></trkpt>
<trkpt lat="-1.430865" lon="50.0"><ele></ele><time>2014-5-9T15:41:42Z</time></trkpt>
<trkpt lat="-1.430429" lon="50.0"><ele></ele><time>2014-5-9T15:41:45Z</time></trkpt>
<trkpt lat="-1.430157" lon="50.9"><ele></ele><time>2014-5-9T15:41:48Z</time></trkpt>
<trkpt lat="-1.430266" lon="51.2"><ele></ele><time>2014-5-9T15:41:51Z</time></trkpt>
<trkpt lat="-1.430170" lon="51.2"><ele></ele><time>2014-5-9T15:41:54Z</time></trkpt>
<trkpt lat="-1.430029" lon="52.2"><ele></ele><time>2014-5-9T15:41:57Z</time></trkpt>
<trkpt lat="-1.429912" lon="54.4"><ele></ele><time>2014-5-9T15:42:0Z</time></trkpt>
<trkpt lat="-1.429594" lon="55.0"><ele></ele><time>2014-5-9T15:42:3Z</time></trkpt>
<trkpt lat="-1.429363" lon="58.1"><ele></ele><time>2014-5-9T15:42:6Z</time></trkpt>
<trkpt lat="-1.429052" lon="57.0"><ele></ele><time>2014-5-9T15:42:9Z</time></trkpt>
<trkpt lat="-1.428771" lon="60.1"><ele></ele><time>2014-5-9T15:42:12Z</time></trkpt>
<trkpt lat="-1.428450" lon="59.0"><ele></ele><time>2014-5-9T15:42:15Z</time></trkpt>
<trkpt lat="-1.428324" lon="59.0"><ele></ele><time>2014-5-9T15:42:18Z</time></trkpt>
<trkpt lat="-1.428995" lon="54.2"><ele></ele><time>2014-5-9T15:42:21Z</time></trkpt>
<trkpt lat="-1.429796" lon="54.1"><ele></ele><time>2014-5-9T15:42:24Z</time></trkpt>
<trkpt lat="-1.430653" lon="53.3"><ele></ele><time>2014-5-9T15:42:27Z</time></trkpt>
<trkpt lat="-1.431434" lon="54.0"><ele></ele><time>2014-5-9T15:42:30Z</time></trkpt>
<trkpt lat="-1.432056" lon="54.3"><ele></ele><time>2014-5-9T15:42:33Z</time></trkpt>
<trkpt lat="-1.432724" lon="53.6"><ele></ele><time>2014-5-9T15:42:36Z</time></trkpt>
<trkpt lat="-1.433610" lon="54.0"><ele></ele><time>2014-5-9T15:42:39Z</time></trkpt>
<trkpt lat="-1.434711" lon="55.0"><ele></ele><time>2014-5-9T15:42:42Z</time></trkpt>
<trkpt lat="-1.435517" lon="58.5"><ele></ele><time>2014-5-9T15:42:45Z</time></trkpt>
<trkpt lat="-1.436343" lon="55.8"><ele></ele><time>2014-5-9T15:42:48Z</time></trkpt>
<trkpt lat="-1.437180" lon="57.0"><ele></ele><time>2014-5-9T15:42:51Z</time></trkpt>
<trkpt lat="-1.438094" lon="56.9"><ele></ele><time>2014-5-9T15:42:54Z</time></trkpt>
<trkpt lat="-1.438906" lon="58.0"><ele></ele><time>2014-5-9T15:42:57Z</time></trkpt>
<trkpt lat="-1.439883" lon="56.8"><ele></ele><time>2014-5-9T15:43:0Z</time></trkpt>
<trkpt lat="-1.440630" lon="55.7"><ele></ele><time>2014-5-9T15:43:3Z</time></trkpt>
<trkpt lat="-1.441187" lon="55.8"><ele></ele><time>2014-5-9T15:43:6Z</time></trkpt>
<trkpt lat="-1.441693" lon="56.6"><ele></ele><time>2014-5-9T15:43:9Z</time></trkpt>
<trkpt lat="-1.442098" lon="56.8"><ele></ele><time>2014-5-9T15:43:12Z</time></trkpt>
<trkpt lat="-1.442532" lon="57.2"><ele></ele><time>2014-5-9T15:43:15Z</time></trkpt>
<trkpt lat="-1.442941" lon="57.5"><ele></ele><time>2014-5-9T15:43:18Z</time></trkpt>
<trkpt lat="-1.443122" lon="56.0"><ele></ele><time>2014-5-9T15:43:21Z</time></trkpt>
<trkpt lat="-1.443264" lon="55.8"><ele></ele><time>2014-5-9T15:43:24Z</time></trkpt>
<trkpt lat="-1.443321" lon="55.4"><ele></ele><time>2014-5-9T15:43:27Z</time></trkpt>
<trkpt lat="-1.443099" lon="54.4"><ele></ele><time>2014-5-9T15:43:30Z</time></trkpt>
<trkpt lat="-1.442710" lon="55.2"><ele></ele><time>2014-5-9T15:43:33Z</time></trkpt>
<trkpt lat="-1.442301" lon="56.8"><ele></ele><time>2014-5-9T15:43:36Z</time></trkpt>
<trkpt lat="-1.442017" lon="60.5"><ele></ele><time>2014-5-9T15:43:39Z</time></trkpt>
<trkpt lat="-1.442221" lon="57.4"><ele></ele><time>2014-5-9T15:43:42Z</time></trkpt>
<trkpt lat="-1.442527" lon="56.8"><ele></ele><time>2014-5-9T15:43:45Z</time></trkpt>
<trkpt lat="-1.442838" lon="55.9"><ele></ele><time>2014-5-9T15:43:48Z</time></trkpt>
<trkpt lat="-1.442999" lon="57.8"><ele></ele><time>2014-5-9T15:43:51Z</time></trkpt>
<trkpt lat="-1.443390" lon="61.1"><ele></ele><time>2014-5-9T15:43:54Z</time></trkpt>
<trkpt lat="-1.443477" lon="58.5"><ele></ele><time>2014-5-9T15:43:57Z</time></trkpt>
<trkpt lat="-1.443555" lon="58.0"><ele></ele><time>2014-5-9T15:44:0Z</time></trkpt>
<trkpt lat="-1.443605" lon="57.4"><ele></ele><time>2014-5-9T15:44:3Z</time></trkpt>
<trkpt lat="-1.443769" lon="57.7"><ele></ele><time>2014-5-9T15:44:6Z</time></trkpt>
<trkpt lat="-1.443986" lon="57.9"><ele></ele><time>2014-5-9T15:44:9Z</time></trkpt>
<trkpt lat="-1.444169" lon="57.5"><ele></ele><time>2014-5-9T15:44:12Z</time></trkpt>
<trkpt lat="-1.444486" lon="56.8"><ele></ele><time>2014-5-9T15:44:15Z</time></trkpt>
<trkpt lat="-1.444627" lon="54.8"><ele></ele><time>2014-5-9T15:44:18Z</time></trkpt>
<trkpt lat="-1.444694" lon="54.1"><ele></ele><time>2014-5-9T15:44:21Z</time></trkpt>
<trkpt lat="-1.444675" lon="54.1"><ele></ele><time>2014-5-9T15:44:24Z</time></trkpt>
<trkpt lat="-1.444702" lon="53.2"><ele></ele><time>2014-5-9T15:44:27Z</time></trkpt>
<trkpt lat="-1.444859" lon="53.5"><ele></ele><time>2014-5-9T15:44:30Z</time></trkpt>
<trkpt lat="-1.445151" lon="54.5"><ele></ele><time>2014-5-9T15:44:33Z</time></trkpt>
<trkpt lat="-1.445324" lon="53.3"><ele></ele><time>2014-5-9T15:44:36Z</time></trkpt>
<trkpt lat="-1.445387" lon="52.2"><ele></ele><time>2014-5-9T15:44:39Z</time></trkpt>
<trkpt lat="-1.445265" lon="51.4"><ele></ele><time>2014-5-9T15:44:42Z</time></trkpt>
<trkpt lat="-1.444876" lon="49.4"><ele></ele><time>2014-5-9T15:44:45Z</time></trkpt>
<trkpt lat="-1.444360" lon="49.1"><ele></ele><time>2014-5-9T15:44:48Z</time></trkpt>
<trkpt lat="-1.443784" lon="49.3"><ele></ele><time>2014-5-9T15:44:51Z</time></trkpt>
<trkpt lat="-1.443498" lon="48.3"><ele></ele><time>2014-5-9T15:44:54Z</time></trkpt>
<trkpt lat="-1.443403" lon="48.4"><ele></ele><time>2014-5-9T15:44:57Z</time></trkpt>
<trkpt lat="-1.443276" lon="49.9"><ele></ele><time>2014-5-9T15:45:0Z</time></trkpt>
<trkpt lat="-1.443149" lon="51.7"><ele></ele><time>2014-5-9T15:45:3Z</time></trkpt>
<trkpt lat="-1.443340" lon="53.2"><ele></ele><time>2014-5-9T15:45:6Z</time></trkpt>
<trkpt lat="-1.443740" lon="53.6"><ele></ele><time>2014-5-9T15:45:9Z</time></trkpt>
<trkpt lat="-1.443875" lon="54.1"><ele></ele><time>2014-5-9T15:45:12Z</time></trkpt>
<trkpt lat="-1.443639" lon="54.3"><ele></ele><time>2014-5-9T15:45:15Z</time></trkpt>
<trkpt lat="-1.443488" lon="54.1"><ele></ele><time>2014-5-9T15:45:18Z</time></trkpt>
<trkpt lat="-1.443396" lon="54.1"><ele></ele><time>2014-5-9T15:45:21Z</time></trkpt>
<trkpt lat="-1.443518" lon="54.5"><ele></ele><time>2014-5-9T15:45:24Z</time></trkpt>
<trkpt lat="" lon="1"><ele></ele><time>2014-5-9T15:45:27Z</time></trkpt>
<trkpt lat="-0.009985" lon="76.7"><ele></ele><time>2014-5-9T15:45:30Z</time></trkpt>
<trkpt lat="-0.010120" lon="365.7"><ele></ele><time>2014-5-9T15:45:33Z</time></trkpt>
<trkpt lat="-0.010334" lon="364.8"><ele></ele><time>2014-5-9T15:45:36Z</time></trkpt>
<trkpt lat="-0.010867" lon="363.8"><ele></ele><time>2014-5-9T15:45:39Z</time></trkpt>
<trkpt lat="-0.011469" lon="364.1"><ele></ele><time>2014-5-9T15:45:42Z</time></trkpt>
<trkpt lat="-0.012135" lon="363.9"><ele></ele><time>2014-5-9T15:45:45Z</time></trkpt>
<trkpt lat="-0.012819" lon="364.7"><ele></ele><time>2014-5-9T15:45:48Z</time></trkpt>
<trkpt lat="-0.013340" lon="364.8"><ele></ele><time>2014-5-9T15:45:51Z</time></trkpt>
<trkpt lat="-0.013771" lon="365.6"><ele></ele><time>2014-5-9T15:45:54Z</time></trkpt>
<trkpt lat="-0.014196" lon="368.0"><ele></ele><time>2014-5-9T15:45:57Z</time></trkpt>
<trkpt lat="-0.014641" lon="369.4"><ele></ele><time>2014-5-9T15:46:0Z</time></trkpt>
<trkpt lat="-0.015242" lon="369.6"><ele></ele><time>2014-5-9T15:46:3Z</time></trkpt>
<trkpt lat="-0.015934" lon="369.2"><ele></ele><time>2014-5-9T15:46:6Z</time></trkpt>
<trkpt lat="-0.016565" lon="370.1"><ele></ele><time>2014-5-9T15:46:9Z</time></trkpt>
<trkpt lat="-0.017258" lon="370.2"><ele></ele><time>2014-5-9T15:46:12Z</time></trkpt>
<trkpt lat="-0.017809" lon="368.8"><ele></ele><time>2014-5-9T15:46:15Z</time></trkpt>
<trkpt lat="-0.018262" lon="369.0"><ele></ele><time>2014-5-9T15:46:18Z</time></trkpt>
<trkpt lat="-0.018833" lon="369.5"><ele></ele><time>2014-5-9T15:46:21Z</time></trkpt>
<trkpt lat="-0.019452" lon="369.3"><ele></ele><time>2014-5-9T15:46:24Z</time></trkpt>
<trkpt lat="-0.019919" lon="368.4"><ele></ele><time>2014-5-9T15:46:27Z</time></trkpt>
<trkpt lat="-0.020494" lon="367.6"><ele></ele><time>2014-5-9T15:46:30Z</time></trkpt>
<trkpt lat="-0.020833" lon="367.5"><ele></ele><time>2014-5-9T15:46:33Z</time></trkpt>
<trkpt lat="-0.020977" lon="368.5"><ele></ele><time>2014-5-9T15:46:36Z</time></trkpt>
<trkpt lat="-0.021405" lon="369.0"><ele></ele><time>2014-5-9T15:46:39Z</time></trkpt>
<trkpt lat="-0.021857" lon="369.7"><ele></ele><time>2014-5-9T15:46:42Z</time></trkpt>
<trkpt lat="-0.022246" lon="370.4"><ele></ele><time>2014-5-9T15:46:45Z</time></trkpt>
<trkpt lat="-0.022775" lon="371.6"><ele></ele><time>2014-5-9T15:46:48Z</time></trkpt>
<trkpt lat="-0.023213" lon="371.9"><ele></ele><time>2014-5-9T15:46:51Z</time></trkpt>
<trkpt lat="-0.023447" lon="372.1"><ele></ele><time>2014-5-9T15:46:54Z</time></trkpt>
<trkpt lat="-0.023787" lon="372.0"><ele></ele><time>2014-5-9T15:46:57Z</time></trkpt>
<trkpt lat="-0.024253" lon="371.7"><ele></ele><time>2014-5-9T15:47:0Z</time></trkpt>
<trkpt lat="-0.024787" lon="371.9"><ele></ele><time>2014-5-9T15:47:3Z</time></trkpt>
<trkpt lat="-0.025270" lon="372.2"><ele></ele><time>2014-5-9T15:47:6Z</time></trkpt>
<trkpt lat="-0.025652" lon="373.7"><ele></ele><time>2014-5-9T15:47:9Z</time></trkpt>
<trkpt lat="-0.026016" lon="375.9"><ele></ele><time>2014-5-9T15:47:12Z</time></trkpt>
<trkpt lat="-0.026464" lon="379.2"><ele></ele><time>2014-5-9T15:47:15Z</time></trkpt>
<trkpt lat="-0.026961" lon="381.4"><ele></ele><time>2014-5-9T15:47:18Z</time></trkpt>
<trkpt lat="-0.027370" lon="384.4"><ele></ele><time>2014-5-9T15:47:21Z</time></trkpt>
<trkpt lat="-0.027771" lon="389.3"><ele></ele><time>2014-5-9T15:47:24Z</time></trkpt>
<trkpt lat="-0.028118" lon="393.0"><ele></ele><time>2014-5-9T15:47:27Z</time></trkpt>
<trkpt lat="-0.028449" lon="394.6"><ele></ele><time>2014-5-9T15:47:30Z</time></trkpt>
<trkpt lat="-0.028781" lon="397.3"><ele></ele><time>2014-5-9T15:47:33Z</time></trkpt>
<trkpt lat="-0.029113" lon="400.1"><ele></ele><time>2014-5-9T15:47:36Z</time></trkpt>
<trkpt lat="-0.029406" lon="400.8"><ele></ele><time>2014-5-9T15:47:39Z</time></trkpt>
<trkpt lat="-0.029673" lon="402.6"><ele></ele><time>2014-5-9T15:47:42Z</time></trkpt>
<trkpt lat="-0.029917" lon="404.5"><ele></ele><time>2014-5-9T15:47:45Z</time></trkpt>
<trkpt lat="-0.030171" lon="404.2"><ele></ele><time>2014-5-9T15:47:48Z</time></trkpt>
<trkpt lat="-0.030446" lon="406.1"><ele></ele><time>2014-5-9T15:47:51Z</time></trkpt>
<trkpt lat="-0.030697" lon="406.7"><ele></ele><time>2014-5-9T15:47:54Z</time></trkpt>
<trkpt lat="-0.030954" lon="408.1"><ele></ele><time>2014-5-9T15:47:57Z</time></trkpt>
<trkpt lat="-0.031114" lon="408.6"><ele></ele><time>2014-5-9T15:48:0Z</time></trkpt>
<trkpt lat="-0.031379" lon="409.8"><ele></ele><time>2014-5-9T15:48:3Z</time></trkpt>
<trkpt lat="-0.031565" lon="410.9"><ele></ele><time>2014-5-9T15:48:6Z</time></trkpt>
<trkpt lat="-0.031750" lon="411.8"><ele></ele><time>2014-5-9T15:48:9Z</time></trkpt>
<trkpt lat="-0.031993" lon="412.3"><ele></ele><time>2014-5-9T15:48:12Z</time></trkpt>
<trkpt lat="-0.032244" lon="413.9"><ele></ele><time>2014-5-9T15:48:15Z</time></trkpt>
<trkpt lat="-0.032441" lon="415.6"><ele></ele><time>2014-5-9T15:48:18Z</time></trkpt>
<trkpt lat="-0.032714" lon="416.5"><ele></ele><time>2014-5-9T15:48:21Z</time></trkpt>
<trkpt lat="-0.033015" lon="419.5"><ele></ele><time>2014-5-9T15:48:24Z</time></trkpt>
<trkpt lat="-0.033326" lon="421.4"><ele></ele><time>2014-5-9T15:48:27Z</time></trkpt>
<trkpt lat="-0.033559" lon="423.0"><ele></ele><time>2014-5-9T15:48:30Z</time></trkpt>
<trkpt lat="-0.033769" lon="424.1"><ele></ele><time>2014-5-9T15:48:33Z</time></trkpt>
<trkpt lat="-0.034024" lon="426.5"><ele></ele><time>2014-5-9T15:48:36Z</time></trkpt>
<trkpt lat="-0.034328" lon="429.0"><ele></ele><time>2014-5-9T15:48:39Z</time></trkpt>
<trkpt lat="-0.034632" lon="429.6"><ele></ele><time>2014-5-9T15:48:42Z</time></trkpt>
<trkpt lat="-0.034831" lon="433.2"><ele></ele><time>2014-5-9T15:48:45Z</time></trkpt>
<trkpt lat="-0.034964" lon="442.0"><ele></ele><time>2014-5-9T15:48:48Z</time></trkpt>
<trkpt lat="-0.035098" lon="441.5"><ele></ele><time>2014-5-9T15:48:51Z</time></trkpt>
<trkpt lat="-0.034924" lon="439.1"><ele></ele><time>2014-5-9T15:48:54Z</time></trkpt>
<trkpt lat="-0.034653" lon="439.4"><ele></ele><time>2014-5-9T15:48:57Z</time></trkpt>
<trkpt lat="-0.034462" lon="437.1"><ele></ele><time>2014-5-9T15:49:0Z</time></trkpt>
<trkpt lat="-0.034383" lon="438.5"><ele></ele><time>2014-5-9T15:49:3Z</time></trkpt>
<trkpt lat="-0.034516" lon="440.5"><ele></ele><time>2014-5-9T15:49:6Z</time></trkpt>
<trkpt lat="-0.034774" lon="439.4"><ele></ele><time>2014-5-9T15:49:9Z</time></trkpt>
<trkpt lat="-0.034940" lon="440.3"><ele></ele><time>2014-5-9T15:49:12Z</time></trkpt>
<trkpt lat="-0.035018" lon="439.0"><ele></ele><time>2014-5-9T15:49:15Z</time></trkpt>
<trkpt lat="-0.035223" lon="440.4"><ele></ele><time>2014-5-9T15:49:18Z</time></trkpt>
<trkpt lat="-0.035507" lon="441.7"><ele></ele><time>2014-5-9T15:49:21Z</time></trkpt>
<trkpt lat="-0.035618" lon="441.3"><ele></ele><time>2014-5-9T15:49:24Z</time></trkpt>
<trkpt lat="-0.035811" lon="442.3"><ele></ele><time>2014-5-9T15:49:27Z</time></trkpt>
<trkpt lat="-0.035959" lon="442.9"><ele></ele><time>2014-5-9T15:49:30Z</time></trkpt>
<trkpt lat="-0.036176" lon="445.8"><ele></ele><time>2014-5-9T15:49:33Z</time></trkpt>
<trkpt lat="-0.036320" lon="446.1"><ele></ele><time>2014-5-9T15:49:36Z</time></trkpt>
<trkpt lat="-0.036463" lon="446.0"><ele></ele><time>2014-5-9T15:49:39Z</time></trkpt>
<trkpt lat="-0.036581" lon="446.2"><ele></ele><time>2014-5-9T15:49:42Z</time></trkpt>
<trkpt lat="-0.036749" lon="445.4"><ele></ele><time>2014-5-9T15:49:45Z</time></trkpt>
<trkpt lat="-0.036892" lon="447.9"><ele></ele><time>2014-5-9T15:49:48Z</time></trkpt>
<trkpt lat="-0.036998" lon="447.5"><ele></ele><time>2014-5-9T15:49:51Z</time></trkpt>
<trkpt lat="-0.037132" lon="448.3"><ele></ele><time>2014-5-9T15:49:54Z</time></trkpt>
<trkpt lat="-0.037398" lon="452.0"><ele></ele><time>2014-5-9T15:49:57Z</time></trkpt>
<trkpt lat="-0.037562" lon="450.2"><ele></ele><time>2014-5-9T15:50:0Z</time></trkpt>
<trkpt lat="-0.037644" lon="451.7"><ele></ele><time>2014-5-9T15:50:3Z</time></trkpt>
<trkpt lat="-0.037840" lon="451.9"><ele></ele><time>2014-5-9T15:50:6Z</time></trkpt>
<trkpt lat="-0.038031" lon="451.5"><ele></ele><time>2014-5-9T15:50:9Z</time></trkpt>
<trkpt lat="-0.038134" lon="452.2"><ele></ele><time>2014-5-9T15:50:12Z</time></trkpt>
<trkpt lat="-0.038227" lon="453.5"><ele></ele><time>2014-5-9T15:50:15Z</time></trkpt>
<trkpt lat="-0.038479" lon="457.3"><ele></ele><time>2014-5-9T15:50:18Z</time></trkpt>
<trkpt lat="-0.038759" lon="457.6"><ele></ele><time>2014-5-9T15:50:21Z</time></trkpt>
<trkpt lat="-0.039133" lon="458.1"><ele></ele><time>2014-5-9T15:50:24Z</time></trkpt>
<trkpt lat="-0.038992" lon="460.9"><ele></ele><time>2014-5-9T15:50:27Z</time></trkpt>
<trkpt lat="-0.038839" lon="462.1"><ele></ele><time>2014-5-9T15:50:30Z</time></trkpt>
<trkpt lat="-0.038683" lon="469.6"><ele></ele><time>2014-5-9T15:50:33Z</time></trkpt>
<trkpt lat="-0.038507" lon="468.9"><ele></ele><time>2014-5-9T15:50:36Z</time></trkpt>
<trkpt lat="-0.038285" lon="471.3"><ele></ele><time>2014-5-9T15:50:39Z</time></trkpt>
<trkpt lat="-0.038052" lon="473.6"><ele></ele><time>2014-5-9T15:50:42Z</time></trkpt>
<trkpt lat="-0.037836" lon="477.0"><ele></ele><time>2014-5-9T15:50:45Z</time></trkpt>
<trkpt lat="-0.037627" lon="479.8"><ele></ele><time>2014-5-9T15:50:48Z</time></trkpt>
<trkpt lat="-0.037375" lon="479.5"><ele></ele><time>2014-5-9T15:50:51Z</time></trkpt>
<trkpt lat="-0.037134" lon="481.1"><ele></ele><time>2014-5-9T15:50:54Z</time></trkpt>
<trkpt lat="-0.036879" lon="482.8"><ele></ele><time>2014-5-9T15:50:57Z</time></trkpt>
<trkpt lat="-0.036587" lon="485.5"><ele></ele><time>2014-5-9T15:51:0Z</time></trkpt>
<trkpt lat="-0.036534" lon="485.8"><ele></ele><time>2014-5-9T15:51:3Z</time></trkpt>
<trkpt lat="-0.036442" lon="485.2"><ele></ele><time>2014-5-9T15:51:6Z</time></trkpt>
<trkpt lat="-0.036346" lon="480.4"><ele></ele><time>2014-5-9T15:51:9Z</time></trkpt>
<trkpt lat="-0.036247" lon="481.1"><ele></ele><time>2014-5-9T15:51:12Z</time></trkpt>
<trkpt lat="-0.036283" lon="482.6"><ele></ele><time>2014-5-9T15:51:15Z</time></trkpt>
<trkpt lat="-0.036364" lon="482.6"><ele></ele><time>2014-5-9T15:51:18Z</time></trkpt>
<trkpt lat="-0.036616" lon="480.9"><ele></ele><time>2014-5-9T15:51:21Z</time></trkpt>
<trkpt lat="-0.037034" lon="479.9"><ele></ele><time>2014-5-9T15:51:24Z</time></trkpt>
<trkpt lat="-0.037521" lon="478.6"><ele></ele><time>2014-5-9T15:51:27Z</time></trkpt>
<trkpt lat="-0.038053" lon="478.0"><ele></ele><time>2014-5-9T15:51:30Z</time></trkpt>
<trkpt lat="-0.038623" lon="477.1"><ele></ele><time>2014-5-9T15:51:33Z</time></trkpt>
<trkpt lat="-0.039271" lon="476.0"><ele></ele><time>2014-5-9T15:51:36Z</time></trkpt>
<trkpt lat="-0.039888" lon="475.1"><ele></ele><time>2014-5-9T15:51:39Z</time></trkpt>
<trkpt lat="-0.039896" lon="485.1"><ele></ele><time>2014-5-9T15:51:42Z</time></trkpt>
<trkpt lat="-0.039863" lon="484.1"><ele></ele><time>2014-5-9T15:51:45Z</time></trkpt>
<trkpt lat="-0.039834" lon="482.4"><ele></ele><time>2014-5-9T15:51:48Z</time></trkpt>
<trkpt lat="-0.040014" lon="485.5"><ele></ele><time>2014-5-9T15:51:51Z</time></trkpt>
<trkpt lat="-0.040108" lon="478.8"><ele></ele><time>2014-5-9T15:51:54Z</time></trkpt>
<trkpt lat="-0.040204" lon="477.0"><ele></ele><time>2014-5-9T15:51:57Z</time></trkpt>
<trkpt lat="-0.040408" lon="476.6"><ele></ele><time>2014-5-9T15:52:0Z</time></trkpt>
<trkpt lat="-0.040647" lon="476.6"><ele></ele><time>2014-5-9T15:52:3Z</time></trkpt>
<trkpt lat="-0.040900" lon="477.7"><ele></ele><time>2014-5-9T15:52:6Z</time></trkpt>
<trkpt lat="-0.041116" lon="477.0"><ele></ele><time>2014-5-9T15:52:9Z</time></trkpt>
<trkpt lat="-0.041482" lon="475.8"><ele></ele><time>2014-5-9T15:52:12Z</time></trkpt>
<trkpt lat="-0.041774" lon="475.4"><ele></ele><time>2014-5-9T15:52:15Z</time></trkpt>
<trkpt lat="-0.042034" lon="475.6"><ele></ele><time>2014-5-9T15:52:18Z</time></trkpt>
<trkpt lat="-0.042319" lon="477.0"><ele></ele><time>2014-5-9T15:52:21Z</time></trkpt>
<trkpt lat="-0.042725" lon="478.1"><ele></ele><time>2014-5-9T15:52:24Z</time></trkpt>
<trkpt lat="-0.043256" lon="480.8"><ele></ele><time>2014-5-9T15:52:27Z</time></trkpt>
<trkpt lat="-0.043945" lon="480.1"><ele></ele><time>2014-5-9T15:52:30Z</time></trkpt>
<trkpt lat="-0.044594" lon="480.3"><ele></ele><time>2014-5-9T15:52:33Z</time></trkpt>
<trkpt lat="-0.045095" lon="479.7"><ele></ele><time>2014-5-9T15:52:36Z</time></trkpt>
<trkpt lat="-0.045392" lon="478.7"><ele></ele><time>2014-5-9T15:52:39Z</time></trkpt>
<trkpt lat="-0.045731" lon="478.0"><ele></ele><time>2014-5-9T15:52:42Z</time></trkpt>
<trkpt lat="-0.045985" lon="478.3"><ele></ele><time>2014-5-9T15:52:45Z</time></trkpt>
<trkpt lat="-0.046231" lon="480.8"><ele></ele><time>2014-5-9T15:52:48Z</time></trkpt>
<trkpt lat="-0.046516" lon="483.3"><ele></ele><time>2014-5-9T15:52:51Z</time></trkpt>
<trkpt lat="-0.046818" lon="484.8"><ele></ele><time>2014-5-9T15:52:54Z</time></trkpt>
<trkpt lat="-0.047170" lon="486.9"><ele></ele><time>2014-5-9T15:52:57Z</time></trkpt>
<trkpt lat="-0.047523" lon="486.1"><ele></ele><time>2014-5-9T15:53:0Z</time></trkpt>
<trkpt lat="-0.047920" lon="487.5"><ele></ele><time>2014-5-9T15:53:3Z</time></trkpt>
<trkpt lat="-0.048354" lon="490.9"><ele></ele><time>2014-5-9T15:53:6Z</time></trkpt>
<trkpt lat="-0.048729" lon="493.0"><ele></ele><time>2014-5-9T15:53:9Z</time></trkpt>
<trkpt lat="-0.049124" lon="494.3"><ele></ele><time>2014-5-9T15:53:12Z</time></trkpt>
<trkpt lat="-0.049446" lon="492.2"><ele></ele><time>2014-5-9T15:53:15Z</time></trkpt>
<trkpt lat="-0.049765" lon="491.0"><ele></ele><time>2014-5-9T15:53:18Z</time></trkpt>
<trkpt lat="-0.049958" lon="491.2"><ele></ele><time>2014-5-9T15:53:21Z</time></trkpt>
<trkpt lat="-0.050193" lon="494.7"><ele></ele><time>2014-5-9T15:53:24Z</time></trkpt>
<trkpt lat="-0.050457" lon="497.2"><ele></ele><time>2014-5-9T15:53:27Z</time></trkpt>
<trkpt lat="-0.050761" lon="499.0"><ele></ele><time>2014-5-9T15:53:30Z</time></trkpt>
<trkpt lat="-0.051083" lon="499.3"><ele></ele><time>2014-5-9T15:53:33Z</time></trkpt>
<trkpt lat="-0.051418" lon="500.3"><ele></ele><time>2014-5-9T15:53:36Z</time></trkpt>
<trkpt lat="-0.051754" lon="501.3"><ele></ele><time>2014-5-9T15:53:39Z</time></trkpt>
<trkpt lat="-0.052045" lon="500.7"><ele></ele><time>2014-5-9T15:53:42Z</time></trkpt>
<trkpt lat="-0.052165" lon="508.0"><ele></ele><time>2014-5-9T15:53:45Z</time></trkpt>
<trkpt lat="-0.052493" lon="506.6"><ele></ele><time>2014-5-9T15:53:48Z</time></trkpt>
<trkpt lat="-0.052818" lon="505.0"><ele></ele><time>2014-5-9T15:53:51Z</time></trkpt>
<trkpt lat="-0.053126" lon="504.9"><ele></ele><time>2014-5-9T15:53:54Z</time></trkpt>
<trkpt lat="-0.053402" lon="506.0"><ele></ele><time>2014-5-9T15:53:57Z</time></trkpt>
<trkpt lat="-0.053661" lon="506.7"><ele></ele><time>2014-5-9T15:54:0Z</time></trkpt>
<trkpt lat="-0.053882" lon="506.8"><ele></ele><time>2014-5-9T15:54:3Z</time></trkpt>
<trkpt lat="-0.054116" lon="505.8"><ele></ele><time>2014-5-9T15:54:6Z</time></trkpt>
<trkpt lat="-0.054341" lon="507.4"><ele></ele><time>2014-5-9T15:54:9Z</time></trkpt>
<trkpt lat="-0.054614" lon="508.2"><ele></ele><time>2014-5-9T15:54:12Z</time></trkpt>
<trkpt lat="-0.054737" lon="509.5"><ele></ele><time>2014-5-9T15:54:15Z</time></trkpt>
<trkpt lat="-0.054976" lon="509.4"><ele></ele><time>2014-5-9T15:54:18Z</time></trkpt>
<trkpt lat="-0.055149" lon="510.1"><ele></ele><time>2014-5-9T15:54:21Z</time></trkpt>
<trkpt lat="-0.055318" lon="510.0"><ele></ele><time>2014-5-9T15:54:24Z</time></trkpt>
<trkpt lat="-0.055473" lon="511.1"><ele></ele><time>2014-5-9T15:54:27Z</time></trkpt>
<trkpt lat="-0.055625" lon="508.4"><ele></ele><time>2014-5-9T15:54:30Z</time></trkpt>
<trkpt lat="-0.055775" lon="508.1"><ele></ele><time>2014-5-9T15:54:33Z</time></trkpt>
<trkpt lat="-0.055977" lon="508.5"><ele></ele><time>2014-5-9T15:54:36Z</time></trkpt>
<trkpt lat="-0.056215" lon="506.9"><ele></ele><time>2014-5-9T15:54:39Z</time></trkpt>
<trkpt lat="-0.056238" lon="506.9"><ele></ele><time>2014-5-9T15:54:42Z</time></trkpt>
<trkpt lat="-0.056237" lon="506.3"><ele></ele><time>2014-5-9T15:54:45Z</time></trkpt>
<trkpt lat="-0.056487" lon="505.2"><ele></ele><time>2014-5-9T15:54:48Z</time></trkpt>
<trkpt lat="-0.056763" lon="506.0"><ele></ele><time>2014-5-9T15:54:51Z</time></trkpt>
<trkpt lat="-0.056942" lon="507.2"><ele></ele><time>2014-5-9T15:54:54Z</time></trkpt>
<trkpt lat="-0.057116" lon="508.9"><ele></ele><time>2014-5-9T15:54:57Z</time></trkpt>
<trkpt lat="-0.057534" lon="511.0"><ele></ele><time>2014-5-9T15:55:0Z</time></trkpt>
<trkpt lat="-0.058024" lon="511.9"><ele></ele><time>2014-5-9T15:55:3Z</time></trkpt>
<trkpt lat="-0.058501" lon="512.0"><ele></ele><time>2014-5-9T15:55:6Z</time></trkpt>
<trkpt lat="-0.059011" lon="511.6"><ele></ele><time>2014-5-9T15:55:9Z</time></trkpt>
<trkpt lat="-0.059642" lon="512.0"><ele></ele><time>2014-5-9T15:55:12Z</time></trkpt>
<trkpt lat="-0.060039" lon="512.2"><ele></ele><time>2014-5-9T15:55:15Z</time></trkpt>
<trkpt lat="-0.060375" lon="512.0"><ele></ele><time>2014-5-9T15:55:18Z</time></trkpt>
<trkpt lat="-0.060948" lon="512.6"><ele></ele><time>2014-5-9T15:55:21Z</time></trkpt>
<trkpt lat="-0.061592" lon="513.1"><ele></ele><time>2014-5-9T15:55:24Z</time></trkpt>
<trkpt lat="-0.062362" lon="512.9"><ele></ele><time>2014-5-9T15:55:27Z</time></trkpt>
<trkpt lat="-0.063212" lon="513.8"><ele></ele><time>2014-5-9T15:55:30Z</time></trkpt>
<trkpt lat="-0.063601" lon="513.1"><ele></ele><time>2014-5-9T15:55:33Z</time></trkpt>
<trkpt lat="-0.063718" lon="513.1"><ele></ele><time>2014-5-9T15:55:36Z</time></trkpt>
<trkpt lat="-0.063741" lon="514.4"><ele></ele><time>2014-5-9T15:55:39Z</time></trkpt>
<trkpt lat="-0.063733" lon="515.4"><ele></ele><time>2014-5-9T15:55:42Z</time></trkpt>
<trkpt lat="-0.063751" lon="516.0"><ele></ele><time>2014-5-9T15:55:45Z</time></trkpt>
<trkpt lat="-0.063820" lon="516.5"><ele></ele><time>2014-5-9T15:55:48Z</time></trkpt>
<trkpt lat="-0.063926" lon="517.7"><ele></ele><time>2014-5-9T15:55:51Z</time></trkpt>
<trkpt lat="-0.064125" lon="519.6"><ele></ele><time>2014-5-9T15:55:54Z</time></trkpt>
<trkpt lat="-0.064172" lon="519.5"><ele></ele><time>2014-5-9T15:55:57Z</time></trkpt>
<trkpt lat="-0.064188" lon="520.7"><ele></ele><time>2014-5-9T15:56:0Z</time></trkpt>
<trkpt lat="-0.064117" lon="521.5"><ele></ele><time>2014-5-9T15:56:3Z</time></trkpt>
<trkpt lat="-0.064351" lon="520.8"><ele></ele><time>2014-5-9T15:56:6Z</time></trkpt>
<trkpt lat="-0.064483" lon="520.8"><ele></ele><time>2014-5-9T15:56:9Z</time></trkpt>
<trkpt lat="-0.064617" lon="519.8"><ele></ele><time>2014-5-9T15:56:12Z</time></trkpt>
<trkpt lat="-0.064672" lon="516.8"><ele></ele><time>2014-5-9T15:56:15Z</time></trkpt>
<trkpt lat="-0.064679" lon="516.9"><ele></ele><time>2014-5-9T15:56:18Z</time></trkpt>
<trkpt lat="-0.064654" lon="517.9"><ele></ele><time>2014-5-9T15:56:21Z</time></trkpt>
<trkpt lat="-0.064749" lon="519.7"><ele></ele><time>2014-5-9T15:56:24Z</time></trkpt>
<trkpt lat="-0.064807" lon="522.1"><ele></ele><time>2014-5-9T15:56:27Z</time></trkpt>
<trkpt lat="-0.064933" lon="523.1"><ele></ele><time>2014-5-9T15:56:30Z</time></trkpt>
<trkpt lat="-0.065012" lon="524.1"><ele></ele><time>2014-5-9T15:56:33Z</time></trkpt>
<trkpt lat="-0.064961" lon="524.4"><ele></ele><time>2014-5-9T15:56:36Z</time></trkpt>
<trkpt lat="-0.065375" lon="521.4"><ele></ele><time>2014-5-9T15:56:39Z</time></trkpt>
<trkpt lat="-0.065550" lon="523.8"><ele></ele><time>2014-5-9T15:56:42Z</time></trkpt>
<trkpt lat="-0.065544" lon="526.1"><ele></ele><time>2014-5-9T15:56:45Z</time></trkpt>
<trkpt lat="-0.065596" lon="526.0"><ele></ele><time>2014-5-9T15:56:48Z</time></trkpt>
<trkpt lat="-0.065549" lon="526.4"><ele></ele><time>2014-5-9T15:56:51Z</time></trkpt>
<trkpt lat="-0.065426" lon="527.4"><ele></ele><time>2014-5-9T15:56:54Z</time></trkpt>
<trkpt lat="-0.065570" lon="527.1"><ele></ele><time>2014-5-9T15:56:57Z</time></trkpt>
<trkpt lat="-0.065751" lon="523.2"><ele></ele><time>2014-5-9T15:57:0Z</time></trkpt>
<trkpt lat="-0.065609" lon="519.6"><ele></ele><time>2014-5-9T15:57:3Z</time></trkpt>
<trkpt lat="-0.065248" lon="517.0"><ele></ele><time>2014-5-9T15:57:6Z</time></trkpt>
<trkpt lat="-0.065048" lon="514.1"><ele></ele><time>2014-5-9T15:57:9Z</time></trkpt>
<trkpt lat="-0.065058" lon="512.0"><ele></ele><time>2014-5-9T15:57:12Z</time></trkpt>
<trkpt lat="-0.064976" lon="514.7"><ele></ele><time>2014-5-9T15:57:15Z</time></trkpt>
<trkpt lat="-0.064750" lon="515.3"><ele></ele><time>2014-5-9T15:57:18Z</time></trkpt>
<trkpt lat="-0.064702" lon="514.0"><ele></ele><time>2014-5-9T15:57:21Z</time></trkpt>
<trkpt lat="-0.064626" lon="512.7"><ele></ele><time>2014-5-9T15:57:24Z</time></trkpt>
<trkpt lat="-0.064403" lon="510.7"><ele></ele><time>2014-5-9T15:57:27Z</time></trkpt>
<trkpt lat="-0.064165" lon="508.7"><ele></ele><time>2014-5-9T15:57:30Z</time></trkpt>
<trkpt lat="-0.063713" lon="508.4"><ele></ele><time>2014-5-9T15:57:33Z</time></trkpt>
<trkpt lat="-0.063508" lon="508.8"><ele></ele><time>2014-5-9T15:57:36Z</time></trkpt>
<trkpt lat="-0.063286" lon="506.7"><ele></ele><time>2014-5-9T15:57:39Z</time></trkpt>
<trkpt lat="-0.063076" lon="504.2"><ele></ele><time>2014-5-9T15:57:42Z</time></trkpt>
<trkpt lat="-0.062893" lon="497.6"><ele></ele><time>2014-5-9T15:57:45Z</time></trkpt>
<trkpt lat="-0.062707" lon="490.5"><ele></ele><time>2014-5-9T15:57:48Z</time></trkpt>
<trkpt lat="-0.062468" lon="489.6"><ele></ele><time>2014-5-9T15:57:51Z</time></trkpt>
<trkpt lat="-0.062616" lon="486.5"><ele></ele><time>2014-5-9T15:57:54Z</time></trkpt>
<trkpt lat="-0.062609" lon="487.3"><ele></ele><time>2014-5-9T15:57:57Z</time></trkpt>
<trkpt lat="-0.062238" lon="486.3"><ele></ele><time>2014-5-9T15:58:0Z</time></trkpt>
<trkpt lat="-0.061875" lon="484.3"><ele></ele><time>2014-5-9T15:58:3Z</time></trkpt>
<trkpt lat="-0.061695" lon="482.9"><ele></ele><time>2014-5-9T15:58:6Z</time></trkpt>
<trkpt lat="-0.061669" lon="482.4"><ele></ele><time>2014-5-9T15:58:9Z</time></trkpt>
<trkpt lat="-0.061702" lon="481.4"><ele></ele><time>2014-5-9T15:58:12Z</time></trkpt>
<trkpt lat="-0.061646" lon="482.5"><ele></ele><time>2014-5-9T15:58:15Z</time></trkpt>
<trkpt lat="-0.061295" lon="480.3"><ele></ele><time>2014-5-9T15:58:18Z</time></trkpt>
<trkpt lat="-0.061121" lon="476.8"><ele></ele><time>2014-5-9T15:58:21Z</time></trkpt>
<trkpt lat="-0.060857" lon="476.2"><ele></ele><time>2014-5-9T15:58:24Z</time></trkpt>
<trkpt lat="-0.060671" lon="475.4"><ele></ele><time>2014-5-9T15:58:27Z</time></trkpt>
<trkpt lat="-0.060472" lon="476.4"><ele></ele><time>2014-5-9T15:58:30Z</time></trkpt>
<trkpt lat="-0.060276" lon="474.5"><ele></ele><time>2014-5-9T15:58:33Z</time></trkpt>
<trkpt lat="-0.060118" lon="475.9"><ele></ele><time>2014-5-9T15:58:36Z</time></trkpt>
<trkpt lat="-0.059904" lon="476.5"><ele></ele><time>2014-5-9T15:58:39Z</time></trkpt>
<trkpt lat="-0.059679" lon="479.9"><ele></ele><time>2014-5-9T15:58:42Z</time></trkpt>
<trkpt lat="-0.059610" lon="479.8"><ele></ele><time>2014-5-9T15:58:45Z</time></trkpt>
<trkpt lat="-0.059372" lon="478.2"><ele></ele><time>2014-5-9T15:58:48Z</time></trkpt>
<trkpt lat="-0.059243" lon="468.3"><ele></ele><time>2014-5-9T15:58:51Z</time></trkpt>
<trkpt lat="-0.059038" lon="471.3"><ele></ele><time>2014-5-9T15:58:54Z</time></trkpt>
<trkpt lat="-0.058800" lon="470.5"><ele></ele><time>2014-5-9T15:58:57Z</time></trkpt>
<trkpt lat="-0.058472" lon="474.1"><ele></ele><time>2014-5-9T15:59:0Z</time></trkpt>
<trkpt lat="-0.058157" lon="475.1"><ele></ele><time>2014-5-9T15:59:3Z</time></trkpt>
<trkpt lat="-0.057952" lon="474.7"><ele></ele><time>2014-5-9T15:59:6Z</time></trkpt>
<trkpt lat="-0.058008" lon="469.2"><ele></ele><time>2014-5-9T15:59:9Z</time></trkpt>
<trkpt lat="-0.057621" lon="468.8"><ele></ele><time>2014-5-9T15:59:12Z</time></trkpt>
<trkpt lat="-0.057500" lon="466.9"><ele></ele><time>2014-5-9T15:59:15Z</time></trkpt>
<trkpt lat="-0.057485" lon="462.9"><ele></ele><time>2014-5-9T15:59:18Z</time></trkpt>
<trkpt lat="-0.057450" lon="460.1"><ele></ele><time>2014-5-9T15:59:21Z</time></trkpt>
<trkpt lat="-0.057301" lon="458.9"><ele></ele><time>2014-5-9T15:59:24Z</time></trkpt>
<trkpt lat="-0.057086" lon="454.5"><ele></ele><time>2014-5-9T15:59:27Z</time></trkpt>
<trkpt lat="-0.056995" lon="451.9"><ele></ele><time>2014-5-9T15:59:30Z</time></trkpt>
<trkpt lat="-0.056842" lon="452.7"><ele></ele><time>2014-5-9T15:59:33Z</time></trkpt>
<trkpt lat="-0.056761" lon="453.1"><ele></ele><time>2014-5-9T15:59:36Z</time></trkpt>
<trkpt lat="-0.056642" lon="456.3"><ele></ele><time>2014-5-9T15:59:39Z</time></trkpt>
<trkpt lat="-0.056459" lon="452.7"><ele></ele><time>2014-5-9T15:59:42Z</time></trkpt>
<trkpt lat="-0.056378" lon="450.9"><ele></ele><time>2014-5-9T15:59:45Z</time></trkpt>
<trkpt lat="-0.055857" lon="451.4"><ele></ele><time>2014-5-9T15:59:48Z</time></trkpt>
<trkpt lat="-0.055116" lon="447.9"><ele></ele><time>2014-5-9T15:59:51Z</time></trkpt>
<trkpt lat="-0.054563" lon="444.8"><ele></ele><time>2014-5-9T15:59:54Z</time></trkpt>
<trkpt lat="-0.053961" lon="443.2"><ele></ele><time>2014-5-9T15:59:57Z</time></trkpt>
<trkpt lat="-0.053251" lon="440.6"><ele></ele><time>2014-5-9T16:0:0Z</time></trkpt>
<trkpt lat="-0.052585" lon="439.8"><ele></ele><time>2014-5-9T16:0:3Z</time></trkpt>
<trkpt lat="-0.052168" lon="439.0"><ele></ele><time>2014-5-9T16:0:6Z</time></trkpt>
<trkpt lat="-0.051660" lon="439.8"><ele></ele><time>2014-5-9T16:0:9Z</time></trkpt>
<trkpt lat="-0.051135" lon="439.6"><ele></ele><time>2014-5-9T16:0:12Z</time></trkpt>
<trkpt lat="-0.050481" lon="439.4"><ele></ele><time>2014-5-9T16:0:15Z</time></trkpt>
<trkpt lat="-0.050134" lon="438.8"><ele></ele><time>2014-5-9T16:0:18Z</time></trkpt>
<trkpt lat="-0.050064" lon="428.1"><ele></ele><time>2014-5-9T16:0:21Z</time></trkpt>
<trkpt lat="-0.049596" lon="428.1"><ele></ele><time>2014-5-9T16:0:24Z</time></trkpt>
<trkpt lat="-0.048774" lon="428.6"><ele></ele><time>2014-5-9T16:0:27Z</time></trkpt>
<trkpt lat="-0.047885" lon="429.3"><ele></ele><time>2014-5-9T16:0:30Z</time></trkpt>
<trkpt lat="-0.046811" lon="429.4"><ele></ele><time>2014-5-9T16:0:33Z</time></trkpt>
<trkpt lat="-0.045769" lon="429.8"><ele></ele><time>2014-5-9T16:0:36Z</time></trkpt>
<trkpt lat="-0.044744" lon="428.3"><ele></ele><time>2014-5-9T16:0:39Z</time></trkpt>
<trkpt lat="-0.044259" lon="426.0"><ele></ele><time>2014-5-9T16:0:42Z</time></trkpt>
<trkpt lat="-0.044060" lon="425.7"><ele></ele><time>2014-5-9T16:0:45Z</time></trkpt>
<trkpt lat="-0.043275" lon="424.8"><ele></ele><time>2014-5-9T16:0:48Z</time></trkpt>
<trkpt lat="-0.042162" lon="424.3"><ele></ele><time>2014-5-9T16:0:51Z</time></trkpt>
<trkpt lat="-0.040997" lon="424.1"><ele></ele><time>2014-5-9T16:0:54Z</time></trkpt>
<trkpt lat="-0.039924" lon="424.2"><ele></ele><time>2014-5-9T16:0:57Z</time></trkpt>
<trkpt lat="-0.039140" lon="424.4"><ele></ele><time>2014-5-9T16:1:0Z</time></trkpt>
<trkpt lat="-0.038426" lon="424.4"><ele></ele><time>2014-5-9T16:1:3Z</time></trkpt>
<trkpt lat="-0.037843" lon="423.6"><ele></ele><time>2014-5-9T16:1:6Z</time></trkpt>
<trkpt lat="-0.037160" lon="423.4"><ele></ele><time>2014-5-9T16:1:9Z</time></trkpt>
<trkpt lat="-0.036613" lon="423.6"><ele></ele><time>2014-5-9T16:1:12Z</time></trkpt>
<trkpt lat="-0.036415" lon="424.6"><ele></ele><time>2014-5-9T16:1:15Z</time></trkpt>
<trkpt lat="-0.036178" lon="425.8"><ele></ele><time>2014-5-9T16:1:18Z</time></trkpt>
<trkpt lat="-0.035884" lon="426.3"><ele></ele><time>2014-5-9T16:1:21Z</time></trkpt>
<trkpt lat="-0.035538" lon="427.1"><ele></ele><time>2014-5-9T16:1:24Z</time></trkpt>
<trkpt lat="-0.035096" lon="428.4"><ele></ele><time>2014-5-9T16:1:27Z</time></trkpt>
<trkpt lat="-0.034759" lon="429.3"><ele></ele><time>2014-5-9T16:1:30Z</time></trkpt>
<trkpt lat="-0.034515" lon="430.1"><ele></ele><time>2014-5-9T16:1:33Z</time></trkpt>
<trkpt lat="-0.034351" lon="432.9"><ele></ele><time>2014-5-9T16:1:36Z</time></trkpt>
<trkpt lat="-0.034195" lon="433.9"><ele></ele><time>2014-5-9T16:1:39Z</time></trkpt>
<trkpt lat="-0.034107" lon="434.9"><ele></ele><time>2014-5-9T16:1:42Z</time></trkpt>
<trkpt lat="-0.033964" lon="435.9"><ele></ele><time>2014-5-9T16:1:45Z</time></trkpt>
<trkpt lat="-0.033779" lon="436.7"><ele></ele><time>2014-5-9T16:1:48Z</time></trkpt>
<trkpt lat="-0.033515" lon="439.5"><ele></ele><time>2014-5-9T16:1:51Z</time></trkpt>
<trkpt lat="-0.033296" lon="442.4"><ele></ele><time>2014-5-9T16:1:54Z</time></trkpt>
<trkpt lat="-0.033062" lon="444.9"><ele></ele><time>2014-5-9T16:1:57Z</time></trkpt>
<trkpt lat="-0.032838" lon="448.9"><ele></ele><time>2014-5-9T16:2:0Z</time></trkpt>
<trkpt lat="-0.032665" lon="450.6"><ele></ele><time>2014-5-9T16:2:3Z</time></trkpt>
<trkpt lat="-0.032486" lon="452.9"><ele></ele><time>2014-5-9T16:2:6Z</time></trkpt>
<trkpt lat="-0.032340" lon="455.7"><ele></ele><time>2014-5-9T16:2:9Z</time></trkpt>
<trkpt lat="-0.032241" lon="456.6"><ele></ele><time>2014-5-9T16:2:12Z</time></trkpt>
<trkpt lat="-0.032249" lon="457.8"><ele></ele><time>2014-5-9T16:2:15Z</time></trkpt>
<trkpt lat="-0.032294" lon="459.1"><ele></ele><time>2014-5-9T16:2:18Z</time></trkpt>
<trkpt lat="-0.032410" lon="461.9"><ele></ele><time>2014-5-9T16:2:21Z</time></trkpt>
<trkpt lat="-0.032453" lon="466.6"><ele></ele><time>2014-5-9T16:2:24Z</time></trkpt>
<trkpt lat="-0.032479" lon="467.9"><ele></ele><time>2014-5-9T16:2:27Z</time></trkpt>
<trkpt lat="-0.032511" lon="466.5"><ele></ele><time>2014-5-9T16:2:30Z</time></trkpt>
<trkpt lat="-0.032473" lon="467.6"><ele></ele><time>2014-5-9T16:2:33Z</time></trkpt>
<trkpt lat="-0.031432" lon="467.5"><ele></ele><time>2014-5-9T16:2:36Z</time></trkpt>
<trkpt lat="-0.031232" lon="471.0"><ele></ele><time>2014-5-9T16:2:39Z</time></trkpt>
<trkpt lat="-0.031160" lon="480.7"><ele></ele><time>2014-5-9T16:2:42Z</time></trkpt>
<trkpt lat="-0.030961" lon="479.6"><ele></ele><time>2014-5-9T16:2:45Z</time></trkpt>
<trkpt lat="-0.031469" lon="479.5"><ele></ele><time>2014-5-9T16:2:48Z</time></trkpt>
<trkpt lat="-0.031606" lon="479.7"><ele></ele><time>2014-5-9T16:2:51Z</time></trkpt>
<trkpt lat="-0.031532" lon="478.5"><ele></ele><time>2014-5-9T16:2:54Z</time></trkpt>
<trkpt lat="-0.031423" lon="477.1"><ele></ele><time>2014-5-9T16:2:57Z</time></trkpt>
<trkpt lat="-0.031297" lon="476.5"><ele></ele><time>2014-5-9T16:3:0Z</time></trkpt>
<trkpt lat="-0.031108" lon="474.6"><ele></ele><time>2014-5-9T16:3:3Z</time></trkpt>
<trkpt lat="-0.030973" lon="472.4"><ele></ele><time>2014-5-9T16:3:6Z</time></trkpt>
<trkpt lat="-0.030814" lon="467.3"><ele></ele><time>2014-5-9T16:3:9Z</time></trkpt>
<trkpt lat="-0.030521" lon="464.0"><ele></ele><time>2014-5-9T16:3:12Z</time></trkpt>
<trkpt lat="-0.030197" lon="459.3"><ele></ele><time>2014-5-9T16:3:15Z</time></trkpt>
<trkpt lat="-0.030123" lon="457.5"><ele></ele><time>2014-5-9T16:3:18Z</time></trkpt>
<trkpt lat="-0.030180" lon="452.8"><ele></ele><time>2014-5-9T16:3:21Z</time></trkpt>
<trkpt lat="-0.030373" lon="450.4"><ele></ele><time>2014-5-9T16:3:24Z</time></trkpt>
<trkpt lat="-0.030867" lon="448.7"><ele></ele><time>2014-5-9T16:3:27Z</time></trkpt>
<trkpt lat="-0.031248" lon="447.2"><ele></ele><time>2014-5-9T16:3:30Z</time></trkpt>
<trkpt lat="-0.031272" lon="443.7"><ele></ele><time>2014-5-9T16:3:33Z</time></trkpt>
<trkpt lat="-0.031182" lon="436.5"><ele></ele><time>2014-5-9T16:3:36Z</time></trkpt>
<trkpt lat="-0.031016" lon="435.3"><ele></ele><time>2014-5-9T16:3:39Z</time></trkpt>
<trkpt lat="-0.030907" lon="435.1"><ele></ele><time>2014-5-9T16:3:42Z</time></trkpt>
<trkpt lat="-0.030694" lon="435.2"><ele></ele><time>2014-5-9T16:3:45Z</time></trkpt>
<trkpt lat="-0.030478" lon="437.8"><ele></ele><time>2014-5-9T16:3:48Z</time></trkpt>
<trkpt lat="-0.030314" lon="439.0"><ele></ele><time>2014-5-9T16:3:51Z</time></trkpt>
<trkpt lat="-0.030451" lon="440.8"><ele></ele><time>2014-5-9T16:3:54Z</time></trkpt>
<trkpt lat="-0.030252" lon="439.9"><ele></ele><time>2014-5-9T16:3:57Z</time></trkpt>
<trkpt lat="-0.029965" lon="439.0"><ele></ele><time>2014-5-9T16:4:0Z</time></trkpt>
<trkpt lat="-0.029457" lon="439.3"><ele></ele><time>2014-5-9T16:4:3Z</time></trkpt>
<trkpt lat="-0.028542" lon="438.1"><ele></ele><time>2014-5-9T16:4:6Z</time></trkpt>
<trkpt lat="-0.028288" lon="435.2"><ele></ele><time>2014-5-9T16:4:9Z</time></trkpt>
<trkpt lat="-0.028284" lon="428.8"><ele></ele><time>2014-5-9T16:4:12Z</time></trkpt>
<trkpt lat="-0.028506" lon="425.1"><ele></ele><time>2014-5-9T16:4:15Z</time></trkpt>
<trkpt lat="-0.028828" lon="422.1"><ele></ele><time>2014-5-9T16:4:18Z</time></trkpt>
<trkpt lat="-0.028772" lon="420.5"><ele></ele><time>2014-5-9T16:4:21Z</time></trkpt>
<trkpt lat="-0.028625" lon="419.3"><ele></ele><time>2014-5-9T16:4:24Z</time></trkpt>
<trkpt lat="-0.028796" lon="420.4"><ele></ele><time>2014-5-9T16:4:27Z</time></trkpt>
<trkpt lat="-0.029502" lon="422.1"><ele></ele><time>2014-5-9T16:4:30Z</time></trkpt>
<trkpt lat="-0.029981" lon="420.3"><ele></ele><time>2014-5-9T16:4:33Z</time></trkpt>
<trkpt lat="-0.030153" lon="417.5"><ele></ele><time>2014-5-9T16:4:36Z</time></trkpt>
<trkpt lat="-0.030107" lon="413.3"><ele></ele><time>2014-5-9T16:4:39Z</time></trkpt>
<trkpt lat="-0.030069" lon="410.9"><ele></ele><time>2014-5-9T16:4:42Z</time></trkpt>
<trkpt lat="-0.029768" lon="408.9"><ele></ele><time>2014-5-9T16:4:45Z</time></trkpt>
<trkpt lat="-0.029385" lon="403.9"><ele></ele><time>2014-5-9T16:4:48Z</time></trkpt>
<trkpt lat="-0.028936" lon="399.1"><ele></ele><time>2014-5-9T16:4:51Z</time></trkpt>
<trkpt lat="-0.028480" lon="393.8"><ele></ele><time>2014-5-9T16:4:54Z</time></trkpt>
<trkpt lat="-0.028051" lon="386.0"><ele></ele><time>2014-5-9T16:4:57Z</time></trkpt>
<trkpt lat="-0.027542" lon="386.6"><ele></ele><time>2014-5-9T16:5:0Z</time></trkpt>
<trkpt lat="-0.026988" lon="380.6"><ele></ele><time>2014-5-9T16:5:3Z</time></trkpt>
<trkpt lat="-0.026195" lon="383.3"><ele></ele><time>2014-5-9T16:5:6Z</time></trkpt>
<trkpt lat="-0.025609" lon="384.2"><ele></ele><time>2014-5-9T16:5:9Z</time></trkpt>
<trkpt lat="-0.025081" lon="387.3"><ele></ele><time>2014-5-9T16:5:12Z</time></trkpt>
<trkpt lat="-0.024327" lon="389.6"><ele></ele><time>2014-5-9T16:5:15Z</time></trkpt>
<trkpt lat="-0.023863" lon="388.6"><ele></ele><time>2014-5-9T16:5:18Z</time></trkpt>
<trkpt lat="-0.023601" lon="390.4"><ele></ele><time>2014-5-9T16:5:21Z</time></trkpt>
<trkpt lat="-0.023091" lon="391.3"><ele></ele><time>2014-5-9T16:5:24Z</time></trkpt>
<trkpt lat="-0.022434" lon="389.3"><ele></ele><time>2014-5-9T16:5:27Z</time></trkpt>
<trkpt lat="-0.021607" lon="383.2"><ele></ele><time>2014-5-9T16:5:30Z</time></trkpt>
<trkpt lat="-0.020831" lon="381.0"><ele></ele><time>2014-5-9T16:5:33Z</time></trkpt>
<trkpt lat="-0.019956" lon="378.4"><ele></ele><time>2014-5-9T16:5:36Z</time></trkpt>
<trkpt lat="-0.019266" lon="378.0"><ele></ele><time>2014-5-9T16:5:39Z</time></trkpt>
<trkpt lat="-0.018485" lon="378.2"><ele></ele><time>2014-5-9T16:5:42Z</time></trkpt>
<trkpt lat="-0.018053" lon="382.9"><ele></ele><time>2014-5-9T16:5:45Z</time></trkpt>
<trkpt lat="-0.017735" lon="383.2"><ele></ele><time>2014-5-9T16:5:48Z</time></trkpt>
<trkpt lat="-0.017466" lon="382.7"><ele></ele><time>2014-5-9T16:5:51Z</time></trkpt>
<trkpt lat="-0.017188" lon="383.3"><ele></ele><time>2014-5-9T16:5:54Z</time></trkpt>
<trkpt lat="-0.016914" lon="383.0"><ele></ele><time>2014-5-9T16:5:57Z</time></trkpt>
<trkpt lat="-0.016701" lon="383.7"><ele></ele><time>2014-5-9T16:6:0Z</time></trkpt>
<trkpt lat="-0.016504" lon="383.8"><ele></ele><time>2014-5-9T16:6:3Z</time></trkpt>
<trkpt lat="-0.016208" lon="378.6"><ele></ele><time>2014-5-9T16:6:6Z</time></trkpt>
<trkpt lat="-0.015934" lon="373.1"><ele></ele><time>2014-5-9T16:6:9Z</time></trkpt>
<trkpt lat="-0.015402" lon="382.6"><ele></ele><time>2014-5-9T16:6:12Z</time></trkpt>
<trkpt lat="-0.014988" lon="383.8"><ele></ele><time>2014-5-9T16:6:15Z</time></trkpt>
<trkpt lat="-0.014862" lon="386.7"><ele></ele><time>2014-5-9T16:6:18Z</time></trkpt>
<trkpt lat="-0.014795" lon="382.8"><ele></ele><time>2014-5-9T16:6:21Z</time></trkpt>
<trkpt lat="-0.014349" lon="382.3"><ele></ele><time>2014-5-9T16:6:24Z</time></trkpt>
<trkpt lat="-0.013704" lon="380.3"><ele></ele><time>2014-5-9T16:6:27Z</time></trkpt>
<trkpt lat="-0.012962" lon="378.7"><ele></ele><time>2014-5-9T16:6:30Z</time></trkpt>
<trkpt lat="-0.012590" lon="378.2"><ele></ele><time>2014-5-9T16:6:33Z</time></trkpt>
<trkpt lat="-0.012723" lon="383.0"><ele></ele><time>2014-5-9T16:6:36Z</time></trkpt>
<trkpt lat="-0.013431" lon="382.2"><ele></ele><time>2014-5-9T16:6:39Z</time></trkpt>
<trkpt lat="-0.014199" lon="383.2"><ele></ele><time>2014-5-9T16:6:42Z</time></trkpt>
<trkpt lat="-0.015057" lon="383.6"><ele></ele><time>2014-5-9T16:6:45Z</time></trkpt>
<trkpt lat="-0.015509" lon="382.4"><ele></ele><time>2014-5-9T16:6:48Z</time></trkpt>
<trkpt lat="-0.015437" lon="382.0"><ele></ele><time>2014-5-9T16:6:51Z</time></trkpt>
<trkpt lat="-0.015355" lon="381.7"><ele></ele><time>2014-5-9T16:6:54Z</time></trkpt>
<trkpt lat="-0.015258" lon="381.8"><ele></ele><time>2014-5-9T16:6:57Z</time></trkpt>
<trkpt lat="-0.015082" lon="381.8"><ele></ele><time>2014-5-9T16:7:0Z</time></trkpt>
<trkpt lat="-0.015104" lon="380.3"><ele></ele><time>2014-5-9T16:7:3Z</time></trkpt>
<trkpt lat="-0.015311" lon="384.4"><ele></ele><time>2014-5-9T16:7:6Z</time></trkpt>
<trkpt lat="-0.015659" lon="383.2"><ele></ele><time>2014-5-9T16:7:9Z</time></trkpt>
<trkpt lat="-0.015576" lon="382.4"><ele></ele><time>2014-5-9T16:7:12Z</time></trkpt>
<trkpt lat="-0.015501" lon="381.5"><ele></ele><time>2014-5-9T16:7:15Z</time></trkpt>
<trkpt lat="-0.015444" lon="380.6"><ele></ele><time>2014-5-9T16:7:18Z</time></trkpt>
<trkpt lat="-0.015417" lon="380.8"><ele></ele><time>2014-5-9T16:7:21Z</time></trkpt>
<trkpt lat="-0.015391" lon="380.6"><ele></ele><time>2014-5-9T16:7:24Z</time></trkpt>
<trkpt lat="-0.015357" lon="378.8"><ele></ele><time>2014-5-9T16:7:27Z</time></trkpt>
<trkpt lat="-0.015415" lon="378.5"><ele></ele><time>2014-5-9T16:7:30Z</time></trkpt>
<trkpt lat="-0.015583" lon="377.7"><ele></ele><time>2014-5-9T16:7:33Z</time></trkpt>
<trkpt lat="-0.015751" lon="377.5"><ele></ele><time>2014-5-9T16:7:36Z</time></trkpt>
<trkpt lat="-0.015812" lon="377.5"><ele></ele><time>2014-5-9T16:7:39Z</time></trkpt>
<trkpt lat="-0.015785" lon="376.6"><ele></ele><time>2014-5-9T16:7:42Z</time></trkpt>
<trkpt lat="-0.015769" lon="376.7"><ele></ele><time>2014-5-9T16:7:45Z</time></trkpt>
<trkpt lat="-0.015777" lon="376.7"><ele></ele><time>2014-5-9T16:7:48Z</time></trkpt>
<trkpt lat="-0.015764" lon="377.3"><ele></ele><time>2014-5-9T16:7:51Z</time></trkpt>
<trkpt lat="-0.015752" lon="376.4"><ele></ele><time>2014-5-9T16:7:54Z</time></trkpt>
<trkpt lat="-0.015552" lon="376.2"><ele></ele><time>2014-5-9T16:7:57Z</time></trkpt>
<trkpt lat="-0.015256" lon="375.4"><ele></ele><time>2014-5-9T16:8:0Z</time></trkpt>
<trkpt lat="-0.015082" lon="375.7"><ele></ele><time>2014-5-9T16:8:3Z</time></trkpt>
<trkpt lat="-0.014996" lon="375.6"><ele></ele><time>2014-5-9T16:8:6Z</time></trkpt>
<trkpt lat="-0.014808" lon="377.1"><ele></ele><time>2014-5-9T16:8:9Z</time></trkpt>
<trkpt lat="-0.014653" lon="377.8"><ele></ele><time>2014-5-9T16:8:12Z</time></trkpt>
<trkpt lat="-0.014657" lon="377.3"><ele></ele><time>2014-5-9T16:8:15Z</time></trkpt>
<trkpt lat="-0.014692" lon="376.7"><ele></ele><time>2014-5-9T16:8:18Z</time></trkpt>
<trkpt lat="-0.014719" lon="376.1"><ele></ele><time>2014-5-9T16:8:21Z</time></trkpt>
<trkpt lat="-0.014734" lon="375.7"><ele></ele><time>2014-5-9T16:8:24Z</time></trkpt>
<trkpt lat="-0.014762" lon="375.4"><ele></ele><time>2014-5-9T16:8:27Z</time></trkpt>
<trkpt lat="-0.014881" lon="375.6"><ele></ele><time>2014-5-9T16:8:30Z</time></trkpt>
<trkpt lat="-0.015331" lon="374.1"><ele></ele><time>2014-5-9T16:8:33Z</time></trkpt>
<trkpt lat="-0.015710" lon="373.7"><ele></ele><time>2014-5-9T16:8:36Z</time></trkpt>
<trkpt lat="-0.015642" lon="374.5"><ele></ele><time>2014-5-9T16:8:39Z</time></trkpt>
<trkpt lat="-0.015529" lon="374.3"><ele></ele><time>2014-5-9T16:8:42Z</time></trkpt>
<trkpt lat="-0.015502" lon="372.0"><ele></ele><time>2014-5-9T16:8:45Z</time></trkpt>
<trkpt lat="-0.015680" lon="371.3"><ele></ele><time>2014-5-9T16:8:48Z</time></trkpt>
<trkpt lat="-0.016189" lon="371.3"><ele></ele><time>2014-5-9T16:8:51Z</time></trkpt>
<trkpt lat="-0.016242" lon="371.3"><ele></ele><time>2014-5-9T16:8:54Z</time></trkpt>
<trkpt lat="-0.016082" lon="372.1"><ele></ele><time>2014-5-9T16:8:57Z</time></trkpt>
<trkpt lat="-0.015932" lon="372.8"><ele></ele><time>2014-5-9T16:9:0Z</time></trkpt>
<trkpt lat="-0.015755" lon="373.7"><ele></ele><time>2014-5-9T16:9:3Z</time></trkpt>
<trkpt lat="-0.015875" lon="373.1"><ele></ele><time>2014-5-9T16:9:6Z</time></trkpt>
<trkpt lat="-0.016227" lon="371.3"><ele></ele><time>2014-5-9T16:9:9Z</time></trkpt>
<trkpt lat="-0.016447" lon="370.6"><ele></ele><time>2014-5-9T16:9:12Z</time></trkpt>
<trkpt lat="-0.016514" lon="369.6"><ele></ele><time>2014-5-9T16:9:15Z</time></trkpt>
<trkpt lat="-0.016569" lon="369.2"><ele></ele><time>2014-5-9T16:9:18Z</time></trkpt>
<trkpt lat="-0.016526" lon="366.2"><ele></ele><time>2014-5-9T16:9:21Z</time></trkpt>
<trkpt lat="-0.016277" lon="363.4"><ele></ele><time>2014-5-9T16:9:24Z</time></trkpt>
<trkpt lat="-0.016614" lon="362.9"><ele></ele><time>2014-5-9T16:9:27Z</time></trkpt>
<trkpt lat="-0.017137" lon="363.2"><ele></ele><time>2014-5-9T16:9:30Z</time></trkpt>
<trkpt lat="-0.017635" lon="362.9"><ele></ele><time>2014-5-9T16:9:33Z</time></trkpt>
<trkpt lat="-0.018139" lon="361.6"><ele></ele><time>2014-5-9T16:9:36Z</time></trkpt>
<trkpt lat="-0.018417" lon="363.5"><ele></ele><time>2014-5-9T16:9:39Z</time></trkpt>
<trkpt lat="-0.018338" lon="368.6"><ele></ele><time>2014-5-9T16:9:42Z</time></trkpt>
<trkpt lat="-0.018225" lon="367.6"><ele></ele><time>2014-5-9T16:9:45Z</time></trkpt>
<trkpt lat="-0.017650" lon="367.4"><ele></ele><time>2014-5-9T16:9:48Z</time></trkpt>
<trkpt lat="-0.017966" lon="367.9"><ele></ele><time>2014-5-9T16:9:51Z</time></trkpt>
<trkpt lat="-0.018306" lon="368.7"><ele></ele><time>2014-5-9T16:9:54Z</time></trkpt>
<trkpt lat="-0.018453" lon="369.2"><ele></ele><time>2014-5-9T16:9:57Z</time></trkpt>
<trkpt lat="-0.018585" lon="369.4"><ele></ele><time>2014-5-9T16:10:0Z</time></trkpt>
<trkpt lat="-0.018638" lon="369.5"><ele></ele><time>2014-5-9T16:10:3Z</time></trkpt>
<trkpt lat="-0.018651" lon="369.3"><ele></ele><time>2014-5-9T16:10:6Z</time></trkpt>
<trkpt lat="-0.018858" lon="371.9"><ele></ele><time>2014-5-9T16:10:9Z</time></trkpt>
<trkpt lat="-0.018957" lon="372.3"><ele></ele><time>2014-5-9T16:10:12Z</time></trkpt>
<trkpt lat="-0.019072" lon="371.9"><ele></ele><time>2014-5-9T16:10:15Z</time></trkpt>
<trkpt lat="-0.019183" lon="373.9"><ele></ele><time>2014-5-9T16:10:18Z</time></trkpt>
<trkpt lat="-0.019305" lon="376.6"><ele></ele><time>2014-5-9T16:10:21Z</time></trkpt>
<trkpt lat="-0.019432" lon="378.6"><ele></ele><time>2014-5-9T16:10:24Z</time></trkpt>
<trkpt lat="-0.019635" lon="379.4"><ele></ele><time>2014-5-9T16:10:27Z</time></trkpt>
<trkpt lat="-0.019700" lon="385.5"><ele></ele><time>2014-5-9T16:10:30Z</time></trkpt>
<trkpt lat="-0.019777" lon="407.7"><ele></ele><time>2014-5-9T16:10:33Z</time></trkpt>
<trkpt lat="-0.019969" lon="407.3"><ele></ele><time>2014-5-9T16:10:36Z</time></trkpt>
<trkpt lat="-0.020171" lon="405.8"><ele></ele><time>2014-5-9T16:10:39Z</time></trkpt>
<trkpt lat="-0.020709" lon="400.9"><ele></ele><time>2014-5-9T16:10:42Z</time></trkpt>
<trkpt lat="-0.021377" lon="399.6"><ele></ele><time>2014-5-9T16:10:45Z</time></trkpt>
<trkpt lat="-0.021549" lon="395.4"><ele></ele><time>2014-5-9T16:10:48Z</time></trkpt>
<trkpt lat="-0.021488" lon="389.2"><ele></ele><time>2014-5-9T16:10:51Z</time></trkpt>
<trkpt lat="-0.021073" lon="387.0"><ele></ele><time>2014-5-9T16:10:54Z</time></trkpt>
<trkpt lat="-0.020514" lon="384.9"><ele></ele><time>2014-5-9T16:10:57Z</time></trkpt>
<trkpt lat="-0.019944" lon="383.0"><ele></ele><time>2014-5-9T16:11:0Z</time></trkpt>
<trkpt lat="-0.019429" lon="381.4"><ele></ele><time>2014-5-9T16:11:3Z</time></trkpt>
<trkpt lat="-0.018801" lon="379.2"><ele></ele><time>2014-5-9T16:11:6Z</time></trkpt>
<trkpt lat="-0.018203" lon="377.9"><ele></ele><time>2014-5-9T16:11:9Z</time></trkpt>
<trkpt lat="-0.017599" lon="376.0"><ele></ele><time>2014-5-9T16:11:12Z</time></trkpt>
<trkpt lat="-0.016918" lon="375.0"><ele></ele><time>2014-5-9T16:11:15Z</time></trkpt>
<trkpt lat="-0.016094" lon="374.0"><ele></ele><time>2014-5-9T16:11:18Z</time></trkpt>
<trkpt lat="-0.015218" lon="371.6"><ele></ele><time>2014-5-9T16:11:21Z</time></trkpt>
<trkpt lat="-0.014855" lon="372.6"><ele></ele><time>2014-5-9T16:11:24Z</time></trkpt>
<trkpt lat="-0.014698" lon="369.9"><ele></ele><time>2014-5-9T16:11:27Z</time></trkpt>
<trkpt lat="-0.014261" lon="369.8"><ele></ele><time>2014-5-9T16:11:30Z</time></trkpt>
<trkpt lat="-0.013696" lon="368.9"><ele></ele><time>2014-5-9T16:11:33Z</time></trkpt>
<trkpt lat="-0.012964" lon="368.3"><ele></ele><time>2014-5-9T16:11:36Z</time></trkpt>
<trkpt lat="-0.011933" lon="367.4"><ele></ele><time>2014-5-9T16:11:39Z</time></trkpt>
<trkpt lat="-0.010941" lon="366.7"><ele></ele><time>2014-5-9T16:11:42Z</time></trkpt>
<trkpt lat="-0.010169" lon="366.6"><ele></ele><time>2014-5-9T16:11:45Z</time></trkpt>
<trkpt lat="-0.010001" lon="366.1"><ele></ele><time>2014-5-9T16:11:48Z</time></trkpt>
<trkpt lat="0.193977" lon="10"><ele></ele><time>2014-5-9T16:11:51Z</time></trkpt>
<trkpt lat="0.194926" lon="10"><ele></ele><time>2014-5-9T16:11:54Z</time></trkpt>
<trkpt lat="0.196255" lon="10"><ele></ele><time>2014-5-9T16:11:57Z</time></trkpt>
<trkpt lat="0.197127" lon="10"><ele></ele><time>2014-5-9T16:12:0Z</time></trkpt>
<trkpt lat="0.198231" lon="10"><ele></ele><time>2014-5-9T16:12:3Z</time></trkpt>
<trkpt lat="0.198350" lon="10"><ele></ele><time>2014-5-9T16:12:6Z</time></trkpt>
<trkpt lat="0.199141" lon="10"><ele></ele><time>2014-5-9T16:12:9Z</time></trkpt>
<trkpt lat="0.200047" lon="10"><ele></ele><time>2014-5-9T16:12:12Z</time></trkpt>
<trkpt lat="0.201282" lon="10"><ele></ele><time>2014-5-9T16:12:15Z</time></trkpt>
<trkpt lat="" lon="1"><ele></ele><time>2014-5-9T16:12:18Z</time></trkpt>
<trkpt lat="-0.006446" lon="320.5"><ele></ele><time>2014-5-9T16:12:21Z</time></trkpt>
<trkpt lat="-0.006507" lon="319.9"><ele></ele><time>2014-5-9T16:12:24Z</time></trkpt>
<trkpt lat="-0.006314" lon="320.3"><ele></ele><time>2014-5-9T16:12:27Z</time></trkpt>
<trkpt lat="-0.006064" lon="318.7"><ele></ele><time>2014-5-9T16:12:30Z</time></trkpt>
<trkpt lat="-0.006236" lon="319.5"><ele></ele><time>2014-5-9T16:12:33Z</time></trkpt>
<trkpt lat="-0.006508" lon="319.1"><ele></ele><time>2014-5-9T16:12:36Z</time></trkpt>
<trkpt lat="-0.006781" lon="319.5"><ele></ele><time>2014-5-9T16:12:39Z</time></trkpt>
<trkpt lat="-0.006955" lon="319.4"><ele></ele><time>2014-5-9T16:12:42Z</time></trkpt>
<trkpt lat="-0.007163" lon="320.0"><ele></ele><time>2014-5-9T16:12:45Z</time></trkpt>
<trkpt lat="-0.007339" lon="321.2"><ele></ele><time>2014-5-9T16:12:48Z</time></trkpt>
<trkpt lat="-0.007499" lon="322.5"><ele></ele><time>2014-5-9T16:12:51Z</time></trkpt>
<trkpt lat="-0.007710" lon="323.6"><ele></ele><time>2014-5-9T16:12:54Z</time></trkpt>
<trkpt lat="-0.007989" lon="323.9"><ele></ele><time>2014-5-9T16:12:57Z</time></trkpt>
<trkpt lat="-0.008401" lon="326.2"><ele></ele><time>2014-5-9T16:13:0Z</time></trkpt>
<trkpt lat="-0.008648" lon="325.8"><ele></ele><time>2014-5-9T16:13:3Z</time></trkpt>
<trkpt lat="-0.008825" lon="324.1"><ele></ele><time>2014-5-9T16:13:6Z</time></trkpt>
<trkpt lat="-0.008981" lon="329.8"><ele></ele><time>2014-5-9T16:13:9Z</time></trkpt>
<trkpt lat="-0.009536" lon="328.4"><ele></ele><time>2014-5-9T16:13:12Z</time></trkpt>
<trkpt lat="-0.010216" lon="328.9"><ele></ele><time>2014-5-9T16:13:15Z</time></trkpt>
<trkpt lat="-0.010928" lon="327.9"><ele></ele><time>2014-5-9T16:13:18Z</time></trkpt>
<trkpt lat="-0.011546" lon="327.0"><ele></ele><time>2014-5-9T16:13:21Z</time></trkpt>
<trkpt lat="-0.012123" lon="327.8"><ele></ele><time>2014-5-9T16:13:24Z</time></trkpt>
<trkpt lat="-0.012673" lon="328.2"><ele></ele><time>2014-5-9T16:13:27Z</time></trkpt>
<trkpt lat="-0.013111" lon="328.6"><ele></ele><time>2014-5-9T16:13:30Z</time></trkpt>
<trkpt lat="-0.013339" lon="327.4"><ele></ele><time>2014-5-9T16:13:33Z</time></trkpt>
<trkpt lat="-0.013611" lon="328.6"><ele></ele><time>2014-5-9T16:13:36Z</time></trkpt>
<trkpt lat="-0.013763" lon="329.4"><ele></ele><time>2014-5-9T16:13:39Z</time></trkpt>
<trkpt lat="-0.013852" lon="329.6"><ele></ele><time>2014-5-9T16:13:42Z</time></trkpt>
<trkpt lat="-0.013929" lon="331.2"><ele></ele><time>2014-5-9T16:13:45Z</time></trkpt>
<trkpt lat="-0.014037" lon="330.3"><ele></ele><time>2014-5-9T16:13:48Z</time></trkpt>
<trkpt lat="-0.014233" lon="331.1"><ele></ele><time>2014-5-9T16:13:51Z</time></trkpt>
<trkpt lat="-0.014480" lon="331.7"><ele></ele><time>2014-5-9T16:13:54Z</time></trkpt>
<trkpt lat="-0.014910" lon="330.9"><ele></ele><time>2014-5-9T16:13:57Z</time></trkpt>
<trkpt lat="-0.015535" lon="331.9"><ele></ele><time>2014-5-9T16:14:0Z</time></trkpt>
<trkpt lat="-0.015943" lon="332.6"><ele></ele><time>2014-5-9T16:14:3Z</time></trkpt>
<trkpt lat="-0.016088" lon="330.9"><ele></ele><time>2014-5-9T16:14:6Z</time></trkpt>
<trkpt lat="-0.016218" lon="330.1"><ele></ele><time>2014-5-9T16:14:9Z</time></trkpt>
<trkpt lat="-0.016427" lon="331.3"><ele></ele><time>2014-5-9T16:14:12Z</time></trkpt>
<trkpt lat="-0.016605" lon="331.3"><ele></ele><time>2014-5-9T16:14:15Z</time></trkpt>
<trkpt lat="-0.016779" lon="330.3"><ele></ele><time>2014-5-9T16:14:18Z</time></trkpt>
<trkpt lat="-0.016936" lon="328.4"><ele></ele><time>2014-5-9T16:14:21Z</time></trkpt>
<trkpt lat="-0.017047" lon="328.0"><ele></ele><time>2014-5-9T16:14:24Z</time></trkpt>
<trkpt lat="-0.017222" lon="329.0"><ele></ele><time>2014-5-9T16:14:27Z</time></trkpt>
<trkpt lat="-0.017468" lon="330.4"><ele></ele><time>2014-5-9T16:14:30Z</time></trkpt>
<trkpt lat="-0.017739" lon="330.6"><ele></ele><time>2014-5-9T16:14:33Z</time></trkpt>
<trkpt lat="-0.018070" lon="332.1"><ele></ele><time>2014-5-9T16:14:36Z</time></trkpt>
<trkpt lat="-0.018413" lon="331.0"><ele></ele><time>2014-5-9T16:14:39Z</time></trkpt>
<trkpt lat="-0.018779" lon="331.1"><ele></ele><time>2014-5-9T16:14:42Z</time></trkpt>
<trkpt lat="-0.018888" lon="330.3"><ele></ele><time>2014-5-9T16:14:45Z</time></trkpt>
<trkpt lat="-0.018984" lon="331.0"><ele></ele><time>2014-5-9T16:14:48Z</time></trkpt>
<trkpt lat="-0.019079" lon="332.5"><ele></ele><time>2014-5-9T16:14:51Z</time></trkpt>
<trkpt lat="-0.019131" lon="332.1"><ele></ele><time>2014-5-9T16:14:54Z</time></trkpt>
<trkpt lat="-0.019178" lon="332.8"><ele></ele><time>2014-5-9T16:14:57Z</time></trkpt>
<trkpt lat="-0.019253" lon="333.3"><ele></ele><time>2014-5-9T16:15:0Z</time></trkpt>
<trkpt lat="-0.019346" lon="334.5"><ele></ele><time>2014-5-9T16:15:3Z</time></trkpt>
<trkpt lat="-0.019403" lon="334.2"><ele></ele><time>2014-5-9T16:15:6Z</time></trkpt>
<trkpt lat="-0.019438" lon="334.9"><ele></ele><time>2014-5-9T16:15:9Z</time></trkpt>
<trkpt lat="-0.019447" lon="335.2"><ele></ele><time>2014-5-9T16:15:12Z</time></trkpt>
<trkpt lat="-0.019220" lon="334.3"><ele></ele><time>2014-5-9T16:15:15Z</time></trkpt>
<trkpt lat="-0.019105" lon="333.2"><ele></ele><time>2014-5-9T16:15:18Z</time></trkpt>
<trkpt lat="-0.018863" lon="332.9"><ele></ele><time>2014-5-9T16:15:21Z</time></trkpt>
<trkpt lat="-0.018660" lon="333.1"><ele></ele><time>2014-5-9T16:15:24Z</time></trkpt>
<trkpt lat="-0.018559" lon="333.7"><ele></ele><time>2014-5-9T16:15:27Z</time></trkpt>
<trkpt lat="-0.018529" lon="334.7"><ele></ele><time>2014-5-9T16:15:30Z</time></trkpt>
<trkpt lat="-0.018487" lon="334.6"><ele></ele><time>2014-5-9T16:15:33Z</time></trkpt>
<trkpt lat="-0.018384" lon="335.3"><ele></ele><time>2014-5-9T16:15:36Z</time></trkpt>
<trkpt lat="-0.018289" lon="335.8"><ele></ele><time>2014-5-9T16:15:39Z</time></trkpt>
<trkpt lat="-0.018394" lon="336.2"><ele></ele><time>2014-5-9T16:15:42Z</time></trkpt>
<trkpt lat="-0.018533" lon="337.6"><ele></ele><time>2014-5-9T16:15:45Z</time></trkpt>
<trkpt lat="-0.018697" lon="337.7"><ele></ele><time>2014-5-9T16:15:48Z</time></trkpt>
<trkpt lat="-0.018803" lon="335.8"><ele></ele><time>2014-5-9T16:15:51Z</time></trkpt>
<trkpt lat="-0.019777" lon="331.7"><ele></ele><time>2014-5-9T16:15:54Z</time></trkpt>
<trkpt lat="-0.020989" lon="327.4"><ele></ele><time>2014-5-9T16:15:57Z</time></trkpt>
<trkpt lat="-0.020986" lon="321.9"><ele></ele><time>2014-5-9T16:16:0Z</time></trkpt>
<trkpt lat="-0.021421" lon="316.5"><ele></ele><time>2014-5-9T16:16:3Z</time></trkpt>
<trkpt lat="-0.021640" lon="311.3"><ele></ele><time>2014-5-9T16:16:6Z</time></trkpt>
<trkpt lat="-0.022727" lon="307.7"><ele></ele><time>2014-5-9T16:16:9Z</time></trkpt>
<trkpt lat="-0.023036" lon="302.8"><ele></ele><time>2014-5-9T16:16:12Z</time></trkpt>
<trkpt lat="-0.023122" lon="299.1"><ele></ele><time>2014-5-9T16:16:15Z</time></trkpt>
<trkpt lat="-0.023317" lon="293.1"><ele></ele><time>2014-5-9T16:16:18Z</time></trkpt>
<trkpt lat="-0.023406" lon="288.8"><ele></ele><time>2014-5-9T16:16:21Z</time></trkpt>
<trkpt lat="-0.023788" lon="283.7"><ele></ele><time>2014-5-9T16:16:24Z</time></trkpt>
<trkpt lat="-0.024010" lon="276.8"><ele></ele><time>2014-5-9T16:16:27Z</time></trkpt>
<trkpt lat="-0.024525" lon="265.8"><ele></ele><time>2014-5-9T16:16:30Z</time></trkpt>
<trkpt lat="-0.025555" lon="252.4"><ele></ele><time>2014-5-9T16:16:33Z</time></trkpt>
<trkpt lat="-0.026455" lon="246.5"><ele></ele><time>2014-5-9T16:16:36Z</time></trkpt>
<trkpt lat="-0.027048" lon="242.0"><ele></ele><time>2014-5-9T16:16:39Z</time></trkpt>
<trkpt lat="-0.027964" lon="239.9"><ele></ele><time>2014-5-9T16:16:42Z</time></trkpt>
<trkpt lat="-0.028918" lon="235.4"><ele></ele><time>2014-5-9T16:16:45Z</time></trkpt>
<trkpt lat="-0.029617" lon="233.3"><ele></ele><time>2014-5-9T16:16:48Z</time></trkpt>
<trkpt lat="-0.029527" lon="232.5"><ele></ele><time>2014-5-9T16:16:51Z</time></trkpt>
<trkpt lat="-0.029538" lon="231.7"><ele></ele><time>2014-5-9T16:16:54Z</time></trkpt>
<trkpt lat="-0.029532" lon="231.6"><ele></ele><time>2014-5-9T16:16:57Z</time></trkpt>
<trkpt lat="-0.029448" lon="230.8"><ele></ele><time>2014-5-9T16:17:0Z</time></trkpt>
<trkpt lat="-0.029344" lon="230.4"><ele></ele><time>2014-5-9T16:17:3Z</time></trkpt>
<trkpt lat="-0.029683" lon="230.1"><ele></ele><time>2014-5-9T16:17:6Z</time></trkpt>
<trkpt lat="-0.030106" lon="229.8"><ele></ele><time>2014-5-9T16:17:9Z</time></trkpt>
<trkpt lat="-0.030608" lon="230.7"><ele></ele><time>2014-5-9T16:17:12Z</time></trkpt>
<trkpt lat="-0.031280" lon="231.7"><ele></ele><time>2014-5-9T16:17:15Z</time></trkpt>
<trkpt lat="-0.031814" lon="232.9"><ele></ele><time>2014-5-9T16:17:18Z</time></trkpt>
<trkpt lat="-0.032362" lon="233.5"><ele></ele><time>2014-5-9T16:17:21Z</time></trkpt>
<trkpt lat="-0.032972" lon="234.9"><ele></ele><time>2014-5-9T16:17:24Z</time></trkpt>
<trkpt lat="-0.033597" lon="235.9"><ele></ele><time>2014-5-9T16:17:27Z</time></trkpt>
<trkpt lat="-0.034225" lon="237.2"><ele></ele><time>2014-5-9T16:17:30Z</time></trkpt>
<trkpt lat="-0.034886" lon="237.7"><ele></ele><time>2014-5-9T16:17:33Z</time></trkpt>
<trkpt lat="-0.035572" lon="238.1"><ele></ele><time>2014-5-9T16:17:36Z</time></trkpt>
<trkpt lat="-0.036243" lon="238.6"><ele></ele><time>2014-5-9T16:17:39Z</time></trkpt>
<trkpt lat="-0.036882" lon="239.6"><ele></ele><time>2014-5-9T16:17:42Z</time></trkpt>
<trkpt lat="-0.037435" lon="240.8"><ele></ele><time>2014-5-9T16:17:45Z</time></trkpt>
<trkpt lat="-0.037878" lon="243.1"><ele></ele><time>2014-5-9T16:17:48Z</time></trkpt>
<trkpt lat="-0.038344" lon="244.9"><ele></ele><time>2014-5-9T16:17:51Z</time></trkpt>
<trkpt lat="-0.038803" lon="246.9"><ele></ele><time>2014-5-9T16:17:54Z</time></trkpt>
<trkpt lat="-0.039273" lon="248.9"><ele></ele><time>2014-5-9T16:17:57Z</time></trkpt>
<trkpt lat="-0.039787" lon="250.1"><ele></ele><time>2014-5-9T16:18:0Z</time></trkpt>
<trkpt lat="-0.040348" lon="250.9"><ele></ele><time>2014-5-9T16:18:3Z</time></trkpt>
<trkpt lat="-0.040466" lon="251.8"><ele></ele><time>2014-5-9T16:18:6Z</time></trkpt>
<trkpt lat="-0.040602" lon="252.2"><ele></ele><time>2014-5-9T16:18:9Z</time></trkpt>
<trkpt lat="-0.040640" lon="252.5"><ele></ele><time>2014-5-9T16:18:12Z</time></trkpt>
<trkpt lat="-0.041209" lon="252.7"><ele></ele><time>2014-5-9T16:18:15Z</time></trkpt>
<trkpt lat="-0.041869" lon="253.2"><ele></ele><time>2014-5-9T16:18:18Z</time></trkpt>
<trkpt lat="-0.042282" lon="253.6"><ele></ele><time>2014-5-9T16:18:21Z</time></trkpt>
<trkpt lat="-0.043000" lon="254.3"><ele></ele><time>2014-5-9T16:18:24Z</time></trkpt>
<trkpt lat="-0.043402" lon="254.6"><ele></ele><time>2014-5-9T16:18:27Z</time></trkpt>
<trkpt lat="-0.043894" lon="255.5"><ele></ele><time>2014-5-9T16:18:30Z</time></trkpt>
<trkpt lat="-0.044253" lon="256.8"><ele></ele><time>2014-5-9T16:18:33Z</time></trkpt>
<trkpt lat="-0.044295" lon="258.2"><ele></ele><time>2014-5-9T16:18:36Z</time></trkpt>
<trkpt lat="-0.044234" lon="257.9"><ele></ele><time>2014-5-9T16:18:39Z</time></trkpt>
<trkpt lat="-0.044149" lon="258.0"><ele></ele><time>2014-5-9T16:18:42Z</time></trkpt>
<trkpt lat="-0.044072" lon="258.3"><ele></ele><time>2014-5-9T16:18:45Z</time></trkpt>
<trkpt lat="-0.044021" lon="258.8"><ele></ele><time>2014-5-9T16:18:48Z</time></trkpt>
<trkpt lat="-0.044036" lon="260.4"><ele></ele><time>2014-5-9T16:18:51Z</time></trkpt>
<trkpt lat="-0.044016" lon="260.7"><ele></ele><time>2014-5-9T16:18:54Z</time></trkpt>
<trkpt lat="-0.043875" lon="260.3"><ele></ele><time>2014-5-9T16:18:57Z</time></trkpt>
<trkpt lat="-0.043727" lon="259.8"><ele></ele><time>2014-5-9T16:19:0Z</time></trkpt>
<trkpt lat="-0.043587" lon="260.4"><ele></ele><time>2014-5-9T16:19:3Z</time></trkpt>
<trkpt lat="-0.043448" lon="259.5"><ele></ele><time>2014-5-9T16:19:6Z</time></trkpt>
<trkpt lat="-0.043122" lon="258.4"><ele></ele><time>2014-5-9T16:19:9Z</time></trkpt>
<trkpt lat="-0.042621" lon="257.6"><ele></ele><time>2014-5-9T16:19:12Z</time></trkpt>
<trkpt lat="-0.042097" lon="256.1"><ele></ele><time>2014-5-9T16:19:15Z</time></trkpt>
<trkpt lat="-0.041441" lon="255.5"><ele></ele><time>2014-5-9T16:19:18Z</time></trkpt>
<trkpt lat="-0.040352" lon="253.7"><ele></ele><time>2014-5-9T16:19:21Z</time></trkpt>
<trkpt lat="-0.039735" lon="252.3"><ele></ele><time>2014-5-9T16:19:24Z</time></trkpt>
<trkpt lat="-0.039170" lon="251.4"><ele></ele><time>2014-5-9T16:19:27Z</time></trkpt>
<trkpt lat="-0.038740" lon="251.4"><ele></ele><time>2014-5-9T16:19:30Z</time></trkpt>
<trkpt lat="-0.038365" lon="251.4"><ele></ele><time>2014-5-9T16:19:33Z</time></trkpt>
<trkpt lat="-0.037956" lon="251.2"><ele></ele><time>2014-5-9T16:19:36Z</time></trkpt>
<trkpt lat="-0.037471" lon="250.7"><ele></ele><time>2014-5-9T16:19:39Z</time></trkpt>
<trkpt lat="-0.036923" lon="249.8"><ele></ele><time>2014-5-9T16:19:42Z</time></trkpt>
<trkpt lat="-0.036327" lon="247.9"><ele></ele><time>2014-5-9T16:19:45Z</time></trkpt>
<trkpt lat="-0.035722" lon="246.3"><ele></ele><time>2014-5-9T16:19:48Z</time></trkpt>
<trkpt lat="-0.035308" lon="245.8"><ele></ele><time>2014-5-9T16:19:51Z</time></trkpt>
<trkpt lat="-0.035130" lon="244.7"><ele></ele><time>2014-5-9T16:19:54Z</time></trkpt>
<trkpt lat="-0.034971" lon="243.3"><ele></ele><time>2014-5-9T16:19:57Z</time></trkpt>
<trkpt lat="-0.034811" lon="242.8"><ele></ele><time>2014-5-9T16:20:0Z</time></trkpt>
<trkpt lat="-0.034653" lon="242.5"><ele></ele><time>2014-5-9T16:20:3Z</time></trkpt>
<trkpt lat="-0.034527" lon="242.7"><ele></ele><time>2014-5-9T16:20:6Z</time></trkpt>
<trkpt lat="-0.034690" lon="241.2"><ele></ele><time>2014-5-9T16:20:9Z</time></trkpt>
<trkpt lat="-0.034614" lon="240.2"><ele></ele><time>2014-5-9T16:20:12Z</time></trkpt>
<trkpt lat="-0.034665" lon="239.8"><ele></ele><time>2014-5-9T16:20:15Z</time></trkpt>
<trkpt lat="-0.035103" lon="239.7"><ele></ele><time>2014-5-9T16:20:18Z</time></trkpt>
<trkpt lat="-0.035576" lon="240.6"><ele></ele><time>2014-5-9T16:20:21Z</time></trkpt>
<trkpt lat="-0.036072" lon="240.4"><ele></ele><time>2014-5-9T16:20:24Z</time></trkpt>
<trkpt lat="-0.036585" lon="240.4"><ele></ele><time>2014-5-9T16:20:27Z</time></trkpt>
<trkpt lat="-0.037105" lon="240.4"><ele></ele><time>2014-5-9T16:20:30Z</time></trkpt>
<trkpt lat="-0.037626" lon="240.4"><ele></ele><time>2014-5-9T16:20:33Z</time></trkpt>
<trkpt lat="-0.038155" lon="240.9"><ele></ele><time>2014-5-9T16:20:36Z</time></trkpt>
<trkpt lat="-0.038614" lon="242.4"><ele></ele><time>2014-5-9T16:20:39Z</time></trkpt>
<trkpt lat="-0.039039" lon="243.4"><ele></ele><time>2014-5-9T16:20:42Z</time></trkpt>
<trkpt lat="-0.039395" lon="244.9"><ele></ele><time>2014-5-9T16:20:45Z</time></trkpt>
<trkpt lat="-0.039789" lon="246.8"><ele></ele><time>2014-5-9T16:20:48Z</time></trkpt>
<trkpt lat="-0.040175" lon="248.0"><ele></ele><time>2014-5-9T16:20:51Z</time></trkpt>
<trkpt lat="-0.040554" lon="247.9"><ele></ele><time>2014-5-9T16:20:54Z</time></trkpt>
<trkpt lat="-0.040913" lon="249.3"><ele></ele><time>2014-5-9T16:20:57Z</time></trkpt>
<trkpt lat="-0.041285" lon="250.9"><ele></ele><time>2014-5-9T16:21:0Z</time></trkpt>
<trkpt lat="-0.041699" lon="251.4"><ele></ele><time>2014-5-9T16:21:3Z</time></trkpt>
<trkpt lat="-0.042126" lon="251.9"><ele></ele><time>2014-5-9T16:21:6Z</time></trkpt>
<trkpt lat="-0.042506" lon="252.7"><ele></ele><time>2014-5-9T16:21:9Z</time></trkpt>
<trkpt lat="-0.042891" lon="253.4"><ele></ele><time>2014-5-9T16:21:12Z</time></trkpt>
<trkpt lat="-0.043295" lon="254.0"><ele></ele><time>2014-5-9T16:21:15Z</time></trkpt>
<trkpt lat="-0.043760" lon="254.5"><ele></ele><time>2014-5-9T16:21:18Z</time></trkpt>
<trkpt lat="-0.044312" lon="255.1"><ele></ele><time>2014-5-9T16:21:21Z</time></trkpt>
<trkpt lat="-0.044844" lon="256.1"><ele></ele><time>2014-5-9T16:21:24Z</time></trkpt>
<trkpt lat="-0.045349" lon="256.7"><ele></ele><time>2014-5-9T16:21:27Z</time></trkpt>
<trkpt lat="-0.045807" lon="257.6"><ele></ele><time>2014-5-9T16:21:30Z</time></trkpt>
<trkpt lat="-0.046248" lon="258.2"><ele></ele><time>2014-5-9T16:21:33Z</time></trkpt>
<trkpt lat="-0.046676" lon="259.6"><ele></ele><time>2014-5-9T16:21:36Z</time></trkpt>
<trkpt lat="-0.047125" lon="260.8"><ele></ele><time>2014-5-9T16:21:39Z</time></trkpt>
<trkpt lat="-0.047566" lon="262.8"><ele></ele><time>2014-5-9T16:21:42Z</time></trkpt>
<trkpt lat="-0.048007" lon="264.2"><ele></ele><time>2014-5-9T16:21:45Z</time></trkpt>
<trkpt lat="-0.048396" lon="266.5"><ele></ele><time>2014-5-9T16:21:48Z</time></trkpt>
<trkpt lat="-0.048807" lon="267.0"><ele></ele><time>2014-5-9T16:21:51Z</time></trkpt>
<trkpt lat="-0.049252" lon="268.5"><ele></ele><time>2014-5-9T16:21:54Z</time></trkpt>
<trkpt lat="-0.049752" lon="268.8"><ele></ele><time>2014-5-9T16:21:57Z</time></trkpt>
<trkpt lat="-0.050201" lon="269.6"><ele></ele><time>2014-5-9T16:22:0Z</time></trkpt>
<trkpt lat="-0.050409" lon="273.2"><ele></ele><time>2014-5-9T16:22:3Z</time></trkpt>
<trkpt lat="-0.050779" lon="273.9"><ele></ele><time>2014-5-9T16:22:6Z</time></trkpt>
<trkpt lat="-0.051177" lon="274.1"><ele></ele><time>2014-5-9T16:22:9Z</time></trkpt>
<trkpt lat="-0.051602" lon="273.7"><ele></ele><time>2014-5-9T16:22:12Z</time></trkpt>
<trkpt lat="-0.051930" lon="274.8"><ele></ele><time>2014-5-9T16:22:15Z</time></trkpt>
<trkpt lat="-0.052128" lon="276.9"><ele></ele><time>2014-5-9T16:22:18Z</time></trkpt>
<trkpt lat="-0.052416" lon="279.0"><ele></ele><time>2014-5-9T16:22:21Z</time></trkpt>
<trkpt lat="-0.052782" lon="280.7"><ele></ele><time>2014-5-9T16:22:24Z</time></trkpt>
<trkpt lat="-0.053065" lon="281.6"><ele></ele><time>2014-5-9T16:22:27Z</time></trkpt>
<trkpt lat="-0.053324" lon="282.8"><ele></ele><time>2014-5-9T16:22:30Z</time></trkpt>
<trkpt lat="-0.053607" lon="284.4"><ele></ele><time>2014-5-9T16:22:33Z</time></trkpt>
<trkpt lat="-0.053726" lon="287.4"><ele></ele><time>2014-5-9T16:22:36Z</time></trkpt>
<trkpt lat="-0.053899" lon="287.7"><ele></ele><time>2014-5-9T16:22:39Z</time></trkpt>
<trkpt lat="-0.054072" lon="288.8"><ele></ele><time>2014-5-9T16:22:42Z</time></trkpt>
<trkpt lat="-0.054275" lon="290.2"><ele></ele><time>2014-5-9T16:22:45Z</time></trkpt>
<trkpt lat="-0.054474" lon="292.6"><ele></ele><time>2014-5-9T16:22:48Z</time></trkpt>
<trkpt lat="-0.054679" lon="294.2"><ele></ele><time>2014-5-9T16:22:51Z</time></trkpt>
<trkpt lat="-0.054930" lon="296.4"><ele></ele><time>2014-5-9T16:22:54Z</time></trkpt>
<trkpt lat="-0.055134" lon="296.9"><ele></ele><time>2014-5-9T16:22:57Z</time></trkpt>
<trkpt lat="-0.055266" lon="297.8"><ele></ele><time>2014-5-9T16:23:0Z</time></trkpt>
<trkpt lat="-0.055382" lon="299.9"><ele></ele><time>2014-5-9T16:23:3Z</time></trkpt>
<trkpt lat="-0.055495" lon="301.5"><ele></ele><time>2014-5-9T16:23:6Z</time></trkpt>
<trkpt lat="-0.055617" lon="303.5"><ele></ele><time>2014-5-9T16:23:9Z</time></trkpt>
<trkpt lat="-0.055743" lon="305.1"><ele></ele><time>2014-5-9T16:23:12Z</time></trkpt>
<trkpt lat="-0.055835" lon="306.3"><ele></ele><time>2014-5-9T16:23:15Z</time></trkpt>
<trkpt lat="-0.055930" lon="307.0"><ele></ele><time>2014-5-9T16:23:18Z</time></trkpt>
<trkpt lat="-0.056079" lon="308.4"><ele></ele><time>2014-5-9T16:23:21Z</time></trkpt>
<trkpt lat="-0.056213" lon="309.8"><ele></ele><time>2014-5-9T16:23:24Z</time></trkpt>
<trkpt lat="-0.056375" lon="311.0"><ele></ele><time>2014-5-9T16:23:27Z</time></trkpt>
<trkpt lat="-0.056545" lon="312.2"><ele></ele><time>2014-5-9T16:23:30Z</time></trkpt>
<trkpt lat="-0.056724" lon="314.7"><ele></ele><time>2014-5-9T16:23:33Z</time></trkpt>
<trkpt lat="-0.056923" lon="317.4"><ele></ele><time>2014-5-9T16:23:36Z</time></trkpt>
<trkpt lat="-0.057106" lon="319.3"><ele></ele><time>2014-5-9T16:23:39Z</time></trkpt>
<trkpt lat="-0.057229" lon="322.8"><ele></ele><time>2014-5-9T16:23:42Z</time></trkpt>
<trkpt lat="-0.057296" lon="324.7"><ele></ele><time>2014-5-9T16:23:45Z</time></trkpt>
<trkpt lat="-0.057098" lon="325.6"><ele></ele><time>2014-5-9T16:23:48Z</time></trkpt>
<trkpt lat="-0.056428" lon="325.3"><ele></ele><time>2014-5-9T16:23:51Z</time></trkpt>
<trkpt lat="-0.056134" lon="324.9"><ele></ele><time>2014-5-9T16:23:54Z</time></trkpt>
<trkpt lat="-0.055969" lon="320.1"><ele></ele><time>2014-5-9T16:23:57Z</time></trkpt>
<trkpt lat="-0.055555" lon="317.8"><ele></ele><time>2014-5-9T16:24:0Z</time></trkpt>
<trkpt lat="-0.055249" lon="314.5"><ele></ele><time>2014-5-9T16:24:3Z</time></trkpt>
<trkpt lat="-0.054413" lon="315.6"><ele></ele><time>2014-5-9T16:24:6Z</time></trkpt>
<trkpt lat="-0.054042" lon="317.9"><ele></ele><time>2014-5-9T16:24:9Z</time></trkpt>
<trkpt lat="-0.053976" lon="316.1"><ele></ele><time>2014-5-9T16:24:12Z</time></trkpt>
<trkpt lat="-0.053889" lon="312.0"><ele></ele><time>2014-5-9T16:24:15Z</time></trkpt>
<trkpt lat="-0.053534" lon="309.6"><ele></ele><time>2014-5-9T16:24:18Z</time></trkpt>
<trkpt lat="-0.052833" lon="311.2"><ele></ele><time>2014-5-9T16:24:21Z</time></trkpt>
<trkpt lat="-0.052001" lon="311.9"><ele></ele><time>2014-5-9T16:24:24Z</time></trkpt>
<trkpt lat="-0.051462" lon="311.8"><ele></ele><time>2014-5-9T16:24:27Z</time></trkpt>
<trkpt lat="-0.051330" lon="312.4"><ele></ele><time>2014-5-9T16:24:30Z</time></trkpt>
<trkpt lat="-0.051159" lon="312.4"><ele></ele><time>2014-5-9T16:24:33Z</time></trkpt>
<trkpt lat="-0.050972" lon="313.7"><ele></ele><time>2014-5-9T16:24:36Z</time></trkpt>
<trkpt lat="-0.050824" lon="313.3"><ele></ele><time>2014-5-9T16:24:39Z</time></trkpt>
<trkpt lat="-0.050513" lon="310.5"><ele></ele><time>2014-5-9T16:24:42Z</time></trkpt>
<trkpt lat="-0.050162" lon="306.3"><ele></ele><time>2014-5-9T16:24:45Z</time></trkpt>
<trkpt lat="-0.049942" lon="303.8"><ele></ele><time>2014-5-9T16:24:48Z</time></trkpt>
<trkpt lat="-0.049872" lon="304.0"><ele></ele><time>2014-5-9T16:24:51Z</time></trkpt>
<trkpt lat="-0.049801" lon="303.6"><ele></ele><time>2014-5-9T16:24:54Z</time></trkpt>
<trkpt lat="-0.049998" lon="304.6"><ele></ele><time>2014-5-9T16:24:57Z</time></trkpt>
<trkpt lat="-0.050182" lon="303.0"><ele></ele><time>2014-5-9T16:25:0Z</time></trkpt>
<trkpt lat="-0.050352" lon="302.5"><ele></ele><time>2014-5-9T16:25:3Z</time></trkpt>
<trkpt lat="-0.050515" lon="302.9"><ele></ele><time>2014-5-9T16:25:6Z</time></trkpt>
<trkpt lat="-0.050623" lon="304.7"><ele></ele><time>2014-5-9T16:25:9Z</time></trkpt>
<trkpt lat="-0.050899" lon="298.9"><ele></ele><time>2014-5-9T16:25:12Z</time></trkpt>
<trkpt lat="-0.051668" lon="300.8"><ele></ele><time>2014-5-9T16:25:15Z</time></trkpt>
<trkpt lat="-0.051625" lon="304.6"><ele></ele><time>2014-5-9T16:25:18Z</time></trkpt>
<trkpt lat="-0.051300" lon="302.1"><ele></ele><time>2014-5-9T16:25:21Z</time></trkpt>
<trkpt lat="-0.050992" lon="303.3"><ele></ele><time>2014-5-9T16:25:24Z</time></trkpt>
<trkpt lat="-0.050822" lon="304.7"><ele></ele><time>2014-5-9T16:25:27Z</time></trkpt>
<trkpt lat="-0.050711" lon="305.4"><ele></ele><time>2014-5-9T16:25:30Z</time></trkpt>
<trkpt lat="-0.050636" lon="306.2"><ele></ele><time>2014-5-9T16:25:33Z</time></trkpt>
<trkpt lat="-0.050567" lon="307.3"><ele></ele><time>2014-5-9T16:25:36Z</time></trkpt>
<trkpt lat="-0.050457" lon="307.9"><ele></ele><time>2014-5-9T16:25:39Z</time></trkpt>
<trkpt lat="-0.050316" lon="308.3"><ele></ele><time>2014-5-9T16:25:42Z</time></trkpt>
<trkpt lat="-0.050134" lon="309.5"><ele></ele><time>2014-5-9T16:25:45Z</time></trkpt>
<trkpt lat="-0.049979" lon="311.7"><ele></ele><time>2014-5-9T16:25:48Z</time></trkpt>
<trkpt lat="-0.049642" lon="313.0"><ele></ele><time>2014-5-9T16:25:51Z</time></trkpt>
<trkpt lat="-0.049159" lon="315.6"><ele></ele><time>2014-5-9T16:25:54Z</time></trkpt>
<trkpt lat="-0.048981" lon="316.3"><ele></ele><time>2014-5-9T16:25:57Z</time></trkpt>
<trkpt lat="-0.048797" lon="316.0"><ele></ele><time>2014-5-9T16:26:0Z</time></trkpt>
<trkpt lat="-0.048717" lon="316.7"><ele></ele><time>2014-5-9T16:26:3Z</time></trkpt>
<trkpt lat="-0.048568" lon="316.1"><ele></ele><time>2014-5-9T16:26:6Z</time></trkpt>
<trkpt lat="-0.048442" lon="316.8"><ele></ele><time>2014-5-9T16:26:9Z</time></trkpt>
<trkpt lat="-0.048246" lon="317.1"><ele></ele><time>2014-5-9T16:26:12Z</time></trkpt>
<trkpt lat="-0.048083" lon="316.8"><ele></ele><time>2014-5-9T16:26:15Z</time></trkpt>
<trkpt lat="-0.047791" lon="316.4"><ele></ele><time>2014-5-9T16:26:18Z</time></trkpt>
<trkpt lat="-0.047429" lon="315.8"><ele></ele><time>2014-5-9T16:26:21Z</time></trkpt>
<trkpt lat="-0.047123" lon="314.3"><ele></ele><time>2014-5-9T16:26:24Z</time></trkpt>
<trkpt lat="-0.046635" lon="310.1"><ele></ele><time>2014-5-9T16:26:27Z</time></trkpt>
<trkpt lat="-0.046515" lon="307.6"><ele></ele><time>2014-5-9T16:26:30Z</time></trkpt>
<trkpt lat="-0.046777" lon="312.2"><ele></ele><time>2014-5-9T16:26:33Z</time></trkpt>
<trkpt lat="-0.046862" lon="311.8"><ele></ele><time>2014-5-9T16:26:36Z</time></trkpt>
<trkpt lat="-0.046928" lon="311.9"><ele></ele><time>2014-5-9T16:26:39Z</time></trkpt>
<trkpt lat="-0.046972" lon="310.9"><ele></ele><time>2014-5-9T16:26:42Z</time></trkpt>
<trkpt lat="-0.047064" lon="310.6"><ele></ele><time>2014-5-9T16:26:45Z</time></trkpt>
<trkpt lat="-0.047191" lon="309.7"><ele></ele><time>2014-5-9T16:26:48Z</time></trkpt>
<trkpt lat="-0.047296" lon="309.9"><ele></ele><time>2014-5-9T16:26:51Z</time></trkpt>
<trkpt lat="-0.047411" lon="310.1"><ele></ele><time>2014-5-9T16:26:54Z</time></trkpt>
<trkpt lat="-0.047517" lon="310.2"><ele></ele><time>2014-5-9T16:26:57Z</time></trkpt>
<trkpt lat="-0.047657" lon="310.2"><ele></ele><time>2014-5-9T16:27:0Z</time></trkpt>
<trkpt lat="-0.047842" lon="309.9"><ele></ele><time>2014-5-9T16:27:3Z</time></trkpt>
<trkpt lat="-0.048022" lon="309.5"><ele></ele><time>2014-5-9T16:27:6Z</time></trkpt>
<trkpt lat="-0.048214" lon="309.4"><ele></ele><time>2014-5-9T16:27:9Z</time></trkpt>
<trkpt lat="-0.048432" lon="307.9"><ele></ele><time>2014-5-9T16:27:12Z</time></trkpt>
<trkpt lat="-0.048616" lon="308.2"><ele></ele><time>2014-5-9T16:27:15Z</time></trkpt>
<trkpt lat="-0.048775" lon="307.7"><ele></ele><time>2014-5-9T16:27:18Z</time></trkpt>
<trkpt lat="-0.049035" lon="313.1"><ele></ele><time>2014-5-9T16:27:21Z</time></trkpt>
<trkpt lat="-0.049271" lon="312.1"><ele></ele><time>2014-5-9T16:27:24Z</time></trkpt>
<trkpt lat="-0.049481" lon="312.0"><ele></ele><time>2014-5-9T16:27:27Z</time></trkpt>
<trkpt lat="-0.049588" lon="312.4"><ele></ele><time>2014-5-9T16:27:30Z</time></trkpt>
<trkpt lat="-0.049401" lon="313.0"><ele></ele><time>2014-5-9T16:27:33Z</time></trkpt>
<trkpt lat="-0.049471" lon="307.7"><ele></ele><time>2014-5-9T16:27:36Z</time></trkpt>
<trkpt lat="-0.049525" lon="310.8"><ele></ele><time>2014-5-9T16:27:39Z</time></trkpt>
<trkpt lat="-0.049944" lon="309.1"><ele></ele><time>2014-5-9T16:27:42Z</time></trkpt>
<trkpt lat="-0.050323" lon="309.1"><ele></ele><time>2014-5-9T16:27:45Z</time></trkpt>
<trkpt lat="-0.050670" lon="308.1"><ele></ele><time>2014-5-9T16:27:48Z</time></trkpt>
<trkpt lat="-0.050907" lon="302.7"><ele></ele><time>2014-5-9T16:27:51Z</time></trkpt>
<trkpt lat="-0.051080" lon="297.2"><ele></ele><time>2014-5-9T16:27:54Z</time></trkpt>
<trkpt lat="-0.050994" lon="310.6"><ele></ele><time>2014-5-9T16:27:57Z</time></trkpt>
<trkpt lat="-0.050838" lon="310.9"><ele></ele><time>2014-5-9T16:28:0Z</time></trkpt>
<trkpt lat="-0.050707" lon="310.6"><ele></ele><time>2014-5-9T16:28:3Z</time></trkpt>
<trkpt lat="-0.050521" lon="309.6"><ele></ele><time>2014-5-9T16:28:6Z</time></trkpt>
<trkpt lat="-0.050275" lon="308.9"><ele></ele><time>2014-5-9T16:28:9Z</time></trkpt>
<trkpt lat="-0.050097" lon="308.4"><ele></ele><time>2014-5-9T16:28:12Z</time></trkpt>
<trkpt lat="-0.049927" lon="307.9"><ele></ele><time>2014-5-9T16:28:15Z</time></trkpt>
<trkpt lat="-0.049755" lon="306.9"><ele></ele><time>2014-5-9T16:28:18Z</time></trkpt>
<trkpt lat="-0.049688" lon="306.4"><ele></ele><time>2014-5-9T16:28:21Z</time></trkpt>
<trkpt lat="-0.049586" lon="306.2"><ele></ele><time>2014-5-9T16:28:24Z</time></trkpt>
<trkpt lat="-0.049429" lon="307.9"><ele></ele><time>2014-5-9T16:28:27Z</time></trkpt>
<trkpt lat="-0.049332" lon="308.6"><ele></ele><time>2014-5-9T16:28:30Z</time></trkpt>
<trkpt lat="-0.049263" lon="309.5"><ele></ele><time>2014-5-9T16:28:33Z</time></trkpt>
<trkpt lat="-0.049159" lon="309.7"><ele></ele><time>2014-5-9T16:28:36Z</time></trkpt>
<trkpt lat="-0.048956" lon="309.5"><ele></ele><time>2014-5-9T16:28:39Z</time></trkpt>
<trkpt lat="-0.048654" lon="309.7"><ele></ele><time>2014-5-9T16:28:42Z</time></trkpt>
<trkpt lat="-0.048302" lon="308.9"><ele></ele><time>2014-5-9T16:28:45Z</time></trkpt>
<trkpt lat="-0.048042" lon="307.8"><ele></ele><time>2014-5-9T16:28:48Z</time></trkpt>
<trkpt lat="-0.047684" lon="306.9"><ele></ele><time>2014-5-9T16:28:51Z</time></trkpt>
<trkpt lat="-0.047339" lon="308.4"><ele></ele><time>2014-5-9T16:28:54Z</time></trkpt>
<trkpt lat="-0.046997" lon="307.3"><ele></ele><time>2014-5-9T16:28:57Z</time></trkpt>
<trkpt lat="-0.046774" lon="307.0"><ele></ele><time>2014-5-9T16:29:0Z</time></trkpt>
<trkpt lat="-0.046648" lon="310.6"><ele></ele><time>2014-5-9T16:29:3Z</time></trkpt>
<trkpt lat="-0.046508" lon="312.2"><ele></ele><time>2014-5-9T16:29:6Z</time></trkpt>
<trkpt lat="-0.046407" lon="311.9"><ele></ele><time>2014-5-9T16:29:9Z</time></trkpt>
<trkpt lat="-0.046255" lon="308.9"><ele></ele><time>2014-5-9T16:29:12Z</time></trkpt>
<trkpt lat="-0.045849" lon="304.2"><ele></ele><time>2014-5-9T16:29:15Z</time></trkpt>
<trkpt lat="-0.045589" lon="298.1"><ele></ele><time>2014-5-9T16:29:18Z</time></trkpt>
<trkpt lat="-0.045040" lon="298.0"><ele></ele><time>2014-5-9T16:29:21Z</time></trkpt>
<trkpt lat="-0.044653" lon="297.5"><ele></ele><time>2014-5-9T16:29:24Z</time></trkpt>
<trkpt lat="-0.044466" lon="294.6"><ele></ele><time>2014-5-9T16:29:27Z</time></trkpt>
<trkpt lat="-0.044235" lon="293.0"><ele></ele><time>2014-5-9T16:29:30Z</time></trkpt>
<trkpt lat="-0.043457" lon="292.2"><ele></ele><time>2014-5-9T16:29:33Z</time></trkpt>
<trkpt lat="-0.042459" lon="291.2"><ele></ele><time>2014-5-9T16:29:36Z</time></trkpt>
<trkpt lat="-0.041372" lon="289.9"><ele></ele><time>2014-5-9T16:29:39Z</time></trkpt>
<trkpt lat="-0.040004" lon="287.3"><ele></ele><time>2014-5-9T16:29:42Z</time></trkpt>
<trkpt lat="-0.038464" lon="285.0"><ele></ele><time>2014-5-9T16:29:45Z</time></trkpt>
<trkpt lat="-0.037123" lon="281.9"><ele></ele><time>2014-5-9T16:29:48Z</time></trkpt>
<trkpt lat="-0.035716" lon="279.6"><ele></ele><time>2014-5-9T16:29:51Z</time></trkpt>
<trkpt lat="-0.034360" lon="277.9"><ele></ele><time>2014-5-9T16:29:54Z</time></trkpt>
<trkpt lat="-0.032841" lon="275.6"><ele></ele><time>2014-5-9T16:29:57Z</time></trkpt>
<trkpt lat="-0.031482" lon="272.4"><ele></ele><time>2014-5-9T16:30:0Z</time></trkpt>
<trkpt lat="-0.030823" lon="269.4"><ele></ele><time>2014-5-9T16:30:3Z</time></trkpt>
<trkpt lat="-0.030415" lon="266.8"><ele></ele><time>2014-5-9T16:30:6Z</time></trkpt>
<trkpt lat="-0.029986" lon="265.6"><ele></ele><time>2014-5-9T16:30:9Z</time></trkpt>
<trkpt lat="-0.029693" lon="264.8"><ele></ele><time>2014-5-9T16:30:12Z</time></trkpt>
<trkpt lat="-0.029077" lon="264.1"><ele></ele><time>2014-5-9T16:30:15Z</time></trkpt>
<trkpt lat="-0.027923" lon="262.0"><ele></ele><time>2014-5-9T16:30:18Z</time></trkpt>
<trkpt lat="-0.027854" lon="260.0"><ele></ele><time>2014-5-9T16:30:21Z</time></trkpt>
<trkpt lat="-0.028147" lon="258.7"><ele></ele><time>2014-5-9T16:30:24Z</time></trkpt>
<trkpt lat="-0.028326" lon="256.3"><ele></ele><time>2014-5-9T16:30:27Z</time></trkpt>
<trkpt lat="-0.028395" lon="252.4"><ele></ele><time>2014-5-9T16:30:30Z</time></trkpt>
<trkpt lat="-0.028156" lon="250.1"><ele></ele><time>2014-5-9T16:30:33Z</time></trkpt>
<trkpt lat="-0.027941" lon="248.2"><ele></ele><time>2014-5-9T16:30:36Z</time></trkpt>
<trkpt lat="-0.027830" lon="247.0"><ele></ele><time>2014-5-9T16:30:39Z</time></trkpt>
<trkpt lat="-0.027786" lon="246.3"><ele></ele><time>2014-5-9T16:30:42Z</time></trkpt>
<trkpt lat="-0.027849" lon="245.3"><ele></ele><time>2014-5-9T16:30:45Z</time></trkpt>
<trkpt lat="-0.027953" lon="244.6"><ele></ele><time>2014-5-9T16:30:48Z</time></trkpt>
<trkpt lat="-0.028182" lon="244.0"><ele></ele><time>2014-5-9T16:30:51Z</time></trkpt>
<trkpt lat="-0.028383" lon="243.1"><ele></ele><time>2014-5-9T16:30:54Z</time></trkpt>
<trkpt lat="-0.028411" lon="241.5"><ele></ele><time>2014-5-9T16:30:57Z</time></trkpt>
<trkpt lat="-0.028366" lon="240.4"><ele></ele><time>2014-5-9T16:31:0Z</time></trkpt>
<trkpt lat="-0.028304" lon="239.1"><ele></ele><time>2014-5-9T16:31:3Z</time></trkpt>
<trkpt lat="-0.028268" lon="238.6"><ele></ele><time>2014-5-9T16:31:6Z</time></trkpt>
<trkpt lat="-0.028308" lon="238.6"><ele></ele><time>2014-5-9T16:31:9Z</time></trkpt>
<trkpt lat="-0.028421" lon="238.3"><ele></ele><time>2014-5-9T16:31:12Z</time></trkpt>
<trkpt lat="-0.028571" lon="237.6"><ele></ele><time>2014-5-9T16:31:15Z</time></trkpt>
<trkpt lat="-0.028745" lon="237.5"><ele></ele><time>2014-5-9T16:31:18Z</time></trkpt>
<trkpt lat="-0.028826" lon="237.1"><ele></ele><time>2014-5-9T16:31:21Z</time></trkpt>
<trkpt lat="-0.028856" lon="236.7"><ele></ele><time>2014-5-9T16:31:24Z</time></trkpt>
<trkpt lat="-0.028883" lon="236.8"><ele></ele><time>2014-5-9T16:31:27Z</time></trkpt>
<trkpt lat="-0.029075" lon="237.3"><ele></ele><time>2014-5-9T16:31:30Z</time></trkpt>
<trkpt lat="-0.029303" lon="237.0"><ele></ele><time>2014-5-9T16:31:33Z</time></trkpt>
<trkpt lat="-0.029675" lon="236.7"><ele></ele><time>2014-5-9T16:31:36Z</time></trkpt>
<trkpt lat="-0.029884" lon="236.4"><ele></ele><time>2014-5-9T16:31:39Z</time></trkpt>
<trkpt lat="-0.030018" lon="236.6"><ele></ele><time>2014-5-9T16:31:42Z</time></trkpt>
<trkpt lat="-0.030249" lon="236.0"><ele></ele><time>2014-5-9T16:31:45Z</time></trkpt>
<trkpt lat="-0.030408" lon="235.6"><ele></ele><time>2014-5-9T16:31:48Z</time></trkpt>
<trkpt lat="-0.030604" lon="235.8"><ele></ele><time>2014-5-9T16:31:51Z</time></trkpt>
<trkpt lat="-0.030878" lon="235.6"><ele></ele><time>2014-5-9T16:31:54Z</time></trkpt>
<trkpt lat="-0.031201" lon="235.5"><ele></ele><time>2014-5-9T16:31:57Z</time></trkpt>
<trkpt lat="-0.031570" lon="235.2"><ele></ele><time>2014-5-9T16:32:0Z</time></trkpt>
<trkpt lat="-0.031813" lon="234.7"><ele></ele><time>2014-5-9T16:32:3Z</time></trkpt>
<trkpt lat="-0.031049" lon="234.4"><ele></ele><time>2014-5-9T16:32:6Z</time></trkpt>
<trkpt lat="-0.029961" lon="232.9"><ele></ele><time>2014-5-9T16:32:9Z</time></trkpt>
<trkpt lat="-0.028859" lon="232.9"><ele></ele><time>2014-5-9T16:32:12Z</time></trkpt>
<trkpt lat="-0.027776" lon="232.5"><ele></ele><time>2014-5-9T16:32:15Z</time></trkpt>
<trkpt lat="-0.026653" lon="232.8"><ele></ele><time>2014-5-9T16:32:18Z</time></trkpt>
<trkpt lat="-0.025483" lon="232.0"><ele></ele><time>2014-5-9T16:32:21Z</time></trkpt>
<trkpt lat="-0.024313" lon="230.6"><ele></ele><time>2014-5-9T16:32:24Z</time></trkpt>
<trkpt lat="-0.023356" lon="230.1"><ele></ele><time>2014-5-9T16:32:27Z</time></trkpt>
<trkpt lat="-0.022764" lon="229.3"><ele></ele><time>2014-5-9T16:32:30Z</time></trkpt>
<trkpt lat="-0.022056" lon="228.4"><ele></ele><time>2014-5-9T16:32:33Z</time></trkpt>
<trkpt lat="-0.021553" lon="228.3"><ele></ele><time>2014-5-9T16:32:36Z</time></trkpt>
<trkpt lat="-0.021255" lon="227.7"><ele></ele><time>2014-5-9T16:32:39Z</time></trkpt>
<trkpt lat="-0.021037" lon="226.9"><ele></ele><time>2014-5-9T16:32:42Z</time></trkpt>
<trkpt lat="-0.020801" lon="226.2"><ele></ele><time>2014-5-9T16:32:45Z</time></trkpt>
<trkpt lat="-0.020573" lon="225.6"><ele></ele><time>2014-5-9T16:32:48Z</time></trkpt>
<trkpt lat="-0.020376" lon="226.9"><ele></ele><time>2014-5-9T16:32:51Z</time></trkpt>
<trkpt lat="-0.020184" lon="226.9"><ele></ele><time>2014-5-9T16:32:54Z</time></trkpt>
<trkpt lat="-0.019974" lon="226.5"><ele></ele><time>2014-5-9T16:32:57Z</time></trkpt>
<trkpt lat="-0.019836" lon="226.3"><ele></ele><time>2014-5-9T16:33:0Z</time></trkpt>
<trkpt lat="-0.019723" lon="225.6"><ele></ele><time>2014-5-9T16:33:3Z</time></trkpt>
<trkpt lat="-0.019630" lon="244.0"><ele></ele><time>2014-5-9T16:33:6Z</time></trkpt>
<trkpt lat="-0.019726" lon="245.7"><ele></ele><time>2014-5-9T16:33:9Z</time></trkpt>
<trkpt lat="-0.019616" lon="244.2"><ele></ele><time>2014-5-9T16:33:12Z</time></trkpt>
<trkpt lat="-0.019424" lon="242.6"><ele></ele><time>2014-5-9T16:33:15Z</time></trkpt>
<trkpt lat="-0.019236" lon="241.5"><ele></ele><time>2014-5-9T16:33:18Z</time></trkpt>
<trkpt lat="-0.018976" lon="241.6"><ele></ele><time>2014-5-9T16:33:21Z</time></trkpt>
<trkpt lat="-0.018788" lon="242.1"><ele></ele><time>2014-5-9T16:33:24Z</time></trkpt>
<trkpt lat="-0.018584" lon="242.5"><ele></ele><time>2014-5-9T16:33:27Z</time></trkpt>
<trkpt lat="-0.018384" lon="243.0"><ele></ele><time>2014-5-9T16:33:30Z</time></trkpt>
<trkpt lat="-0.018198" lon="243.3"><ele></ele><time>2014-5-9T16:33:33Z</time></trkpt>
<trkpt lat="-0.017963" lon="242.7"><ele></ele><time>2014-5-9T16:33:36Z</time></trkpt>
<trkpt lat="-0.017746" lon="244.7"><ele></ele><time>2014-5-9T16:33:39Z</time></trkpt>
<trkpt lat="-0.017568" lon="246.9"><ele></ele><time>2014-5-9T16:33:42Z</time></trkpt>
<trkpt lat="-0.017411" lon="249.2"><ele></ele><time>2014-5-9T16:33:45Z</time></trkpt>
<trkpt lat="-0.017262" lon="250.3"><ele></ele><time>2014-5-9T16:33:48Z</time></trkpt>
<trkpt lat="-0.017101" lon="253.1"><ele></ele><time>2014-5-9T16:33:51Z</time></trkpt>
<trkpt lat="-0.016919" lon="253.9"><ele></ele><time>2014-5-9T16:33:54Z</time></trkpt>
<trkpt lat="-0.016803" lon="255.8"><ele></ele><time>2014-5-9T16:33:57Z</time></trkpt>
<trkpt lat="-0.016700" lon="257.8"><ele></ele><time>2014-5-9T16:34:0Z</time></trkpt>
<trkpt lat="-0.016571" lon="260.4"><ele></ele><time>2014-5-9T16:34:3Z</time></trkpt>
<trkpt lat="-0.016435" lon="262.0"><ele></ele><time>2014-5-9T16:34:6Z</time></trkpt>
<trkpt lat="-0.016317" lon="263.1"><ele></ele><time>2014-5-9T16:34:9Z</time></trkpt>
<trkpt lat="-0.016183" lon="263.8"><ele></ele><time>2014-5-9T16:34:12Z</time></trkpt>
<trkpt lat="-0.016099" lon="264.0"><ele></ele><time>2014-5-9T16:34:15Z</time></trkpt>
<trkpt lat="-0.016034" lon="265.3"><ele></ele><time>2014-5-9T16:34:18Z</time></trkpt>
<trkpt lat="-0.015926" lon="265.6"><ele></ele><time>2014-5-9T16:34:21Z</time></trkpt>
<trkpt lat="-0.015813" lon="266.5"><ele></ele><time>2014-5-9T16:34:24Z</time></trkpt>
<trkpt lat="-0.015683" lon="267.9"><ele></ele><time>2014-5-9T16:34:27Z</time></trkpt>
<trkpt lat="-0.015531" lon="269.1"><ele></ele><time>2014-5-9T16:34:30Z</time></trkpt>
<trkpt lat="-0.015359" lon="271.0"><ele></ele><time>2014-5-9T16:34:33Z</time></trkpt>
<trkpt lat="-0.015166" lon="272.2"><ele></ele><time>2014-5-9T16:34:36Z</time></trkpt>
<trkpt lat="-0.014985" lon="275.7"><ele></ele><time>2014-5-9T16:34:39Z</time></trkpt>
<trkpt lat="-0.014838" lon="278.2"><ele></ele><time>2014-5-9T16:34:42Z</time></trkpt>
<trkpt lat="-0.014718" lon="280.4"><ele></ele><time>2014-5-9T16:34:45Z</time></trkpt>
<trkpt lat="-0.014603" lon="282.2"><ele></ele><time>2014-5-9T16:34:48Z</time></trkpt>
<trkpt lat="-0.014464" lon="284.2"><ele></ele><time>2014-5-9T16:34:51Z</time></trkpt>
<trkpt lat="-0.014314" lon="285.9"><ele></ele><time>2014-5-9T16:34:54Z</time></trkpt>
<trkpt lat="-0.014122" lon="287.5"><ele></ele><time>2014-5-9T16:34:57Z</time></trkpt>
<trkpt lat="-0.013965" lon="288.5"><ele></ele><time>2014-5-9T16:35:0Z</time></trkpt>
<trkpt lat="-0.013755" lon="289.8"><ele></ele><time>2014-5-9T16:35:3Z</time></trkpt>
<trkpt lat="-0.013583" lon="292.0"><ele></ele><time>2014-5-9T16:35:6Z</time></trkpt>
<trkpt lat="-0.013386" lon="294.5"><ele></ele><time>2014-5-9T16:35:9Z</time></trkpt>
<trkpt lat="-0.013174" lon="296.8"><ele></ele><time>2014-5-9T16:35:12Z</time></trkpt>
<trkpt lat="-0.012954" lon="297.7"><ele></ele><time>2014-5-9T16:35:15Z</time></trkpt>
<trkpt lat="-0.012718" lon="299.5"><ele></ele><time>2014-5-9T16:35:18Z</time></trkpt>
<trkpt lat="-0.012482" lon="302.0"><ele></ele><time>2014-5-9T16:35:21Z</time></trkpt>
<trkpt lat="-0.012270" lon="303.9"><ele></ele><time>2014-5-9T16:35:24Z</time></trkpt>
<trkpt lat="-0.012035" lon="305.7"><ele></ele><time>2014-5-9T16:35:27Z</time></trkpt>
<trkpt lat="-0.011802" lon="308.7"><ele></ele><time>2014-5-9T16:35:30Z</time></trkpt>
<trkpt lat="-0.011547" lon="312.6"><ele></ele><time>2014-5-9T16:35:33Z</time></trkpt>
<trkpt lat="-0.011296" lon="314.3"><ele></ele><time>2014-5-9T16:35:36Z</time></trkpt>
<trkpt lat="-0.010985" lon="317.2"><ele></ele><time>2014-5-9T16:35:39Z</time></trkpt>
<trkpt lat="-0.010580" lon="319.3"><ele></ele><time>2014-5-9T16:35:42Z</time></trkpt>
<trkpt lat="-0.010012" lon="321.2"><ele></ele><time>2014-5-9T16:35:45Z</time></trkpt>
<trkpt lat="-0.008933" lon="320.9"><ele></ele><time>2014-5-9T16:35:48Z</time></trkpt>
<trkpt lat="-0.007733" lon="320.5"><ele></ele><time>2014-5-9T16:35:51Z</time></trkpt>
<trkpt lat="-0.007057" lon="322.1"><ele></ele><time>2014-5-9T16:35:54Z</time></trkpt>
<trkpt lat="-0.006399" lon="318.9"><ele></ele><time>2014-5-9T16:35:57Z</time></trkpt>
<trkpt lat="-0.006194" lon="322.3"><ele></ele><time>2014-5-9T16:36:0Z</time></trkpt>
<trkpt lat="-0.006406" lon="322.1"><ele></ele><time>2014-5-9T16:36:3Z</time></trkpt>
<trkpt lat="-0.006516" lon="321.2"><ele></ele><time>2014-5-9T16:36:6Z</time></trkpt>
<trkpt lat="-0.006676" lon="321.0"><ele></ele><time>2014-5-9T16:36:9Z</time></trkpt>
<trkpt lat="-0.006547" lon="322.5"><ele></ele><time>2014-5-9T16:36:12Z</time></trkpt>
<trkpt lat="-0.006444" lon="329.3"><ele></ele><time>2014-5-9T16:36:15Z</time></trkpt>
<trkpt lat="-0.006493" lon="325.7"><ele></ele><time>2014-5-9T16:36:18Z</time></trkpt>
<trkpt lat="-0.006546" lon="323.0"><ele></ele><time>2014-5-9T16:36:21Z</time></trkpt>
<trkpt lat="-0.006553" lon="321.4"><ele></ele><time>2014-5-9T16:36:24Z</time></trkpt>
<trkpt lat="-0.006532" lon="323.7"><ele></ele><time>2014-5-9T16:36:27Z</time></trkpt>
<trkpt lat="-0.006470" lon="322.2"><ele></ele><time>2014-5-9T16:36:30Z</time></trkpt>
<trkpt lat="-0.006649" lon="317.9"><ele></ele><time>2014-5-9T16:36:33Z</time></trkpt>
<trkpt lat="-0.006474" lon="316.3"><ele></ele><time>2014-5-9T16:36:36Z</time></trkpt>
<trkpt lat="0.034631" lon="10"><ele></ele><time>2014-5-9T16:36:39Z</time></trkpt>
<trkpt lat="-0.003833" lon="10"><ele></ele><time>2014-5-9T16:36:42Z</time></trkpt>
<trkpt lat="0.002063" lon="10"><ele></ele><time>2014-5-9T16:36:45Z</time></trkpt>
<trkpt lat="0.084735" lon="10"><ele></ele><time>2014-5-9T16:36:48Z</time></trkpt>
<trkpt lat="0.320123" lon="0"><ele></ele><time>2014-5-9T16:36:51Z</time></trkpt>
<trkpt lat="0.319406" lon="0"><ele></ele><time>2014-5-9T16:36:54Z</time></trkpt>
<trkpt lat="0.319152" lon="0"><ele></ele><time>2014-5-9T16:36:57Z</time></trkpt>
<trkpt lat="0.319069" lon="0"><ele></ele><time>2014-5-9T16:37:0Z</time></trkpt>
<trkpt lat="0.318558" lon="0"><ele></ele><time>2014-5-9T16:37:3Z</time></trkpt>
<trkpt lat="0.318249" lon="0"><ele></ele><time>2014-5-9T16:37:6Z</time></trkpt>
<trkpt lat="0.318056" lon="0"><ele></ele><time>2014-5-9T16:37:9Z</time></trkpt>
<trkpt lat="0.318300" lon="0"><ele></ele><time>2014-5-9T16:37:12Z</time></trkpt>
<trkpt lat="0.318611" lon="0"><ele></ele><time>2014-5-9T16:37:15Z</time></trkpt>
<trkpt lat="0.318835" lon="0"><ele></ele><time>2014-5-9T16:37:18Z</time></trkpt>
<trkpt lat="0.319324" lon="0"><ele></ele><time>2014-5-9T16:37:21Z</time></trkpt>
<trkpt lat="0.319706" lon="0"><ele></ele><time>2014-5-9T16:37:24Z</time></trkpt>
<trkpt lat="0.320037" lon="0"><ele></ele><time>2014-5-9T16:37:27Z</time></trkpt>
<trkpt lat="0.320409" lon="0"><ele></ele><time>2014-5-9T16:37:30Z</time></trkpt>
<trkpt lat="0.320506" lon="0"><ele></ele><time>2014-5-9T16:37:33Z</time></trkpt>
<trkpt lat="0.320498" lon="0"><ele></ele><time>2014-5-9T16:37:36Z</time></trkpt>
<trkpt lat="0.320511" lon="0"><ele></ele><time>2014-5-9T16:37:39Z</time></trkpt>
<trkpt lat="0.320802" lon="0"><ele></ele><time>2014-5-9T16:37:42Z</time></trkpt>
<trkpt lat="0.321228" lon="0"><ele></ele><time>2014-5-9T16:37:45Z</time></trkpt>
<trkpt lat="0.321355" lon="0"><ele></ele><time>2014-5-9T16:37:48Z</time></trkpt>
<trkpt lat="0.321494" lon="0"><ele></ele><time>2014-5-9T16:37:51Z</time></trkpt>
<trkpt lat="0.321565" lon="0"><ele></ele><time>2014-5-9T16:37:54Z</time></trkpt>
<trkpt lat="0.321603" lon="0"><ele></ele><time>2014-5-9T16:37:57Z</time></trkpt>
<trkpt lat="0.321673" lon="0"><ele></ele><time>2014-5-9T16:38:0Z</time></trkpt>
<trkpt lat="0.321490" lon="0"><ele></ele><time>2014-5-9T16:38:3Z</time></trkpt>
<trkpt lat="0.321372" lon="0"><ele></ele><time>2014-5-9T16:38:6Z</time></trkpt>
<trkpt lat="0.321339" lon="0"><ele></ele><time>2014-5-9T16:38:9Z</time></trkpt>
<trkpt lat="0.321328" lon="0"><ele></ele><time>2014-5-9T16:38:12Z</time></trkpt>
<trkpt lat="0.320748" lon="0"><ele></ele><time>2014-5-9T16:38:15Z</time></trkpt>
<trkpt lat="0.320088" lon="0"><ele></ele><time>2014-5-9T16:38:18Z</time></trkpt>
<trkpt lat="0.319735" lon="0"><ele></ele><time>2014-5-9T16:38:21Z</time></trkpt>
<trkpt lat="0.319681" lon="0"><ele></ele><time>2014-5-9T16:38:24Z</time></trkpt>
<trkpt lat="0.320215" lon="0"><ele></ele><time>2014-5-9T16:38:27Z</time></trkpt>
<trkpt lat="0.320434" lon="0"><ele></ele><time>2014-5-9T16:38:30Z</time></trkpt>
<trkpt lat="0.320444" lon="0"><ele></ele><time>2014-5-9T16:38:33Z</time></trkpt>
<trkpt lat="0.320481" lon="0"><ele></ele><time>2014-5-9T16:38:36Z</time></trkpt>
<trkpt lat="0.320706" lon="0"><ele></ele><time>2014-5-9T16:38:39Z</time></trkpt>
<trkpt lat="0.320883" lon="0"><ele></ele><time>2014-5-9T16:38:42Z</time></trkpt>
<trkpt lat="0.321062" lon="0"><ele></ele><time>2014-5-9T16:38:45Z</time></trkpt>
<trkpt lat="0.321021" lon="0"><ele></ele><time>2014-5-9T16:38:48Z</time></trkpt>
<trkpt lat="0.320833" lon="0"><ele></ele><time>2014-5-9T16:38:51Z</time></trkpt>
<trkpt lat="0.320590" lon="0"><ele></ele><time>2014-5-9T16:38:54Z</time></trkpt>
<trkpt lat="0.319947" lon="0"><ele></ele><time>2014-5-9T16:38:57Z</time></trkpt>
<trkpt lat="0.319495" lon="0"><ele></ele><time>2014-5-9T16:39:0Z</time></trkpt>
<trkpt lat="0.319076" lon="0"><ele></ele><time>2014-5-9T16:39:3Z</time></trkpt>
<trkpt lat="0.318858" lon="0"><ele></ele><time>2014-5-9T16:39:6Z</time></trkpt>
<trkpt lat="0.318614" lon="0"><ele></ele><time>2014-5-9T16:39:9Z</time></trkpt>
<trkpt lat="0.318519" lon="0"><ele></ele><time>2014-5-9T16:39:12Z</time></trkpt>
<trkpt lat="0.318348" lon="0"><ele></ele><time>2014-5-9T16:39:15Z</time></trkpt>
<trkpt lat="0.318259" lon="0"><ele></ele><time>2014-5-9T16:39:18Z</time></trkpt>
<trkpt lat="0.318250" lon="0"><ele></ele><time>2014-5-9T16:39:21Z</time></trkpt>
<trkpt lat="0.318387" lon="0"><ele></ele><time>2014-5-9T16:39:24Z</time></trkpt>
<trkpt lat="0.318404" lon="0"><ele></ele><time>2014-5-9T16:39:27Z</time></trkpt>
<trkpt lat="0.318586" lon="0"><ele></ele><time>2014-5-9T16:39:30Z</time></trkpt>
<trkpt lat="0.319032" lon="0"><ele></ele><time>2014-5-9T16:39:33Z</time></trkpt>
<trkpt lat="0.319362" lon="0"><ele></ele><time>2014-5-9T16:39:36Z</time></trkpt>
<trkpt lat="0.319522" lon="0"><ele></ele><time>2014-5-9T16:39:39Z</time></trkpt>
<trkpt lat="0.319850" lon="0"><ele></ele><time>2014-5-9T16:39:42Z</time></trkpt>
<trkpt lat="0.320182" lon="0"><ele></ele><time>2014-5-9T16:39:45Z</time></trkpt>
<trkpt lat="0.320227" lon="0"><ele></ele><time>2014-5-9T16:39:48Z</time></trkpt>
<trkpt lat="0.320330" lon="0"><ele></ele><time>2014-5-9T16:39:51Z</time></trkpt>
<trkpt lat="0.320281" lon="0"><ele></ele><time>2014-5-9T16:39:54Z</time></trkpt>
<trkpt lat="0.319915" lon="0"><ele></ele><time>2014-5-9T16:39:57Z</time></trkpt>
<trkpt lat="0.319568" lon="0"><ele></ele><time>2014-5-9T16:40:0Z</time></trkpt>
<trkpt lat="0.319293" lon="0"><ele></ele><time>2014-5-9T16:40:3Z</time></trkpt>
<trkpt lat="0.318730" lon="0"><ele></ele><time>2014-5-9T16:40:6Z</time></trkpt>
<trkpt lat="0.318590" lon="0"><ele></ele><time>2014-5-9T16:40:9Z</time></trkpt>
<trkpt lat="0.318596" lon="0"><ele></ele><time>2014-5-9T16:40:12Z</time></trkpt>
<trkpt lat="0.318872" lon="0"><ele></ele><time>2014-5-9T16:40:15Z</time></trkpt>
<trkpt lat="0.319481" lon="0"><ele></ele><time>2014-5-9T16:40:18Z</time></trkpt>
<trkpt lat="0.320118" lon="0"><ele></ele><time>2014-5-9T16:40:21Z</time></trkpt>
<trkpt lat="0.320622" lon="0"><ele></ele><time>2014-5-9T16:40:24Z</time></trkpt>
<trkpt lat="0.321029" lon="0"><ele></ele><time>2014-5-9T16:40:27Z</time></trkpt>
<trkpt lat="0.321280" lon="0"><ele></ele><time>2014-5-9T16:40:30Z</time></trkpt>
<trkpt lat="0.321694" lon="0"><ele></ele><time>2014-5-9T16:40:33Z</time></trkpt>
<trkpt lat="0.321248" lon="0"><ele></ele><time>2014-5-9T16:40:36Z</time></trkpt>
<trkpt lat="0.320948" lon="0"><ele></ele><time>2014-5-9T16:40:39Z</time></trkpt>
<trkpt lat="0.320984" lon="0"><ele></ele><time>2014-5-9T16:40:42Z</time></trkpt>
<trkpt lat="0.321451" lon="0"><ele></ele><time>2014-5-9T16:40:45Z</time></trkpt>
<trkpt lat="0.322299" lon="0"><ele></ele><time>2014-5-9T16:40:48Z</time></trkpt>
<trkpt lat="0.323277" lon="0"><ele></ele><time>2014-5-9T16:40:51Z</time></trkpt>
<trkpt lat="0.323811" lon="0"><ele></ele><time>2014-5-9T16:40:54Z</time></trkpt>
<trkpt lat="0.324121" lon="0"><ele></ele><time>2014-5-9T16:40:57Z</time></trkpt>
<trkpt lat="0.324682" lon="0"><ele></ele><time>2014-5-9T16:41:0Z</time></trkpt>
<trkpt lat="0.324778" lon="0"><ele></ele><time>2014-5-9T16:41:3Z</time></trkpt>
<trkpt lat="0.325317" lon="0"><ele></ele><time>2014-5-9T16:41:6Z</time></trkpt>
<trkpt lat="0.325360" lon="0"><ele></ele><time>2014-5-9T16:41:9Z</time></trkpt>
<trkpt lat="0.325458" lon="0"><ele></ele><time>2014-5-9T16:41:12Z</time></trkpt>
<trkpt lat="0.325527" lon="0"><ele></ele><time>2014-5-9T16:41:15Z</time></trkpt>
<trkpt lat="0.326053" lon="0"><ele></ele><time>2014-5-9T16:41:18Z</time></trkpt>
<trkpt lat="0.326513" lon="0"><ele></ele><time>2014-5-9T16:41:21Z</time></trkpt>
<trkpt lat="0.326718" lon="0"><ele></ele><time>2014-5-9T16:41:24Z</time></trkpt>
<trkpt lat="0.326974" lon="0"><ele></ele><time>2014-5-9T16:41:27Z</time></trkpt>
<trkpt lat="0.327154" lon="0"><ele></ele><time>2014-5-9T16:41:30Z</time></trkpt>
<trkpt lat="0.327203" lon="0"><ele></ele><time>2014-5-9T16:41:33Z</time></trkpt>
<trkpt lat="0.327330" lon="0"><ele></ele><time>2014-5-9T16:41:36Z</time></trkpt>
<trkpt lat="0.327517" lon="0"><ele></ele><time>2014-5-9T16:41:39Z</time></trkpt>
<trkpt lat="0.327447" lon="0"><ele></ele><time>2014-5-9T16:41:42Z</time></trkpt>
<trkpt lat="0.327367" lon="0"><ele></ele><time>2014-5-9T16:41:45Z</time></trkpt>
<trkpt lat="0.326614" lon="0"><ele></ele><time>2014-5-9T16:41:48Z</time></trkpt>
<trkpt lat="0.326249" lon="0"><ele></ele><time>2014-5-9T16:41:51Z</time></trkpt>
<trkpt lat="0.325768" lon="0"><ele></ele><time>2014-5-9T16:41:54Z</time></trkpt>
<trkpt lat="0.325204" lon="0"><ele></ele><time>2014-5-9T16:41:57Z</time></trkpt>
<trkpt lat="0.324924" lon="0"><ele></ele><time>2014-5-9T16:42:0Z</time></trkpt>
<trkpt lat="0.324711" lon="0"><ele></ele><time>2014-5-9T16:42:3Z</time></trkpt>
<trkpt lat="0.323896" lon="0"><ele></ele><time>2014-5-9T16:42:6Z</time></trkpt>
<trkpt lat="0.323401" lon="0"><ele></ele><time>2014-5-9T16:42:9Z</time></trkpt>
<trkpt lat="0.322600" lon="0"><ele></ele><time>2014-5-9T16:42:12Z</time></trkpt>
<trkpt lat="0.322107" lon="0"><ele></ele><time>2014-5-9T16:42:15Z</time></trkpt>
<trkpt lat="0.321518" lon="0"><ele></ele><time>2014-5-9T16:42:18Z</time></trkpt>
<trkpt lat="0.321051" lon="0"><ele></ele><time>2014-5-9T16:42:21Z</time></trkpt>
<trkpt lat="0.320435" lon="0"><ele></ele><time>2014-5-9T16:42:24Z</time></trkpt>
<trkpt lat="0.319702" lon="0"><ele></ele><time>2014-5-9T16:42:27Z</time></trkpt>
<trkpt lat="0.319230" lon="0"><ele></ele><time>2014-5-9T16:42:30Z</time></trkpt>
<trkpt lat="0.318401" lon="0"><ele></ele><time>2014-5-9T16:42:33Z</time></trkpt>
<trkpt lat="0.317747" lon="0"><ele></ele><time>2014-5-9T16:42:36Z</time></trkpt>
<trkpt lat="0.317312" lon="0"><ele></ele><time>2014-5-9T16:42:39Z</time></trkpt>
<trkpt lat="0.317121" lon="0"><ele></ele><time>2014-5-9T16:42:42Z</time></trkpt>
<trkpt lat="0.316738" lon="0"><ele></ele><time>2014-5-9T16:42:45Z</time></trkpt>
<trkpt lat="0.316303" lon="0"><ele></ele><time>2014-5-9T16:42:48Z</time></trkpt>
<trkpt lat="0.315881" lon="0"><ele></ele><time>2014-5-9T16:42:51Z</time></trkpt>
<trkpt lat="0.315160" lon="0"><ele></ele><time>2014-5-9T16:42:54Z</time></trkpt>
<trkpt lat="0.314781" lon="0"><ele></ele><time>2014-5-9T16:42:57Z</time></trkpt>
<trkpt lat="0.314314" lon="0"><ele></ele><time>2014-5-9T16:43:0Z</time></trkpt>
<trkpt lat="0.313782" lon="0"><ele></ele><time>2014-5-9T16:43:3Z</time></trkpt>
<trkpt lat="0.312717" lon="0"><ele></ele><time>2014-5-9T16:43:6Z</time></trkpt>
<trkpt lat="0.311928" lon="0"><ele></ele><time>2014-5-9T16:43:9Z</time></trkpt>
<trkpt lat="0.311302" lon="0"><ele></ele><time>2014-5-9T16:43:12Z</time></trkpt>
<trkpt lat="0.309970" lon="0"><ele></ele><time>2014-5-9T16:43:15Z</time></trkpt>
<trkpt lat="0.309089" lon="0"><ele></ele><time>2014-5-9T16:43:18Z</time></trkpt>
<trkpt lat="0.308239" lon="0"><ele></ele><time>2014-5-9T16:43:21Z</time></trkpt>
<trkpt lat="0.307851" lon="0"><ele></ele><time>2014-5-9T16:43:24Z</time></trkpt>
<trkpt lat="0.307000" lon="0"><ele></ele><time>2014-5-9T16:43:27Z</time></trkpt>
<trkpt lat="0.305506" lon="0"><ele></ele><time>2014-5-9T16:43:30Z</time></trkpt>
<trkpt lat="0.304130" lon="0"><ele></ele><time>2014-5-9T16:43:33Z</time></trkpt>
<trkpt lat="0.303135" lon="0"><ele></ele><time>2014-5-9T16:43:36Z</time></trkpt>
<trkpt lat="0.301783" lon="0"><ele></ele><time>2014-5-9T16:43:39Z</time></trkpt>
<trkpt lat="0.300240" lon="0"><ele></ele><time>2014-5-9T16:43:42Z</time></trkpt>
<trkpt lat="0.298987" lon="0"><ele></ele><time>2014-5-9T16:43:45Z</time></trkpt>
<trkpt lat="0.298418" lon="0"><ele></ele><time>2014-5-9T16:43:48Z</time></trkpt>
<trkpt lat="0.298958" lon="0"><ele></ele><time>2014-5-9T16:43:51Z</time></trkpt>
<trkpt lat="0.299907" lon="0"><ele></ele><time>2014-5-9T16:43:54Z</time></trkpt>
<trkpt lat="0.300171" lon="0"><ele></ele><time>2014-5-9T16:43:57Z</time></trkpt>
<trkpt lat="0.299559" lon="0"><ele></ele><time>2014-5-9T16:44:0Z</time></trkpt>
<trkpt lat="0.299029" lon="0"><ele></ele><time>2014-5-9T16:44:3Z</time></trkpt>
<trkpt lat="0.298473" lon="0"><ele></ele><time>2014-5-9T16:44:6Z</time></trkpt>
<trkpt lat="0.298006" lon="0"><ele></ele><time>2014-5-9T16:44:9Z</time></trkpt>
<trkpt lat="0.297205" lon="0"><ele></ele><time>2014-5-9T16:44:12Z</time></trkpt>
<trkpt lat="0.296525" lon="0"><ele></ele><time>2014-5-9T16:44:15Z</time></trkpt>
<trkpt lat="0.295866" lon="0"><ele></ele><time>2014-5-9T16:44:18Z</time></trkpt>
<trkpt lat="0.295333" lon="0"><ele></ele><time>2014-5-9T16:44:21Z</time></trkpt>
<trkpt lat="0.294424" lon="0"><ele></ele><time>2014-5-9T16:44:24Z</time></trkpt>
<trkpt lat="0.293541" lon="0"><ele></ele><time>2014-5-9T16:44:27Z</time></trkpt>
<trkpt lat="0.293136" lon="0"><ele></ele><time>2014-5-9T16:44:30Z</time></trkpt>
<trkpt lat="0.292493" lon="0"><ele></ele><time>2014-5-9T16:44:33Z</time></trkpt>
<trkpt lat="0.292195" lon="0"><ele></ele><time>2014-5-9T16:44:36Z</time></trkpt>
<trkpt lat="0.291642" lon="0"><ele></ele><time>2014-5-9T16:44:39Z</time></trkpt>
<trkpt lat="0.290927" lon="0"><ele></ele><time>2014-5-9T16:44:42Z</time></trkpt>
<trkpt lat="0.290578" lon="0"><ele></ele><time>2014-5-9T16:44:45Z</time></trkpt>
<trkpt lat="0.290134" lon="0"><ele></ele><time>2014-5-9T16:44:48Z</time></trkpt>
<trkpt lat="0.289167" lon="0"><ele></ele><time>2014-5-9T16:44:51Z</time></trkpt>
<trkpt lat="0.288816" lon="0"><ele></ele><time>2014-5-9T16:44:54Z</time></trkpt>
<trkpt lat="0.288258" lon="0"><ele></ele><time>2014-5-9T16:44:57Z</time></trkpt>
<trkpt lat="0.287872" lon="0"><ele></ele><time>2014-5-9T16:45:0Z</time></trkpt>
<trkpt lat="0.287734" lon="0"><ele></ele><time>2014-5-9T16:45:3Z</time></trkpt>
<trkpt lat="0.287518" lon="0"><ele></ele><time>2014-5-9T16:45:6Z</time></trkpt>
<trkpt lat="0.287341" lon="0"><ele></ele><time>2014-5-9T16:45:9Z</time></trkpt>
<trkpt lat="0.287327" lon="0"><ele></ele><time>2014-5-9T16:45:12Z</time></trkpt>
<trkpt lat="0.287229" lon="0"><ele></ele><time>2014-5-9T16:45:15Z</time></trkpt>
<trkpt lat="0.286860" lon="0"><ele></ele><time>2014-5-9T16:45:18Z</time></trkpt>
<trkpt lat="0.286570" lon="0"><ele></ele><time>2014-5-9T16:45:21Z</time></trkpt>
<trkpt lat="0.286229" lon="0"><ele></ele><time>2014-5-9T16:45:24Z</time></trkpt>
<trkpt lat="0.286025" lon="0"><ele></ele><time>2014-5-9T16:45:27Z</time></trkpt>
<trkpt lat="0.285702" lon="0"><ele></ele><time>2014-5-9T16:45:30Z</time></trkpt>
<trkpt lat="0.285450" lon="0"><ele></ele><time>2014-5-9T16:45:33Z</time></trkpt>
<trkpt lat="0.285442" lon="0"><ele></ele><time>2014-5-9T16:45:36Z</time></trkpt>
<trkpt lat="0.285783" lon="0"><ele></ele><time>2014-5-9T16:45:39Z</time></trkpt>
<trkpt lat="0.285473" lon="0"><ele></ele><time>2014-5-9T16:45:42Z</time></trkpt>
<trkpt lat="0.285374" lon="0"><ele></ele><time>2014-5-9T16:45:45Z</time></trkpt>
<trkpt lat="0.285126" lon="0"><ele></ele><time>2014-5-9T16:45:48Z</time></trkpt>
<trkpt lat="0.284799" lon="0"><ele></ele><time>2014-5-9T16:45:51Z</time></trkpt>
<trkpt lat="0.284332" lon="0"><ele></ele><time>2014-5-9T16:45:54Z</time></trkpt>
<trkpt lat="0.283827" lon="0"><ele></ele><time>2014-5-9T16:45:57Z</time></trkpt>
<trkpt lat="0.282538" lon="0"><ele></ele><time>2014-5-9T16:46:0Z</time></trkpt>
<trkpt lat="0.281885" lon="0"><ele></ele><time>2014-5-9T16:46:3Z</time></trkpt>
<trkpt lat="0.280974" lon="0"><ele></ele><time>2014-5-9T16:46:6Z</time></trkpt>
<trkpt lat="0.279771" lon="0"><ele></ele><time>2014-5-9T16:46:9Z</time></trkpt>
<trkpt lat="0.278930" lon="0"><ele></ele><time>2014-5-9T16:46:12Z</time></trkpt>
<trkpt lat="0.278731" lon="0"><ele></ele><time>2014-5-9T16:46:15Z</time></trkpt>
<trkpt lat="0.278781" lon="0"><ele></ele><time>2014-5-9T16:46:18Z</time></trkpt>
<trkpt lat="0.278893" lon="0"><ele></ele><time>2014-5-9T16:46:21Z</time></trkpt>
<trkpt lat="0.278921" lon="0"><ele></ele><time>2014-5-9T16:46:24Z</time></trkpt>
<trkpt lat="0.278386" lon="0"><ele></ele><time>2014-5-9T16:46:27Z</time></trkpt>
<trkpt lat="0.278253" lon="0"><ele></ele><time>2014-5-9T16:46:30Z</time></trkpt>
<trkpt lat="0.277986" lon="0"><ele></ele><time>2014-5-9T16:46:33Z</time></trkpt>
<trkpt lat="0.277970" lon="0"><ele></ele><time>2014-5-9T16:46:36Z</time></trkpt>
<trkpt lat="0.277673" lon="0"><ele></ele><time>2014-5-9T16:46:39Z</time></trkpt>
<trkpt lat="0.277574" lon="0"><ele></ele><time>2014-5-9T16:46:42Z</time></trkpt>
<trkpt lat="0.277459" lon="0"><ele></ele><time>2014-5-9T16:46:45Z</time></trkpt>
<trkpt lat="0.277533" lon="0"><ele></ele><time>2014-5-9T16:46:48Z</time></trkpt>
<trkpt lat="0.277352" lon="0"><ele></ele><time>2014-5-9T16:46:51Z</time></trkpt>
<trkpt lat="0.277067" lon="0"><ele></ele><time>2014-5-9T16:46:54Z</time></trkpt>
<trkpt lat="0.276600" lon="0"><ele></ele><time>2014-5-9T16:46:57Z</time></trkpt>
<trkpt lat="0.276006" lon="0"><ele></ele><time>2014-5-9T16:47:0Z</time></trkpt>
<trkpt lat="0.275351" lon="0"><ele></ele><time>2014-5-9T16:47:3Z</time></trkpt>
<trkpt lat="0.275060" lon="0"><ele></ele><time>2014-5-9T16:47:6Z</time></trkpt>
<trkpt lat="0.274492" lon="0"><ele></ele><time>2014-5-9T16:47:9Z</time></trkpt>
<trkpt lat="0.274392" lon="0"><ele></ele><time>2014-5-9T16:47:12Z</time></trkpt>
<trkpt lat="0.274588" lon="0"><ele></ele><time>2014-5-9T16:47:15Z</time></trkpt>
<trkpt lat="0.275271" lon="0"><ele></ele><time>2014-5-9T16:47:18Z</time></trkpt>
<trkpt lat="0.276397" lon="0"><ele></ele><time>2014-5-9T16:47:21Z</time></trkpt>
<trkpt lat="0.277083" lon="0"><ele></ele><time>2014-5-9T16:47:24Z</time></trkpt>
<trkpt lat="0.277885" lon="0"><ele></ele><time>2014-5-9T16:47:27Z</time></trkpt>
<trkpt lat="0.278426" lon="0"><ele></ele><time>2014-5-9T16:47:30Z</time></trkpt>
<trkpt lat="0.278920" lon="0"><ele></ele><time>2014-5-9T16:47:33Z</time></trkpt>
<trkpt lat="0.279344" lon="0"><ele></ele><time>2014-5-9T16:47:36Z</time></trkpt>
<trkpt lat="0.279765" lon="0"><ele></ele><time>2014-5-9T16:47:39Z</time></trkpt>
<trkpt lat="0.280087" lon="0"><ele></ele><time>2014-5-9T16:47:42Z</time></trkpt>
<trkpt lat="0.280404" lon="0"><ele></ele><time>2014-5-9T16:47:45Z</time></trkpt>
<trkpt lat="0.280895" lon="0"><ele></ele><time>2014-5-9T16:47:48Z</time></trkpt>
<trkpt lat="0.281869" lon="0"><ele></ele><time>2014-5-9T16:47:51Z</time></trkpt>
<trkpt lat="0.282548" lon="0"><ele></ele><time>2014-5-9T16:47:54Z</time></trkpt>
<trkpt lat="0.283380" lon="0"><ele></ele><time>2014-5-9T16:47:57Z</time></trkpt>
<trkpt lat="0.284363" lon="0"><ele></ele><time>2014-5-9T16:48:0Z</time></trkpt>
<trkpt lat="0.285289" lon="0"><ele></ele><time>2014-5-9T16:48:3Z</time></trkpt>
<trkpt lat="0.286138" lon="0"><ele></ele><time>2014-5-9T16:48:6Z</time></trkpt>
<trkpt lat="0.286925" lon="0"><ele></ele><time>2014-5-9T16:48:9Z</time></trkpt>
<trkpt lat="0.287428" lon="0"><ele></ele><time>2014-5-9T16:48:12Z</time></trkpt>
<trkpt lat="0.287962" lon="0"><ele></ele><time>2014-5-9T16:48:15Z</time></trkpt>
<trkpt lat="0.288435" lon="0"><ele></ele><time>2014-5-9T16:48:18Z</time></trkpt>
<trkpt lat="0.288588" lon="0"><ele></ele><time>2014-5-9T16:48:21Z</time></trkpt>
<trkpt lat="0.288791" lon="0"><ele></ele><time>2014-5-9T16:48:24Z</time></trkpt>
<trkpt lat="0.288885" lon="0"><ele></ele><time>2014-5-9T16:48:27Z</time></trkpt>
<trkpt lat="0.288815" lon="0"><ele></ele><time>2014-5-9T16:48:30Z</time></trkpt>
<trkpt lat="0.289110" lon="0"><ele></ele><time>2014-5-9T16:48:33Z</time></trkpt>
<trkpt lat="0.289209" lon="0"><ele></ele><time>2014-5-9T16:48:36Z</time></trkpt>
<trkpt lat="0.289358" lon="0"><ele></ele><time>2014-5-9T16:48:39Z</time></trkpt>
<trkpt lat="0.289550" lon="0"><ele></ele><time>2014-5-9T16:48:42Z</time></trkpt>
<trkpt lat="0.289921" lon="0"><ele></ele><time>2014-5-9T16:48:45Z</time></trkpt>
<trkpt lat="0.289908" lon="0"><ele></ele><time>2014-5-9T16:48:48Z</time></trkpt>
<trkpt lat="0.290394" lon="0"><ele></ele><time>2014-5-9T16:48:51Z</time></trkpt>
<trkpt lat="0.291236" lon="0"><ele></ele><time>2014-5-9T16:48:54Z</time></trkpt>
<trkpt lat="0.292129" lon="0"><ele></ele><time>2014-5-9T16:48:57Z</time></trkpt>
<trkpt lat="0.292998" lon="0"><ele></ele><time>2014-5-9T16:49:0Z</time></trkpt>
<trkpt lat="0.293803" lon="0"><ele></ele><time>2014-5-9T16:49:3Z</time></trkpt>
<trkpt lat="0.294008" lon="0"><ele></ele><time>2014-5-9T16:49:6Z</time></trkpt>
<trkpt lat="0.295280" lon="0"><ele></ele><time>2014-5-9T16:49:9Z</time></trkpt>
<trkpt lat="0.296085" lon="0"><ele></ele><time>2014-5-9T16:49:12Z</time></trkpt>
<trkpt lat="0.296763" lon="0"><ele></ele><time>2014-5-9T16:49:15Z</time></trkpt>
<trkpt lat="0.297648" lon="0"><ele></ele><time>2014-5-9T16:49:18Z</time></trkpt>
<trkpt lat="0.298320" lon="0"><ele></ele><time>2014-5-9T16:49:21Z</time></trkpt>
<trkpt lat="0.299089" lon="0"><ele></ele><time>2014-5-9T16:49:24Z</time></trkpt>
<trkpt lat="0.300114" lon="0"><ele></ele><time>2014-5-9T16:49:27Z</time></trkpt>
<trkpt lat="0.301292" lon="0"><ele></ele><time>2014-5-9T16:49:30Z</time></trkpt>
<trkpt lat="0.302080" lon="0"><ele></ele><time>2014-5-9T16:49:33Z</time></trkpt>
<trkpt lat="0.302486" lon="0"><ele></ele><time>2014-5-9T16:49:36Z</time></trkpt>
<trkpt lat="0.303212" lon="0"><ele></ele><time>2014-5-9T16:49:39Z</time></trkpt>
<trkpt lat="0.303773" lon="0"><ele></ele><time>2014-5-9T16:49:42Z</time></trkpt>
<trkpt lat="0.304305" lon="0"><ele></ele><time>2014-5-9T16:49:45Z</time></trkpt>
<trkpt lat="0.304663" lon="0"><ele></ele><time>2014-5-9T16:49:48Z</time></trkpt>
<trkpt lat="0.305029" lon="0"><ele></ele><time>2014-5-9T16:49:51Z</time></trkpt>
<trkpt lat="0.305332" lon="0"><ele></ele><time>2014-5-9T16:49:54Z</time></trkpt>
<trkpt lat="0.305709" lon="0"><ele></ele><time>2014-5-9T16:49:57Z</time></trkpt>
<trkpt lat="0.305980" lon="0"><ele></ele><time>2014-5-9T16:50:0Z</time></trkpt>
<trkpt lat="0.306324" lon="0"><ele></ele><time>2014-5-9T16:50:3Z</time></trkpt>
<trkpt lat="0.306759" lon="0"><ele></ele><time>2014-5-9T16:50:6Z</time></trkpt>
<trkpt lat="0.306926" lon="0"><ele></ele><time>2014-5-9T16:50:9Z</time></trkpt>
<trkpt lat="0.306938" lon="0"><ele></ele><time>2014-5-9T16:50:12Z</time></trkpt>
<trkpt lat="0.306930" lon="0"><ele></ele><time>2014-5-9T16:50:15Z</time></trkpt>
<trkpt lat="0.308173" lon="0"><ele></ele><time>2014-5-9T16:50:18Z</time></trkpt>
<trkpt lat="0.308289" lon="0"><ele></ele><time>2014-5-9T16:50:21Z</time></trkpt>
<trkpt lat="0.308754" lon="0"><ele></ele><time>2014-5-9T16:50:24Z</time></trkpt>
<trkpt lat="0.309158" lon="0"><ele></ele><time>2014-5-9T16:50:27Z</time></trkpt>
<trkpt lat="0.309213" lon="0"><ele></ele><time>2014-5-9T16:50:30Z</time></trkpt>
<trkpt lat="0.309174" lon="0"><ele></ele><time>2014-5-9T16:50:33Z</time></trkpt>
<trkpt lat="0.310444" lon="0"><ele></ele><time>2014-5-9T16:50:36Z</time></trkpt>
<trkpt lat="0.311234" lon="0"><ele></ele><time>2014-5-9T16:50:39Z</time></trkpt>
<trkpt lat="0.311979" lon="0"><ele></ele><time>2014-5-9T16:50:42Z</time></trkpt>
<trkpt lat="0.312383" lon="0"><ele></ele><time>2014-5-9T16:50:45Z</time></trkpt>
<trkpt lat="0.312824" lon="0"><ele></ele><time>2014-5-9T16:50:48Z</time></trkpt>
<trkpt lat="0.312981" lon="0"><ele></ele><time>2014-5-9T16:50:51Z</time></trkpt>
<trkpt lat="0.313748" lon="0"><ele></ele><time>2014-5-9T16:50:54Z</time></trkpt>
<trkpt lat="0.314786" lon="0"><ele></ele><time>2014-5-9T16:50:57Z</time></trkpt>
<trkpt lat="0.315485" lon="0"><ele></ele><time>2014-5-9T16:51:0Z</time></trkpt>
<trkpt lat="0.316249" lon="0"><ele></ele><time>2014-5-9T16:51:3Z</time></trkpt>
<trkpt lat="0.317542" lon="0"><ele></ele><time>2014-5-9T16:51:6Z</time></trkpt>
<trkpt lat="0.318244" lon="0"><ele></ele><time>2014-5-9T16:51:9Z</time></trkpt>
<trkpt lat="0.319066" lon="0"><ele></ele><time>2014-5-9T16:51:12Z</time></trkpt>
<trkpt lat="0.319738" lon="0"><ele></ele><time>2014-5-9T16:51:15Z</time></trkpt>
<trkpt lat="0.320355" lon="0"><ele></ele><time>2014-5-9T16:51:18Z</time></trkpt>
<trkpt lat="0.320396" lon="0"><ele></ele><time>2014-5-9T16:51:21Z</time></trkpt>
<trkpt lat="0.320353" lon="0"><ele></ele><time>2014-5-9T16:51:24Z</time></trkpt>
<trkpt lat="0.320105" lon="0"><ele></ele><time>2014-5-9T16:51:27Z</time></trkpt>
<trkpt lat="" lon="1"><ele></ele><time>2014-5-9T16:51:30Z</time></trkpt>
<trkpt lat="" lon=""><ele></ele><time>2014-5-9T16:51:33Z</time></trkpt>
<trkpt lat="" lon=""><ele></ele><time>2014-5-9T16:51:36Z</time></trkpt>
<trkpt lat="" lon=""><ele></ele><time>2014-5-9T16:51:39Z</time></trkpt>
<trkpt lat="" lon=""><ele></ele><time>2014-5-9T16:51:42Z</time></trkpt>
<trkpt lat="" lon=""><ele></ele><time>2014-5-9T16:51:45Z</time></trkpt>
<trkpt lat="" lon=""><ele></ele><time>2014-5-9T16:51:48Z</time></trkpt>
<trkpt lat="" lon=""><ele></ele><time>2014-5-9T16:51:51Z</time></trkpt>
<trkpt lat="" lon=""><ele></ele><time>2014-5-9T16:51:54Z</time></trkpt>
<trkpt lat="" lon=""><ele></ele><time>2014-5-9T16:51:57Z</time></trkpt>
<trkpt lat="" lon=""><ele></ele><time>2014-5-9T16:52:0Z</time></trkpt>
<trkpt lat="" lon=""><ele></ele><time>2014-5-9T16:52:3Z</time></trkpt>
<trkpt lat="" lon=""><ele></ele><time>2014-5-9T16:52:6Z</time></trkpt>
<trkpt lat="" lon=""><ele></ele><time>2014-5-9T16:52:9Z</time></trkpt>
<trkpt lat="" lon=""><ele></ele><time>2014-5-9T16:52:12Z</time></trkpt>
<trkpt lat="" lon=""><ele></ele><time>2014-5-9T16:52:15Z</time></trkpt>
<trkpt lat="" lon=""><ele></ele><time>2014-5-9T16:52:18Z</time></trkpt>
<trkpt lat="" lon=""><ele></ele><time>2014-5-9T16:52:21Z</time></trkpt>
<trkpt lat="" lon=""><ele></ele><time>2014-5-9T16:52:24Z</time></trkpt>
<trkpt lat="" lon=""><ele></ele><time>2014-5-9T16:52:27Z</time></trkpt>
<trkpt lat="" lon=""><ele></ele><time>2014-5-9T16:52:30Z</time></trkpt>
<trkpt lat="" lon=""><ele></ele><time>2014-5-9T16:52:33Z</time></trkpt>
<trkpt lat="" lon=""><ele></ele><time>2014-5-9T16:52:36Z</time></trkpt>
<trkpt lat="" lon=""><ele></ele><time>2014-5-9T16:52:39Z</time></trkpt>
<trkpt lat="" lon=""><ele></ele><time>2014-5-9T16:52:42Z</time></trkpt>
<trkpt lat="" lon=""><ele></ele><time>2014-5-9T16:52:45Z</time></trkpt>
<trkpt lat="" lon=""><ele></ele><time>2014-5-9T16:52:48Z</time></trkpt>
<trkpt lat="" lon=""><ele></ele><time>2014-5-9T16:52:51Z</time></trkpt>
<trkpt lat="" lon=""><ele></ele><time>2014-5-9T16:52:54Z</time></trkpt>
<trkpt lat="" lon=""><ele></ele><time>2014-5-9T16:52:57Z</time></trkpt>
<trkpt lat="" lon=""><ele></ele><time>2014-5-9T16:53:0Z</time></trkpt>
<trkpt lat="" lon=""><ele></ele><time>2014-5-9T16:53:3Z</time></trkpt>
<trkpt lat="" lon=""><ele></ele><time>2014-5-9T16:53:6Z</time></trkpt>
<trkpt lat="" lon=""><ele></ele><time>2014-5-9T16:53:9Z</time></trkpt>
<trkpt lat="" lon=""><ele></ele><time>2014-5-9T16:53:12Z</time></trkpt>
<trkpt lat="" lon=""><ele></ele><time>2014-5-9T16:53:15Z</time></trkpt>
<trkpt lat="" lon=""><ele></ele><time>2014-5-9T16:53:18Z</time></trkpt>
<trkpt lat="" lon=""><ele></ele><time>2014-5-9T16:53:21Z</time></trkpt>
<trkpt lat="" lon=""><ele></ele><time>2014-5-9T16:53:24Z</time></trkpt>
<trkpt lat="" lon=""><ele></ele><time>2014-5-9T16:53:27Z</time></trkpt>
<trkpt lat="" lon=""><ele></ele><time>2014-5-9T16:53:30Z</time></trkpt>
<trkpt lat="" lon=""><ele></ele><time>2014-5-9T16:53:33Z</time></trkpt>
<trkpt lat="" lon=""><ele></ele><time>2014-5-9T16:53:36Z</time></trkpt>
<trkpt lat="" lon=""><ele></ele><time>2014-5-9T16:53:39Z</time></trkpt>
<trkpt lat="" lon=""><ele></ele><time>2014-5-9T16:53:42Z</time></trkpt>
<trkpt lat="" lon=""><ele></ele><time>2014-5-9T16:53:45Z</time></trkpt>
<trkpt lat="" lon=""><ele></ele><time>2014-5-9T16:53:48Z</time></trkpt>
<trkpt lat="" lon=""><ele></ele><time>2014-5-9T16:53:51Z</time></trkpt>
<trkpt lat="" lon=""><ele></ele><time>2014-5-9T16:53:54Z</time></trkpt>
<trkpt lat="" lon=""><ele></ele><time>2014-5-9T16:53:57Z</time></trkpt>
<trkpt lat="" lon=""><ele></ele><time>2014-5-9T16:54:0Z</time></trkpt>
<trkpt lat="" lon=""><ele></ele><time>2014-5-9T16:54:3Z</time></trkpt>
<trkpt lat="" lon=""><ele></ele><time>2014-5-9T16:54:6Z</time></trkpt>
<trkpt lat="" lon=""><ele></ele><time>2014-5-9T16:54:9Z</time></trkpt>
<trkpt lat="" lon=""><ele></ele><time>2014-5-9T16:54:12Z</time></trkpt>
<trkpt lat="" lon=""><ele></ele><time>2014-5-9T16:54:15Z</time></trkpt>
<trkpt lat="" lon=""><ele></ele><time>2014-5-9T16:54:18Z</time></trkpt>
<trkpt lat="" lon=""><ele></ele><time>2014-5-9T16:54:21Z</time></trkpt>
<trkpt lat="" lon=""><ele></ele><time>2014-5-9T16:54:24Z</time></trkpt>
<trkpt lat="" lon=""><ele></ele><time>2014-5-9T16:54:27Z</time></trkpt>
<trkpt lat="" lon=""><ele></ele><time>2014-5-9T16:54:30Z</time></trkpt>
<trkpt lat="" lon=""><ele></ele><time>2014-5-9T16:54:33Z</time></trkpt>
<trkpt lat="" lon=""><ele></ele><time>2014-5-9T16:54:36Z</time></trkpt>
<trkpt lat="" lon=""><ele></ele><time>2014-5-9T16:54:39Z</time></trkpt>
<trkpt lat="" lon=""><ele></ele><time>2014-5-9T16:54:42Z</time></trkpt>
<trkpt lat="" lon=""><ele></ele><time>2014-5-9T16:54:45Z</time></trkpt>
<trkpt lat="" lon=""><ele></ele><time>2014-5-9T16:54:48Z</time></trkpt>
<trkpt lat="" lon=""><ele></ele><time>2014-5-9T16:54:51Z</time></trkpt>
<trkpt lat="" lon=""><ele></ele><time>2014-5-9T16:54:54Z</time></trkpt>
<trkpt lat="" lon=""><ele></ele><time>2014-5-9T16:54:57Z</time></trkpt>
<trkpt lat="" lon=""><ele></ele><time>2014-5-9T16:55:0Z</time></trkpt>
<trkpt lat="" lon=""><ele></ele><time>2014-5-9T16:55:3Z</time></trkpt>
<trkpt lat="" lon=""><ele></ele><time>2014-5-9T16:55:6Z</time></trkpt>
<trkpt lat="" lon=""><ele></ele><time>2014-5-9T16:55:9Z</time></trkpt>
<trkpt lat="" lon=""><ele></ele><time>2014-5-9T16:55:12Z</time></trkpt>
<trkpt lat="" lon=""><ele></ele><time>2014-5-9T16:55:15Z</time></trkpt>
<trkpt lat="" lon=""><ele></ele><time>2014-5-9T16:55:18Z</time></trkpt>
<trkpt lat="" lon=""><ele></ele><time>2014-5-9T16:55:21Z</time></trkpt>
<trkpt lat="" lon=""><ele></ele><time>2014-5-9T16:55:24Z</time></trkpt>
<trkpt lat="" lon=""><ele></ele><time>2014-5-9T16:55:27Z</time></trkpt>
<trkpt lat="" lon=""><ele></ele><time>2014-5-9T16:55:30Z</time></trkpt>
<trkpt lat="" lon=""><ele></ele><time>2014-5-9T16:55:33Z</time></trkpt>
<trkpt lat="" lon=""><ele></ele><time>2014-5-9T16:55:36Z</time></trkpt>
<trkpt lat="" lon=""><ele></ele><time>2014-5-9T16:55:39Z</time></trkpt>
<trkpt lat="" lon=""><ele></ele><time>2014-5-9T16:55:42Z</time></trkpt>
<trkpt lat="" lon=""><ele></ele><time>2014-5-9T16:55:45Z</time></trkpt>
<trkpt lat="" lon=""><ele></ele><time>2014-5-9T16:55:48Z</time></trkpt>
<trkpt lat="" lon=""><ele></ele><time>2014-5-9T16:55:51Z</time></trkpt>
<trkpt lat="" lon=""><ele></ele><time>2014-5-9T16:55:54Z</time></trkpt>
<trkpt lat="" lon=""><ele></ele><time>2014-5-9T16:55:57Z</time></trkpt>
<trkpt lat="" lon=""><ele></ele><time>2014-5-9T16:56:0Z</time></trkpt>
<trkpt lat="" lon=""><ele></ele><time>2014-5-9T16:56:3Z</time></trkpt>
<trkpt lat="" lon=""><ele></ele><time>2014-5-9T16:56:6Z</time></trkpt>
<trkpt lat="" lon=""><ele></ele><time>2014-5-9T16:56:9Z</time></trkpt>
<trkpt lat="" lon=""><ele></ele><time>2014-5-9T16:56:12Z</time></trkpt>
<trkpt lat="" lon=""><ele></ele><time>2014-5-9T16:56:15Z</time></trkpt>
<trkpt lat="" lon=""><ele></ele><time>2014-5-9T16:56:18Z</time></trkpt>
<trkpt lat="" lon=""><ele></ele><time>2014-5-9T16:56:21Z</time></trkpt>
<trkpt lat="" lon=""><ele></ele><time>2014-5-9T16:56:24Z</time></trkpt>
<trkpt lat="" lon=""><ele></ele><time>2014-5-9T16:56:27Z</time></trkpt>
<trkpt lat="" lon=""><ele></ele><time>2014-5-9T16:56:30Z</time></trkpt>
<trkpt lat="" lon=""><ele></ele><time>2014-5-9T16:56:33Z</time></trkpt>
<trkpt lat="" lon=""><ele></ele><time>2014-5-9T16:56:36Z</time></trkpt>
<trkpt lat="" lon=""><ele></ele><time>2014-5-9T16:56:39Z</time></trkpt>
<trkpt lat="" lon=""><ele></ele><time>2014-5-9T16:56:42Z</time></trkpt>
<trkpt lat="" lon=""><ele></ele><time>2014-5-9T16:56:45Z</time></trkpt>
<trkpt lat="" lon=""><ele></ele><time>2014-5-9T16:56:48Z</time></trkpt>
<trkpt lat="" lon=""><ele></ele><time>2014-5-9T16:56:51Z</time></trkpt>
<trkpt lat="" lon=""><ele></ele><time>2014-5-9T16:56:54Z</time></trkpt>
<trkpt lat="" lon=""><ele></ele><time>2014-5-9T16:56:57Z</time></trkpt>
<trkpt lat="" lon=""><ele></ele><time>2014-5-9T16:57:0Z</time></trkpt>
<trkpt lat="" lon=""><ele></ele><time>2014-5-9T16:57:3Z</time></trkpt>
<trkpt lat="" lon=""><ele></ele><time>2014-5-9T16:57:6Z</time></trkpt>
<trkpt lat="" lon=""><ele></ele><time>2014-5-9T16:57:9Z</time></trkpt>
<trkpt lat="" lon=""><ele></ele><time>2014-5-9T16:57:12Z</time></trkpt>
<trkpt lat="" lon=""><ele></ele><time>2014-5-9T16:57:15Z</time></trkpt>
<trkpt lat="" lon=""><ele></ele><time>2014-5-9T16:57:18Z</time></trkpt>
<trkpt lat="" lon=""><ele></ele><time>2014-5-9T16:57:21Z</time></trkpt>
<trkpt lat="" lon=""><ele></ele><time>2014-5-9T16:57:24Z</time></trkpt>
<trkpt lat="" lon=""><ele></ele><time>2014-5-9T16:57:27Z</time></trkpt>
<trkpt lat="" lon=""><ele></ele><time>2014-5-9T16:57:30Z</time></trkpt>
<trkpt lat="" lon=""><ele></ele><time>2014-5-9T16:57:33Z</time></trkpt>
<trkpt lat="" lon=""><ele></ele><time>2014-5-9T16:57:36Z</time></trkpt>
<trkpt lat="" lon=""><ele></ele><time>2014-5-9T16:57:39Z</time></trkpt>
<trkpt lat="" lon=""><ele></ele><time>2014-5-9T16:57:42Z</time></trkpt>
<trkpt lat="" lon=""><ele></ele><time>2014-5-9T16:57:45Z</time></trkpt>
<trkpt lat="" lon=""><ele></ele><time>2014-5-9T16:57:48Z</time></trkpt>
<trkpt lat="" lon=""><ele></ele><time>2014-5-9T16:57:51Z</time></trkpt>
<trkpt lat="" lon=""><ele></ele><time>2014-5-9T16:57:54Z</time></trkpt>
<trkpt lat="" lon=""><ele></ele><time>2014-5-9T16:57:57Z</time></trkpt>
<trkpt lat="" lon=""><ele></ele><time>2014-5-9T16:58:0Z</time></trkpt>
<trkpt lat="" lon=""><ele></ele><time>2014-5-9T16:58:3Z</time></trkpt>
<trkpt lat="" lon=""><ele></ele><time>2014-5-9T16:58:6Z</time></trkpt>
<trkpt lat="" lon=""><ele></ele><time>2014-5-9T16:58:9Z</time></trkpt>
<trkpt lat="" lon=""><ele></ele><time>2014-5-9T16:58:12Z</time></trkpt>
<trkpt lat="" lon=""><ele></ele><time>2014-5-9T16:58:15Z</time></trkpt>
<trkpt lat="" lon=""><ele></ele><time>2014-5-9T16:58:18Z</time></trkpt>
<trkpt lat="" lon=""><ele></ele><time>2014-5-9T16:58:21Z</time></trkpt>
<trkpt lat="" lon=""><ele></ele><time>2014-5-9T16:58:24Z</time></trkpt>
<trkpt lat="" lon=""><ele></ele><time>2014-5-9T16:58:27Z</time></trkpt>
<trkpt lat="" lon=""><ele></ele><time>2014-5-9T16:58:30Z</time></trkpt>
<trkpt lat="" lon=""><ele></ele><time>2014-5-9T16:58:33Z</time></trkpt>
<trkpt lat="" lon=""><ele></ele><time>2014-5-9T16:58:36Z</time></trkpt>
<trkpt lat="" lon=""><ele></ele><time>2014-5-9T16:58:39Z</time></trkpt>
<trkpt lat="" lon=""><ele></ele><time>2014-5-9T16:58:42Z</time></trkpt>
<trkpt lat="" lon=""><ele></ele><time>2014-5-9T16:58:45Z</time></trkpt>
<trkpt lat="" lon=""><ele></ele><time>2014-5-9T16:58:48Z</time></trkpt>
<trkpt lat="" lon=""><ele></ele><time>2014-5-9T16:58:51Z</time></trkpt>
<trkpt lat="" lon=""><ele></ele><time>2014-5-9T16:58:54Z</time></trkpt>
<trkpt lat="" lon=""><ele></ele><time>2014-5-9T16:58:57Z</time></trkpt>
<trkpt lat="" lon=""><ele></ele><time>2014-5-9T16:59:0Z</time></trkpt>
<trkpt lat="" lon=""><ele></ele><time>2014-5-9T16:59:3Z</time></trkpt>
<trkpt lat="" lon=""><ele></ele><time>2014-5-9T16:59:6Z</time></trkpt>
<trkpt lat="" lon=""><ele></ele><time>2014-5-9T16:59:9Z</time></trkpt>
<trkpt lat="" lon=""><ele></ele><time>2014-5-9T16:59:12Z</time></trkpt>
<trkpt lat="" lon=""><ele></ele><time>2014-5-9T16:59:15Z</time></trkpt>
<trkpt lat="" lon=""><ele></ele><time>2014-5-9T16:59:18Z</time></trkpt>
<trkpt lat="" lon=""><ele></ele><time>2014-5-9T16:59:21Z</time></trkpt>
<trkpt lat="" lon=""><ele></ele><time>2014-5-9T16:59:24Z</time></trkpt>
<trkpt lat="" lon=""><ele></ele><time>2014-5-9T16:59:27Z</time></trkpt>
<trkpt lat="" lon=""><ele></ele><time>2014-5-9T16:59:30Z</time></trkpt>
<trkpt lat="" lon=""><ele></ele><time>2014-5-9T16:59:33Z</time></trkpt>
<trkpt lat="" lon=""><ele></ele><time>2014-5-9T16:59:36Z</time></trkpt>
<trkpt lat="" lon=""><ele></ele><time>2014-5-9T16:59:39Z</time></trkpt>
<trkpt lat="" lon=""><ele></ele><time>2014-5-9T16:59:42Z</time></trkpt>
<trkpt lat="" lon=""><ele></ele><time>2014-5-9T16:59:45Z</time></trkpt>
<trkpt lat="" lon=""><ele></ele><time>2014-5-9T16:59:48Z</time></trkpt>
<trkpt lat="" lon=""><ele></ele><time>2014-5-9T16:59:51Z</time></trkpt>
<trkpt lat="" lon=""><ele></ele><time>2014-5-9T16:59:54Z</time></trkpt>
<trkpt lat="" lon=""><ele></ele><time>2014-5-9T16:59:57Z</time></trkpt>
<trkpt lat="" lon=""><ele></ele><time>2014-5-9T17:0:0Z</time></trkpt>
<trkpt lat="" lon=""><ele></ele><time>2014-5-9T17:0:3Z</time></trkpt>
<trkpt lat="" lon=""><ele></ele><time>2014-5-9T17:0:6Z</time></trkpt>
<trkpt lat="" lon=""><ele></ele><time>2014-5-9T17:0:9Z</time></trkpt>
<trkpt lat="" lon=""><ele></ele><time>2014-5-9T17:0:12Z</time></trkpt>
<trkpt lat="" lon=""><ele></ele><time>2014-5-9T17:0:15Z</time></trkpt>
<trkpt lat="" lon=""><ele></ele><time>2014-5-9T17:0:18Z</time></trkpt>
<trkpt lat="" lon=""><ele></ele><time>2014-5-9T17:0:21Z</time></trkpt>
<trkpt lat="" lon=""><ele></ele><time>2014-5-9T17:0:24Z</time></trkpt>
<trkpt lat="" lon=""><ele></ele><time>2014-5-9T17:0:27Z</time></trkpt>
<trkpt lat="" lon=""><ele></ele><time>2014-5-9T17:0:30Z</time></trkpt>
<trkpt lat="" lon=""><ele></ele><time>2014-5-9T17:0:33Z</time></trkpt>
<trkpt lat="" lon=""><ele></ele><time>2014-5-9T17:0:36Z</time></trkpt>
<trkpt lat="" lon=""><ele></ele><time>2014-5-9T17:0:39Z</time></trkpt>
<trkpt lat="" lon=""><ele></ele><time>2014-5-9T17:0:42Z</time></trkpt>
<trkpt lat="" lon=""><ele></ele><time>2014-5-9T17:0:45Z</time></trkpt>
<trkpt lat="" lon=""><ele></ele><time>2014-5-9T17:0:48Z</time></trkpt>
<trkpt lat="" lon=""><ele></ele><time>2014-5-9T17:0:51Z</time></trkpt>
<trkpt lat="" lon=""><ele></ele><time>2014-5-9T17:0:54Z</time></trkpt>
<trkpt lat="" lon=""><ele></ele><time>2014-5-9T17:0:57Z</time></trkpt>
<trkpt lat="" lon=""><ele></ele><time>2014-5-9T17:1:0Z</time></trkpt>
<trkpt lat="" lon=""><ele></ele><time>2014-5-9T17:1:3Z</time></trkpt>
<trkpt lat="" lon=""><ele></ele><time>2014-5-9T17:1:6Z</time></trkpt>
<trkpt lat="" lon=""><ele></ele><time>2014-5-9T17:1:9Z</time></trkpt>
<trkpt lat="" lon=""><ele></ele><time>2014-5-9T17:1:12Z</time></trkpt>
<trkpt lat="" lon=""><ele></ele><time>2014-5-9T17:1:15Z</time></trkpt>
<trkpt lat="" lon=""><ele></ele><time>2014-5-9T17:1:18Z</time></trkpt>
<trkpt lat="" lon=""><ele></ele><time>2014-5-9T17:1:21Z</time></trkpt>
<trkpt lat="" lon=""><ele></ele><time>2014-5-9T17:1:24Z</time></trkpt>
<trkpt lat="" lon=""><ele></ele><time>2014-5-9T17:1:27Z</time></trkpt>
<trkpt lat="" lon=""><ele></ele><time>2014-5-9T17:1:30Z</time></trkpt>
<trkpt lat="" lon=""><ele></ele><time>2014-5-9T17:1:33Z</time></trkpt>
<trkpt lat="" lon=""><ele></ele><time>2014-5-9T17:1:36Z</time></trkpt>
<trkpt lat="" lon=""><ele></ele><time>2014-5-9T17:1:39Z</time></trkpt>
<trkpt lat="" lon=""><ele></ele><time>2014-5-9T17:1:42Z</time></trkpt>
<trkpt lat="" lon=""><ele></ele><time>2014-5-9T17:1:45Z</time></trkpt>
<trkpt lat="" lon=""><ele></ele><time>2014-5-9T17:1:48Z</time></trkpt>
<trkpt lat="" lon=""><ele></ele><time>2014-5-9T17:1:51Z</time></trkpt>
<trkpt lat="" lon=""><ele></ele><time>2014-5-9T17:1:54Z</time></trkpt>
<trkpt lat="" lon=""><ele></ele><time>2014-5-9T17:1:57Z</time></trkpt>
<trkpt lat="" lon=""><ele></ele><time>2014-5-9T17:2:0Z</time></trkpt>
<trkpt lat="" lon=""><ele></ele><time>2014-5-9T17:2:3Z</time></trkpt>
<trkpt lat="" lon=""><ele></ele><time>2014-5-9T17:2:6Z</time></trkpt>
<trkpt lat="" lon=""><ele></ele><time>2014-5-9T17:2:9Z</time></trkpt>
<trkpt lat="" lon=""><ele></ele><time>2014-5-9T17:2:12Z</time></trkpt>
<trkpt lat="" lon=""><ele></ele><time>2014-5-9T17:2:15Z</time></trkpt>
<trkpt lat="" lon=""><ele></ele><time>2014-5-9T17:2:18Z</time></trkpt>
<trkpt lat="" lon=""><ele></ele><time>2014-5-9T17:2:21Z</time></trkpt>
<trkpt lat="" lon=""><ele></ele><time>2014-5-9T17:2:24Z</time></trkpt>
<trkpt lat="" lon=""><ele></ele><time>2014-5-9T17:2:27Z</time></trkpt>
<trkpt lat="" lon=""><ele></ele><time>2014-5-9T17:2:30Z</time></trkpt>
<trkpt lat="" lon=""><ele></ele><time>2014-5-9T17:2:33Z</time></trkpt>
<trkpt lat="" lon=""><ele></ele><time>2014-5-9T17:2:36Z</time></trkpt>
<trkpt lat="" lon=""><ele></ele><time>2014-5-9T17:2:39Z</time></trkpt>
<trkpt lat="" lon=""><ele></ele><time>2014-5-9T17:2:42Z</time></trkpt>
<trkpt lat="" lon=""><ele></ele><time>2014-5-9T17:2:45Z</time></trkpt>
<trkpt lat="" lon=""><ele></ele><time>2014-5-9T17:2:48Z</time></trkpt>
<trkpt lat="" lon=""><ele></ele><time>2014-5-9T17:2:51Z</time></trkpt>
<trkpt lat="" lon=""><ele></ele><time>2014-5-9T17:2:54Z</time></trkpt>
<trkpt lat="" lon=""><ele></ele><time>2014-5-9T17:2:57Z</time></trkpt>
<trkpt lat="" lon=""><ele></ele><time>2014-5-9T17:3:0Z</time></trkpt>
<trkpt lat="" lon=""><ele></ele><time>2014-5-9T17:3:3Z</time></trkpt>
<trkpt lat="" lon=""><ele></ele><time>2014-5-9T17:3:6Z</time></trkpt>
<trkpt lat="" lon=""><ele></ele><time>2014-5-9T17:3:9Z</time></trkpt>
<trkpt lat="" lon=""><ele></ele><time>2014-5-9T17:3:12Z</time></trkpt>
<trkpt lat="" lon=""><ele></ele><time>2014-5-9T17:3:15Z</time></trkpt>
<trkpt lat="" lon=""><ele></ele><time>2014-5-9T17:3:18Z</time></trkpt>
<trkpt lat="" lon=""><ele></ele><time>2014-5-9T17:3:21Z</time></trkpt>
<trkpt lat="" lon=""><ele></ele><time>2014-5-9T17:3:24Z</time></trkpt>
<trkpt lat="" lon=""><ele></ele><time>2014-5-9T17:3:27Z</time></trkpt>
<trkpt lat="" lon=""><ele></ele><time>2014-5-9T17:3:30Z</time></trkpt>
<trkpt lat="" lon=""><ele></ele><time>2014-5-9T17:3:33Z</time></trkpt>
<trkpt lat="" lon=""><ele></ele><time>2014-5-9T17:3:36Z</time></trkpt>
<trkpt lat="" lon=""><ele></ele><time>2014-5-9T17:3:39Z</time></trkpt>
<trkpt lat="" lon=""><ele></ele><time>2014-5-9T17:3:42Z</time></trkpt>
<trkpt lat="" lon=""><ele></ele><time>2014-5-9T17:3:45Z</time></trkpt>
<trkpt lat="" lon=""><ele></ele><time>2014-5-9T17:3:48Z</time></trkpt>
<trkpt lat="" lon=""><ele></ele><time>2014-5-9T17:3:51Z</time></trkpt>
<trkpt lat="" lon=""><ele></ele><time>2014-5-9T17:3:54Z</time></trkpt>
<trkpt lat="" lon=""><ele></ele><time>2014-5-9T17:3:57Z</time></trkpt>
<trkpt lat="" lon=""><ele></ele><time>2014-5-9T17:4:0Z</time></trkpt>
<trkpt lat="" lon=""><ele></ele><time>2014-5-9T17:4:3Z</time></trkpt>
<trkpt lat="" lon=""><ele></ele><time>2014-5-9T17:4:6Z</time></trkpt>
<trkpt lat="" lon=""><ele></ele><time>2014-5-9T17:4:9Z</time></trkpt>
<trkpt lat="" lon=""><ele></ele><time>2014-5-9T17:4:12Z</time></trkpt>
<trkpt lat="" lon=""><ele></ele><time>2014-5-9T17:4:15Z</time></trkpt>
<trkpt lat="" lon=""><ele></ele><time>2014-5-9T17:4:18Z</time></trkpt>
<trkpt lat="" lon=""><ele></ele><time>2014-5-9T17:4:21Z</time></trkpt>
<trkpt lat="" lon=""><ele></ele><time>2014-5-9T17:4:24Z</time></trkpt>
<trkpt lat="" lon=""><ele></ele><time>2014-5-9T17:4:27Z</time></trkpt>
<trkpt lat="" lon=""><ele></ele><time>2014-5-9T17:4:30Z</time></trkpt>
<trkpt lat="" lon=""><ele></ele><time>2014-5-9T17:4:33Z</time></trkpt>
<trkpt lat="" lon=""><ele></ele><time>2014-5-9T17:4:36Z</time></trkpt>
<trkpt lat="" lon=""><ele></ele><time>2014-5-9T17:4:39Z</time></trkpt>
<trkpt lat="" lon=""><ele></ele><time>2014-5-9T17:4:42Z</time></trkpt>
<trkpt lat="" lon=""><ele></ele><time>2014-5-9T17:4:45Z</time></trkpt>
<trkpt lat="" lon=""><ele></ele><time>2014-5-9T17:4:48Z</time></trkpt>
<trkpt lat="" lon=""><ele></ele><time>2014-5-9T17:4:51Z</time></trkpt>
<trkpt lat="" lon=""><ele></ele><time>2014-5-9T17:4:54Z</time></trkpt>
<trkpt lat="" lon=""><ele></ele><time>2014-5-9T17:4:57Z</time></trkpt>
<trkpt lat="" lon=""><ele></ele><time>2014-5-9T17:5:0Z</time></trkpt>
<trkpt lat="" lon=""><ele></ele><time>2014-5-9T17:5:3Z</time></trkpt>
<trkpt lat="" lon=""><ele></ele><time>2014-5-9T17:5:6Z</time></trkpt>
<trkpt lat="" lon=""><ele></ele><time>2014-5-9T17:5:9Z</time></trkpt>
<trkpt lat="" lon=""><ele></ele><time>2014-5-9T17:5:12Z</time></trkpt>
<trkpt lat="" lon=""><ele></ele><time>2014-5-9T17:5:15Z</time></trkpt>
<trkpt lat="" lon=""><ele></ele><time>2014-5-9T17:5:18Z</time></trkpt>
<trkpt lat="" lon=""><ele></ele><time>2014-5-9T17:5:21Z</time></trkpt>
<trkpt lat="" lon=""><ele></ele><time>2014-5-9T17:5:24Z</time></trkpt>
<trkpt lat="" lon=""><ele></ele><time>2014-5-9T17:5:27Z</time></trkpt>
<trkpt lat="" lon=""><ele></ele><time>2014-5-9T17:5:30Z</time></trkpt>
<trkpt lat="" lon=""><ele></ele><time>2014-5-9T17:5:33Z</time></trkpt>
<trkpt lat="" lon=""><ele></ele><time>2014-5-9T17:5:36Z</time></trkpt>
<trkpt lat="" lon=""><ele></ele><time>2014-5-9T17:5:39Z</time></trkpt>
<trkpt lat="" lon=""><ele></ele><time>2014-5-9T17:5:42Z</time></trkpt>
<trkpt lat="" lon=""><ele></ele><time>2014-5-9T17:5:45Z</time></trkpt>
<trkpt lat="" lon=""><ele></ele><time>2014-5-9T17:5:48Z</time></trkpt>
<trkpt lat="" lon=""><ele></ele><time>2014-5-9T17:5:51Z</time></trkpt>
<trkpt lat="" lon=""><ele></ele><time>2014-5-9T17:5:54Z</time></trkpt>
<trkpt lat="" lon=""><ele></ele><time>2014-5-9T17:5:57Z</time></trkpt>
<trkpt lat="" lon=""><ele></ele><time>2014-5-9T17:6:0Z</time></trkpt>
<trkpt lat="" lon=""><ele></ele><time>2014-5-9T17:6:3Z</time></trkpt>
<trkpt lat="" lon=""><ele></ele><time>2014-5-9T17:6:6Z</time></trkpt>
<trkpt lat="" lon=""><ele></ele><time>2014-5-9T17:6:9Z</time></trkpt>
<trkpt lat="0.307532" lon="0"><ele></ele><time>2014-5-9T17:6:12Z</time></trkpt>
<trkpt lat="0.289211" lon="0"><ele></ele><time>2014-5-9T17:6:15Z</time></trkpt>
<trkpt lat="0.289211" lon="0"><ele></ele><time>2014-5-9T17:6:18Z</time></trkpt>
<trkpt lat="0.288988" lon="0"><ele></ele><time>2014-5-9T17:6:21Z</time></trkpt>
<trkpt lat="0.288970" lon="0"><ele></ele><time>2014-5-9T17:6:24Z</time></trkpt>
<trkpt lat="0.288825" lon="0"><ele></ele><time>2014-5-9T17:6:27Z</time></trkpt>
<trkpt lat="0.288599" lon="0"><ele></ele><time>2014-5-9T17:6:30Z</time></trkpt>
<trkpt lat="0.288311" lon="0"><ele></ele><time>2014-5-9T17:6:33Z</time></trkpt>
<trkpt lat="0.287764" lon="0"><ele></ele><time>2014-5-9T17:6:36Z</time></trkpt>
<trkpt lat="0.287141" lon="0"><ele></ele><time>2014-5-9T17:6:39Z</time></trkpt>
<trkpt lat="0.286383" lon="0"><ele></ele><time>2014-5-9T17:6:42Z</time></trkpt>
<trkpt lat="0.285024" lon="0"><ele></ele><time>2014-5-9T17:6:45Z</time></trkpt>
<trkpt lat="0.284222" lon="0"><ele></ele><time>2014-5-9T17:6:48Z</time></trkpt>
<trkpt lat="0.283710" lon="0"><ele></ele><time>2014-5-9T17:6:51Z</time></trkpt>
<trkpt lat="0.282728" lon="0"><ele></ele><time>2014-5-9T17:6:54Z</time></trkpt>
<trkpt lat="0.281945" lon="0"><ele></ele><time>2014-5-9T17:6:57Z</time></trkpt>
<trkpt lat="0.281469" lon="0"><ele></ele><time>2014-5-9T17:7:0Z</time></trkpt>
<trkpt lat="0.280765" lon="0"><ele></ele><time>2014-5-9T17:7:3Z</time></trkpt>
<trkpt lat="0.280072" lon="0"><ele></ele><time>2014-5-9T17:7:6Z</time></trkpt>
<trkpt lat="0.279069" lon="0"><ele></ele><time>2014-5-9T17:7:9Z</time></trkpt>
<trkpt lat="0.278612" lon="0"><ele></ele><time>2014-5-9T17:7:12Z</time></trkpt>
<trkpt lat="0.278219" lon="0"><ele></ele><time>2014-5-9T17:7:15Z</time></trkpt>
<trkpt lat="0.277047" lon="0"><ele></ele><time>2014-5-9T17:7:18Z</time></trkpt>
<trkpt lat="0.275938" lon="0"><ele></ele><time>2014-5-9T17:7:21Z</time></trkpt>
<trkpt lat="0.275329" lon="0"><ele></ele><time>2014-5-9T17:7:24Z</time></trkpt>
<trkpt lat="0.275160" lon="0"><ele></ele><time>2014-5-9T17:7:27Z</time></trkpt>
<trkpt lat="0.275072" lon="0"><ele></ele><time>2014-5-9T17:7:30Z</time></trkpt>
<trkpt lat="0.274960" lon="0"><ele></ele><time>2014-5-9T17:7:33Z</time></trkpt>
<trkpt lat="0.274401" lon="0"><ele></ele><time>2014-5-9T17:7:36Z</time></trkpt>
<trkpt lat="0.270686" lon="0"><ele></ele><time>2014-5-9T17:7:39Z</time></trkpt>
<trkpt lat="0.269123" lon="0"><ele></ele><time>2014-5-9T17:7:42Z</time></trkpt>
<trkpt lat="0.267163" lon="0"><ele></ele><time>2014-5-9T17:7:45Z</time></trkpt>
<trkpt lat="0.266480" lon="0"><ele></ele><time>2014-5-9T17:7:48Z</time></trkpt>
<trkpt lat="0.265950" lon="0"><ele></ele><time>2014-5-9T17:7:51Z</time></trkpt>
<trkpt lat="0.265475" lon="0"><ele></ele><time>2014-5-9T17:7:54Z</time></trkpt>
<trkpt lat="0.265152" lon="0"><ele></ele><time>2014-5-9T17:7:57Z</time></trkpt>
<trkpt lat="0.265580" lon="0"><ele></ele><time>2014-5-9T17:8:0Z</time></trkpt>
<trkpt lat="0.266043" lon="0"><ele></ele><time>2014-5-9T17:8:3Z</time></trkpt>
<trkpt lat="0.266723" lon="0"><ele></ele><time>2014-5-9T17:8:6Z</time></trkpt>
<trkpt lat="0.267247" lon="0"><ele></ele><time>2014-5-9T17:8:9Z</time></trkpt>
<trkpt lat="0.267348" lon="0"><ele></ele><time>2014-5-9T17:8:12Z</time></trkpt>
<trkpt lat="0.267068" lon="0"><ele></ele><time>2014-5-9T17:8:15Z</time></trkpt>
<trkpt lat="0.266770" lon="0"><ele></ele><time>2014-5-9T17:8:18Z</time></trkpt>
<trkpt lat="0.266757" lon="0"><ele></ele><time>2014-5-9T17:8:21Z</time></trkpt>
<trkpt lat="0.267323" lon="0"><ele></ele><time>2014-5-9T17:8:24Z</time></trkpt>
<trkpt lat="0.267900" lon="0"><ele></ele><time>2014-5-9T17:8:27Z</time></trkpt>
<trkpt lat="0.268614" lon="0"><ele></ele><time>2014-5-9T17:8:30Z</time></trkpt>
<trkpt lat="0.268923" lon="0"><ele></ele><time>2014-5-9T17:8:33Z</time></trkpt>
<trkpt lat="0.269324" lon="0"><ele></ele><time>2014-5-9T17:8:36Z</time></trkpt>
<trkpt lat="0.269778" lon="0"><ele></ele><time>2014-5-9T17:8:39Z</time></trkpt>
<trkpt lat="0.270209" lon="0"><ele></ele><time>2014-5-9T17:8:42Z</time></trkpt>
<trkpt lat="0.270473" lon="0"><ele></ele><time>2014-5-9T17:8:45Z</time></trkpt>
<trkpt lat="0.270493" lon="0"><ele></ele><time>2014-5-9T17:8:48Z</time></trkpt>
<trkpt lat="0.270532" lon="0"><ele></ele><time>2014-5-9T17:8:51Z</time></trkpt>
<trkpt lat="0.270584" lon="0"><ele></ele><time>2014-5-9T17:8:54Z</time></trkpt>
<trkpt lat="0.270924" lon="0"><ele></ele><time>2014-5-9T17:8:57Z</time></trkpt>
<trkpt lat="0.271266" lon="0"><ele></ele><time>2014-5-9T17:9:0Z</time></trkpt>
<trkpt lat="0.271295" lon="0"><ele></ele><time>2014-5-9T17:9:3Z</time></trkpt>
<trkpt lat="0.271105" lon="0"><ele></ele><time>2014-5-9T17:9:6Z</time></trkpt>
<trkpt lat="0.271091" lon="0"><ele></ele><time>2014-5-9T17:9:9Z</time></trkpt>
<trkpt lat="0.271125" lon="0"><ele></ele><time>2014-5-9T17:9:12Z</time></trkpt>
<trkpt lat="0.270720" lon="0"><ele></ele><time>2014-5-9T17:9:15Z</time></trkpt>
<trkpt lat="0.270460" lon="0"><ele></ele><time>2014-5-9T17:9:18Z</time></trkpt>
<trkpt lat="0.270302" lon="0"><ele></ele><time>2014-5-9T17:9:21Z</time></trkpt>
<trkpt lat="0.270243" lon="0"><ele></ele><time>2014-5-9T17:9:24Z</time></trkpt>
<trkpt lat="0.269830" lon="0"><ele></ele><time>2014-5-9T17:9:27Z</time></trkpt>
<trkpt lat="0.269596" lon="0"><ele></ele><time>2014-5-9T17:9:30Z</time></trkpt>
<trkpt lat="0.269657" lon="0"><ele></ele><time>2014-5-9T17:9:33Z</time></trkpt>
<trkpt lat="0.269697" lon="0"><ele></ele><time>2014-5-9T17:9:36Z</time></trkpt>
<trkpt lat="0.269377" lon="0"><ele></ele><time>2014-5-9T17:9:39Z</time></trkpt>
<trkpt lat="0.268506" lon="0"><ele></ele><time>2014-5-9T17:9:42Z</time></trkpt>
<trkpt lat="0.268368" lon="0"><ele></ele><time>2014-5-9T17:9:45Z</time></trkpt>
<trkpt lat="0.267917" lon="0"><ele></ele><time>2014-5-9T17:9:48Z</time></trkpt>
<trkpt lat="0.268174" lon="0"><ele></ele><time>2014-5-9T17:9:51Z</time></trkpt>
<trkpt lat="0.268243" lon="0"><ele></ele><time>2014-5-9T17:9:54Z</time></trkpt>
<trkpt lat="0.268236" lon="0"><ele></ele><time>2014-5-9T17:9:57Z</time></trkpt>
<trkpt lat="0.267763" lon="0"><ele></ele><time>2014-5-9T17:10:0Z</time></trkpt>
<trkpt lat="0.267723" lon="0"><ele></ele><time>2014-5-9T17:10:3Z</time></trkpt>
<trkpt lat="0.268000" lon="0"><ele></ele><time>2014-5-9T17:10:6Z</time></trkpt>
<trkpt lat="0.268482" lon="0"><ele></ele><time>2014-5-9T17:10:9Z</time></trkpt>
<trkpt lat="0.268966" lon="0"><ele></ele><time>2014-5-9T17:10:12Z</time></trkpt>
<trkpt lat="0.269054" lon="0"><ele></ele><time>2014-5-9T17:10:15Z</time></trkpt>
<trkpt lat="0.268491" lon="0"><ele></ele><time>2014-5-9T17:10:18Z</time></trkpt>
<trkpt lat="0.268221" lon="0"><ele></ele><time>2014-5-9T17:10:21Z</time></trkpt>
<trkpt lat="0.268115" lon="0"><ele></ele><time>2014-5-9T17:10:24Z</time></trkpt>
<trkpt lat="0.268338" lon="0"><ele></ele><time>2014-5-9T17:10:27Z</time></trkpt>
<trkpt lat="0.268732" lon="0"><ele></ele><time>2014-5-9T17:10:30Z</time></trkpt>
<trkpt lat="0.268775" lon="0"><ele></ele><time>2014-5-9T17:10:33Z</time></trkpt>
<trkpt lat="0.269080" lon="0"><ele></ele><time>2014-5-9T17:10:36Z</time></trkpt>
<trkpt lat="0.269008" lon="0"><ele></ele><time>2014-5-9T17:10:39Z</time></trkpt>
<trkpt lat="0.269586" lon="0"><ele></ele><time>2014-5-9T17:10:42Z</time></trkpt>
<trkpt lat="0.269899" lon="0"><ele></ele><time>2014-5-9T17:10:45Z</time></trkpt>
<trkpt lat="0.270379" lon="0"><ele></ele><time>2014-5-9T17:10:48Z</time></trkpt>
<trkpt lat="0.270904" lon="0"><ele></ele><time>2014-5-9T17:10:51Z</time></trkpt>
<trkpt lat="0.271065" lon="0"><ele></ele><time>2014-5-9T17:10:54Z</time></trkpt>
<trkpt lat="0.270925" lon="0"><ele></ele><time>2014-5-9T17:10:57Z</time></trkpt>
<trkpt lat="0.270399" lon="0"><ele></ele><time>2014-5-9T17:11:0Z</time></trkpt>
<trkpt lat="0.269944" lon="0"><ele></ele><time>2014-5-9T17:11:3Z</time></trkpt>
<trkpt lat="0.269607" lon="0"><ele></ele><time>2014-5-9T17:11:6Z</time></trkpt>
<trkpt lat="0.269104" lon="0"><ele></ele><time>2014-5-9T17:11:9Z</time></trkpt>
<trkpt lat="0.269226" lon="0"><ele></ele><time>2014-5-9T17:11:12Z</time></trkpt>
<trkpt lat="0.268872" lon="0"><ele></ele><time>2014-5-9T17:11:15Z</time></trkpt>
<trkpt lat="0.268805" lon="0"><ele></ele><time>2014-5-9T17:11:18Z</time></trkpt>
<trkpt lat="0.268457" lon="0"><ele></ele><time>2014-5-9T17:11:21Z</time></trkpt>
<trkpt lat="0.268214" lon="0"><ele></ele><time>2014-5-9T17:11:24Z</time></trkpt>
<trkpt lat="0.268315" lon="0"><ele></ele><time>2014-5-9T17:11:27Z</time></trkpt>
<trkpt lat="0.269100" lon="0"><ele></ele><time>2014-5-9T17:11:30Z</time></trkpt>
<trkpt lat="0.268808" lon="0"><ele></ele><time>2014-5-9T17:11:33Z</time></trkpt>
<trkpt lat="0.268501" lon="0"><ele></ele><time>2014-5-9T17:11:36Z</time></trkpt>
<trkpt lat="0.268068" lon="0"><ele></ele><time>2014-5-9T17:11:39Z</time></trkpt>
<trkpt lat="0.267870" lon="0"><ele></ele><time>2014-5-9T17:11:42Z</time></trkpt>
<trkpt lat="0.267529" lon="0"><ele></ele><time>2014-5-9T17:11:45Z</time></trkpt>
<trkpt lat="0.267720" lon="0"><ele></ele><time>2014-5-9T17:11:48Z</time></trkpt>
<trkpt lat="0.267830" lon="0"><ele></ele><time>2014-5-9T17:11:51Z</time></trkpt>
<trkpt lat="0.267486" lon="0"><ele></ele><time>2014-5-9T17:11:54Z</time></trkpt>
<trkpt lat="0.267061" lon="0"><ele></ele><time>2014-5-9T17:11:57Z</time></trkpt>
<trkpt lat="0.266807" lon="0"><ele></ele><time>2014-5-9T17:12:0Z</time></trkpt>
<trkpt lat="0.266896" lon="0"><ele></ele><time>2014-5-9T17:12:3Z</time></trkpt>
<trkpt lat="0.267162" lon="0"><ele></ele><time>2014-5-9T17:12:6Z</time></trkpt>
<trkpt lat="0.267202" lon="0"><ele></ele><time>2014-5-9T17:12:9Z</time></trkpt>
<trkpt lat="0.267365" lon="0"><ele></ele><time>2014-5-9T17:12:12Z</time></trkpt>
<trkpt lat="0.267691" lon="0"><ele></ele><time>2014-5-9T17:12:15Z</time></trkpt>
<trkpt lat="0.268002" lon="0"><ele></ele><time>2014-5-9T17:12:18Z</time></trkpt>
<trkpt lat="0.267909" lon="0"><ele></ele><time>2014-5-9T17:12:21Z</time></trkpt>
<trkpt lat="0.267876" lon="0"><ele></ele><time>2014-5-9T17:12:24Z</time></trkpt>
<trkpt lat="0.268365" lon="0"><ele></ele><time>2014-5-9T17:12:27Z</time></trkpt>
<trkpt lat="0.268700" lon="0"><ele></ele><time>2014-5-9T17:12:30Z</time></trkpt>
<trkpt lat="0.269151" lon="0"><ele></ele><time>2014-5-9T17:12:33Z</time></trkpt>
<trkpt lat="0.269444" lon="0"><ele></ele><time>2014-5-9T17:12:36Z</time></trkpt>
<trkpt lat="0.269428" lon="0"><ele></ele><time>2014-5-9T17:12:39Z</time></trkpt>
<trkpt lat="0.269331" lon="0"><ele></ele><time>2014-5-9T17:12:42Z</time></trkpt>
<trkpt lat="0.269270" lon="0"><ele></ele><time>2014-5-9T17:12:45Z</time></trkpt>
<trkpt lat="0.269226" lon="0"><ele></ele><time>2014-5-9T17:12:48Z</time></trkpt>
<trkpt lat="0.269021" lon="0"><ele></ele><time>2014-5-9T17:12:51Z</time></trkpt>
<trkpt lat="0.268397" lon="0"><ele></ele><time>2014-5-9T17:12:54Z</time></trkpt>
<trkpt lat="0.267976" lon="0"><ele></ele><time>2014-5-9T17:12:57Z</time></trkpt>
<trkpt lat="0.267825" lon="0"><ele></ele><time>2014-5-9T17:13:0Z</time></trkpt>
<trkpt lat="0.267592" lon="0"><ele></ele><time>2014-5-9T17:13:3Z</time></trkpt>
<trkpt lat="0.267390" lon="0"><ele></ele><time>2014-5-9T17:13:6Z</time></trkpt>
<trkpt lat="0.266931" lon="0"><ele></ele><time>2014-5-9T17:13:9Z</time></trkpt>
<trkpt lat="0.266771" lon="0"><ele></ele><time>2014-5-9T17:13:12Z</time></trkpt>
<trkpt lat="0.266249" lon="0"><ele></ele><time>2014-5-9T17:13:15Z</time></trkpt>
<trkpt lat="0.265874" lon="0"><ele></ele><time>2014-5-9T17:13:18Z</time></trkpt>
<trkpt lat="0.265556" lon="0"><ele></ele><time>2014-5-9T17:13:21Z</time></trkpt>
<trkpt lat="0.265228" lon="0"><ele></ele><time>2014-5-9T17:13:24Z</time></trkpt>
<trkpt lat="0.264615" lon="0"><ele></ele><time>2014-5-9T17:13:27Z</time></trkpt>
<trkpt lat="0.264244" lon="0"><ele></ele><time>2014-5-9T17:13:30Z</time></trkpt>
<trkpt lat="0.263769" lon="0"><ele></ele><time>2014-5-9T17:13:33Z</time></trkpt>
<trkpt lat="0.263490" lon="0"><ele></ele><time>2014-5-9T17:13:36Z</time></trkpt>
<trkpt lat="0.263371" lon="0"><ele></ele><time>2014-5-9T17:13:39Z</time></trkpt>
<trkpt lat="0.263493" lon="0"><ele></ele><time>2014-5-9T17:13:42Z</time></trkpt>
<trkpt lat="0.263344" lon="0"><ele></ele><time>2014-5-9T17:13:45Z</time></trkpt>
<trkpt lat="0.263084" lon="0"><ele></ele><time>2014-5-9T17:13:48Z</time></trkpt>
<trkpt lat="0.262843" lon="0"><ele></ele><time>2014-5-9T17:13:51Z</time></trkpt>
<trkpt lat="0.262807" lon="0"><ele></ele><time>2014-5-9T17:13:54Z</time></trkpt>
<trkpt lat="0.263008" lon="0"><ele></ele><time>2014-5-9T17:13:57Z</time></trkpt>
<trkpt lat="0.262950" lon="0"><ele></ele><time>2014-5-9T17:14:0Z</time></trkpt>
<trkpt lat="0.262962" lon="0"><ele></ele><time>2014-5-9T17:14:3Z</time></trkpt>
<trkpt lat="0.262705" lon="0"><ele></ele><time>2014-5-9T17:14:6Z</time></trkpt>
<trkpt lat="0.262496" lon="0"><ele></ele><time>2014-5-9T17:14:9Z</time></trkpt>
<trkpt lat="0.262608" lon="0"><ele></ele><time>2014-5-9T17:14:12Z</time></trkpt>
<trkpt lat="0.263139" lon="0"><ele></ele><time>2014-5-9T17:14:15Z</time></trkpt>
<trkpt lat="0.263293" lon="0"><ele></ele><time>2014-5-9T17:14:18Z</time></trkpt>
<trkpt lat="0.263030" lon="0"><ele></ele><time>2014-5-9T17:14:21Z</time></trkpt>
<trkpt lat="0.262659" lon="0"><ele></ele><time>2014-5-9T17:14:24Z</time></trkpt>
<trkpt lat="0.262359" lon="0"><ele></ele><time>2014-5-9T17:14:27Z</time></trkpt>
<trkpt lat="0.262231" lon="0"><ele></ele><time>2014-5-9T17:14:30Z</time></trkpt>
<trkpt lat="0.262192" lon="0"><ele></ele><time>2014-5-9T17:14:33Z</time></trkpt>
<trkpt lat="0.262379" lon="0"><ele></ele><time>2014-5-9T17:14:36Z</time></trkpt>
<trkpt lat="0.262926" lon="0"><ele></ele><time>2014-5-9T17:14:39Z</time></trkpt>
<trkpt lat="0.263034" lon="0"><ele></ele><time>2014-5-9T17:14:42Z</time></trkpt>
<trkpt lat="0.262620" lon="0"><ele></ele><time>2014-5-9T17:14:45Z</time></trkpt>
<trkpt lat="0.262431" lon="0"><ele></ele><time>2014-5-9T17:14:48Z</time></trkpt>
<trkpt lat="0.262553" lon="0"><ele></ele><time>2014-5-9T17:14:51Z</time></trkpt>
<trkpt lat="0.262929" lon="0"><ele></ele><time>2014-5-9T17:14:54Z</time></trkpt>
<trkpt lat="0.263558" lon="0"><ele></ele><time>2014-5-9T17:14:57Z</time></trkpt>
<trkpt lat="0.264149" lon="0"><ele></ele><time>2014-5-9T17:15:0Z</time></trkpt>
<trkpt lat="0.264288" lon="0"><ele></ele><time>2014-5-9T17:15:3Z</time></trkpt>
<trkpt lat="0.264527" lon="0"><ele></ele><time>2014-5-9T17:15:6Z</time></trkpt>
<trkpt lat="0.264637" lon="0"><ele></ele><time>2014-5-9T17:15:9Z</time></trkpt>
<trkpt lat="0.265231" lon="0"><ele></ele><time>2014-5-9T17:15:12Z</time></trkpt>
<trkpt lat="0.266129" lon="0"><ele></ele><time>2014-5-9T17:15:15Z</time></trkpt>
<trkpt lat="0.267566" lon="0"><ele></ele><time>2014-5-9T17:15:18Z</time></trkpt>
<trkpt lat="0.268310" lon="0"><ele></ele><time>2014-5-9T17:15:21Z</time></trkpt>
<trkpt lat="0.268598" lon="0"><ele></ele><time>2014-5-9T17:15:24Z</time></trkpt>
<trkpt lat="0.268770" lon="0"><ele></ele><time>2014-5-9T17:15:27Z</time></trkpt>
<trkpt lat="0.268023" lon="0"><ele></ele><time>2014-5-9T17:15:30Z</time></trkpt>
<trkpt lat="0.267693" lon="0"><ele></ele><time>2014-5-9T17:15:33Z</time></trkpt>
<trkpt lat="0.267405" lon="0"><ele></ele><time>2014-5-9T17:15:36Z</time></trkpt>
<trkpt lat="0.266822" lon="0"><ele></ele><time>2014-5-9T17:15:39Z</time></trkpt>
<trkpt lat="0.266604" lon="0"><ele></ele><time>2014-5-9T17:15:42Z</time></trkpt>
<trkpt lat="0.266549" lon="0"><ele></ele><time>2014-5-9T17:15:45Z</time></trkpt>
<trkpt lat="0.266766" lon="0"><ele></ele><time>2014-5-9T17:15:48Z</time></trkpt>
<trkpt lat="0.266825" lon="0"><ele></ele><time>2014-5-9T17:15:51Z</time></trkpt>
<trkpt lat="0.266431" lon="0"><ele></ele><time>2014-5-9T17:15:54Z</time></trkpt>
<trkpt lat="0.266047" lon="0"><ele></ele><time>2014-5-9T17:15:57Z</time></trkpt>
<trkpt lat="0.265402" lon="0"><ele></ele><time>2014-5-9T17:16:0Z</time></trkpt>
<trkpt lat="0.265053" lon="0"><ele></ele><time>2014-5-9T17:16:3Z</time></trkpt>
<trkpt lat="0.264282" lon="0"><ele></ele><time>2014-5-9T17:16:6Z</time></trkpt>
<trkpt lat="0.263909" lon="0"><ele></ele><time>2014-5-9T17:16:9Z</time></trkpt>
<trkpt lat="0.263651" lon="0"><ele></ele><time>2014-5-9T17:16:12Z</time></trkpt>
<trkpt lat="0.263474" lon="0"><ele></ele><time>2014-5-9T17:16:15Z</time></trkpt>
<trkpt lat="0.263178" lon="0"><ele></ele><time>2014-5-9T17:16:18Z</time></trkpt>
<trkpt lat="0.262676" lon="0"><ele></ele><time>2014-5-9T17:16:21Z</time></trkpt>
<trkpt lat="0.262476" lon="0"><ele></ele><time>2014-5-9T17:16:24Z</time></trkpt>
<trkpt lat="0.261911" lon="0"><ele></ele><time>2014-5-9T17:16:27Z</time></trkpt>
<trkpt lat="0.261421" lon="0"><ele></ele><time>2014-5-9T17:16:30Z</time></trkpt>
<trkpt lat="0.261030" lon="0"><ele></ele><time>2014-5-9T17:16:33Z</time></trkpt>
<trkpt lat="0.260351" lon="0"><ele></ele><time>2014-5-9T17:16:36Z</time></trkpt>
<trkpt lat="0.259402" lon="0"><ele></ele><time>2014-5-9T17:16:39Z</time></trkpt>
<trkpt lat="0.259193" lon="0"><ele></ele><time>2014-5-9T17:16:42Z</time></trkpt>
<trkpt lat="0.258861" lon="0"><ele></ele><time>2014-5-9T17:16:45Z</time></trkpt>
<trkpt lat="0.258720" lon="0"><ele></ele><time>2014-5-9T17:16:48Z</time></trkpt>
<trkpt lat="0.258407" lon="0"><ele></ele><time>2014-5-9T17:16:51Z</time></trkpt>
<trkpt lat="0.258220" lon="0"><ele></ele><time>2014-5-9T17:16:54Z</time></trkpt>
<trkpt lat="0.258079" lon="0"><ele></ele><time>2014-5-9T17:16:57Z</time></trkpt>
<trkpt lat="0.257827" lon="0"><ele></ele><time>2014-5-9T17:17:0Z</time></trkpt>
<trkpt lat="0.257543" lon="0"><ele></ele><time>2014-5-9T17:17:3Z</time></trkpt>
<trkpt lat="0.257116" lon="0"><ele></ele><time>2014-5-9T17:17:6Z</time></trkpt>
<trkpt lat="0.256317" lon="0"><ele></ele><time>2014-5-9T17:17:9Z</time></trkpt>
<trkpt lat="0.255849" lon="0"><ele></ele><time>2014-5-9T17:17:12Z</time></trkpt>
<trkpt lat="0.255816" lon="0"><ele></ele><time>2014-5-9T17:17:15Z</time></trkpt>
<trkpt lat="0.256011" lon="0"><ele></ele><time>2014-5-9T17:17:18Z</time></trkpt>
<trkpt lat="0.256011" lon="0"><ele></ele><time>2014-5-9T17:17:21Z</time></trkpt>
<trkpt lat="0.256180" lon="0"><ele></ele><time>2014-5-9T17:17:24Z</time></trkpt>
<trkpt lat="0.256409" lon="0"><ele></ele><time>2014-5-9T17:17:27Z</time></trkpt>
<trkpt lat="0.256488" lon="0"><ele></ele><time>2014-5-9T17:17:30Z</time></trkpt>
<trkpt lat="0.256544" lon="0"><ele></ele><time>2014-5-9T17:17:33Z</time></trkpt>
<trkpt lat="0.256521" lon="0"><ele></ele><time>2014-5-9T17:17:36Z</time></trkpt>
<trkpt lat="0.256504" lon="0"><ele></ele><time>2014-5-9T17:17:39Z</time></trkpt>
<trkpt lat="0.256300" lon="0"><ele></ele><time>2014-5-9T17:17:42Z</time></trkpt>
<trkpt lat="0.255819" lon="0"><ele></ele><time>2014-5-9T17:17:45Z</time></trkpt>
<trkpt lat="0.255389" lon="0"><ele></ele><time>2014-5-9T17:17:48Z</time></trkpt>
<trkpt lat="0.254883" lon="0"><ele></ele><time>2014-5-9T17:17:51Z</time></trkpt>
<trkpt lat="0.254324" lon="0"><ele></ele><time>2014-5-9T17:17:54Z</time></trkpt>
<trkpt lat="0.254173" lon="0"><ele></ele><time>2014-5-9T17:17:57Z</time></trkpt>
<trkpt lat="0.253979" lon="0"><ele></ele><time>2014-5-9T17:18:0Z</time></trkpt>
<trkpt lat="0.253797" lon="0"><ele></ele><time>2014-5-9T17:18:3Z</time></trkpt>
<trkpt lat="0.253884" lon="0"><ele></ele><time>2014-5-9T17:18:6Z</time></trkpt>
<trkpt lat="0.254263" lon="0"><ele></ele><time>2014-5-9T17:18:9Z</time></trkpt>
<trkpt lat="0.255041" lon="0"><ele></ele><time>2014-5-9T17:18:12Z</time></trkpt>
<trkpt lat="0.255403" lon="0"><ele></ele><time>2014-5-9T17:18:15Z</time></trkpt>
<trkpt lat="0.255567" lon="0"><ele></ele><time>2014-5-9T17:18:18Z</time></trkpt>
<trkpt lat="0.255585" lon="0"><ele></ele><time>2014-5-9T17:18:21Z</time></trkpt>
<trkpt lat="0.255552" lon="0"><ele></ele><time>2014-5-9T17:18:24Z</time></trkpt>
<trkpt lat="0.255106" lon="0"><ele></ele><time>2014-5-9T17:18:27Z</time></trkpt>
<trkpt lat="0.254233" lon="0"><ele></ele><time>2014-5-9T17:18:30Z</time></trkpt>
<trkpt lat="0.253960" lon="0"><ele></ele><time>2014-5-9T17:18:33Z</time></trkpt>
<trkpt lat="0.254458" lon="0"><ele></ele><time>2014-5-9T17:18:36Z</time></trkpt>
<trkpt lat="0.256066" lon="0"><ele></ele><time>2014-5-9T17:18:39Z</time></trkpt>
<trkpt lat="0.257371" lon="0"><ele></ele><time>2014-5-9T17:18:42Z</time></trkpt>
<trkpt lat="0.257978" lon="0"><ele></ele><time>2014-5-9T17:18:45Z</time></trkpt>
<trkpt lat="0.258899" lon="0"><ele></ele><time>2014-5-9T17:18:48Z</time></trkpt>
<trkpt lat="0.259640" lon="0"><ele></ele><time>2014-5-9T17:18:51Z</time></trkpt>
<trkpt lat="0.260483" lon="0"><ele></ele><time>2014-5-9T17:18:54Z</time></trkpt>
<trkpt lat="0.261211" lon="0"><ele></ele><time>2014-5-9T17:18:57Z</time></trkpt>
<trkpt lat="0.261746" lon="0"><ele></ele><time>2014-5-9T17:19:0Z</time></trkpt>
<trkpt lat="0.261979" lon="0"><ele></ele><time>2014-5-9T17:19:3Z</time></trkpt>
<trkpt lat="0.261847" lon="0"><ele></ele><time>2014-5-9T17:19:6Z</time></trkpt>
<trkpt lat="0.261353" lon="0"><ele></ele><time>2014-5-9T17:19:9Z</time></trkpt>
<trkpt lat="0.261123" lon="0"><ele></ele><time>2014-5-9T17:19:12Z</time></trkpt>
<trkpt lat="0.260327" lon="0"><ele></ele><time>2014-5-9T17:19:15Z</time></trkpt>
<trkpt lat="0.259883" lon="0"><ele></ele><time>2014-5-9T17:19:18Z</time></trkpt>
<trkpt lat="0.261302" lon="0"><ele></ele><time>2014-5-9T17:19:21Z</time></trkpt>
<trkpt lat="0.262449" lon="0"><ele></ele><time>2014-5-9T17:19:24Z</time></trkpt>
<trkpt lat="0.263908" lon="0"><ele></ele><time>2014-5-9T17:19:27Z</time></trkpt>
<trkpt lat="0.265086" lon="0"><ele></ele><time>2014-5-9T17:19:30Z</time></trkpt>
<trkpt lat="0.267032" lon="0"><ele></ele><time>2014-5-9T17:19:33Z</time></trkpt>
<trkpt lat="0.268786" lon="0"><ele></ele><time>2014-5-9T17:19:36Z</time></trkpt>
<trkpt lat="0.269518" lon="0"><ele></ele><time>2014-5-9T17:19:39Z</time></trkpt>
<trkpt lat="0.270152" lon="0"><ele></ele><time>2014-5-9T17:19:42Z</time></trkpt>
<trkpt lat="0.271219" lon="0"><ele></ele><time>2014-5-9T17:19:45Z</time></trkpt>
<trkpt lat="0.272073" lon="0"><ele></ele><time>2014-5-9T17:19:48Z</time></trkpt>
<trkpt lat="0.272988" lon="0"><ele></ele><time>2014-5-9T17:19:51Z</time></trkpt>
<trkpt lat="0.273368" lon="0"><ele></ele><time>2014-5-9T17:19:54Z</time></trkpt>
<trkpt lat="0.273483" lon="0"><ele></ele><time>2014-5-9T17:19:57Z</time></trkpt>
<trkpt lat="0.273473" lon="0"><ele></ele><time>2014-5-9T17:20:0Z</time></trkpt>
<trkpt lat="0.273839" lon="0"><ele></ele><time>2014-5-9T17:20:3Z</time></trkpt>
<trkpt lat="0.274440" lon="0"><ele></ele><time>2014-5-9T17:20:6Z</time></trkpt>
<trkpt lat="0.275048" lon="0"><ele></ele><time>2014-5-9T17:20:9Z</time></trkpt>
<trkpt lat="0.275386" lon="0"><ele></ele><time>2014-5-9T17:20:12Z</time></trkpt>
<trkpt lat="0.276945" lon="0"><ele></ele><time>2014-5-9T17:20:15Z</time></trkpt>
<trkpt lat="0.277321" lon="0"><ele></ele><time>2014-5-9T17:20:18Z</time></trkpt>
<trkpt lat="0.277182" lon="0"><ele></ele><time>2014-5-9T17:20:21Z</time></trkpt>
<trkpt lat="0.276973" lon="0"><ele></ele><time>2014-5-9T17:20:24Z</time></trkpt>
<trkpt lat="0.277086" lon="0"><ele></ele><time>2014-5-9T17:20:27Z</time></trkpt>
<trkpt lat="0.276596" lon="0"><ele></ele><time>2014-5-9T17:20:30Z</time></trkpt>
<trkpt lat="0.276299" lon="0"><ele></ele><time>2014-5-9T17:20:33Z</time></trkpt>
<trkpt lat="0.276606" lon="0"><ele></ele><time>2014-5-9T17:20:36Z</time></trkpt>
<trkpt lat="0.277483" lon="0"><ele></ele><time>2014-5-9T17:20:39Z</time></trkpt>
<trkpt lat="0.277875" lon="0"><ele></ele><time>2014-5-9T17:20:42Z</time></trkpt>
<trkpt lat="0.278060" lon="0"><ele></ele><time>2014-5-9T17:20:45Z</time></trkpt>
<trkpt lat="0.277973" lon="0"><ele></ele><time>2014-5-9T17:20:48Z</time></trkpt>
<trkpt lat="0.279016" lon="0"><ele></ele><time>2014-5-9T17:20:51Z</time></trkpt>
<trkpt lat="0.279568" lon="0"><ele></ele><time>2014-5-9T17:20:54Z</time></trkpt>
<trkpt lat="0.280446" lon="0"><ele></ele><time>2014-5-9T17:20:57Z</time></trkpt>
<trkpt lat="0.280913" lon="0"><ele></ele><time>2014-5-9T17:21:0Z</time></trkpt>
<trkpt lat="0.281295" lon="0"><ele></ele><time>2014-5-9T17:21:3Z</time></trkpt>
<trkpt lat="0.281662" lon="0"><ele></ele><time>2014-5-9T17:21:6Z</time></trkpt>
<trkpt lat="0.281850" lon="0"><ele></ele><time>2014-5-9T17:21:9Z</time></trkpt>
<trkpt lat="0.282340" lon="0"><ele></ele><time>2014-5-9T17:21:12Z</time></trkpt>
<trkpt lat="0.282803" lon="0"><ele></ele><time>2014-5-9T17:21:15Z</time></trkpt>
<trkpt lat="0.283138" lon="0"><ele></ele><time>2014-5-9T17:21:18Z</time></trkpt>
<trkpt lat="0.283632" lon="0"><ele></ele><time>2014-5-9T17:21:21Z</time></trkpt>
<trkpt lat="0.283871" lon="0"><ele></ele><time>2014-5-9T17:21:24Z</time></trkpt>
<trkpt lat="0.284061" lon="0"><ele></ele><time>2014-5-9T17:21:27Z</time></trkpt>
<trkpt lat="0.284801" lon="0"><ele></ele><time>2014-5-9T17:21:30Z</time></trkpt>
<trkpt lat="0.286051" lon="0"><ele></ele><time>2014-5-9T17:21:33Z</time></trkpt>
<trkpt lat="0.287377" lon="0"><ele></ele><time>2014-5-9T17:21:36Z</time></trkpt>
<trkpt lat="0.287997" lon="0"><ele></ele><time>2014-5-9T17:21:39Z</time></trkpt>
<trkpt lat="0.288422" lon="0"><ele></ele><time>2014-5-9T17:21:42Z</time></trkpt>
<trkpt lat="0.288893" lon="0"><ele></ele><time>2014-5-9T17:21:45Z</time></trkpt>
<trkpt lat="0.289135" lon="0"><ele></ele><time>2014-5-9T17:21:48Z</time></trkpt>
<trkpt lat="0.289212" lon="0"><ele></ele><time>2014-5-9T17:21:51Z</time></trkpt>
<trkpt lat="0.288717" lon="0"><ele></ele><time>2014-5-9T17:21:54Z</time></trkpt>
<trkpt lat="0.288656" lon="0"><ele></ele><time>2014-5-9T17:21:57Z</time></trkpt>
<trkpt lat="0.289121" lon="0"><ele></ele><time>2014-5-9T17:22:0Z</time></trkpt>
<trkpt lat="0.289370" lon="0"><ele></ele><time>2014-5-9T17:22:3Z</time></trkpt>
<trkpt lat="0.289504" lon="0"><ele></ele><time>2014-5-9T17:22:6Z</time></trkpt>
<trkpt lat="0.289664" lon="0"><ele></ele><time>2014-5-9T17:22:9Z</time></trkpt>
<trkpt lat="0.289631" lon="0"><ele></ele><time>2014-5-9T17:22:12Z</time></trkpt>
<trkpt lat="0.289469" lon="0"><ele></ele><time>2014-5-9T17:22:15Z</time></trkpt>
<trkpt lat="0.290025" lon="0"><ele></ele><time>2014-5-9T17:22:18Z</time></trkpt>
<trkpt lat="0.290571" lon="0"><ele></ele><time>2014-5-9T17:22:21Z</time></trkpt>
<trkpt lat="0.290605" lon="0"><ele></ele><time>2014-5-9T17:22:24Z</time></trkpt>
<trkpt lat="0.290104" lon="0"><ele></ele><time>2014-5-9T17:22:27Z</time></trkpt>
<trkpt lat="0.289758" lon="0"><ele></ele><time>2014-5-9T17:22:30Z</time></trkpt>
<trkpt lat="0.288818" lon="0"><ele></ele><time>2014-5-9T17:22:33Z</time></trkpt>
<trkpt lat="0.289612" lon="0"><ele></ele><time>2014-5-9T17:22:36Z</time></trkpt>
<trkpt lat="0.289897" lon="0"><ele></ele><time>2014-5-9T17:22:39Z</time></trkpt>
<trkpt lat="0.290286" lon="0"><ele></ele><time>2014-5-9T17:22:42Z</time></trkpt>
<trkpt lat="0.290546" lon="0"><ele></ele><time>2014-5-9T17:22:45Z</time></trkpt>
<trkpt lat="0.290731" lon="0"><ele></ele><time>2014-5-9T17:22:48Z</time></trkpt>
<trkpt lat="0.290576" lon="0"><ele></ele><time>2014-5-9T17:22:51Z</time></trkpt>
<trkpt lat="0.290215" lon="0"><ele></ele><time>2014-5-9T17:22:54Z</time></trkpt>
<trkpt lat="0.290291" lon="0"><ele></ele><time>2014-5-9T17:22:57Z</time></trkpt>
<trkpt lat="0.290431" lon="0"><ele></ele><time>2014-5-9T17:23:0Z</time></trkpt>
<trkpt lat="0.289861" lon="0"><ele></ele><time>2014-5-9T17:23:3Z</time></trkpt>
<trkpt lat="0.288558" lon="0"><ele></ele><time>2014-5-9T17:23:6Z</time></trkpt>
<trkpt lat="0.288016" lon="0"><ele></ele><time>2014-5-9T17:23:9Z</time></trkpt>
<trkpt lat="0.287527" lon="0"><ele></ele><time>2014-5-9T17:23:12Z</time></trkpt>
<trkpt lat="0.286925" lon="0"><ele></ele><time>2014-5-9T17:23:15Z</time></trkpt>
<trkpt lat="0.286366" lon="0"><ele></ele><time>2014-5-9T17:23:18Z</time></trkpt>
<trkpt lat="0.285389" lon="0"><ele></ele><time>2014-5-9T17:23:21Z</time></trkpt>
<trkpt lat="0.284795" lon="0"><ele></ele><time>2014-5-9T17:23:24Z</time></trkpt>
<trkpt lat="0.283204" lon="0"><ele></ele><time>2014-5-9T17:23:27Z</time></trkpt>
<trkpt lat="0.282917" lon="0"><ele></ele><time>2014-5-9T17:23:30Z</time></trkpt>
<trkpt lat="0.282830" lon="0"><ele></ele><time>2014-5-9T17:23:33Z</time></trkpt>
<trkpt lat="0.282622" lon="0"><ele></ele><time>2014-5-9T17:23:36Z</time></trkpt>
<trkpt lat="0.282613" lon="0"><ele></ele><time>2014-5-9T17:23:39Z</time></trkpt>
<trkpt lat="0.282463" lon="0"><ele></ele><time>2014-5-9T17:23:42Z</time></trkpt>
<trkpt lat="0.281119" lon="0"><ele></ele><time>2014-5-9T17:23:45Z</time></trkpt>
<trkpt lat="0.280140" lon="0"><ele></ele><time>2014-5-9T17:23:48Z</time></trkpt>
<trkpt lat="0.279191" lon="0"><ele></ele><time>2014-5-9T17:23:51Z</time></trkpt>
<trkpt lat="0.277858" lon="0"><ele></ele><time>2014-5-9T17:23:54Z</time></trkpt>
<trkpt lat="0.278561" lon="0"><ele></ele><time>2014-5-9T17:23:57Z</time></trkpt>
<trkpt lat="0.280054" lon="0"><ele></ele><time>2014-5-9T17:24:0Z</time></trkpt>
<trkpt lat="0.280073" lon="0"><ele></ele><time>2014-5-9T17:24:3Z</time></trkpt>
<trkpt lat="0.279897" lon="0"><ele></ele><time>2014-5-9T17:24:6Z</time></trkpt>
<trkpt lat="0.279425" lon="0"><ele></ele><time>2014-5-9T17:24:9Z</time></trkpt>
<trkpt lat="0.279223" lon="0"><ele></ele><time>2014-5-9T17:24:12Z</time></trkpt>
<trkpt lat="0.279027" lon="0"><ele></ele><time>2014-5-9T17:24:15Z</time></trkpt>
<trkpt lat="0.278769" lon="0"><ele></ele><time>2014-5-9T17:24:18Z</time></trkpt>
<trkpt lat="0.278610" lon="0"><ele></ele><time>2014-5-9T17:24:21Z</time></trkpt>
<trkpt lat="0.278980" lon="0"><ele></ele><time>2014-5-9T17:24:24Z</time></trkpt>
<trkpt lat="0.279541" lon="0"><ele></ele><time>2014-5-9T17:24:27Z</time></trkpt>
<trkpt lat="0.279475" lon="0"><ele></ele><time>2014-5-9T17:24:30Z</time></trkpt>
<trkpt lat="0.279336" lon="0"><ele></ele><time>2014-5-9T17:24:33Z</time></trkpt>
<trkpt lat="0.279224" lon="0"><ele></ele><time>2014-5-9T17:24:36Z</time></trkpt>
<trkpt lat="0.279566" lon="0"><ele></ele><time>2014-5-9T17:24:39Z</time></trkpt>
<trkpt lat="0.279668" lon="0"><ele></ele><time>2014-5-9T17:24:42Z</time></trkpt>
<trkpt lat="0.279575" lon="0"><ele></ele><time>2014-5-9T17:24:45Z</time></trkpt>
<trkpt lat="0.279806" lon="0"><ele></ele><time>2014-5-9T17:24:48Z</time></trkpt>
<trkpt lat="0.280304" lon="0"><ele></ele><time>2014-5-9T17:24:51Z</time></trkpt>
<trkpt lat="0.280384" lon="0"><ele></ele><time>2014-5-9T17:24:54Z</time></trkpt>
<trkpt lat="0.280241" lon="0"><ele></ele><time>2014-5-9T17:24:57Z</time></trkpt>
<trkpt lat="0.279302" lon="0"><ele></ele><time>2014-5-9T17:25:0Z</time></trkpt>
<trkpt lat="0.278755" lon="0"><ele></ele><time>2014-5-9T17:25:3Z</time></trkpt>
<trkpt lat="0.278935" lon="0"><ele></ele><time>2014-5-9T17:25:6Z</time></trkpt>
<trkpt lat="0.279218" lon="0"><ele></ele><time>2014-5-9T17:25:9Z</time></trkpt>
<trkpt lat="0.279859" lon="0"><ele></ele><time>2014-5-9T17:25:12Z</time></trkpt>
<trkpt lat="0.280669" lon="0"><ele></ele><time>2014-5-9T17:25:15Z</time></trkpt>
<trkpt lat="0.281210" lon="0"><ele></ele><time>2014-5-9T17:25:18Z</time></trkpt>
<trkpt lat="0.281611" lon="0"><ele></ele><time>2014-5-9T17:25:21Z</time></trkpt>
<trkpt lat="0.282346" lon="0"><ele></ele><time>2014-5-9T17:25:24Z</time></trkpt>
<trkpt lat="0.282986" lon="0"><ele></ele><time>2014-5-9T17:25:27Z</time></trkpt>
<trkpt lat="0.283705" lon="0"><ele></ele><time>2014-5-9T17:25:30Z</time></trkpt>
<trkpt lat="0.284222" lon="0"><ele></ele><time>2014-5-9T17:25:33Z</time></trkpt>
<trkpt lat="0.284484" lon="0"><ele></ele><time>2014-5-9T17:25:36Z</time></trkpt>
<trkpt lat="0.284601" lon="0"><ele></ele><time>2014-5-9T17:25:39Z</time></trkpt>
<trkpt lat="0.284834" lon="0"><ele></ele><time>2014-5-9T17:25:42Z</time></trkpt>
<trkpt lat="0.284844" lon="0"><ele></ele><time>2014-5-9T17:25:45Z</time></trkpt>
<trkpt lat="0.284459" lon="0"><ele></ele><time>2014-5-9T17:25:48Z</time></trkpt>
<trkpt lat="0.283932" lon="0"><ele></ele><time>2014-5-9T17:25:51Z</time></trkpt>
<trkpt lat="0.283567" lon="0"><ele></ele><time>2014-5-9T17:25:54Z</time></trkpt>
<trkpt lat="0.282872" lon="0"><ele></ele><time>2014-5-9T17:25:57Z</time></trkpt>
<trkpt lat="0.282595" lon="0"><ele></ele><time>2014-5-9T17:26:0Z</time></trkpt>
<trkpt lat="0.282193" lon="0"><ele></ele><time>2014-5-9T17:26:3Z</time></trkpt>
<trkpt lat="0.281634" lon="0"><ele></ele><time>2014-5-9T17:26:6Z</time></trkpt>
<trkpt lat="0.281568" lon="0"><ele></ele><time>2014-5-9T17:26:9Z</time></trkpt>
<trkpt lat="0.281745" lon="0"><ele></ele><time>2014-5-9T17:26:12Z</time></trkpt>
<trkpt lat="0.282365" lon="0"><ele></ele><time>2014-5-9T17:26:15Z</time></trkpt>
<trkpt lat="0.282924" lon="0"><ele></ele><time>2014-5-9T17:26:18Z</time></trkpt>
<trkpt lat="0.283433" lon="0"><ele></ele><time>2014-5-9T17:26:21Z</time></trkpt>
<trkpt lat="0.283931" lon="0"><ele></ele><time>2014-5-9T17:26:24Z</time></trkpt>
<trkpt lat="0.284131" lon="0"><ele></ele><time>2014-5-9T17:26:27Z</time></trkpt>
<trkpt lat="0.284615" lon="0"><ele></ele><time>2014-5-9T17:26:30Z</time></trkpt>
<trkpt lat="0.285235" lon="0"><ele></ele><time>2014-5-9T17:26:33Z</time></trkpt>
<trkpt lat="0.285823" lon="0"><ele></ele><time>2014-5-9T17:26:36Z</time></trkpt>
<trkpt lat="0.286613" lon="0"><ele></ele><time>2014-5-9T17:26:39Z</time></trkpt>
<trkpt lat="0.287322" lon="0"><ele></ele><time>2014-5-9T17:26:42Z</time></trkpt>
<trkpt lat="0.287595" lon="0"><ele></ele><time>2014-5-9T17:26:45Z</time></trkpt>
<trkpt lat="0.287453" lon="0"><ele></ele><time>2014-5-9T17:26:48Z</time></trkpt>
<trkpt lat="0.287475" lon="0"><ele></ele><time>2014-5-9T17:26:51Z</time></trkpt>
<trkpt lat="0.287739" lon="0"><ele></ele><time>2014-5-9T17:26:54Z</time></trkpt>
<trkpt lat="0.288076" lon="0"><ele></ele><time>2014-5-9T17:26:57Z</time></trkpt>
<trkpt lat="0.288610" lon="0"><ele></ele><time>2014-5-9T17:27:0Z</time></trkpt>
<trkpt lat="0.288848" lon="0"><ele></ele><time>2014-5-9T17:27:3Z</time></trkpt>
<trkpt lat="0.289111" lon="0"><ele></ele><time>2014-5-9T17:27:6Z</time></trkpt>
<trkpt lat="0.289177" lon="0"><ele></ele><time>2014-5-9T17:27:9Z</time></trkpt>
<trkpt lat="" lon="1"><ele></ele><time>2014-5-9T17:27:12Z</time></trkpt>
<trkpt lat="" lon=""><ele></ele><time>2014-5-9T17:27:15Z</time></trkpt>
<trkpt lat="" lon=""><ele></ele><time>2014-5-9T17:27:18Z</time></trkpt>
<trkpt lat="" lon=""><ele></ele><time>2014-5-9T17:27:21Z</time></trkpt>
<trkpt lat="" lon=""><ele></ele><time>2014-5-9T17:27:24Z</time></trkpt>
<trkpt lat="" lon=""><ele></ele><time>2014-5-9T17:27:27Z</time></trkpt>
<trkpt lat="" lon=""><ele></ele><time>2014-5-9T17:27:30Z</time></trkpt>
<trkpt lat="" lon=""><ele></ele><time>2014-5-9T17:27:33Z</time></trkpt>
<trkpt lat="" lon=""><ele></ele><time>2014-5-9T17:27:36Z</time></trkpt>
<trkpt lat="" lon=""><ele></ele><time>2014-5-9T17:27:39Z</time></trkpt>
<trkpt lat="" lon=""><ele></ele><time>2014-5-9T17:27:42Z</time></trkpt>
<trkpt lat="" lon=""><ele></ele><time>2014-5-9T17:27:45Z</time></trkpt>
<trkpt lat="" lon=""><ele></ele><time>2014-5-9T17:27:48Z</time></trkpt>
<trkpt lat="" lon=""><ele></ele><time>2014-5-9T17:27:51Z</time></trkpt>
<trkpt lat="" lon=""><ele></ele><time>2014-5-9T17:27:54Z</time></trkpt>
<trkpt lat="" lon=""><ele></ele><time>2014-5-9T17:27:57Z</time></trkpt>
<trkpt lat="" lon=""><ele></ele><time>2014-5-9T17:28:0Z</time></trkpt>
<trkpt lat="" lon=""><ele></ele><time>2014-5-9T17:28:3Z</time></trkpt>
<trkpt lat="" lon=""><ele></ele><time>2014-5-9T17:28:6Z</time></trkpt>
<trkpt lat="" lon=""><ele></ele><time>2014-5-9T17:28:9Z</time></trkpt>
<trkpt lat="" lon=""><ele></ele><time>2014-5-9T17:28:12Z</time></trkpt>
<trkpt lat="" lon=""><ele></ele><time>2014-5-9T17:28:15Z</time></trkpt>
<trkpt lat="" lon=""><ele></ele><time>2014-5-9T17:28:18Z</time></trkpt>
<trkpt lat="" lon=""><ele></ele><time>2014-5-9T17:28:21Z</time></trkpt>
<trkpt lat="" lon=""><ele></ele><time>2014-5-9T17:28:24Z</time></trkpt>
<trkpt lat="" lon=""><ele></ele><time>2014-5-9T17:28:27Z</time></trkpt>
<trkpt lat="" lon=""><ele></ele><time>2014-5-9T17:28:30Z</time></trkpt>
<trkpt lat="" lon=""><ele></ele><time>2014-5-9T17:28:33Z</time></trkpt>
<trkpt lat="" lon=""><ele></ele><time>2014-5-9T17:28:36Z</time></trkpt>
<trkpt lat="" lon=""><ele></ele><time>2014-5-9T17:28:39Z</time></trkpt>
<trkpt lat="" lon=""><ele></ele><time>2014-5-9T17:28:42Z</time></trkpt>
<trkpt lat="" lon=""><ele></ele><time>2014-5-9T17:28:45Z</time></trkpt>
<trkpt lat="" lon=""><ele></ele><time>2014-5-9T17:28:48Z</time></trkpt>
<trkpt lat="" lon=""><ele></ele><time>2014-5-9T17:28:51Z</time></trkpt>
<trkpt lat="" lon=""><ele></ele><time>2014-5-9T17:28:54Z</time></trkpt>
<trkpt lat="" lon=""><ele></ele><time>2014-5-9T17:28:57Z</time></trkpt>
<trkpt lat="" lon=""><ele></ele><time>2014-5-9T17:29:0Z</time></trkpt>
<trkpt lat="" lon=""><ele></ele><time>2014-5-9T17:29:3Z</time></trkpt>
<trkpt lat="" lon=""><ele></ele><time>2014-5-9T17:29:6Z</time></trkpt>
<trkpt lat="" lon=""><ele></ele><time>2014-5-9T17:29:9Z</time></trkpt>
<trkpt lat="" lon=""><ele></ele><time>2014-5-9T17:29:12Z</time></trkpt>
<trkpt lat="" lon=""><ele></ele><time>2014-5-9T17:29:15Z</time></trkpt>
<trkpt lat="" lon=""><ele></ele><time>2014-5-9T17:29:18Z</time></trkpt>
<trkpt lat="" lon=""><ele></ele><time>2014-5-9T17:29:21Z</time></trkpt>
<trkpt lat="" lon=""><ele></ele><time>2014-5-9T17:29:24Z</time></trkpt>
<trkpt lat="" lon=""><ele></ele><time>2014-5-9T17:29:27Z</time></trkpt>
<trkpt lat="" lon=""><ele></ele><time>2014-5-9T17:29:30Z</time></trkpt>
<trkpt lat="" lon=""><ele></ele><time>2014-5-9T17:29:33Z</time></trkpt>
<trkpt lat="" lon=""><ele></ele><time>2014-5-9T17:29:36Z</time></trkpt>
<trkpt lat="" lon=""><ele></ele><time>2014-5-9T17:29:39Z</time></trkpt>
<trkpt lat="" lon=""><ele></ele><time>2014-5-9T17:29:42Z</time></trkpt>
<trkpt lat="" lon=""><ele></ele><time>2014-5-9T17:29:45Z</time></trkpt>
<trkpt lat="" lon=""><ele></ele><time>2014-5-9T17:29:48Z</time></trkpt>
<trkpt lat="" lon=""><ele></ele><time>2014-5-9T17:29:51Z</time></trkpt>
<trkpt lat="" lon=""><ele></ele><time>2014-5-9T17:29:54Z</time></trkpt>
<trkpt lat="" lon=""><ele></ele><time>2014-5-9T17:29:57Z</time></trkpt>
<trkpt lat="" lon=""><ele></ele><time>2014-5-9T17:30:0Z</time></trkpt>
<trkpt lat="" lon=""><ele></ele><time>2014-5-9T17:30:3Z</time></trkpt>
<trkpt lat="" lon=""><ele></ele><time>2014-5-9T17:30:6Z</time></trkpt>
<trkpt lat="" lon=""><ele></ele><time>2014-5-9T17:30:9Z</time></trkpt>
<trkpt lat="" lon=""><ele></ele><time>2014-5-9T17:30:12Z</time></trkpt>
<trkpt lat="" lon=""><ele></ele><time>2014-5-9T17:30:15Z</time></trkpt>
<trkpt lat="" lon=""><ele></ele><time>2014-5-9T17:30:18Z</time></trkpt>
<trkpt lat="" lon=""><ele></ele><time>2014-5-9T17:30:21Z</time></trkpt>
<trkpt lat="" lon=""><ele></ele><time>2014-5-9T17:30:24Z</time></trkpt>
<trkpt lat="" lon=""><ele></ele><time>2014-5-9T17:30:27Z</time></trkpt>
<trkpt lat="" lon=""><ele></ele><time>2014-5-9T17:30:30Z</time></trkpt>
<trkpt lat="" lon=""><ele></ele><time>2014-5-9T17:30:33Z</time></trkpt>
<trkpt lat="" lon=""><ele></ele><time>2014-5-9T17:30:36Z</time></trkpt>
<trkpt lat="" lon=""><ele></ele><time>2014-5-9T17:30:39Z</time></trkpt>
<trkpt lat="" lon=""><ele></ele><time>2014-5-9T17:30:42Z</time></trkpt>
<trkpt lat="" lon=""><ele></ele><time>2014-5-9T17:30:45Z</time></trkpt>
<trkpt lat="" lon=""><ele></ele><time>2014-5-9T17:30:48Z</time></trkpt>
<trkpt lat="" lon=""><ele></ele><time>2014-5-9T17:30:51Z</time></trkpt>
<trkpt lat="" lon=""><ele></ele><time>2014-5-9T17:30:54Z</time></trkpt>
<trkpt lat="" lon=""><ele></ele><time>2014-5-9T17:30:57Z</time></trkpt>
<trkpt lat="" lon=""><ele></ele><time>2014-5-9T17:31:0Z</time></trkpt>
<trkpt lat="" lon=""><ele></ele><time>2014-5-9T17:31:3Z</time></trkpt>
<trkpt lat="" lon=""><ele></ele><time>2014-5-9T17:31:6Z</time></trkpt>
<trkpt lat="" lon=""><ele></ele><time>2014-5-9T17:31:9Z</time></trkpt>
<trkpt lat="" lon=""><ele></ele><time>2014-5-9T17:31:12Z</time></trkpt>
<trkpt lat="" lon=""><ele></ele><time>2014-5-9T17:31:15Z</time></trkpt>
<trkpt lat="" lon=""><ele></ele><time>2014-5-9T17:31:18Z</time></trkpt>
<trkpt lat="" lon=""><ele></ele><time>2014-5-9T17:31:21Z</time></trkpt>
<trkpt lat="" lon=""><ele></ele><time>2014-5-9T17:31:24Z</time></trkpt>
<trkpt lat="" lon=""><ele></ele><time>2014-5-9T17:31:27Z</time></trkpt>
<trkpt lat="" lon=""><ele></ele><time>2014-5-9T17:31:30Z</time></trkpt>
<trkpt lat="" lon=""><ele></ele><time>2014-5-9T17:31:33Z</time></trkpt>
<trkpt lat="" lon=""><ele></ele><time>2014-5-9T17:31:36Z</time></trkpt>
<trkpt lat="" lon=""><ele></ele><time>2014-5-9T17:31:39Z</time></trkpt>
<trkpt lat="" lon=""><ele></ele><time>2014-5-9T17:31:42Z</time></trkpt>
<trkpt lat="" lon=""><ele></ele><time>2014-5-9T17:31:45Z</time></trkpt>
<trkpt lat="" lon=""><ele></ele><time>2014-5-9T17:31:48Z</time></trkpt>
<trkpt lat="" lon=""><ele></ele><time>2014-5-9T17:31:51Z</time></trkpt>
<trkpt lat="" lon=""><ele></ele><time>2014-5-9T17:31:54Z</time></trkpt>
<trkpt lat="" lon=""><ele></ele><time>2014-5-9T17:31:57Z</time></trkpt>
<trkpt lat="" lon=""><ele></ele><time>2014-5-9T17:32:0Z</time></trkpt>
<trkpt lat="" lon=""><ele></ele><time>2014-5-9T17:32:3Z</time></trkpt>
<trkpt lat="" lon=""><ele></ele><time>2014-5-9T17:32:6Z</time></trkpt>
<trkpt lat="" lon=""><ele></ele><time>2014-5-9T17:32:9Z</time></trkpt>
<trkpt lat="" lon=""><ele></ele><time>2014-5-9T17:32:12Z</time></trkpt>
<trkpt lat="" lon=""><ele></ele><time>2014-5-9T17:32:15Z</time></trkpt>
<trkpt lat="" lon=""><ele></ele><time>2014-5-9T17:32:18Z</time></trkpt>
<trkpt lat="" lon=""><ele></ele><time>2014-5-9T17:32:21Z</time></trkpt>
<trkpt lat="" lon=""><ele></ele><time>2014-5-9T17:32:24Z</time></trkpt>
<trkpt lat="" lon=""><ele></ele><time>2014-5-9T17:32:27Z</time></trkpt>
<trkpt lat="" lon=""><ele></ele><time>2014-5-9T17:32:30Z</time></trkpt>
<trkpt lat="" lon=""><ele></ele><time>2014-5-9T17:32:33Z</time></trkpt>
<trkpt lat="" lon=""><ele></ele><time>2014-5-9T17:32:36Z</time></trkpt>
<trkpt lat="" lon=""><ele></ele><time>2014-5-9T17:32:39Z</time></trkpt>
<trkpt lat="" lon=""><ele></ele><time>2014-5-9T17:32:42Z</time></trkpt>
<trkpt lat="" lon=""><ele></ele><time>2014-5-9T17:32:45Z</time></trkpt>
<trkpt lat="" lon=""><ele></ele><time>2014-5-9T17:32:48Z</time></trkpt>
<trkpt lat="" lon=""><ele></ele><time>2014-5-9T17:32:51Z</time></trkpt>
<trkpt lat="" lon=""><ele></ele><time>2014-5-9T17:32:54Z</time></trkpt>
<trkpt lat="" lon=""><ele></ele><time>2014-5-9T17:32:57Z</time></trkpt>
<trkpt lat="" lon=""><ele></ele><time>2014-5-9T17:33:0Z</time></trkpt>
<trkpt lat="" lon=""><ele></ele><time>2014-5-9T17:33:3Z</time></trkpt>
<trkpt lat="" lon=""><ele></ele><time>2014-5-9T17:33:6Z</time></trkpt>
<trkpt lat="" lon=""><ele></ele><time>2014-5-9T17:33:9Z</time></trkpt>
<trkpt lat="" lon=""><ele></ele><time>2014-5-9T17:33:12Z</time></trkpt>
<trkpt lat="" lon=""><ele></ele><time>2014-5-9T17:33:15Z</time></trkpt>
<trkpt lat="" lon=""><ele></ele><time>2014-5-9T17:33:18Z</time></trkpt>
<trkpt lat="" lon=""><ele></ele><time>2014-5-9T17:33:21Z</time></trkpt>
<trkpt lat="" lon=""><ele></ele><time>2014-5-9T17:33:24Z</time></trkpt>
<trkpt lat="" lon=""><ele></ele><time>2014-5-9T17:33:27Z</time></trkpt>
<trkpt lat="" lon=""><ele></ele><time>2014-5-9T17:33:30Z</time></trkpt>
<trkpt lat="" lon=""><ele></ele><time>2014-5-9T17:33:33Z</time></trkpt>
<trkpt lat="" lon=""><ele></ele><time>2014-5-9T17:33:36Z</time></trkpt>
<trkpt lat="" lon=""><ele></ele><time>2014-5-9T17:33:39Z</time></trkpt>
<trkpt lat="" lon=""><ele></ele><time>2014-5-9T17:33:42Z</time></trkpt>
<trkpt lat="" lon=""><ele></ele><time>2014-5-9T17:33:45Z</time></trkpt>
<trkpt lat="" lon=""><ele></ele><time>2014-5-9T17:33:48Z</time></trkpt>
<trkpt lat="" lon=""><ele></ele><time>2014-5-9T17:33:51Z</time></trkpt>
<trkpt lat="" lon=""><ele></ele><time>2014-5-9T17:33:54Z</time></trkpt>
<trkpt lat="" lon=""><ele></ele><time>2014-5-9T17:33:57Z</time></trkpt>
<trkpt lat="" lon=""><ele></ele><time>2014-5-9T17:34:0Z</time></trkpt>
<trkpt lat="" lon=""><ele></ele><time>2014-5-9T17:34:3Z</time></trkpt>
<trkpt lat="" lon=""><ele></ele><time>2014-5-9T17:34:6Z</time></trkpt>
<trkpt lat="" lon=""><ele></ele><time>2014-5-9T17:34:9Z</time></trkpt>
<trkpt lat="" lon=""><ele></ele><time>2014-5-9T17:34:12Z</time></trkpt>
<trkpt lat="" lon=""><ele></ele><time>2014-5-9T17:34:15Z</time></trkpt>
<trkpt lat="" lon=""><ele></ele><time>2014-5-9T17:34:18Z</time></trkpt>
<trkpt lat="" lon=""><ele></ele><time>2014-5-9T17:34:21Z</time></trkpt>
<trkpt lat="" lon=""><ele></ele><time>2014-5-9T17:34:24Z</time></trkpt>
<trkpt lat="" lon=""><ele></ele><time>2014-5-9T17:34:27Z</time></trkpt>
<trkpt lat="" lon=""><ele></ele><time>2014-5-9T17:34:30Z</time></trkpt>
<trkpt lat="" lon=""><ele></ele><time>2014-5-9T17:34:33Z</time></trkpt>
<trkpt lat="" lon=""><ele></ele><time>2014-5-9T17:34:36Z</time></trkpt>
<trkpt lat="" lon=""><ele></ele><time>2014-5-9T17:34:39Z</time></trkpt>
<trkpt lat="" lon=""><ele></ele><time>2014-5-9T17:34:42Z</time></trkpt>
<trkpt lat="" lon=""><ele></ele><time>2014-5-9T17:34:45Z</time></trkpt>
<trkpt lat="" lon=""><ele></ele><time>2014-5-9T17:34:48Z</time></trkpt>
<trkpt lat="" lon=""><ele></ele><time>2014-5-9T17:34:51Z</time></trkpt>
<trkpt lat="" lon=""><ele></ele><time>2014-5-9T17:34:54Z</time></trkpt>
<trkpt lat="" lon=""><ele></ele><time>2014-5-9T17:34:57Z</time></trkpt>
<trkpt lat="" lon=""><ele></ele><time>2014-5-9T17:35:0Z</time></trkpt>
<trkpt lat="" lon=""><ele></ele><time>2014-5-9T17:35:3Z</time></trkpt>
<trkpt lat="" lon=""><ele></ele><time>2014-5-9T17:35:6Z</time></trkpt>
<trkpt lat="" lon=""><ele></ele><time>2014-5-9T17:35:9Z</time></trkpt>
<trkpt lat="" lon=""><ele></ele><time>2014-5-9T17:35:12Z</time></trkpt>
<trkpt lat="" lon=""><ele></ele><time>2014-5-9T17:35:15Z</time></trkpt>
<trkpt lat="" lon=""><ele></ele><time>2014-5-9T17:35:18Z</time></trkpt>
<trkpt lat="" lon=""><ele></ele><time>2014-5-9T17:35:21Z</time></trkpt>
<trkpt lat="" lon=""><ele></ele><time>2014-5-9T17:35:24Z</time></trkpt>
<trkpt lat="" lon=""><ele></ele><time>2014-5-9T17:35:27Z</time></trkpt>
<trkpt lat="" lon=""><ele></ele><time>2014-5-9T17:35:30Z</time></trkpt>
<trkpt lat="" lon=""><ele></ele><time>2014-5-9T17:35:33Z</time></trkpt>
<trkpt lat="" lon=""><ele></ele><time>2014-5-9T17:35:36Z</time></trkpt>
<trkpt lat="" lon=""><ele></ele><time>2014-5-9T17:35:39Z</time></trkpt>
<trkpt lat="" lon=""><ele></ele><time>2014-5-9T17:35:42Z</time></trkpt>
<trkpt lat="" lon=""><ele></ele><time>2014-5-9T17:35:45Z</time></trkpt>
<trkpt lat="" lon=""><ele></ele><time>2014-5-9T17:35:48Z</time></trkpt>
<trkpt lat="" lon=""><ele></ele><time>2014-5-9T17:35:51Z</time></trkpt>
<trkpt lat="" lon=""><ele></ele><time>2014-5-9T17:35:54Z</time></trkpt>
<trkpt lat="" lon=""><ele></ele><time>2014-5-9T17:35:57Z</time></trkpt>
<trkpt lat="" lon=""><ele></ele><time>2014-5-9T17:36:0Z</time></trkpt>
<trkpt lat="" lon=""><ele></ele><time>2014-5-9T17:36:3Z</time></trkpt>
<trkpt lat="" lon=""><ele></ele><time>2014-5-9T17:36:6Z</time></trkpt>
<trkpt lat="" lon=""><ele></ele><time>2014-5-9T17:36:9Z</time></trkpt>
<trkpt lat="" lon=""><ele></ele><time>2014-5-9T17:36:12Z</time></trkpt>
<trkpt lat="" lon=""><ele></ele><time>2014-5-9T17:36:15Z</time></trkpt>
<trkpt lat="" lon=""><ele></ele><time>2014-5-9T17:36:18Z</time></trkpt>
<trkpt lat="" lon=""><ele></ele><time>2014-5-9T17:36:21Z</time></trkpt>
<trkpt lat="" lon=""><ele></ele><time>2014-5-9T17:36:24Z</time></trkpt>
<trkpt lat="" lon=""><ele></ele><time>2014-5-9T17:36:27Z</time></trkpt>
<trkpt lat="" lon=""><ele></ele><time>2014-5-9T17:36:30Z</time></trkpt>
<trkpt lat="" lon=""><ele></ele><time>2014-5-9T17:36:33Z</time></trkpt>
<trkpt lat="" lon=""><ele></ele><time>2014-5-9T17:36:36Z</time></trkpt>
<trkpt lat="" lon=""><ele></ele><time>2014-5-9T17:36:39Z</time></trkpt>
<trkpt lat="" lon=""><ele></ele><time>2014-5-9T17:36:42Z</time></trkpt>
<trkpt lat="" lon=""><ele></ele><time>2014-5-9T17:36:45Z</time></trkpt>
<trkpt lat="" lon=""><ele></ele><time>2014-5-9T17:36:48Z</time></trkpt>
<trkpt lat="" lon=""><ele></ele><time>2014-5-9T17:36:51Z</time></trkpt>
<trkpt lat="" lon=""><ele></ele><time>2014-5-9T17:36:54Z</time></trkpt>
<trkpt lat="" lon=""><ele></ele><time>2014-5-9T17:36:57Z</time></trkpt>
<trkpt lat="" lon=""><ele></ele><time>2014-5-9T17:37:0Z</time></trkpt>
<trkpt lat="" lon=""><ele></ele><time>2014-5-9T17:37:3Z</time></trkpt>
<trkpt lat="" lon=""><ele></ele><time>2014-5-9T17:37:6Z</time></trkpt>
<trkpt lat="" lon=""><ele></ele><time>2014-5-9T17:37:9Z</time></trkpt>
<trkpt lat="" lon=""><ele></ele><time>2014-5-9T17:37:12Z</time></trkpt>
<trkpt lat="" lon=""><ele></ele><time>2014-5-9T17:37:15Z</time></trkpt>
<trkpt lat="" lon=""><ele></ele><time>2014-5-9T17:37:18Z</time></trkpt>
<trkpt lat="" lon=""><ele></ele><time>2014-5-9T17:37:21Z</time></trkpt>
<trkpt lat="" lon=""><ele></ele><time>2014-5-9T17:37:24Z</time></trkpt>
<trkpt lat="" lon=""><ele></ele><time>2014-5-9T17:37:27Z</time></trkpt>
<trkpt lat="" lon=""><ele></ele><time>2014-5-9T17:37:30Z</time></trkpt>
<trkpt lat="" lon=""><ele></ele><time>2014-5-9T17:37:33Z</time></trkpt>
<trkpt lat="" lon=""><ele></ele><time>2014-5-9T17:37:36Z</time></trkpt>
<trkpt lat="" lon=""><ele></ele><time>2014-5-9T17:37:39Z</time></trkpt>
<trkpt lat="" lon=""><ele></ele><time>2014-5-9T17:37:42Z</time></trkpt>
<trkpt lat="" lon=""><ele></ele><time>2014-5-9T17:37:45Z</time></trkpt>
<trkpt lat="" lon=""><ele></ele><time>2014-5-9T17:37:48Z</time></trkpt>
<trkpt lat="" lon=""><ele></ele><time>2014-5-9T17:37:51Z</time></trkpt>
<trkpt lat="" lon=""><ele></ele><time>2014-5-9T17:37:54Z</time></trkpt>
<trkpt lat="" lon=""><ele></ele><time>2014-5-9T17:37:57Z</time></trkpt>
<trkpt lat="" lon=""><ele></ele><time>2014-5-9T17:38:0Z</time></trkpt>
<trkpt lat="" lon=""><ele></ele><time>2014-5-9T17:38:3Z</time></trkpt>
<trkpt lat="" lon=""><ele></ele><time>2014-5-9T17:38:6Z</time></trkpt>
<trkpt lat="" lon=""><ele></ele><time>2014-5-9T17:38:9Z</time></trkpt>
<trkpt lat="" lon=""><ele></ele><time>2014-5-9T17:38:12Z</time></trkpt>
<trkpt lat="" lon=""><ele></ele><time>2014-5-9T17:38:15Z</time></trkpt>
<trkpt lat="" lon=""><ele></ele><time>2014-5-9T17:38:18Z</time></trkpt>
<trkpt lat="" lon=""><ele></ele><time>2014-5-9T17:38:21Z</time></trkpt>
<trkpt lat="" lon=""><ele></ele><time>2014-5-9T17:38:24Z</time></trkpt>
<trkpt lat="" lon=""><ele></ele><time>2014-5-9T17:38:27Z</time></trkpt>
<trkpt lat="" lon=""><ele></ele><time>2014-5-9T17:38:30Z</time></trkpt>
<trkpt lat="" lon=""><ele></ele><time>2014-5-9T17:38:33Z</time></trkpt>
<trkpt lat="" lon=""><ele></ele><time>2014-5-9T17:38:36Z</time></trkpt>
<trkpt lat="" lon=""><ele></ele><time>2014-5-9T17:38:39Z</time></trkpt>
<trkpt lat="" lon=""><ele></ele><time>2014-5-9T17:38:42Z</time></trkpt>
<trkpt lat="" lon=""><ele></ele><time>2014-5-9T17:38:45Z</time></trkpt>
<trkpt lat="" lon=""><ele></ele><time>2014-5-9T17:38:48Z</time></trkpt>
<trkpt lat="" lon=""><ele></ele><time>2014-5-9T17:38:51Z</time></trkpt>
<trkpt lat="" lon=""><ele></ele><time>2014-5-9T17:38:54Z</time></trkpt>
<trkpt lat="" lon=""><ele></ele><time>2014-5-9T17:38:57Z</time></trkpt>
<trkpt lat="" lon=""><ele></ele><time>2014-5-9T17:39:0Z</time></trkpt>
<trkpt lat="" lon=""><ele></ele><time>2014-5-9T17:39:3Z</time></trkpt>
<trkpt lat="" lon=""><ele></ele><time>2014-5-9T17:39:6Z</time></trkpt>
<trkpt lat="" lon=""><ele></ele><time>2014-5-9T17:39:9Z</time></trkpt>
<trkpt lat="" lon=""><ele></ele><time>2014-5-9T17:39:12Z</time></trkpt>
<trkpt lat="" lon=""><ele></ele><time>2014-5-9T17:39:15Z</time></trkpt>
<trkpt lat="" lon=""><ele></ele><time>2014-5-9T17:39:18Z</time></trkpt>
<trkpt lat="" lon=""><ele></ele><time>2014-5-9T17:39:21Z</time></trkpt>
<trkpt lat="" lon=""><ele></ele><time>2014-5-9T17:39:24Z</time></trkpt>
<trkpt lat="" lon=""><ele></ele><time>2014-5-9T17:39:27Z</time></trkpt>
<trkpt lat="" lon=""><ele></ele><time>2014-5-9T17:39:30Z</time></trkpt>
<trkpt lat="" lon=""><ele></ele><time>2014-5-9T17:39:33Z</time></trkpt>
<trkpt lat="" lon=""><ele></ele><time>2014-5-9T17:39:36Z</time></trkpt>
<trkpt lat="" lon=""><ele></ele><time>2014-5-9T17:39:39Z</time></trkpt>
<trkpt lat="" lon=""><ele></ele><time>2014-5-9T17:39:42Z</time></trkpt>
<trkpt lat="" lon=""><ele></ele><time>2014-5-9T17:39:45Z</time></trkpt>
<trkpt lat="" lon=""><ele></ele><time>2014-5-9T17:39:48Z</time></trkpt>
<trkpt lat="" lon=""><ele></ele><time>2014-5-9T17:39:51Z</time></trkpt>
<trkpt lat="" lon=""><ele></ele><time>2014-5-9T17:39:54Z</time></trkpt>
<trkpt lat="" lon=""><ele></ele><time>2014-5-9T17:39:57Z</time></trkpt>
<trkpt lat="" lon=""><ele></ele><time>2014-5-9T17:40:0Z</time></trkpt>
<trkpt lat="" lon=""><ele></ele><time>2014-5-9T17:40:3Z</time></trkpt>
<trkpt lat="" lon=""><ele></ele><time>2014-5-9T17:40:6Z</time></trkpt>
<trkpt lat="" lon=""><ele></ele><time>2014-5-9T17:40:9Z</time></trkpt>
<trkpt lat="" lon=""><ele></ele><time>2014-5-9T17:40:12Z</time></trkpt>
<trkpt lat="" lon=""><ele></ele><time>2014-5-9T17:40:15Z</time></trkpt>
<trkpt lat="" lon=""><ele></ele><time>2014-5-9T17:40:18Z</time></trkpt>
<trkpt lat="" lon=""><ele></ele><time>2014-5-9T17:40:21Z</time></trkpt>
<trkpt lat="" lon=""><ele></ele><time>2014-5-9T17:40:24Z</time></trkpt>
<trkpt lat="" lon=""><ele></ele><time>2014-5-9T17:40:27Z</time></trkpt>
<trkpt lat="" lon=""><ele></ele><time>2014-5-9T17:40:30Z</time></trkpt>
<trkpt lat="" lon=""><ele></ele><time>2014-5-9T17:40:33Z</time></trkpt>
<trkpt lat="" lon=""><ele></ele><time>2014-5-9T17:40:36Z</time></trkpt>
<trkpt lat="" lon=""><ele></ele><time>2014-5-9T17:40:39Z</time></trkpt>
<trkpt lat="" lon=""><ele></ele><time>2014-5-9T17:40:42Z</time></trkpt>
<trkpt lat="" lon=""><ele></ele><time>2014-5-9T17:40:45Z</time></trkpt>
<trkpt lat="" lon=""><ele></ele><time>2014-5-9T17:40:48Z</time></trkpt>
<trkpt lat="" lon=""><ele></ele><time>2014-5-9T17:40:51Z</time></trkpt>
<trkpt lat="" lon=""><ele></ele><time>2014-5-9T17:40:54Z</time></trkpt>
<trkpt lat="" lon=""><ele></ele><time>2014-5-9T17:40:57Z</time></trkpt>
<trkpt lat="" lon=""><ele></ele><time>2014-5-9T17:41:0Z</time></trkpt>
<trkpt lat="" lon=""><ele></ele><time>2014-5-9T17:41:3Z</time></trkpt>
<trkpt lat="" lon=""><ele></ele><time>2014-5-9T17:41:6Z</time></trkpt>
<trkpt lat="" lon=""><ele></ele><time>2014-5-9T17:41:9Z</time></trkpt>
<trkpt lat="" lon=""><ele></ele><time>2014-5-9T17:41:12Z</time></trkpt>
<trkpt lat="" lon=""><ele></ele><time>2014-5-9T17:41:15Z</time></trkpt>
<trkpt lat="" lon=""><ele></ele><time>2014-5-9T17:41:18Z</time></trkpt>
<trkpt lat="" lon=""><ele></ele><time>2014-5-9T17:41:21Z</time></trkpt>
<trkpt lat="" lon=""><ele></ele><time>2014-5-9T17:41:24Z</time></trkpt>
<trkpt lat="" lon=""><ele></ele><time>2014-5-9T17:41:27Z</time></trkpt>
<trkpt lat="" lon=""><ele></ele><time>2014-5-9T17:41:30Z</time></trkpt>
<trkpt lat="" lon=""><ele></ele><time>2014-5-9T17:41:33Z</time></trkpt>
<trkpt lat="" lon=""><ele></ele><time>2014-5-9T17:41:36Z</time></trkpt>
<trkpt lat="" lon=""><ele></ele><time>2014-5-9T17:41:39Z</time></trkpt>
<trkpt lat="" lon=""><ele></ele><time>2014-5-9T17:41:42Z</time></trkpt>
<trkpt lat="" lon=""><ele></ele><time>2014-5-9T17:41:45Z</time></trkpt>
<trkpt lat="" lon=""><ele></ele><time>2014-5-9T17:41:48Z</time></trkpt>
<trkpt lat="" lon=""><ele></ele><time>2014-5-9T17:41:51Z</time></trkpt>
<trkpt lat="" lon=""><ele></ele><time>2014-5-9T17:41:54Z</time></trkpt>
<trkpt lat="" lon=""><ele></ele><time>2014-5-9T17:41:57Z</time></trkpt>
<trkpt lat="" lon=""><ele></ele><time>2014-5-9T17:42:0Z</time></trkpt>
<trkpt lat="" lon=""><ele></ele><time>2014-5-9T17:42:3Z</time></trkpt>
<trkpt lat="" lon=""><ele></ele><time>2014-5-9T17:42:6Z</time></trkpt>
<trkpt lat="" lon=""><ele></ele><time>2014-5-9T17:42:9Z</time></trkpt>
<trkpt lat="" lon=""><ele></ele><time>2014-5-9T17:42:12Z</time></trkpt>
<trkpt lat="" lon=""><ele></ele><time>2014-5-9T17:42:15Z</time></trkpt>
<trkpt lat="" lon=""><ele></ele><time>2014-5-9T17:42:18Z</time></trkpt>
<trkpt lat="" lon=""><ele></ele><time>2014-5-9T17:42:21Z</time></trkpt>
<trkpt lat="" lon=""><ele></ele><time>2014-5-9T17:42:24Z</time></trkpt>
<trkpt lat="" lon=""><ele></ele><time>2014-5-9T17:42:27Z</time></trkpt>
<trkpt lat="" lon=""><ele></ele><time>2014-5-9T17:42:30Z</time></trkpt>
<trkpt lat="" lon=""><ele></ele><time>2014-5-9T17:42:33Z</time></trkpt>
<trkpt lat="" lon=""><ele></ele><time>2014-5-9T17:42:36Z</time></trkpt>
<trkpt lat="" lon=""><ele></ele><time>2014-5-9T17:42:39Z</time></trkpt>
<trkpt lat="" lon=""><ele></ele><time>2014-5-9T17:42:42Z</time></trkpt>
<trkpt lat="" lon=""><ele></ele><time>2014-5-9T17:42:45Z</time></trkpt>
<trkpt lat="" lon=""><ele></ele><time>2014-5-9T17:42:48Z</time></trkpt>
<trkpt lat="" lon=""><ele></ele><time>2014-5-9T17:42:51Z</time></trkpt>
<trkpt lat="" lon=""><ele></ele><time>2014-5-9T17:42:54Z</time></trkpt>
<trkpt lat="" lon=""><ele></ele><time>2014-5-9T17:42:57Z</time></trkpt>
<trkpt lat="" lon=""><ele></ele><time>2014-5-9T17:43:0Z</time></trkpt>
<trkpt lat="" lon=""><ele></ele><time>2014-5-9T17:43:3Z</time></trkpt>
<trkpt lat="" lon=""><ele></ele><time>2014-5-9T17:43:6Z</time></trkpt>
<trkpt lat="" lon=""><ele></ele><time>2014-5-9T17:43:9Z</time></trkpt>
<trkpt lat="" lon=""><ele></ele><time>2014-5-9T17:43:12Z</time></trkpt>
<trkpt lat="" lon=""><ele></ele><time>2014-5-9T17:43:15Z</time></trkpt>
<trkpt lat="" lon=""><ele></ele><time>2014-5-9T17:43:18Z</time></trkpt>
<trkpt lat="" lon=""><ele></ele><time>2014-5-9T17:43:21Z</time></trkpt>
<trkpt lat="" lon=""><ele></ele><time>2014-5-9T17:43:24Z</time></trkpt>
<trkpt lat="" lon=""><ele></ele><time>2014-5-9T17:43:27Z</time></trkpt>
<trkpt lat="" lon=""><ele></ele><time>2014-5-9T17:43:30Z</time></trkpt>
<trkpt lat="" lon=""><ele></ele><time>2014-5-9T17:43:33Z</time></trkpt>
<trkpt lat="" lon=""><ele></ele><time>2014-5-9T17:43:36Z</time></trkpt>
<trkpt lat="" lon=""><ele></ele><time>2014-5-9T17:43:39Z</time></trkpt>
<trkpt lat="" lon=""><ele></ele><time>2014-5-9T17:43:42Z</time></trkpt>
<trkpt lat="" lon=""><ele></ele><time>2014-5-9T17:43:45Z</time></trkpt>
<trkpt lat="" lon=""><ele></ele><time>2014-5-9T17:43:48Z</time></trkpt>
<trkpt lat="" lon=""><ele></ele><time>2014-5-9T17:43:51Z</time></trkpt>
<trkpt lat="" lon=""><ele></ele><time>2014-5-9T17:43:54Z</time></trkpt>
<trkpt lat="" lon=""><ele></ele><time>2014-5-9T17:43:57Z</time></trkpt>
<trkpt lat="" lon=""><ele></ele><time>2014-5-9T17:44:0Z</time></trkpt>
<trkpt lat="" lon=""><ele></ele><time>2014-5-9T17:44:3Z</time></trkpt>
<trkpt lat="" lon=""><ele></ele><time>2014-5-9T17:44:6Z</time></trkpt>
<trkpt lat="" lon=""><ele></ele><time>2014-5-9T17:44:9Z</time></trkpt>
<trkpt lat="" lon=""><ele></ele><time>2014-5-9T17:44:12Z</time></trkpt>
<trkpt lat="" lon=""><ele></ele><time>2014-5-9T17:44:15Z</time></trkpt>
<trkpt lat="" lon=""><ele></ele><time>2014-5-9T17:44:18Z</time></trkpt>
<trkpt lat="" lon=""><ele></ele><time>2014-5-9T17:44:21Z</time></trkpt>
<trkpt lat="" lon=""><ele></ele><time>2014-5-9T17:44:24Z</time></trkpt>
<trkpt lat="" lon=""><ele></ele><time>2014-5-9T17:44:27Z</time></trkpt>
<trkpt lat="" lon=""><ele></ele><time>2014-5-9T17:44:30Z</time></trkpt>
<trkpt lat="" lon=""><ele></ele><time>2014-5-9T17:44:33Z</time></trkpt>
<trkpt lat="" lon=""><ele></ele><time>2014-5-9T17:44:36Z</time></trkpt>
<trkpt lat="" lon=""><ele></ele><time>2014-5-9T17:44:39Z</time></trkpt>
<trkpt lat="" lon=""><ele></ele><time>2014-5-9T17:44:42Z</time></trkpt>
<trkpt lat="" lon=""><ele></ele><time>2014-5-9T17:44:45Z</time></trkpt>
<trkpt lat="" lon=""><ele></ele><time>2014-5-9T17:44:48Z</time></trkpt>
<trkpt lat="" lon=""><ele></ele><time>2014-5-9T17:44:51Z</time></trkpt>
<trkpt lat="" lon=""><ele></ele><time>2014-5-9T17:44:54Z</time></trkpt>
<trkpt lat="" lon=""><ele></ele><time>2014-5-9T17:44:57Z</time></trkpt>
<trkpt lat="" lon=""><ele></ele><time>2014-5-9T17:45:0Z</time></trkpt>
<trkpt lat="" lon=""><ele></ele><time>2014-5-9T17:45:3Z</time></trkpt>
<trkpt lat="" lon=""><ele></ele><time>2014-5-9T17:45:6Z</time></trkpt>
<trkpt lat="" lon=""><ele></ele><time>2014-5-9T17:45:9Z</time></trkpt>
<trkpt lat="" lon=""><ele></ele><time>2014-5-9T17:45:12Z</time></trkpt>
<trkpt lat="" lon=""><ele></ele><time>2014-5-9T17:45:15Z</time></trkpt>
<trkpt lat="" lon=""><ele></ele><time>2014-5-9T17:45:18Z</time></trkpt>
<trkpt lat="" lon=""><ele></ele><time>2014-5-9T17:45:21Z</time></trkpt>
<trkpt lat="" lon=""><ele></ele><time>2014-5-9T17:45:24Z</time></trkpt>
<trkpt lat="" lon=""><ele></ele><time>2014-5-9T17:45:27Z</time></trkpt>
<trkpt lat="" lon=""><ele></ele><time>2014-5-9T17:45:30Z</time></trkpt>
<trkpt lat="" lon=""><ele></ele><time>2014-5-9T17:45:33Z</time></trkpt>
<trkpt lat="" lon=""><ele></ele><time>2014-5-9T17:45:36Z</time></trkpt>
<trkpt lat="" lon=""><ele></ele><time>2014-5-9T17:45:39Z</time></trkpt>
<trkpt lat="" lon=""><ele></ele><time>2014-5-9T17:45:42Z</time></trkpt>
<trkpt lat="" lon=""><ele></ele><time>2014-5-9T17:45:45Z</time></trkpt>
<trkpt lat="" lon=""><ele></ele><time>2014-5-9T17:45:48Z</time></trkpt>
<trkpt lat="" lon=""><ele></ele><time>2014-5-9T17:45:51Z</time></trkpt>
<trkpt lat="" lon=""><ele></ele><time>2014-5-9T17:45:54Z</time></trkpt>
<trkpt lat="" lon=""><ele></ele><time>2014-5-9T17:45:57Z</time></trkpt>
<trkpt lat="" lon=""><ele></ele><time>2014-5-9T17:46:0Z</time></trkpt>
<trkpt lat="" lon=""><ele></ele><time>2014-5-9T17:46:3Z</time></trkpt>
<trkpt lat="" lon=""><ele></ele><time>2014-5-9T17:46:6Z</time></trkpt>
<trkpt lat="" lon=""><ele></ele><time>2014-5-9T17:46:9Z</time></trkpt>
<trkpt lat="" lon=""><ele></ele><time>2014-5-9T17:46:12Z</time></trkpt>
<trkpt lat="" lon=""><ele></ele><time>2014-5-9T17:46:15Z</time></trkpt>
<trkpt lat="" lon=""><ele></ele><time>2014-5-9T17:46:18Z</time></trkpt>
<trkpt lat="" lon=""><ele></ele><time>2014-5-9T17:46:21Z</time></trkpt>
<trkpt lat="" lon=""><ele></ele><time>2014-5-9T17:46:24Z</time></trkpt>
<trkpt lat="" lon=""><ele></ele><time>2014-5-9T17:46:27Z</time></trkpt>
<trkpt lat="" lon=""><ele></ele><time>2014-5-9T17:46:30Z</time></trkpt>
<trkpt lat="" lon=""><ele></ele><time>2014-5-9T17:46:33Z</time></trkpt>
<trkpt lat="" lon=""><ele></ele><time>2014-5-9T17:46:36Z</time></trkpt>
<trkpt lat="" lon=""><ele></ele><time>2014-5-9T17:46:39Z</time></trkpt>
<trkpt lat="" lon=""><ele></ele><time>2014-5-9T17:46:42Z</time></trkpt>
<trkpt lat="" lon=""><ele></ele><time>2014-5-9T17:46:45Z</time></trkpt>
<trkpt lat="" lon=""><ele></ele><time>2014-5-9T17:46:48Z</time></trkpt>
<trkpt lat="" lon=""><ele></ele><time>2014-5-9T17:46:51Z</time></trkpt>
<trkpt lat="" lon=""><ele></ele><time>2014-5-9T17:46:54Z</time></trkpt>
<trkpt lat="" lon=""><ele></ele><time>2014-5-9T17:46:57Z</time></trkpt>
<trkpt lat="" lon=""><ele></ele><time>2014-5-9T17:47:0Z</time></trkpt>
<trkpt lat="" lon=""><ele></ele><time>2014-5-9T17:47:3Z</time></trkpt>
<trkpt lat="" lon=""><ele></ele><time>2014-5-9T17:47:6Z</time></trkpt>
<trkpt lat="" lon=""><ele></ele><time>2014-5-9T17:47:9Z</time></trkpt>
<trkpt lat="" lon=""><ele></ele><time>2014-5-9T17:47:12Z</time></trkpt>
<trkpt lat="" lon=""><ele></ele><time>2014-5-9T17:47:15Z</time></trkpt>
<trkpt lat="" lon=""><ele></ele><time>2014-5-9T17:47:18Z</time></trkpt>
<trkpt lat="" lon=""><ele></ele><time>2014-5-9T17:47:21Z</time></trkpt>
<trkpt lat="" lon=""><ele></ele><time>2014-5-9T17:47:24Z</time></trkpt>
<trkpt lat="" lon=""><ele></ele><time>2014-5-9T17:47:27Z</time></trkpt>
<trkpt lat="" lon=""><ele></ele><time>2014-5-9T17:47:30Z</time></trkpt>
<trkpt lat="" lon=""><ele></ele><time>2014-5-9T17:47:33Z</time></trkpt>
<trkpt lat="" lon=""><ele></ele><time>2014-5-9T17:47:36Z</time></trkpt>
<trkpt lat="" lon=""><ele></ele><time>2014-5-9T17:47:39Z</time></trkpt>
<trkpt lat="" lon=""><ele></ele><time>2014-5-9T17:47:42Z</time></trkpt>
<trkpt lat="" lon=""><ele></ele><time>2014-5-9T17:47:45Z</time></trkpt>
<trkpt lat="" lon=""><ele></ele><time>2014-5-9T17:47:48Z</time></trkpt>
<trkpt lat="" lon=""><ele></ele><time>2014-5-9T17:47:51Z</time></trkpt>
<trkpt lat="" lon=""><ele></ele><time>2014-5-9T17:47:54Z</time></trkpt>
<trkpt lat="" lon=""><ele></ele><time>2014-5-9T17:47:57Z</time></trkpt>
<trkpt lat="" lon=""><ele></ele><time>2014-5-9T17:48:0Z</time></trkpt>
<trkpt lat="" lon=""><ele></ele><time>2014-5-9T17:48:3Z</time></trkpt>
<trkpt lat="" lon=""><ele></ele><time>2014-5-9T17:48:6Z</time></trkpt>
<trkpt lat="0.307532" lon="0"><ele></ele><time>2014-5-9T17:48:9Z</time></trkpt>
<trkpt lat="0.289211" lon="0"><ele></ele><time>2014-5-9T17:48:12Z</time></trkpt>
<trkpt lat="0.288988" lon="0"><ele></ele><time>2014-5-9T17:48:15Z</time></trkpt>
<trkpt lat="0.288970" lon="0"><ele></ele><time>2014-5-9T17:48:18Z</time></trkpt>
<trkpt lat="0.288825" lon="0"><ele></ele><time>2014-5-9T17:48:21Z</time></trkpt>
<trkpt lat="0.288599" lon="0"><ele></ele><time>2014-5-9T17:48:24Z</time></trkpt>
<trkpt lat="0.288311" lon="0"><ele></ele><time>2014-5-9T17:48:27Z</time></trkpt>
<trkpt lat="0.287764" lon="0"><ele></ele><time>2014-5-9T17:48:30Z</time></trkpt>
<trkpt lat="0.287141" lon="0"><ele></ele><time>2014-5-9T17:48:33Z</time></trkpt>
<trkpt lat="0.286383" lon="0"><ele></ele><time>2014-5-9T17:48:36Z</time></trkpt>
<trkpt lat="0.285024" lon="0"><ele></ele><time>2014-5-9T17:48:39Z</time></trkpt>
<trkpt lat="0.284222" lon="0"><ele></ele><time>2014-5-9T17:48:42Z</time></trkpt>
<trkpt lat="0.283710" lon="0"><ele></ele><time>2014-5-9T17:48:45Z</time></trkpt>
<trkpt lat="0.282728" lon="0"><ele></ele><time>2014-5-9T17:48:48Z</time></trkpt>
<trkpt lat="0.281945" lon="0"><ele></ele><time>2014-5-9T17:48:51Z</time></trkpt>
<trkpt lat="0.281469" lon="0"><ele></ele><time>2014-5-9T17:48:54Z</time></trkpt>
<trkpt lat="0.280765" lon="0"><ele></ele><time>2014-5-9T17:48:57Z</time></trkpt>
<trkpt lat="0.280072" lon="0"><ele></ele><time>2014-5-9T17:49:0Z</time></trkpt>
<trkpt lat="0.279069" lon="0"><ele></ele><time>2014-5-9T17:49:3Z</time></trkpt>
<trkpt lat="0.278612" lon="0"><ele></ele><time>2014-5-9T17:49:6Z</time></trkpt>
<trkpt lat="0.278219" lon="0"><ele></ele><time>2014-5-9T17:49:9Z</time></trkpt>
<trkpt lat="0.277047" lon="0"><ele></ele><time>2014-5-9T17:49:12Z</time></trkpt>
<trkpt lat="0.275938" lon="0"><ele></ele><time>2014-5-9T17:49:15Z</time></trkpt>
<trkpt lat="0.275329" lon="0"><ele></ele><time>2014-5-9T17:49:18Z</time></trkpt>
<trkpt lat="0.275160" lon="0"><ele></ele><time>2014-5-9T17:49:21Z</time></trkpt>
<trkpt lat="0.275072" lon="0"><ele></ele><time>2014-5-9T17:49:24Z</time></trkpt>
<trkpt lat="0.274960" lon="0"><ele></ele><time>2014-5-9T17:49:27Z</time></trkpt>
<trkpt lat="0.274401" lon="0"><ele></ele><time>2014-5-9T17:49:30Z</time></trkpt>
<trkpt lat="0.270686" lon="0"><ele></ele><time>2014-5-9T17:49:33Z</time></trkpt>
<trkpt lat="0.269123" lon="0"><ele></ele><time>2014-5-9T17:49:36Z</time></trkpt>
<trkpt lat="0.267163" lon="0"><ele></ele><time>2014-5-9T17:49:39Z</time></trkpt>
<trkpt lat="0.266480" lon="0"><ele></ele><time>2014-5-9T17:49:42Z</time></trkpt>
<trkpt lat="0.265950" lon="0"><ele></ele><time>2014-5-9T17:49:45Z</time></trkpt>
<trkpt lat="0.265475" lon="0"><ele></ele><time>2014-5-9T17:49:48Z</time></trkpt>
<trkpt lat="0.265152" lon="0"><ele></ele><time>2014-5-9T17:49:51Z</time></trkpt>
<trkpt lat="0.265580" lon="0"><ele></ele><time>2014-5-9T17:49:54Z</time></trkpt>
<trkpt lat="0.266043" lon="0"><ele></ele><time>2014-5-9T17:49:57Z</time></trkpt>
<trkpt lat="0.266723" lon="0"><ele></ele><time>2014-5-9T17:50:0Z</time></trkpt>
<trkpt lat="0.267247" lon="0"><ele></ele><time>2014-5-9T17:50:3Z</time></trkpt>
<trkpt lat="0.267348" lon="0"><ele></ele><time>2014-5-9T17:50:6Z</time></trkpt>
<trkpt lat="0.267068" lon="0"><ele></ele><time>2014-5-9T17:50:9Z</time></trkpt>
<trkpt lat="0.266770" lon="0"><ele></ele><time>2014-5-9T17:50:12Z</time></trkpt>
<trkpt lat="0.266757" lon="0"><ele></ele><time>2014-5-9T17:50:15Z</time></trkpt>
<trkpt lat="0.267323" lon="0"><ele></ele><time>2014-5-9T17:50:18Z</time></trkpt>
<trkpt lat="0.267900" lon="0"><ele></ele><time>2014-5-9T17:50:21Z</time></trkpt>
<trkpt lat="0.268614" lon="0"><ele></ele><time>2014-5-9T17:50:24Z</time></trkpt>
<trkpt lat="0.268923" lon="0"><ele></ele><time>2014-5-9T17:50:27Z</time></trkpt>
<trkpt lat="0.269324" lon="0"><ele></ele><time>2014-5-9T17:50:30Z</time></trkpt>
<trkpt lat="0.269778" lon="0"><ele></ele><time>2014-5-9T17:50:33Z</time></trkpt>
<trkpt lat="0.270209" lon="0"><ele></ele><time>2014-5-9T17:50:36Z</time></trkpt>
<trkpt lat="0.270473" lon="0"><ele></ele><time>2014-5-9T17:50:39Z</time></trkpt>
<trkpt lat="0.270493" lon="0"><ele></ele><time>2014-5-9T17:50:42Z</time></trkpt>
<trkpt lat="0.270532" lon="0"><ele></ele><time>2014-5-9T17:50:45Z</time></trkpt>
<trkpt lat="0.270584" lon="0"><ele></ele><time>2014-5-9T17:50:48Z</time></trkpt>
<trkpt lat="0.270924" lon="0"><ele></ele><time>2014-5-9T17:50:51Z</time></trkpt>
<trkpt lat="0.271266" lon="0"><ele></ele><time>2014-5-9T17:50:54Z</time></trkpt>
<trkpt lat="0.271295" lon="0"><ele></ele><time>2014-5-9T17:50:57Z</time></trkpt>
<trkpt lat="0.271105" lon="0"><ele></ele><time>2014-5-9T17:51:0Z</time></trkpt>
<trkpt lat="0.271091" lon="0"><ele></ele><time>2014-5-9T17:51:3Z</time></trkpt>
<trkpt lat="0.271125" lon="0"><ele></ele><time>2014-5-9T17:51:6Z</time></trkpt>
<trkpt lat="0.270720" lon="0"><ele></ele><time>2014-5-9T17:51:9Z</time></trkpt>
<trkpt lat="0.270460" lon="0"><ele></ele><time>2014-5-9T17:51:12Z</time></trkpt>
<trkpt lat="0.270302" lon="0"><ele></ele><time>2014-5-9T17:51:15Z</time></trkpt>
<trkpt lat="0.270243" lon="0"><ele></ele><time>2014-5-9T17:51:18Z</time></trkpt>
<trkpt lat="0.269830" lon="0"><ele></ele><time>2014-5-9T17:51:21Z</time></trkpt>
<trkpt lat="0.269596" lon="0"><ele></ele><time>2014-5-9T17:51:24Z</time></trkpt>
<trkpt lat="0.269657" lon="0"><ele></ele><time>2014-5-9T17:51:27Z</time></trkpt>
<trkpt lat="0.269697" lon="0"><ele></ele><time>2014-5-9T17:51:30Z</time></trkpt>
<trkpt lat="0.269377" lon="0"><ele></ele><time>2014-5-9T17:51:33Z</time></trkpt>
<trkpt lat="0.268506" lon="0"><ele></ele><time>2014-5-9T17:51:36Z</time></trkpt>
<trkpt lat="0.268368" lon="0"><ele></ele><time>2014-5-9T17:51:39Z</time></trkpt>
<trkpt lat="0.267917" lon="0"><ele></ele><time>2014-5-9T17:51:42Z</time></trkpt>
<trkpt lat="0.268174" lon="0"><ele></ele><time>2014-5-9T17:51:45Z</time></trkpt>
<trkpt lat="0.268243" lon="0"><ele></ele><time>2014-5-9T17:51:48Z</time></trkpt>
<trkpt lat="0.268236" lon="0"><ele></ele><time>2014-5-9T17:51:51Z</time></trkpt>
<trkpt lat="0.267763" lon="0"><ele></ele><time>2014-5-9T17:51:54Z</time></trkpt>
<trkpt lat="0.267723" lon="0"><ele></ele><time>2014-5-9T17:51:57Z</time></trkpt>
<trkpt lat="0.268000" lon="0"><ele></ele><time>2014-5-9T17:52:0Z</time></trkpt>
<trkpt lat="0.268482" lon="0"><ele></ele><time>2014-5-9T17:52:3Z</time></trkpt>
<trkpt lat="0.268966" lon="0"><ele></ele><time>2014-5-9T17:52:6Z</time></trkpt>
<trkpt lat="0.269054" lon="0"><ele></ele><time>2014-5-9T17:52:9Z</time></trkpt>
<trkpt lat="0.268491" lon="0"><ele></ele><time>2014-5-9T17:52:12Z</time></trkpt>
<trkpt lat="0.268221" lon="0"><ele></ele><time>2014-5-9T17:52:15Z</time></trkpt>
<trkpt lat="0.268115" lon="0"><ele></ele><time>2014-5-9T17:52:18Z</time></trkpt>
<trkpt lat="0.268338" lon="0"><ele></ele><time>2014-5-9T17:52:21Z</time></trkpt>
<trkpt lat="0.268732" lon="0"><ele></ele><time>2014-5-9T17:52:24Z</time></trkpt>
<trkpt lat="0.268775" lon="0"><ele></ele><time>2014-5-9T17:52:27Z</time></trkpt>
<trkpt lat="0.269080" lon="0"><ele></ele><time>2014-5-9T17:52:30Z</time></trkpt>
<trkpt lat="0.269008" lon="0"><ele></ele><time>2014-5-9T17:52:33Z</time></trkpt>
<trkpt lat="0.269586" lon="0"><ele></ele><time>2014-5-9T17:52:36Z</time></trkpt>
<trkpt lat="0.269899" lon="0"><ele></ele><time>2014-5-9T17:52:39Z</time></trkpt>
<trkpt lat="0.270379" lon="0"><ele></ele><time>2014-5-9T17:52:42Z</time></trkpt>
<trkpt lat="0.270904" lon="0"><ele></ele><time>2014-5-9T17:52:45Z</time></trkpt>
<trkpt lat="0.271065" lon="0"><ele></ele><time>2014-5-9T17:52:48Z</time></trkpt>
<trkpt lat="0.270925" lon="0"><ele></ele><time>2014-5-9T17:52:51Z</time></trkpt>
<trkpt lat="0.270399" lon="0"><ele></ele><time>2014-5-9T17:52:54Z</time></trkpt>
<trkpt lat="0.269944" lon="0"><ele></ele><time>2014-5-9T17:52:57Z</time></trkpt>
<trkpt lat="0.269607" lon="0"><ele></ele><time>2014-5-9T17:53:0Z</time></trkpt>
<trkpt lat="0.269104" lon="0"><ele></ele><time>2014-5-9T17:53:3Z</time></trkpt>
<trkpt lat="0.269226" lon="0"><ele></ele><time>2014-5-9T17:53:6Z</time></trkpt>
<trkpt lat="0.268872" lon="0"><ele></ele><time>2014-5-9T17:53:9Z</time></trkpt>
<trkpt lat="0.268805" lon="0"><ele></ele><time>2014-5-9T17:53:12Z</time></trkpt>
<trkpt lat="0.268457" lon="0"><ele></ele><time>2014-5-9T17:53:15Z</time></trkpt>
<trkpt lat="0.268214" lon="0"><ele></ele><time>2014-5-9T17:53:18Z</time></trkpt>
<trkpt lat="0.268315" lon="0"><ele></ele><time>2014-5-9T17:53:21Z</time></trkpt>
<trkpt lat="0.269100" lon="0"><ele></ele><time>2014-5-9T17:53:24Z</time></trkpt>
<trkpt lat="0.268808" lon="0"><ele></ele><time>2014-5-9T17:53:27Z</time></trkpt>
<trkpt lat="0.268501" lon="0"><ele></ele><time>2014-5-9T17:53:30Z</time></trkpt>
<trkpt lat="0.268068" lon="0"><ele></ele><time>2014-5-9T17:53:33Z</time></trkpt>
<trkpt lat="0.267870" lon="0"><ele></ele><time>2014-5-9T17:53:36Z</time></trkpt>
<trkpt lat="0.267529" lon="0"><ele></ele><time>2014-5-9T17:53:39Z</time></trkpt>
<trkpt lat="0.267720" lon="0"><ele></ele><time>2014-5-9T17:53:42Z</time></trkpt>
<trkpt lat="0.267830" lon="0"><ele></ele><time>2014-5-9T17:53:45Z</time></trkpt>
<trkpt lat="0.267486" lon="0"><ele></ele><time>2014-5-9T17:53:48Z</time></trkpt>
<trkpt lat="0.267061" lon="0"><ele></ele><time>2014-5-9T17:53:51Z</time></trkpt>
<trkpt lat="0.266807" lon="0"><ele></ele><time>2014-5-9T17:53:54Z</time></trkpt>
<trkpt lat="0.266896" lon="0"><ele></ele><time>2014-5-9T17:53:57Z</time></trkpt>
<trkpt lat="0.267162" lon="0"><ele></ele><time>2014-5-9T17:54:0Z</time></trkpt>
<trkpt lat="0.267202" lon="0"><ele></ele><time>2014-5-9T17:54:3Z</time></trkpt>
<trkpt lat="0.267365" lon="0"><ele></ele><time>2014-5-9T17:54:6Z</time></trkpt>
<trkpt lat="0.267691" lon="0"><ele></ele><time>2014-5-9T17:54:9Z</time></trkpt>
<trkpt lat="0.268002" lon="0"><ele></ele><time>2014-5-9T17:54:12Z</time></trkpt>
<trkpt lat="0.267909" lon="0"><ele></ele><time>2014-5-9T17:54:15Z</time></trkpt>
<trkpt lat="0.267876" lon="0"><ele></ele><time>2014-5-9T17:54:18Z</time></trkpt>
<trkpt lat="0.268365" lon="0"><ele></ele><time>2014-5-9T17:54:21Z</time></trkpt>
<trkpt lat="0.268700" lon="0"><ele></ele><time>2014-5-9T17:54:24Z</time></trkpt>
<trkpt lat="0.269151" lon="0"><ele></ele><time>2014-5-9T17:54:27Z</time></trkpt>
<trkpt lat="0.269444" lon="0"><ele></ele><time>2014-5-9T17:54:30Z</time></trkpt>
<trkpt lat="0.269428" lon="0"><ele></ele><time>2014-5-9T17:54:33Z</time></trkpt>
<trkpt lat="0.269331" lon="0"><ele></ele><time>2014-5-9T17:54:36Z</time></trkpt>
<trkpt lat="0.269270" lon="0"><ele></ele><time>2014-5-9T17:54:39Z</time></trkpt>
<trkpt lat="0.269226" lon="0"><ele></ele><time>2014-5-9T17:54:42Z</time></trkpt>
<trkpt lat="0.269021" lon="0"><ele></ele><time>2014-5-9T17:54:45Z</time></trkpt>
<trkpt lat="0.268397" lon="0"><ele></ele><time>2014-5-9T17:54:48Z</time></trkpt>
<trkpt lat="0.267976" lon="0"><ele></ele><time>2014-5-9T17:54:51Z</time></trkpt>
<trkpt lat="0.267825" lon="0"><ele></ele><time>2014-5-9T17:54:54Z</time></trkpt>
<trkpt lat="0.267592" lon="0"><ele></ele><time>2014-5-9T17:54:57Z</time></trkpt>
<trkpt lat="0.267390" lon="0"><ele></ele><time>2014-5-9T17:55:0Z</time></trkpt>
<trkpt lat="0.266931" lon="0"><ele></ele><time>2014-5-9T17:55:3Z</time></trkpt>
<trkpt lat="0.266771" lon="0"><ele></ele><time>2014-5-9T17:55:6Z</time></trkpt>
<trkpt lat="0.266249" lon="0"><ele></ele><time>2014-5-9T17:55:9Z</time></trkpt>
<trkpt lat="0.265874" lon="0"><ele></ele><time>2014-5-9T17:55:12Z</time></trkpt>
<trkpt lat="0.265556" lon="0"><ele></ele><time>2014-5-9T17:55:15Z</time></trkpt>
<trkpt lat="0.265228" lon="0"><ele></ele><time>2014-5-9T17:55:18Z</time></trkpt>
<trkpt lat="0.264615" lon="0"><ele></ele><time>2014-5-9T17:55:21Z</time></trkpt>
<trkpt lat="0.264244" lon="0"><ele></ele><time>2014-5-9T17:55:24Z</time></trkpt>
<trkpt lat="0.263769" lon="0"><ele></ele><time>2014-5-9T17:55:27Z</time></trkpt>
<trkpt lat="0.263490" lon="0"><ele></ele><time>2014-5-9T17:55:30Z</time></trkpt>
<trkpt lat="0.263371" lon="0"><ele></ele><time>2014-5-9T17:55:33Z</time></trkpt>
<trkpt lat="0.263493" lon="0"><ele></ele><time>2014-5-9T17:55:36Z</time></trkpt>
<trkpt lat="0.263344" lon="0"><ele></ele><time>2014-5-9T17:55:39Z</time></trkpt>
<trkpt lat="0.263084" lon="0"><ele></ele><time>2014-5-9T17:55:42Z</time></trkpt>
<trkpt lat="0.262843" lon="0"><ele></ele><time>2014-5-9T17:55:45Z</time></trkpt>
<trkpt lat="0.262807" lon="0"><ele></ele><time>2014-5-9T17:55:48Z</time></trkpt>
<trkpt lat="0.263008" lon="0"><ele></ele><time>2014-5-9T17:55:51Z</time></trkpt>
<trkpt lat="0.262950" lon="0"><ele></ele><time>2014-5-9T17:55:54Z</time></trkpt>
<trkpt lat="0.262962" lon="0"><ele></ele><time>2014-5-9T17:55:57Z</time></trkpt>
<trkpt lat="0.262705" lon="0"><ele></ele><time>2014-5-9T17:56:0Z</time></trkpt>
<trkpt lat="0.262496" lon="0"><ele></ele><time>2014-5-9T17:56:3Z</time></trkpt>
<trkpt lat="0.262608" lon="0"><ele></ele><time>2014-5-9T17:56:6Z</time></trkpt>
<trkpt lat="0.263139" lon="0"><ele></ele><time>2014-5-9T17:56:9Z</time></trkpt>
<trkpt lat="0.263293" lon="0"><ele></ele><time>2014-5-9T17:56:12Z</time></trkpt>
<trkpt lat="0.263030" lon="0"><ele></ele><time>2014-5-9T17:56:15Z</time></trkpt>
<trkpt lat="0.262659" lon="0"><ele></ele><time>2014-5-9T17:56:18Z</time></trkpt>
<trkpt lat="0.262359" lon="0"><ele></ele><time>2014-5-9T17:56:21Z</time></trkpt>
<trkpt lat="0.262231" lon="0"><ele></ele><time>2014-5-9T17:56:24Z</time></trkpt>
<trkpt lat="0.262192" lon="0"><ele></ele><time>2014-5-9T17:56:27Z</time></trkpt>
<trkpt lat="0.262379" lon="0"><ele></ele><time>2014-5-9T17:56:30Z</time></trkpt>
<trkpt lat="0.262926" lon="0"><ele></ele><time>2014-5-9T17:56:33Z</time></trkpt>
<trkpt lat="0.263034" lon="0"><ele></ele><time>2014-5-9T17:56:36Z</time></trkpt>
<trkpt lat="0.262620" lon="0"><ele></ele><time>2014-5-9T17:56:39Z</time></trkpt>
<trkpt lat="0.262431" lon="0"><ele></ele><time>2014-5-9T17:56:42Z</time></trkpt>
<trkpt lat="0.262553" lon="0"><ele></ele><time>2014-5-9T17:56:45Z</time></trkpt>
<trkpt lat="0.262929" lon="0"><ele></ele><time>2014-5-9T17:56:48Z</time></trkpt>
<trkpt lat="0.263558" lon="0"><ele></ele><time>2014-5-9T17:56:51Z</time></trkpt>
<trkpt lat="0.264149" lon="0"><ele></ele><time>2014-5-9T17:56:54Z</time></trkpt>
<trkpt lat="0.264288" lon="0"><ele></ele><time>2014-5-9T17:56:57Z</time></trkpt>
<trkpt lat="0.264527" lon="0"><ele></ele><time>2014-5-9T17:57:0Z</time></trkpt>
<trkpt lat="0.264637" lon="0"><ele></ele><time>2014-5-9T17:57:3Z</time></trkpt>
<trkpt lat="0.265231" lon="0"><ele></ele><time>2014-5-9T17:57:6Z</time></trkpt>
<trkpt lat="0.266129" lon="0"><ele></ele><time>2014-5-9T17:57:9Z</time></trkpt>
<trkpt lat="0.267566" lon="0"><ele></ele><time>2014-5-9T17:57:12Z</time></trkpt>
<trkpt lat="0.268310" lon="0"><ele></ele><time>2014-5-9T17:57:15Z</time></trkpt>
<trkpt lat="0.268598" lon="0"><ele></ele><time>2014-5-9T17:57:18Z</time></trkpt>
<trkpt lat="0.268770" lon="0"><ele></ele><time>2014-5-9T17:57:21Z</time></trkpt>
<trkpt lat="0.268023" lon="0"><ele></ele><time>2014-5-9T17:57:24Z</time></trkpt>
<trkpt lat="0.267693" lon="0"><ele></ele><time>2014-5-9T17:57:27Z</time></trkpt>
<trkpt lat="0.267405" lon="0"><ele></ele><time>2014-5-9T17:57:30Z</time></trkpt>
<trkpt lat="0.266822" lon="0"><ele></ele><time>2014-5-9T17:57:33Z</time></trkpt>
<trkpt lat="0.266604" lon="0"><ele></ele><time>2014-5-9T17:57:36Z</time></trkpt>
<trkpt lat="0.266549" lon="0"><ele></ele><time>2014-5-9T17:57:39Z</time></trkpt>
<trkpt lat="0.266766" lon="0"><ele></ele><time>2014-5-9T17:57:42Z</time></trkpt>
<trkpt lat="0.266825" lon="0"><ele></ele><time>2014-5-9T17:57:45Z</time></trkpt>
<trkpt lat="0.266431" lon="0"><ele></ele><time>2014-5-9T17:57:48Z</time></trkpt>
<trkpt lat="0.266047" lon="0"><ele></ele><time>2014-5-9T17:57:51Z</time></trkpt>
<trkpt lat="0.265402" lon="0"><ele></ele><time>2014-5-9T17:57:54Z</time></trkpt>
<trkpt lat="0.265053" lon="0"><ele></ele><time>2014-5-9T17:57:57Z</time></trkpt>
<trkpt lat="0.264282" lon="0"><ele></ele><time>2014-5-9T17:58:0Z</time></trkpt>
<trkpt lat="0.263909" lon="0"><ele></ele><time>2014-5-9T17:58:3Z</time></trkpt>
<trkpt lat="0.263651" lon="0"><ele></ele><time>2014-5-9T17:58:6Z</time></trkpt>
<trkpt lat="0.263474" lon="0"><ele></ele><time>2014-5-9T17:58:9Z</time></trkpt>
<trkpt lat="0.263178" lon="0"><ele></ele><time>2014-5-9T17:58:12Z</time></trkpt>
<trkpt lat="0.262676" lon="0"><ele></ele><time>2014-5-9T17:58:15Z</time></trkpt>
<trkpt lat="0.262476" lon="0"><ele></ele><time>2014-5-9T17:58:18Z</time></trkpt>
<trkpt lat="0.261911" lon="0"><ele></ele><time>2014-5-9T17:58:21Z</time></trkpt>
<trkpt lat="0.261421" lon="0"><ele></ele><time>2014-5-9T17:58:24Z</time></trkpt>
<trkpt lat="0.261030" lon="0"><ele></ele><time>2014-5-9T17:58:27Z</time></trkpt>
<trkpt lat="0.260351" lon="0"><ele></ele><time>2014-5-9T17:58:30Z</time></trkpt>
<trkpt lat="0.259402" lon="0"><ele></ele><time>2014-5-9T17:58:33Z</time></trkpt>
<trkpt lat="0.259193" lon="0"><ele></ele><time>2014-5-9T17:58:36Z</time></trkpt>
<trkpt lat="0.258861" lon="0"><ele></ele><time>2014-5-9T17:58:39Z</time></trkpt>
<trkpt lat="0.258720" lon="0"><ele></ele><time>2014-5-9T17:58:42Z</time></trkpt>
<trkpt lat="0.258407" lon="0"><ele></ele><time>2014-5-9T17:58:45Z</time></trkpt>
<trkpt lat="0.258220" lon="0"><ele></ele><time>2014-5-9T17:58:48Z</time></trkpt>
<trkpt lat="0.258079" lon="0"><ele></ele><time>2014-5-9T17:58:51Z</time></trkpt>
<trkpt lat="0.257827" lon="0"><ele></ele><time>2014-5-9T17:58:54Z</time></trkpt>
<trkpt lat="0.257543" lon="0"><ele></ele><time>2014-5-9T17:58:57Z</time></trkpt>
<trkpt lat="0.257116" lon="0"><ele></ele><time>2014-5-9T17:59:0Z</time></trkpt>
<trkpt lat="0.256317" lon="0"><ele></ele><time>2014-5-9T17:59:3Z</time></trkpt>
<trkpt lat="0.255849" lon="0"><ele></ele><time>2014-5-9T17:59:6Z</time></trkpt>
<trkpt lat="0.255816" lon="0"><ele></ele><time>2014-5-9T17:59:9Z</time></trkpt>
<trkpt lat="0.256011" lon="0"><ele></ele><time>2014-5-9T17:59:12Z</time></trkpt>
<trkpt lat="0.256011" lon="0"><ele></ele><time>2014-5-9T17:59:15Z</time></trkpt>
<trkpt lat="0.256521" lon="0"><ele></ele><time>2014-5-9T17:59:18Z</time></trkpt>
<trkpt lat="0.256504" lon="0"><ele></ele><time>2014-5-9T17:59:21Z</time></trkpt>
<trkpt lat="0.256300" lon="0"><ele></ele><time>2014-5-9T17:59:24Z</time></trkpt>
<trkpt lat="0.255819" lon="0"><ele></ele><time>2014-5-9T17:59:27Z</time></trkpt>
<trkpt lat="0.255389" lon="0"><ele></ele><time>2014-5-9T17:59:30Z</time></trkpt>
<trkpt lat="0.254883" lon="0"><ele></ele><time>2014-5-9T17:59:33Z</time></trkpt>
<trkpt lat="0.254324" lon="0"><ele></ele><time>2014-5-9T17:59:36Z</time></trkpt>
<trkpt lat="0.254173" lon="0"><ele></ele><time>2014-5-9T17:59:39Z</time></trkpt>
<trkpt lat="0.253979" lon="0"><ele></ele><time>2014-5-9T17:59:42Z</time></trkpt>
<trkpt lat="0.253797" lon="0"><ele></ele><time>2014-5-9T17:59:45Z</time></trkpt>
<trkpt lat="0.253884" lon="0"><ele></ele><time>2014-5-9T17:59:48Z</time></trkpt>
<trkpt lat="0.254263" lon="0"><ele></ele><time>2014-5-9T17:59:51Z</time></trkpt>
<trkpt lat="0.255041" lon="0"><ele></ele><time>2014-5-9T17:59:54Z</time></trkpt>
<trkpt lat="0.255403" lon="0"><ele></ele><time>2014-5-9T17:59:57Z</time></trkpt>
<trkpt lat="0.255567" lon="0"><ele></ele><time>2014-5-9T18:0:0Z</time></trkpt>
<trkpt lat="0.255585" lon="0"><ele></ele><time>2014-5-9T18:0:3Z</time></trkpt>
<trkpt lat="0.255552" lon="0"><ele></ele><time>2014-5-9T18:0:6Z</time></trkpt>
<trkpt lat="0.255106" lon="0"><ele></ele><time>2014-5-9T18:0:9Z</time></trkpt>
<trkpt lat="0.254233" lon="0"><ele></ele><time>2014-5-9T18:0:12Z</time></trkpt>
<trkpt lat="0.253960" lon="0"><ele></ele><time>2014-5-9T18:0:15Z</time></trkpt>
<trkpt lat="0.254458" lon="0"><ele></ele><time>2014-5-9T18:0:18Z</time></trkpt>
<trkpt lat="0.256066" lon="0"><ele></ele><time>2014-5-9T18:0:21Z</time></trkpt>
<trkpt lat="0.257371" lon="0"><ele></ele><time>2014-5-9T18:0:24Z</time></trkpt>
<trkpt lat="0.257978" lon="0"><ele></ele><time>2014-5-9T18:0:27Z</time></trkpt>
<trkpt lat="0.258899" lon="0"><ele></ele><time>2014-5-9T18:0:30Z</time></trkpt>
<trkpt lat="0.259640" lon="0"><ele></ele><time>2014-5-9T18:0:33Z</time></trkpt>
<trkpt lat="0.260483" lon="0"><ele></ele><time>2014-5-9T18:0:36Z</time></trkpt>
<trkpt lat="0.261211" lon="0"><ele></ele><time>2014-5-9T18:0:39Z</time></trkpt>
<trkpt lat="0.261746" lon="0"><ele></ele><time>2014-5-9T18:0:42Z</time></trkpt>
<trkpt lat="0.261979" lon="0"><ele></ele><time>2014-5-9T18:0:45Z</time></trkpt>
<trkpt lat="0.261847" lon="0"><ele></ele><time>2014-5-9T18:0:48Z</time></trkpt>
<trkpt lat="0.261353" lon="0"><ele></ele><time>2014-5-9T18:0:51Z</time></trkpt>
<trkpt lat="0.261123" lon="0"><ele></ele><time>2014-5-9T18:0:54Z</time></trkpt>
<trkpt lat="0.260327" lon="0"><ele></ele><time>2014-5-9T18:0:57Z</time></trkpt>
<trkpt lat="0.259883" lon="0"><ele></ele><time>2014-5-9T18:1:0Z</time></trkpt>
<trkpt lat="0.261302" lon="0"><ele></ele><time>2014-5-9T18:1:3Z</time></trkpt>
<trkpt lat="0.262449" lon="0"><ele></ele><time>2014-5-9T18:1:6Z</time></trkpt>
<trkpt lat="0.263908" lon="0"><ele></ele><time>2014-5-9T18:1:9Z</time></trkpt>
<trkpt lat="0.265086" lon="0"><ele></ele><time>2014-5-9T18:1:12Z</time></trkpt>
<trkpt lat="0.267032" lon="0"><ele></ele><time>2014-5-9T18:1:15Z</time></trkpt>
<trkpt lat="0.268786" lon="0"><ele></ele><time>2014-5-9T18:1:18Z</time></trkpt>
<trkpt lat="0.269518" lon="0"><ele></ele><time>2014-5-9T18:1:21Z</time></trkpt>
<trkpt lat="0.270152" lon="0"><ele></ele><time>2014-5-9T18:1:24Z</time></trkpt>
<trkpt lat="0.271219" lon="0"><ele></ele><time>2014-5-9T18:1:27Z</time></trkpt>
<trkpt lat="0.272073" lon="0"><ele></ele><time>2014-5-9T18:1:30Z</time></trkpt>
<trkpt lat="0.272988" lon="0"><ele></ele><time>2014-5-9T18:1:33Z</time></trkpt>
<trkpt lat="0.273368" lon="0"><ele></ele><time>2014-5-9T18:1:36Z</time></trkpt>
<trkpt lat="0.273483" lon="0"><ele></ele><time>2014-5-9T18:1:39Z</time></trkpt>
<trkpt lat="0.273473" lon="0"><ele></ele><time>2014-5-9T18:1:42Z</time></trkpt>
<trkpt lat="0.273839" lon="0"><ele></ele><time>2014-5-9T18:1:45Z</time></trkpt>
<trkpt lat="0.274440" lon="0"><ele></ele><time>2014-5-9T18:1:48Z</time></trkpt>
<trkpt lat="0.275048" lon="0"><ele></ele><time>2014-5-9T18:1:51Z</time></trkpt>
<trkpt lat="0.275386" lon="0"><ele></ele><time>2014-5-9T18:1:54Z</time></trkpt>
<trkpt lat="0.276945" lon="0"><ele></ele><time>2014-5-9T18:1:57Z</time></trkpt>
<trkpt lat="0.277321" lon="0"><ele></ele><time>2014-5-9T18:2:0Z</time></trkpt>
<trkpt lat="0.277182" lon="0"><ele></ele><time>2014-5-9T18:2:3Z</time></trkpt>
<trkpt lat="0.276973" lon="0"><ele></ele><time>2014-5-9T18:2:6Z</time></trkpt>
<trkpt lat="0.277086" lon="0"><ele></ele><time>2014-5-9T18:2:9Z</time></trkpt>
<trkpt lat="0.276596" lon="0"><ele></ele><time>2014-5-9T18:2:12Z</time></trkpt>
<trkpt lat="0.276299" lon="0"><ele></ele><time>2014-5-9T18:2:15Z</time></trkpt>
<trkpt lat="0.276606" lon="0"><ele></ele><time>2014-5-9T18:2:18Z</time></trkpt>
<trkpt lat="0.277483" lon="0"><ele></ele><time>2014-5-9T18:2:21Z</time></trkpt>
<trkpt lat="0.277875" lon="0"><ele></ele><time>2014-5-9T18:2:24Z</time></trkpt>
<trkpt lat="0.278060" lon="0"><ele></ele><time>2014-5-9T18:2:27Z</time></trkpt>
<trkpt lat="0.277973" lon="0"><ele></ele><time>2014-5-9T18:2:30Z</time></trkpt>
<trkpt lat="0.279016" lon="0"><ele></ele><time>2014-5-9T18:2:33Z</time></trkpt>
<trkpt lat="0.279568" lon="0"><ele></ele><time>2014-5-9T18:2:36Z</time></trkpt>
<trkpt lat="0.280446" lon="0"><ele></ele><time>2014-5-9T18:2:39Z</time></trkpt>
<trkpt lat="0.280913" lon="0"><ele></ele><time>2014-5-9T18:2:42Z</time></trkpt>
<trkpt lat="0.281295" lon="0"><ele></ele><time>2014-5-9T18:2:45Z</time></trkpt>
<trkpt lat="0.281662" lon="0"><ele></ele><time>2014-5-9T18:2:48Z</time></trkpt>
<trkpt lat="0.281850" lon="0"><ele></ele><time>2014-5-9T18:2:51Z</time></trkpt>
<trkpt lat="0.282340" lon="0"><ele></ele><time>2014-5-9T18:2:54Z</time></trkpt>
<trkpt lat="0.282803" lon="0"><ele></ele><time>2014-5-9T18:2:57Z</time></trkpt>
<trkpt lat="0.283138" lon="0"><ele></ele><time>2014-5-9T18:3:0Z</time></trkpt>
<trkpt lat="0.283632" lon="0"><ele></ele><time>2014-5-9T18:3:3Z</time></trkpt>
<trkpt lat="0.283871" lon="0"><ele></ele><time>2014-5-9T18:3:6Z</time></trkpt>
<trkpt lat="0.284061" lon="0"><ele></ele><time>2014-5-9T18:3:9Z</time></trkpt>
<trkpt lat="0.284801" lon="0"><ele></ele><time>2014-5-9T18:3:12Z</time></trkpt>
<trkpt lat="0.286051" lon="0"><ele></ele><time>2014-5-9T18:3:15Z</time></trkpt>
<trkpt lat="0.287377" lon="0"><ele></ele><time>2014-5-9T18:3:18Z</time></trkpt>
<trkpt lat="0.287997" lon="0"><ele></ele><time>2014-5-9T18:3:21Z</time></trkpt>
<trkpt lat="0.288422" lon="0"><ele></ele><time>2014-5-9T18:3:24Z</time></trkpt>
<trkpt lat="0.288893" lon="0"><ele></ele><time>2014-5-9T18:3:27Z</time></trkpt>
<trkpt lat="0.289135" lon="0"><ele></ele><time>2014-5-9T18:3:30Z</time></trkpt>
<trkpt lat="0.289212" lon="0"><ele></ele><time>2014-5-9T18:3:33Z</time></trkpt>
<trkpt lat="0.288717" lon="0"><ele></ele><time>2014-5-9T18:3:36Z</time></trkpt>
<trkpt lat="0.288656" lon="0"><ele></ele><time>2014-5-9T18:3:39Z</time></trkpt>
<trkpt lat="0.289121" lon="0"><ele></ele><time>2014-5-9T18:3:42Z</time></trkpt>
<trkpt lat="0.289370" lon="0"><ele></ele><time>2014-5-9T18:3:45Z</time></trkpt>
<trkpt lat="0.289504" lon="0"><ele></ele><time>2014-5-9T18:3:48Z</time></trkpt>
<trkpt lat="0.289664" lon="0"><ele></ele><time>2014-5-9T18:3:51Z</time></trkpt>
<trkpt lat="0.289631" lon="0"><ele></ele><time>2014-5-9T18:3:54Z</time></trkpt>
<trkpt lat="0.289469" lon="0"><ele></ele><time>2014-5-9T18:3:57Z</time></trkpt>
<trkpt lat="0.290025" lon="0"><ele></ele><time>2014-5-9T18:4:0Z</time></trkpt>
<trkpt lat="0.290571" lon="0"><ele></ele><time>2014-5-9T18:4:3Z</time></trkpt>
<trkpt lat="0.290605" lon="0"><ele></ele><time>2014-5-9T18:4:6Z</time></trkpt>
<trkpt lat="0.290104" lon="0"><ele></ele><time>2014-5-9T18:4:9Z</time></trkpt>
<trkpt lat="0.289758" lon="0"><ele></ele><time>2014-5-9T18:4:12Z</time></trkpt>
<trkpt lat="0.288818" lon="0"><ele></ele><time>2014-5-9T18:4:15Z</time></trkpt>
<trkpt lat="0.289612" lon="0"><ele></ele><time>2014-5-9T18:4:18Z</time></trkpt>
<trkpt lat="0.289897" lon="0"><ele></ele><time>2014-5-9T18:4:21Z</time></trkpt>
<trkpt lat="0.290286" lon="0"><ele></ele><time>2014-5-9T18:4:24Z</time></trkpt>
<trkpt lat="0.290546" lon="0"><ele></ele><time>2014-5-9T18:4:27Z</time></trkpt>
<trkpt lat="0.290731" lon="0"><ele></ele><time>2014-5-9T18:4:30Z</time></trkpt>
<trkpt lat="0.290576" lon="0"><ele></ele><time>2014-5-9T18:4:33Z</time></trkpt>
<trkpt lat="0.290215" lon="0"><ele></ele><time>2014-5-9T18:4:36Z</time></trkpt>
<trkpt lat="0.290291" lon="0"><ele></ele><time>2014-5-9T18:4:39Z</time></trkpt>
<trkpt lat="0.290431" lon="0"><ele></ele><time>2014-5-9T18:4:42Z</time></trkpt>
<trkpt lat="0.289861" lon="0"><ele></ele><time>2014-5-9T18:4:45Z</time></trkpt>
<trkpt lat="0.288558" lon="0"><ele></ele><time>2014-5-9T18:4:48Z</time></trkpt>
<trkpt lat="0.288016" lon="0"><ele></ele><time>2014-5-9T18:4:51Z</time></trkpt>
<trkpt lat="0.287527" lon="0"><ele></ele><time>2014-5-9T18:4:54Z</time></trkpt>
<trkpt lat="0.286925" lon="0"><ele></ele><time>2014-5-9T18:4:57Z</time></trkpt>
<trkpt lat="0.286366" lon="0"><ele></ele><time>2014-5-9T18:5:0Z</time></trkpt>
<trkpt lat="0.285389" lon="0"><ele></ele><time>2014-5-9T18:5:3Z</time></trkpt>
<trkpt lat="0.284795" lon="0"><ele></ele><time>2014-5-9T18:5:6Z</time></trkpt>
<trkpt lat="0.283204" lon="0"><ele></ele><time>2014-5-9T18:5:9Z</time></trkpt>
<trkpt lat="0.282917" lon="0"><ele></ele><time>2014-5-9T18:5:12Z</time></trkpt>
<trkpt lat="0.282830" lon="0"><ele></ele><time>2014-5-9T18:5:15Z</time></trkpt>
<trkpt lat="0.282622" lon="0"><ele></ele><time>2014-5-9T18:5:18Z</time></trkpt>
<trkpt lat="0.282613" lon="0"><ele></ele><time>2014-5-9T18:5:21Z</time></trkpt>
<trkpt lat="0.282463" lon="0"><ele></ele><time>2014-5-9T18:5:24Z</time></trkpt>
<trkpt lat="0.281119" lon="0"><ele></ele><time>2014-5-9T18:5:27Z</time></trkpt>
<trkpt lat="0.280140" lon="0"><ele></ele><time>2014-5-9T18:5:30Z</time></trkpt>
<trkpt lat="0.279191" lon="0"><ele></ele><time>2014-5-9T18:5:33Z</time></trkpt>
<trkpt lat="0.277858" lon="0"><ele></ele><time>2014-5-9T18:5:36Z</time></trkpt>
<trkpt lat="0.278561" lon="0"><ele></ele><time>2014-5-9T18:5:39Z</time></trkpt>
<trkpt lat="0.280054" lon="0"><ele></ele><time>2014-5-9T18:5:42Z</time></trkpt>
<trkpt lat="0.280073" lon="0"><ele></ele><time>2014-5-9T18:5:45Z</time></trkpt>
<trkpt lat="0.279897" lon="0"><ele></ele><time>2014-5-9T18:5:48Z</time></trkpt>
<trkpt lat="0.279425" lon="0"><ele></ele><time>2014-5-9T18:5:51Z</time></trkpt>
<trkpt lat="0.279223" lon="0"><ele></ele><time>2014-5-9T18:5:54Z</time></trkpt>
<trkpt lat="0.279027" lon="0"><ele></ele><time>2014-5-9T18:5:57Z</time></trkpt>
<trkpt lat="0.278769" lon="0"><ele></ele><time>2014-5-9T18:6:0Z</time></trkpt>
<trkpt lat="0.278610" lon="0"><ele></ele><time>2014-5-9T18:6:3Z</time></trkpt>
<trkpt lat="0.278980" lon="0"><ele></ele><time>2014-5-9T18:6:6Z</time></trkpt>
<trkpt lat="0.279541" lon="0"><ele></ele><time>2014-5-9T18:6:9Z</time></trkpt>
<trkpt lat="0.279475" lon="0"><ele></ele><time>2014-5-9T18:6:12Z</time></trkpt>
<trkpt lat="0.279336" lon="0"><ele></ele><time>2014-5-9T18:6:15Z</time></trkpt>
<trkpt lat="0.279224" lon="0"><ele></ele><time>2014-5-9T18:6:18Z</time></trkpt>
<trkpt lat="0.279566" lon="0"><ele></ele><time>2014-5-9T18:6:21Z</time></trkpt>
<trkpt lat="0.279668" lon="0"><ele></ele><time>2014-5-9T18:6:24Z</time></trkpt>
<trkpt lat="0.279575" lon="0"><ele></ele><time>2014-5-9T18:6:27Z</time></trkpt>
<trkpt lat="0.279806" lon="0"><ele></ele><time>2014-5-9T18:6:30Z</time></trkpt>
<trkpt lat="0.280304" lon="0"><ele></ele><time>2014-5-9T18:6:33Z</time></trkpt>
<trkpt lat="0.280384" lon="0"><ele></ele><time>2014-5-9T18:6:36Z</time></trkpt>
<trkpt lat="0.280241" lon="0"><ele></ele><time>2014-5-9T18:6:39Z</time></trkpt>
<trkpt lat="0.279302" lon="0"><ele></ele><time>2014-5-9T18:6:42Z</time></trkpt>
<trkpt lat="0.278755" lon="0"><ele></ele><time>2014-5-9T18:6:45Z</time></trkpt>
<trkpt lat="0.278935" lon="0"><ele></ele><time>2014-5-9T18:6:48Z</time></trkpt>
<trkpt lat="0.279218" lon="0"><ele></ele><time>2014-5-9T18:6:51Z</time></trkpt>
<trkpt lat="0.279859" lon="0"><ele></ele><time>2014-5-9T18:6:54Z</time></trkpt>
<trkpt lat="0.280669" lon="0"><ele></ele><time>2014-5-9T18:6:57Z</time></trkpt>
<trkpt lat="0.281210" lon="0"><ele></ele><time>2014-5-9T18:7:0Z</time></trkpt>
<trkpt lat="0.281611" lon="0"><ele></ele><time>2014-5-9T18:7:3Z</time></trkpt>
<trkpt lat="0.282346" lon="0"><ele></ele><time>2014-5-9T18:7:6Z</time></trkpt>
<trkpt lat="0.282986" lon="0"><ele></ele><time>2014-5-9T18:7:9Z</time></trkpt>
<trkpt lat="0.283705" lon="0"><ele></ele><time>2014-5-9T18:7:12Z</time></trkpt>
<trkpt lat="0.284222" lon="0"><ele></ele><time>2014-5-9T18:7:15Z</time></trkpt>
<trkpt lat="0.284484" lon="0"><ele></ele><time>2014-5-9T18:7:18Z</time></trkpt>
<trkpt lat="0.284601" lon="0"><ele></ele><time>2014-5-9T18:7:21Z</time></trkpt>
<trkpt lat="0.284834" lon="0"><ele></ele><time>2014-5-9T18:7:24Z</time></trkpt>
<trkpt lat="0.284844" lon="0"><ele></ele><time>2014-5-9T18:7:27Z</time></trkpt>
<trkpt lat="0.284459" lon="0"><ele></ele><time>2014-5-9T18:7:30Z</time></trkpt>
<trkpt lat="0.283932" lon="0"><ele></ele><time>2014-5-9T18:7:33Z</time></trkpt>
<trkpt lat="0.283567" lon="0"><ele></ele><time>2014-5-9T18:7:36Z</time></trkpt>
<trkpt lat="0.282872" lon="0"><ele></ele><time>2014-5-9T18:7:39Z</time></trkpt>
<trkpt lat="0.282595" lon="0"><ele></ele><time>2014-5-9T18:7:42Z</time></trkpt>
<trkpt lat="0.282193" lon="0"><ele></ele><time>2014-5-9T18:7:45Z</time></trkpt>
<trkpt lat="0.281634" lon="0"><ele></ele><time>2014-5-9T18:7:48Z</time></trkpt>
<trkpt lat="0.281568" lon="0"><ele></ele><time>2014-5-9T18:7:51Z</time></trkpt>
<trkpt lat="0.281745" lon="0"><ele></ele><time>2014-5-9T18:7:54Z</time></trkpt>
<trkpt lat="0.282365" lon="0"><ele></ele><time>2014-5-9T18:7:57Z</time></trkpt>
<trkpt lat="0.282924" lon="0"><ele></ele><time>2014-5-9T18:8:0Z</time></trkpt>
<trkpt lat="0.283433" lon="0"><ele></ele><time>2014-5-9T18:8:3Z</time></trkpt>
<trkpt lat="0.283931" lon="0"><ele></ele><time>2014-5-9T18:8:6Z</time></trkpt>
<trkpt lat="0.284131" lon="0"><ele></ele><time>2014-5-9T18:8:9Z</time></trkpt>
<trkpt lat="0.284615" lon="0"><ele></ele><time>2014-5-9T18:8:12Z</time></trkpt>
<trkpt lat="0.285235" lon="0"><ele></ele><time>2014-5-9T18:8:15Z</time></trkpt>
<trkpt lat="0.285823" lon="0"><ele></ele><time>2014-5-9T18:8:18Z</time></trkpt>
<trkpt lat="0.286613" lon="0"><ele></ele><time>2014-5-9T18:8:21Z</time></trkpt>
<trkpt lat="0.287322" lon="0"><ele></ele><time>2014-5-9T18:8:24Z</time></trkpt>
<trkpt lat="0.287595" lon="0"><ele></ele><time>2014-5-9T18:8:27Z</time></trkpt>
<trkpt lat="0.287453" lon="0"><ele></ele><time>2014-5-9T18:8:30Z</time></trkpt>
<trkpt lat="0.287475" lon="0"><ele></ele><time>2014-5-9T18:8:33Z</time></trkpt>
<trkpt lat="0.287739" lon="0"><ele></ele><time>2014-5-9T18:8:36Z</time></trkpt>
<trkpt lat="0.288076" lon="0"><ele></ele><time>2014-5-9T18:8:39Z</time></trkpt>
<trkpt lat="0.288610" lon="0"><ele></ele><time>2014-5-9T18:8:42Z</time></trkpt>
<trkpt lat="0.288848" lon="0"><ele></ele><time>2014-5-9T18:8:45Z</time></trkpt>
<trkpt lat="0.289111" lon="0"><ele></ele><time>2014-5-9T18:8:48Z</time></trkpt>
<trkpt lat="0.289177" lon="0"><ele></ele><time>2014-5-9T18:8:51Z</time></trkpt>
</trkseg></trk></gpx>